# Wetter Temperatur Luftdruck Luftfeuchtigkeit Sichtweite Windgeschwindigkeit Windrichtung Zeit
1 Clouds 4 999 79 10000 8.2 250 09:59 29.01.2020
2 Clouds 4 999 79 10000 8.2 250 09:40 29.01.2020
3 Clouds 4 999 79 10000 8.2 250 09:21 29.01.2020
4 Clouds 4 998 79 10000 7.7 250 08:56 29.01.2020
5 Clouds 4 998 79 10000 7.7 250 08:56 29.01.2020
6 Clouds 4 998 80 10000 7.7 250 08:38 29.01.2020
7 Clouds 4 998 80 10000 7.7 250 08:18 29.01.2020
8 Clouds 4 998 76 10000 8.2 250 07:43 29.01.2020
9 Clouds 4 997 80 10000 8.2 260 07:24 29.01.2020
10 Clouds 4 997 80 10000 6.2 250 06:39 29.01.2020
11 Clouds 4 997 80 10000 6.2 250 06:21 29.01.2020
12 Clouds 4 997 80 10000 6.2 250 05:59 29.01.2020
13 Clouds 4 996 80 10000 8.2 270 05:39 29.01.2020
14 Clouds 4 996 80 10000 8.2 270 05:21 29.01.2020
15 Clouds 4 996 80 10000 8.2 260 04:37 29.01.2020
16 Clouds 4 994 80 10000 9.3 240 02:43 29.01.2020
17 Clouds 4 994 80 10000 9.3 240 02:18 29.01.2020
18 Rain 3 994 93 8000 9.3 240 00:42 29.01.2020
19 Rain 3 994 93 8000 9.3 240 00:23 29.01.2020
20 Rain 3 994 86 10000 9.8 250 23:56 28.01.2020
21 Rain 3 994 86 10000 10.3 250 23:37 28.01.2020
22 Rain 4 993 80 10000 11.3 250 23:18 28.01.2020
23 Rain 4 993 67 10000 9.3 250 22:40 28.01.2020
24 Rain 4 993 67 10000 9.3 250 22:21 28.01.2020
25 Clouds 4 993 75 10000 8.2 250 21:42 28.01.2020
26 Clouds 4 993 75 10000 8.2 250 21:42 28.01.2020
27 Clouds 4 993 75 10000 8.2 250 21:22 28.01.2020
28 Clouds 4 993 75 10000 8.2 250 20:58 28.01.2020
29 Clouds 4 993 75 10000 8.2 250 20:40 28.01.2020
30 Clouds 4 993 75 10000 8.2 250 20:21 28.01.2020
31 Clouds 5 992 80 10000 8.2 240 19:39 28.01.2020
32 Clouds 5 992 80 10000 8.2 240 19:20 28.01.2020
33 Clouds 5 992 86 10000 7.2 230 18:58 28.01.2020
34 Rain 5 991 86 10000 6.7 230 18:40 28.01.2020
35 Rain 5 991 86 10000 6.7 230 18:21 28.01.2020
36 Rain 5 991 86 10000 7.2 240 17:57 28.01.2020
37 Rain 5 991 86 10000 7.2 250 17:37 28.01.2020
38 Rain 5 990 86 10000 9.8 270 17:19 28.01.2020
39 Rain 5 990 86 10000 9.8 270 16:55 28.01.2020
40 Rain 5 990 86 10000 8.7 250 16:37 28.01.2020
41 Rain 5 990 86 10000 8.7 250 16:19 28.01.2020
42 Rain 5 990 87 10000 6.7 240 15:44 28.01.2020
43 Rain 6 989 87 10000 5.7 210 15:19 28.01.2020
44 Rain 6 989 81 10000 4.1 190 14:57 28.01.2020
45 Rain 7 990 75 10000 6.2 200 14:38 28.01.2020
46 Clouds 7 990 75 10000 4.6 200 14:18 28.01.2020
47 Clouds 8 990 75 10000 5.1 200 13:40 28.01.2020
48 Clouds 8 990 75 10000 5.1 200 13:22 28.01.2020
49 Clouds 9 991 70 10000 6.7 210 12:43 28.01.2020
50 Clouds 9 991 70 10000 6.7 210 12:24 28.01.2020
51 Clouds 8 991 81 10000 6.7 210 11:56 28.01.2020
52 Clouds 8 992 81 10000 7.2 220 11:38 28.01.2020
53 Clouds 8 992 81 10000 7.2 220 11:19 28.01.2020
54 Clouds 7 992 87 10000 6.7 210 10:41 28.01.2020
55 Clouds 7 992 87 10000 6.7 210 10:23 28.01.2020
56 Clouds 6 993 93 10000 5.7 200 09:58 28.01.2020
57 Clouds 6 993 93 10000 5.7 200 09:38 28.01.2020
58 Rain 6 993 93 10000 5.7 200 09:19 28.01.2020
59 Rain 6 993 93 10000 6.2 210 08:42 28.01.2020
60 Rain 6 993 93 10000 6.2 210 08:21 28.01.2020
61 Rain 6 994 93 10000 5.1 190 07:40 28.01.2020
62 Rain 6 994 93 10000 4.6 180 06:58 28.01.2020
63 Rain 6 995 87 10000 5.7 180 06:40 28.01.2020
64 Rain 6 995 87 10000 5.7 180 06:22 28.01.2020
65 Clouds 6 995 81 10000 5.1 170 05:35 28.01.2020
66 Clouds 6 997 87 10000 4.6 180 04:40 28.01.2020
67 Clouds 6 998 87 10000 4.1 180 03:41 28.01.2020
68 Clouds 6 999 87 10000 5.1 180 02:43 28.01.2020
69 Clouds 6 999 87 10000 5.1 180 02:24 28.01.2020
70 Clouds 6 999 87 10000 4.6 180 01:50 28.01.2020
71 Rain 6 1001 87 10000 4.6 170 00:58 28.01.2020
72 Rain 6 1001 93 10000 5.1 170 00:39 28.01.2020
73 Rain 6 1001 93 10000 5.1 170 00:19 28.01.2020
74 Rain 6 1002 93 10000 5.1 170 23:42 27.01.2020
75 Rain 6 1002 93 10000 5.7 180 23:18 27.01.2020
76 Rain 6 1003 87 10000 5.7 180 22:44 27.01.2020
77 Rain 6 1003 87 10000 5.1 180 22:20 27.01.2020
78 Rain 6 1003 87 10000 5.1 180 22:20 27.01.2020
79 Rain 7 1003 87 10000 5.1 180 22:20 27.01.2020
80 Rain 7 1004 87 10000 5.7 180 21:57 27.01.2020
81 Rain 7 1004 81 10000 6.2 190 21:38 27.01.2020
82 Rain 7 1004 81 10000 6.2 190 21:38 27.01.2020
83 Rain 7 1004 81 10000 6.2 190 21:19 27.01.2020
84 Clouds 7 1004 75 10000 5.1 180 20:56 27.01.2020
85 Clouds 8 1005 70 10000 5.1 180 20:37 27.01.2020
86 Clouds 8 1005 70 10000 5.1 180 20:19 27.01.2020
87 Clouds 8 1006 75 10000 4.1 180 19:42 27.01.2020
88 Clouds 8 1006 75 10000 4.1 180 19:24 27.01.2020
89 Clouds 8 1006 75 10000 4.6 200 19:00 27.01.2020
90 Clouds 8 1007 75 10000 4.1 200 18:39 27.01.2020
91 Clouds 8 1007 75 10000 4.1 200 18:39 27.01.2020
92 Clouds 8 1007 75 10000 4.1 200 18:21 27.01.2020
93 Clouds 8 1007 75 10000 4.1 200 17:57 27.01.2020
94 Clouds 8 1007 70 10000 4.6 200 17:37 27.01.2020
95 Clouds 8 1007 70 10000 4.6 200 17:18 27.01.2020
96 Clouds 8 1007 70 10000 4.6 200 16:55 27.01.2020
97 Clouds 8 1008 70 10000 5.7 200 16:36 27.01.2020
98 Clouds 9 1008 70 10000 5.7 200 16:18 27.01.2020
99 Clouds 9 1008 70 10000 6.2 210 15:41 27.01.2020
100 Clouds 9 1008 70 10000 6.2 210 15:19 27.01.2020
101 Clouds 9 1008 76 10000 5.7 210 14:56 27.01.2020
102 Clouds 9 1009 76 10000 4.6 220 14:37 27.01.2020
103 Clouds 9 1009 76 10000 4.6 220 14:37 27.01.2020
104 Clouds 9 1009 76 10000 4.6 220 14:19 27.01.2020
105 Clouds 9 1010 81 10000 4.1 210 13:42 27.01.2020
106 Clouds 9 1010 81 10000 4.1 210 13:22 27.01.2020
107 Clouds 9 1010 75 10000 5.1 210 12:57 27.01.2020
108 Clouds 9 1010 75 10000 5.1 210 12:57 27.01.2020
109 Clouds 8 1010 75 10000 5.7 210 12:39 27.01.2020
110 Clouds 8 1010 75 10000 5.7 210 12:20 27.01.2020
111 Clouds 7 1011 87 10000 3.1 190 11:42 27.01.2020
112 Clouds 6 1011 87 10000 3.1 190 11:22 27.01.2020
113 Clouds 5 1011 86 10000 3.1 190 10:56 27.01.2020
114 Clouds 5 1011 86 10000 3.1 200 10:37 27.01.2020
115 Clouds 4 1011 86 10000 3.1 200 10:18 27.01.2020
116 Clouds 3 1012 93 10000 3.1 190 09:39 27.01.2020
117 Clouds 3 1012 93 10000 3.1 190 09:19 27.01.2020
118 Clouds 2 1012 86 8000 2.6 190 08:55 27.01.2020
119 Clouds 2 1012 93 7000 2.1 170 08:37 27.01.2020
120 Clouds 2 1012 93 7000 2.1 170 08:18 27.01.2020
121 Clouds 1 1012 93 9000 2.1 180 07:45 27.01.2020
122 Clouds 1 1012 93 9000 2.1 180 07:25 27.01.2020
123 Clouds 1 1013 100 8000 1.5 180 06:37 27.01.2020
124 Clouds 1 1013 100 8000 2.6 190 05:43 27.01.2020
125 Clouds 1 1014 100 8000 2.1 190 04:37 27.01.2020
126 Clouds 1 1014 92 10000 2.6 200 03:35 27.01.2020
127 Clouds 1 1014 91 10000 1.5 150 01:55 27.01.2020
128 Clouds 1 1015 89 10000 1.5 140 01:27 27.01.2020
129 Clouds 1 1015 89 10000 2.6 140 00:41 27.01.2020
130 Clouds 1 1015 89 10000 2.6 140 00:21 27.01.2020
131 Clouds 1 1015 89 10000 2.6 130 23:44 26.01.2020
132 Clouds 1 1016 84 10000 2.6 140 23:26 26.01.2020
133 Clouds 0 1016 84 10000 2.1 140 22:59 26.01.2020
134 Clouds 0 1016 84 10000 2.1 140 22:39 26.01.2020
135 Mist 0 1016 84 5000 2.6 140 22:20 26.01.2020
136 Mist 0 1016 84 5000 2.6 140 21:58 26.01.2020
137 Mist 0 1017 84 5000 2.6 140 21:39 26.01.2020
138 Mist 0 1017 84 5000 2.6 140 21:21 26.01.2020
139 Mist 0 1017 84 5000 2.6 140 21:21 26.01.2020
140 Mist 0 1017 84 5000 2.6 150 20:58 26.01.2020
141 Mist 0 1017 84 4500 2.6 140 20:38 26.01.2020
142 Mist 0 1017 80 4500 2.6 140 20:19 26.01.2020
143 Mist 0 1017 80 4500 3.1 150 19:59 26.01.2020
144 Mist 0 1017 80 4500 2.1 140 19:39 26.01.2020
145 Mist 0 1017 80 4500 2.1 140 19:21 26.01.2020
146 Mist 0 1017 80 4500 1.5 160 18:56 26.01.2020
147 Mist 0 1017 80 4500 2.1 140 18:38 26.01.2020
148 Mist 0 1017 80 4500 2.1 140 18:20 26.01.2020
149 Mist 0 1017 80 4000 1.5 150 17:55 26.01.2020
150 Mist 0 1017 80 3500 1.5 200 17:37 26.01.2020
151 Mist 0 1017 64 3500 1.5 200 17:18 26.01.2020
152 Mist 1 1018 64 4000 2.1 190 16:57 26.01.2020
153 Mist 1 1018 64 4200 2.1 200 16:39 26.01.2020
154 Mist 1 1018 64 4200 2.1 200 16:19 26.01.2020
155 Clouds 1 1017 90 0 0.45 202 15:45 26.01.2020
156 Clouds 1 1017 90 0 1.79 202 15:22 26.01.2020
157 Clouds 1 1019 95 0 2.68 198 14:58 26.01.2020
158 Clouds 1 1017 90 0 0.45 270 14:39 26.01.2020
159 Clouds 1 1019 95 0 2.68 229 14:19 26.01.2020
160 Clouds 1 1017 90 0 0.89 225 13:41 26.01.2020
161 Clouds 1 994 96 0 2.14 199 13:20 26.01.2020
162 Clouds 1 1018 89 0 0.89 202 12:57 26.01.2020
163 Clouds 1 1018 90 0 0.89 202 12:38 26.01.2020
164 Clouds 0 1018 89 0 1.79 202 12:20 26.01.2020
165 Clouds 0 1018 90 0 0.45 247 11:57 26.01.2020
166 Clouds 0 1018 90 0 0.45 180 11:37 26.01.2020
167 Mist 0 1020 59 5000 3.1 240 11:18 26.01.2020
168 Mist 0 1020 59 5000 3.1 240 10:57 26.01.2020
169 Mist 0 1020 59 5000 3.1 240 10:38 26.01.2020
170 Mist 0 1020 59 5000 3.1 240 10:19 26.01.2020
171 Mist 0 1020 100 5000 3.6 250 09:56 26.01.2020
172 Mist 0 1020 100 5000 3.6 260 09:38 26.01.2020
173 Mist 0 1020 100 5000 3.6 260 09:19 26.01.2020
174 Mist -1 1019 100 4500 3.6 280 08:42 26.01.2020
175 Mist -1 1019 100 4500 3.6 280 08:22 26.01.2020
176 Mist -1 1019 100 4000 4.1 260 07:50 26.01.2020
177 Mist -1 1019 100 4000 3.1 260 07:27 26.01.2020
178 Mist -1 1019 100 3000 3.6 230 06:55 26.01.2020
179 Mist -1 1019 100 2700 2.6 210 06:25 26.01.2020
180 Mist -1 1020 92 2800 2.6 190 05:29 26.01.2020
181 Mist -1 1020 100 2800 3.6 190 04:43 26.01.2020
182 Clouds 0 1020 61 6000 3.1 220 02:38 26.01.2020
183 Drizzle 0 1021 66 4800 3.1 210 01:46 26.01.2020
184 Drizzle 0 1021 70 4800 3.1 210 01:23 26.01.2020
185 Drizzle 0 1021 70 4000 2.1 200 00:44 26.01.2020
186 Drizzle 0 1021 70 4000 2.1 200 00:26 26.01.2020
187 Clouds 1 1020 90 0 1.79 180 23:40 25.01.2020
188 Clouds 1 1020 90 0 1.79 180 23:21 25.01.2020
189 Clouds 1 1020 89 0 1.34 157 22:58 25.01.2020
190 Clouds 1 1020 89 0 0.89 202 22:39 25.01.2020
191 Clouds 1 1020 89 0 2.24 202 22:18 25.01.2020
192 Clouds 1 1020 89 0 1.79 180 21:56 25.01.2020
193 Clouds 1 1020 89 0 1.79 202 21:38 25.01.2020
194 Clouds 1 1020 89 0 1.34 157 21:19 25.01.2020
195 Clouds 1 1021 89 0 1.34 202 20:43 25.01.2020
196 Clouds 1 1021 89 0 1.79 157 20:25 25.01.2020
197 Clouds 2 1021 72 0 1.76 229 19:55 25.01.2020
198 Clouds 1 997 99 0 1.81 224 19:37 25.01.2020
199 Clouds 1 1020 90 0 1.79 202 19:18 25.01.2020
200 Clouds 2 1020 90 0 1.34 180 18:41 25.01.2020
201 Clouds 2 1020 89 0 1.34 202 18:21 25.01.2020
202 Clouds 2 1020 89 0 1.76 229 17:58 25.01.2020
203 Clouds 2 997 99 0 1.81 224 17:38 25.01.2020
204 Clouds 2 997 99 0 1.58 265 17:18 25.01.2020
205 Clouds 2 997 99 0 1.58 265 16:42 25.01.2020
206 Clouds 2 1022 95 0 2.24 219 16:23 25.01.2020
207 Clouds 2 997 99 0 1.58 265 15:58 25.01.2020
208 Clouds 2 1021 95 0 2.68 224 15:39 25.01.2020
209 Clouds 2 997 99 0 1.58 265 15:20 25.01.2020
210 Clouds 2 1020 90 0 0.45 202 14:43 25.01.2020
211 Clouds 2 1020 90 0 0.45 202 14:19 25.01.2020
212 Clouds 2 1021 90 0 2.24 225 13:54 25.01.2020
213 Clouds 2 1021 90 0 0.89 180 13:36 25.01.2020
214 Clouds 2 1021 90 0 1.34 180 13:18 25.01.2020
215 Clouds 2 997 99 0 2.77 247 13:18 25.01.2020
216 Clouds 2 1022 100 6000 4.1 230 12:41 25.01.2020
217 Clouds 2 1022 100 6000 4.1 230 12:20 25.01.2020
218 Clouds 1 1022 100 6000 3.6 230 11:40 25.01.2020
219 Clouds 1 1022 100 6000 3.6 230 11:21 25.01.2020
220 Drizzle 1 1022 100 5000 4.1 230 10:56 25.01.2020
221 Drizzle 1 1022 100 5000 4.1 220 10:38 25.01.2020
222 Drizzle 1 1021 72 4000 3.6 240 10:19 25.01.2020
223 Drizzle 1 1021 72 3500 4.1 250 09:40 25.01.2020
224 Drizzle 1 1021 72 3500 4.1 250 09:20 25.01.2020
225 Drizzle 1 1021 72 3200 3.6 240 08:43 25.01.2020
226 Drizzle 0 1021 71 3200 3.6 240 08:21 25.01.2020
227 Drizzle 0 1021 71 2800 4.6 240 07:42 25.01.2020
228 Drizzle 0 1021 71 2800 4.6 240 07:42 25.01.2020
229 Drizzle 0 1021 71 2800 4.1 240 06:45 25.01.2020
230 Drizzle 0 1020 71 2400 2.6 210 06:27 25.01.2020
231 Drizzle 0 1020 71 2300 3.1 230 05:45 25.01.2020
232 Drizzle 0 1020 69 3300 4.1 240 04:26 25.01.2020
233 Drizzle 0 1020 69 3000 4.6 250 03:50 25.01.2020
234 Drizzle 0 1021 69 2800 4.1 240 02:53 25.01.2020
235 Drizzle 0 1021 63 2800 4.6 240 01:59 25.01.2020
236 Drizzle 0 1021 63 2800 4.6 240 01:59 25.01.2020
237 Drizzle 0 1021 63 2800 3.6 240 01:37 25.01.2020
238 Mist 0 1021 70 3000 3.6 250 00:43 25.01.2020
239 Mist 0 1021 70 3000 3.1 270 00:24 25.01.2020
240 Mist 0 1021 70 3000 3.6 260 23:57 24.01.2020
241 Mist 0 1021 70 3000 3.6 240 23:38 24.01.2020
242 Mist 0 1021 70 3000 3.6 240 23:20 24.01.2020
243 Mist 0 1021 70 3500 4.1 250 22:42 24.01.2020
244 Mist 0 1021 70 3500 4.1 250 22:24 24.01.2020
245 Mist 0 1021 70 3300 3.6 260 21:43 24.01.2020
246 Mist 0 1021 70 3300 3.6 260 21:20 24.01.2020
247 Mist 0 1021 70 4500 3.6 280 20:57 24.01.2020
248 Mist 0 1021 70 4500 4.1 270 20:39 24.01.2020
249 Mist 1 1021 75 4500 4.1 270 20:20 24.01.2020
250 Mist 1 1021 75 4500 5.1 260 19:57 24.01.2020
251 Clouds 1 1021 75 6000 3.6 290 19:38 24.01.2020
252 Clouds 1 1021 75 6000 3.6 290 19:20 24.01.2020
253 Clouds 1 1022 86 6000 4.1 290 18:43 24.01.2020
254 Clouds 1 1021 86 8000 5.7 250 18:24 24.01.2020
255 Clouds 1 1020 86 8000 4.6 270 17:54 24.01.2020
256 Clouds 2 1021 80 8000 5.1 240 17:36 24.01.2020
257 Clouds 2 1021 80 9000 5.1 250 17:18 24.01.2020
258 Clouds 2 1021 80 10000 5.7 260 16:39 24.01.2020
259 Clouds 3 1021 80 10000 5.7 260 16:20 24.01.2020
260 Clouds 4 1021 74 10000 5.7 260 15:43 24.01.2020
261 Clear 4 1020 72 10000 5.1 250 15:23 24.01.2020
262 Clear 4 1020 69 10000 5.1 220 14:59 24.01.2020
263 Clear 4 1021 72 10000 3.6 230 14:40 24.01.2020
264 Clear 4 1021 67 10000 3.6 230 14:21 24.01.2020
265 Clear 4 1021 74 10000 3.1 240 13:43 24.01.2020
266 Clear 4 1021 74 10000 3.1 240 13:23 24.01.2020
267 Clear 3 1022 74 10000 3.1 260 12:45 24.01.2020
268 Clear 3 1022 74 10000 3.1 260 12:45 24.01.2020
269 Clear 3 1022 80 10000 2.6 260 12:23 24.01.2020
270 Clear 2 1022 80 10000 2.1 250 11:58 24.01.2020
271 Clear 1 1022 86 10000 2.6 260 11:39 24.01.2020
272 Clear 1 1022 86 10000 2.6 260 11:18 24.01.2020
273 Clear 0 1022 80 10000 2.6 220 10:42 24.01.2020
274 Clear 0 1022 77 10000 2.6 230 10:21 24.01.2020
275 Clear -1 1022 92 9000 2.1 190 09:55 24.01.2020
276 Clear -1 1023 86 9000 1.5 210 09:37 24.01.2020
277 Clear -1 1023 86 9000 1.5 210 09:18 24.01.2020
278 Clear -2 1023 92 8000 0.5 0 08:39 24.01.2020
279 Clear -2 1023 92 8000 0.5 0 08:19 24.01.2020
280 Clear -2 1022 92 10000 1 0 07:49 24.01.2020
281 Clear -2 1023 92 10000 1 200 07:28 24.01.2020
282 Clear -2 1023 100 10000 1 200 06:46 24.01.2020
283 Clear -2 1023 100 10000 1 200 06:28 24.01.2020
284 Clear -2 1023 100 10000 1 180 05:43 24.01.2020
285 Clear -2 1024 92 10000 0.5 220 04:52 24.01.2020
286 Clear -1 1025 92 10000 2.06 217 02:52 24.01.2020
287 Clouds -1 1026 88 10000 1 190 02:23 24.01.2020
288 Clouds 0 1026 88 10000 0.5 210 01:40 24.01.2020
289 Clouds 0 1026 88 10000 0.5 210 01:19 24.01.2020
290 Clouds 0 1027 86 10000 0.5 230 00:19 24.01.2020
291 Clouds 1 1027 88 10000 1 0 23:45 23.01.2020
292 Clouds 1 1027 88 10000 2.1 250 23:27 23.01.2020
293 Clouds 2 1028 84 10000 2.1 270 22:59 23.01.2020
294 Clouds 3 1028 84 10000 3.1 230 22:37 23.01.2020
295 Clouds 3 1028 84 10000 3.1 230 22:37 23.01.2020
296 Clouds 3 1028 84 10000 3.1 230 22:19 23.01.2020
297 Clouds 3 1028 84 10000 2.6 260 21:57 23.01.2020
298 Clouds 3 1028 84 10000 1.5 270 21:38 23.01.2020
299 Clouds 3 1028 84 10000 1.5 270 21:20 23.01.2020
300 Clouds 3 1028 84 10000 2.1 260 20:58 23.01.2020
301 Clouds 3 1029 89 10000 2.1 270 20:38 23.01.2020
302 Clouds 3 1029 80 10000 2.1 270 20:19 23.01.2020
303 Clouds 3 1029 80 10000 3.1 250 19:56 23.01.2020
304 Clouds 4 1029 80 10000 3.1 250 19:38 23.01.2020
305 Clouds 4 1029 80 10000 3.1 250 19:19 23.01.2020
306 Clouds 4 1029 80 10000 3.1 260 18:42 23.01.2020
307 Clouds 4 1029 80 10000 3.1 260 18:21 23.01.2020
308 Clouds 4 1029 80 10000 3.1 260 18:21 23.01.2020
309 Clouds 4 1029 80 10000 3.6 260 17:58 23.01.2020
310 Clouds 4 1029 80 10000 3.6 220 17:40 23.01.2020
311 Clouds 5 1029 82 10000 3.6 220 17:20 23.01.2020
312 Clouds 5 1030 82 10000 3.6 250 16:57 23.01.2020
313 Clouds 5 1030 82 10000 4.6 240 16:37 23.01.2020
314 Clouds 5 1030 82 10000 4.1 240 16:18 23.01.2020
315 Clouds 5 1030 82 10000 4.1 240 15:56 23.01.2020
316 Clouds 6 1031 82 10000 3.1 240 15:37 23.01.2020
317 Clouds 6 1031 82 10000 3.1 240 15:18 23.01.2020
318 Clouds 6 1031 70 10000 3.6 260 14:56 23.01.2020
319 Clouds 6 1031 70 10000 3.1 270 14:38 23.01.2020
320 Clouds 6 1031 70 10000 3.1 270 14:20 23.01.2020
321 Clouds 6 1032 70 10000 4.1 260 13:44 23.01.2020
322 Clouds 5 1032 80 10000 3.1 250 13:20 23.01.2020
323 Clouds 6 1032 80 10000 3.1 250 12:55 23.01.2020
324 Clouds 6 1033 86 10000 3.1 260 12:36 23.01.2020
325 Clouds 5 1033 80 10000 3.1 250 12:18 23.01.2020
326 Clouds 5 1033 80 10000 2.6 260 11:43 23.01.2020
327 Clouds 5 1033 80 10000 2.6 260 11:24 23.01.2020
328 Clouds 4 1034 86 10000 1.5 280 10:58 23.01.2020
329 Clouds 4 1034 93 10000 1.5 270 10:40 23.01.2020
330 Clouds 4 1034 93 10000 1.5 270 10:18 23.01.2020
331 Clouds 4 1034 93 10000 1.5 270 09:40 23.01.2020
332 Clouds 3 1034 93 10000 1.5 270 09:21 23.01.2020
333 Clouds 3 1034 100 9000 2.1 250 08:56 23.01.2020
334 Clouds 3 1034 100 8000 1.5 270 08:37 23.01.2020
335 Clouds 3 1034 100 8000 1.5 270 08:18 23.01.2020
336 Clouds 3 1034 100 10000 1.5 270 07:37 23.01.2020
337 Clouds 2 1034 93 10000 1.5 260 07:18 23.01.2020
338 Clouds 2 1034 93 10000 1.5 260 06:44 23.01.2020
339 Clouds 2 1034 100 10000 0.5 0 06:18 23.01.2020
340 Clouds 2 1034 96 10000 0.5 0 04:25 23.01.2020
341 Fog 1 1034 100 10000 1 260 03:23 23.01.2020
342 Clouds 2 1034 93 10000 1 280 01:55 23.01.2020
343 Clouds 3 1034 93 10000 1 270 00:44 23.01.2020
344 Clouds 3 1034 93 10000 1.5 300 00:24 23.01.2020
345 Clouds 3 1034 86 10000 1.5 290 23:46 22.01.2020
346 Clouds 3 1034 88 10000 2.6 260 23:28 22.01.2020
347 Clouds 4 1034 80 10000 1 260 22:54 22.01.2020
348 Clouds 4 1034 86 10000 1.5 280 22:36 22.01.2020
349 Clouds 4 1034 86 10000 1.5 280 22:18 22.01.2020
350 Clouds 5 1033 80 10000 2.6 280 21:38 22.01.2020
351 Clouds 5 1033 80 10000 2.6 280 21:19 22.01.2020
352 Clouds 5 1033 80 10000 2.6 270 20:55 22.01.2020
353 Clouds 5 1033 75 10000 2.1 290 20:36 22.01.2020
354 Clouds 5 1033 75 10000 2.1 290 20:18 22.01.2020
355 Clouds 5 1033 75 10000 2.6 310 19:54 22.01.2020
356 Clouds 5 1032 75 10000 2.1 300 19:36 22.01.2020
357 Clouds 6 1032 75 10000 2.1 300 19:18 22.01.2020
358 Clouds 6 1032 75 10000 2.1 290 18:54 22.01.2020
359 Clouds 6 1032 81 10000 2.6 300 18:36 22.01.2020
360 Clouds 6 1032 81 10000 2.6 300 18:18 22.01.2020
361 Clouds 6 1031 75 10000 3.1 310 17:39 22.01.2020
362 Clouds 6 1031 75 10000 3.1 310 17:20 22.01.2020
363 Clouds 6 1031 81 10000 3.6 310 16:57 22.01.2020
364 Clouds 6 1030 81 10000 4.6 320 16:39 22.01.2020
365 Clouds 6 1030 81 10000 4.6 320 16:20 22.01.2020
366 Clouds 6 1030 87 10000 3.1 310 15:55 22.01.2020
367 Clouds 6 1030 87 10000 3.1 290 15:37 22.01.2020
368 Clouds 6 1030 87 10000 3.1 290 15:18 22.01.2020
369 Clouds 6 1030 93 10000 4.1 290 14:39 22.01.2020
370 Clouds 6 1030 93 10000 4.1 290 14:20 22.01.2020
371 Clouds 5 1030 100 8000 4.1 290 13:57 22.01.2020
372 Clouds 5 1030 93 6000 4.6 280 13:37 22.01.2020
373 Clouds 5 1030 93 6000 4.6 280 13:19 22.01.2020
374 Drizzle 5 1030 93 4800 4.1 280 12:57 22.01.2020
375 Drizzle 5 1030 100 4500 5.1 280 12:38 22.01.2020
376 Drizzle 5 1030 100 4500 5.1 280 12:19 22.01.2020
377 Drizzle 5 1030 100 3300 5.1 270 11:57 22.01.2020
378 Drizzle 4 1030 100 3000 4.6 280 11:39 22.01.2020
379 Drizzle 4 1030 100 3000 4.6 280 11:19 22.01.2020
380 Drizzle 4 1030 100 3000 5.1 270 10:46 22.01.2020
381 Drizzle 4 1030 100 3000 5.1 270 10:21 22.01.2020
382 Drizzle 4 1030 93 3500 5.1 280 09:59 22.01.2020
383 Mist 4 1030 100 4000 6.2 260 09:40 22.01.2020
384 Mist 4 1030 100 4000 6.2 260 09:22 22.01.2020
385 Mist 3 1030 100 3500 5.1 280 08:56 22.01.2020
386 Mist 3 1030 100 3000 5.1 270 08:37 22.01.2020
387 Mist 3 1030 100 3000 5.1 270 08:19 22.01.2020
388 Mist 3 1030 100 3000 5.1 270 08:19 22.01.2020
389 Drizzle 3 1031 100 3500 4.6 280 07:44 22.01.2020
390 Drizzle 3 1031 100 3500 4.6 280 07:26 22.01.2020
391 Mist 3 1031 93 4000 5.7 280 06:38 22.01.2020
392 Mist 3 1031 93 4000 5.7 280 06:19 22.01.2020
393 Clouds 3 1032 86 7000 4.6 250 04:27 22.01.2020
394 Clouds 3 1032 86 7000 5.1 260 03:29 22.01.2020
395 Clouds 3 1033 86 8000 4.6 270 02:49 22.01.2020
396 Clouds 3 1033 87 10000 5.1 250 01:35 22.01.2020
397 Clouds 3 1034 86 10000 4.1 260 00:42 22.01.2020
398 Clouds 3 1034 86 10000 4.1 260 00:23 22.01.2020
399 Clouds 3 1035 86 10000 5.7 280 23:38 21.01.2020
400 Clouds 3 1035 86 10000 5.7 280 23:38 21.01.2020
401 Clouds 2 1035 79 10000 5.7 280 23:20 21.01.2020
402 Clouds 2 1035 79 10000 4.1 270 22:55 21.01.2020
403 Clouds 2 1035 79 10000 4.6 260 22:36 21.01.2020
404 Clouds 2 1035 79 10000 4.6 260 22:18 21.01.2020
405 Clouds 2 1035 79 10000 4.6 260 21:55 21.01.2020
406 Clouds 2 1036 79 10000 3.6 260 21:36 21.01.2020
407 Clouds 2 1036 86 10000 3.1 270 21:18 21.01.2020
408 Clouds 2 1036 86 10000 3.6 260 20:39 21.01.2020
409 Clear 2 1036 86 10000 3.6 260 20:20 21.01.2020
410 Clear 2 1036 73 10000 4.6 260 19:59 21.01.2020
411 Clear 2 1036 73 10000 5.1 250 19:40 21.01.2020
412 Clear 2 1036 73 10000 5.1 250 19:21 21.01.2020
413 Clear 3 1036 73 10000 3.6 240 18:57 21.01.2020
414 Clear 3 1036 73 10000 3.6 240 18:39 21.01.2020
415 Clear 3 1036 73 10000 4.1 240 18:21 21.01.2020
416 Clear 3 1036 74 10000 3.6 260 17:59 21.01.2020
417 Clear 3 1037 73 10000 4.6 250 17:40 21.01.2020
418 Clear 4 1037 65 10000 4.6 250 17:18 21.01.2020
419 Clear 4 1037 65 10000 4.6 250 16:55 21.01.2020
420 Clear 5 1037 65 10000 5.1 260 16:36 21.01.2020
421 Clear 5 1037 65 10000 5.1 260 16:18 21.01.2020
422 Clear 6 1038 70 10000 4.1 270 15:40 21.01.2020
423 Clear 6 1038 70 10000 4.1 270 15:20 21.01.2020
424 Clear 6 1038 70 10000 5.1 260 14:57 21.01.2020
425 Clear 6 1038 65 10000 6.7 260 14:37 21.01.2020
426 Clear 6 1038 60 10000 6.7 260 14:18 21.01.2020
427 Clear 6 1039 60 10000 6.2 260 13:39 21.01.2020
428 Clear 6 1039 60 10000 6.2 260 13:18 21.01.2020
429 Clear 6 1039 60 10000 6.2 250 12:43 21.01.2020
430 Clear 5 1039 60 10000 6.2 250 12:25 21.01.2020
431 Clear 5 1039 60 10000 6.2 250 11:57 21.01.2020
432 Clear 4 1040 60 10000 5.7 250 11:38 21.01.2020
433 Clear 4 1040 70 10000 5.7 250 11:20 21.01.2020
434 Clear 3 1040 70 10000 5.1 250 10:44 21.01.2020
435 Clear 2 1040 70 10000 5.1 250 10:23 21.01.2020
436 Clear 2 1040 70 10000 5.1 250 10:23 21.01.2020
437 Clear 2 1040 86 10000 4.6 250 09:59 21.01.2020
438 Clear 1 1040 86 10000 4.6 250 09:40 21.01.2020
439 Clear 1 1040 86 10000 4.6 250 09:22 21.01.2020
440 Clear 0 1040 70 10000 3.6 260 08:48 21.01.2020
441 Clear 0 1040 86 10000 4.6 240 08:29 21.01.2020
442 Clouds 0 1040 79 10000 4.1 250 07:59 21.01.2020
443 Clouds 0 1040 79 10000 4.6 250 07:39 21.01.2020
444 Clouds 0 1040 79 10000 4.6 250 07:21 21.01.2020
445 Clouds 0 1040 79 10000 4.6 240 06:48 21.01.2020
446 Clouds 0 1041 79 10000 3.1 250 06:26 21.01.2020
447 Clouds 0 1041 86 10000 3.1 240 05:42 21.01.2020
448 Clouds 0 1041 88 10000 3.1 260 04:39 21.01.2020
449 Clouds 0 1042 88 10000 2.1 240 02:56 21.01.2020
450 Clouds 0 1043 88 10000 3.1 220 01:53 21.01.2020
451 Clouds 0 1043 88 10000 4.1 240 01:18 21.01.2020
452 Clouds 0 1044 88 10000 2.1 240 00:37 21.01.2020
453 Clouds 1 1044 88 10000 2.1 230 23:59 20.01.2020
454 Clouds 1 1044 88 10000 2.6 230 23:39 20.01.2020
455 Clouds 1 1044 88 10000 2.6 230 23:39 20.01.2020
456 Clouds 1 1044 93 10000 4.6 250 23:19 20.01.2020
457 Clouds 1 1044 93 10000 4.6 250 22:56 20.01.2020
458 Clouds 1 1044 93 10000 4.1 250 22:38 20.01.2020
459 Clouds 1 1044 93 10000 4.1 250 22:20 20.01.2020
460 Clouds 1 1044 93 10000 3.1 240 21:57 20.01.2020
461 Clouds 1 1045 100 10000 3.1 230 21:37 20.01.2020
462 Clouds 1 1045 100 10000 3.1 230 21:19 20.01.2020
463 Clouds 1 1045 100 10000 3.1 250 20:56 20.01.2020
464 Clouds 1 1045 100 10000 3.1 250 20:56 20.01.2020
465 Clouds 2 1045 93 10000 3.1 230 20:38 20.01.2020
466 Clouds 2 1045 93 10000 3.1 230 20:18 20.01.2020
467 Clouds 2 1045 93 10000 3.6 240 19:56 20.01.2020
468 Clouds 2 1045 87 10000 2.6 250 19:38 20.01.2020
469 Clouds 2 1045 87 10000 2.6 250 19:18 20.01.2020
470 Clouds 3 1045 93 10000 2.6 220 18:44 20.01.2020
471 Clouds 3 1045 93 10000 2.1 230 18:22 20.01.2020
472 Clouds 3 1045 93 8000 2.6 250 17:58 20.01.2020
473 Clouds 3 1045 93 7000 3.6 250 17:36 20.01.2020
474 Clouds 3 1045 93 7000 3.6 250 17:36 20.01.2020
475 Clouds 4 1045 93 7000 3.6 250 17:18 20.01.2020
476 Clouds 4 1045 93 7000 3.1 250 16:43 20.01.2020
477 Clouds 4 1045 93 7000 3.6 290 16:25 20.01.2020
478 Clouds 4 1045 93 7000 3.1 260 15:58 20.01.2020
479 Clouds 4 1045 93 6000 3.6 260 15:39 20.01.2020
480 Clouds 4 1045 93 6000 3.6 260 15:21 20.01.2020
481 Mist 4 1046 93 5000 4.1 280 14:42 20.01.2020
482 Mist 4 1046 93 5000 4.1 280 14:24 20.01.2020
483 Drizzle 3 1046 100 5000 4.1 270 13:59 20.01.2020
484 Mist 3 1046 100 5000 2.1 290 13:40 20.01.2020
485 Mist 3 1046 100 5000 2.1 290 13:22 20.01.2020
486 Mist 3 1046 100 4800 2.1 280 12:47 20.01.2020
487 Mist 3 1046 100 2000 3.6 280 12:29 20.01.2020
488 Mist 2 1046 68 1000 3.1 280 11:59 20.01.2020
489 Mist 2 1046 68 4800 3.6 280 11:40 20.01.2020
490 Mist 2 1046 82 4800 3.6 280 11:22 20.01.2020
491 Clouds 1 1046 82 8000 2.6 260 10:57 20.01.2020
492 Clouds 1 1046 82 8000 3.1 260 10:39 20.01.2020
493 Clouds 1 1046 82 8000 3.1 260 10:19 20.01.2020
494 Clouds 0 1045 100 8000 2.1 260 09:41 20.01.2020
495 Clouds 0 1045 100 8000 2.1 260 09:21 20.01.2020
496 Clouds 0 1045 100 8000 2.1 250 08:49 20.01.2020
497 Clouds 0 1044 100 10000 1.5 240 08:30 20.01.2020
498 Clouds 0 1044 100 7000 2.1 250 07:54 20.01.2020
499 Mist 0 1044 100 5000 1 0 07:30 20.01.2020
500 Mist 0 1044 100 1900 1 260 06:59 20.01.2020
501 Mist 0 1044 100 4200 1 260 06:34 20.01.2020
502 Clouds 1 1044 100 7000 2.1 250 05:49 20.01.2020
503 Clouds 1 1044 100 8000 1 240 05:30 20.01.2020
504 Clouds 2 1043 86 10000 3.1 300 04:58 20.01.2020
505 Clouds 3 1043 93 10000 1 280 03:30 20.01.2020
506 Clouds 4 1042 80 10000 1 0 01:58 20.01.2020
507 Clouds 4 1042 80 10000 1.5 280 01:38 20.01.2020
508 Clouds 4 1042 75 10000 2.1 320 00:46 20.01.2020
509 Clouds 4 1042 86 10000 1 0 00:26 20.01.2020
510 Clouds 4 1041 86 10000 1 280 23:55 19.01.2020
511 Clouds 4 1041 86 10000 1.5 280 23:36 19.01.2020
512 Clouds 4 1041 86 10000 1 0 23:18 19.01.2020
513 Clouds 4 1041 86 10000 1 0 22:54 19.01.2020
514 Clouds 4 1040 86 10000 1.5 290 22:36 19.01.2020
515 Clouds 4 1040 86 10000 1.5 290 22:18 19.01.2020
516 Clouds 4 1040 86 10000 1.5 290 21:55 19.01.2020
517 Clouds 4 1040 86 10000 1.5 290 21:55 19.01.2020
518 Clouds 4 1040 86 10000 2.1 280 21:36 19.01.2020
519 Clouds 4 1040 86 10000 2.1 280 21:36 19.01.2020
520 Clouds 4 1040 86 10000 2.1 280 21:18 19.01.2020
521 -273 0 0 0 0 0 20:55 19.01.2020
522 Clouds 4 1039 86 10000 1.5 250 20:37 19.01.2020
523 Clouds 4 1039 86 10000 1.5 250 20:18 19.01.2020
524 Clouds 4 1039 80 10000 1.5 300 19:54 19.01.2020
525 Clouds 4 1038 80 10000 1 0 19:36 19.01.2020
526 Clouds 4 1038 80 10000 1 0 19:18 19.01.2020
527 Clouds 4 1038 86 10000 1.5 330 18:54 19.01.2020
528 Clouds 4 1038 86 10000 2.1 310 18:36 19.01.2020
529 Clouds 4 1038 86 10000 2.1 310 18:18 19.01.2020
530 Clouds 4 1037 86 10000 1 0 17:56 19.01.2020
531 Clouds 4 1037 86 10000 1.5 310 17:38 19.01.2020
532 Clouds 4 1037 86 10000 1.5 310 17:18 19.01.2020
533 Clouds 5 1036 86 10000 1.5 310 16:55 19.01.2020
534 Clouds 5 1036 86 10000 2.1 310 16:36 19.01.2020
535 Clouds 5 1036 86 10000 2.1 310 16:18 19.01.2020
536 Clouds 5 1035 86 10000 2.6 310 15:55 19.01.2020
537 Clouds 5 1035 86 10000 2.6 270 15:36 19.01.2020
538 Clouds 5 1035 86 10000 2.6 270 15:18 19.01.2020
539 Clouds 5 1034 86 10000 3.1 290 14:41 19.01.2020
540 Clouds 5 1034 86 10000 3.1 290 14:41 19.01.2020
541 Clouds 5 1034 86 10000 3.1 270 14:21 19.01.2020
542 Clouds 5 1034 86 10000 3.1 270 13:59 19.01.2020
543 Clouds 5 1034 86 10000 3.1 290 13:40 19.01.2020
544 Clouds 5 1034 86 10000 3.1 290 13:22 19.01.2020
545 Clouds 5 1034 86 10000 3.1 290 13:22 19.01.2020
546 Clouds 5 1033 86 10000 2.6 280 12:59 19.01.2020
547 Clouds 4 1033 93 10000 2.1 260 12:41 19.01.2020
548 Clouds 4 1033 93 10000 2.1 260 12:21 19.01.2020
549 Clouds 4 1033 93 10000 3.1 280 11:57 19.01.2020
550 Clouds 4 1033 93 10000 3.1 270 11:39 19.01.2020
551 Clouds 4 1033 93 10000 3.1 270 11:18 19.01.2020
552 Clouds 4 1032 93 10000 3.1 270 10:54 19.01.2020
553 Clouds 4 1032 93 10000 2.6 300 10:36 19.01.2020
554 Clouds 4 1032 93 10000 2.6 300 10:18 19.01.2020
555 Clouds 4 1031 93 10000 3.1 290 09:41 19.01.2020
556 Clouds 4 1031 93 10000 3.1 290 09:23 19.01.2020
557 Clouds 4 1030 86 10000 2.1 290 08:57 19.01.2020
558 Clouds 4 1029 86 10000 2.6 280 08:38 19.01.2020
559 Clouds 4 1029 86 10000 2.6 280 08:20 19.01.2020
560 Clouds 3 1029 100 10000 3.1 280 07:40 19.01.2020
561 Clouds 4 1029 100 10000 3.1 280 07:21 19.01.2020
562 Clouds 3 1028 86 10000 3.6 270 06:44 19.01.2020
563 Clouds 3 1027 86 10000 3.6 260 04:41 19.01.2020
564 Clouds 4 1026 93 10000 3.1 260 02:43 19.01.2020
565 Clouds 4 1026 93 10000 3.1 260 02:21 19.01.2020
566 Clouds 4 1025 93 10000 2.1 270 01:24 19.01.2020
567 Clouds 4 1025 93 10000 2.1 270 01:24 19.01.2020
568 Clouds 3 1025 93 10000 2.6 250 00:45 19.01.2020
569 Clouds 3 1025 86 10000 3.1 250 00:27 19.01.2020
570 Clouds 3 1025 86 10000 3.1 250 23:56 18.01.2020
571 Clouds 3 1024 80 10000 3.6 250 23:38 18.01.2020
572 Clouds 3 1024 80 10000 3.6 250 23:38 18.01.2020
573 Clouds 3 1024 80 10000 3.6 250 23:19 18.01.2020
574 Clouds 3 1024 86 10000 3.1 250 22:55 18.01.2020
575 Clouds 3 1024 86 10000 3.6 250 22:37 18.01.2020
576 Clouds 3 1024 86 10000 3.6 250 22:19 18.01.2020
577 Clouds 4 1024 80 10000 4.1 240 21:56 18.01.2020
578 Clouds 4 1024 80 10000 3.6 230 21:37 18.01.2020
579 Clouds 4 1024 80 10000 3.6 230 21:18 18.01.2020
580 Clouds 5 1024 75 10000 4.6 250 20:42 18.01.2020
581 Clouds 5 1024 75 10000 4.6 250 20:21 18.01.2020
582 Clouds 5 1023 75 10000 4.6 240 19:57 18.01.2020
583 Clouds 5 1023 70 10000 3.6 230 19:39 18.01.2020
584 Clouds 5 1023 70 10000 3.6 230 19:21 18.01.2020
585 Clouds 5 1023 75 10000 3.1 220 18:42 18.01.2020
586 Clouds 5 1023 75 10000 3.1 220 18:21 18.01.2020
587 Clouds 5 1023 79 10000 2.6 250 17:55 18.01.2020
588 Clouds 6 1023 70 10000 4.1 250 17:37 18.01.2020
589 Clouds 6 1023 70 10000 4.1 250 17:18 18.01.2020
590 Clouds 6 1022 70 10000 4.6 250 16:55 18.01.2020
591 Clouds 6 1022 65 10000 6.2 250 16:36 18.01.2020
592 Clouds 6 1022 65 10000 6.2 250 16:18 18.01.2020
593 Clouds 7 1022 65 10000 5.7 240 15:41 18.01.2020
594 Clouds 7 1022 65 10000 5.7 240 15:23 18.01.2020
595 Clouds 7 1022 65 10000 4.6 240 14:55 18.01.2020
596 Clouds 7 1022 65 10000 5.7 240 14:37 18.01.2020
597 Clouds 7 1022 65 10000 5.7 240 14:18 18.01.2020
598 Clouds 7 1022 65 10000 5.7 230 13:43 18.01.2020
599 Clouds 7 1022 65 10000 5.7 230 13:24 18.01.2020
600 Clouds 7 1022 70 10000 5.1 240 12:57 18.01.2020
601 Clouds 6 1022 70 10000 5.1 230 12:38 18.01.2020
602 Clouds 6 1022 70 10000 5.1 230 12:20 18.01.2020
603 Clouds 6 1022 75 10000 5.1 240 11:44 18.01.2020
604 Clouds 5 1022 75 10000 5.1 230 11:21 18.01.2020
605 Clouds 5 1022 70 10000 4.1 220 10:57 18.01.2020
606 Clouds 5 1022 75 10000 3.6 210 10:38 18.01.2020
607 Clouds 5 1022 75 10000 3.6 210 10:19 18.01.2020
608 Clouds 5 1022 80 10000 3.6 230 09:46 18.01.2020
609 Clouds 4 1021 86 10000 4.1 250 09:28 18.01.2020
610 Clouds 4 1021 86 10000 4.1 260 08:56 18.01.2020
611 Clouds 4 1021 80 10000 4.1 250 08:38 18.01.2020
612 Clouds 4 1021 80 10000 4.1 250 08:19 18.01.2020
613 Clouds 4 1020 86 10000 4.1 250 07:47 18.01.2020
614 Clouds 4 1020 86 10000 4.1 250 07:29 18.01.2020
615 Clouds 5 1020 80 0 4.1 260 06:47 18.01.2020
616 Clouds 6 1019 81 10000 6.2 250 05:59 18.01.2020
617 Clouds 6 1018 93 10000 3.6 250 05:24 18.01.2020
618 Clouds 6 1017 93 10000 4.6 240 02:56 18.01.2020
619 Rain 6 1016 87 10000 4.1 230 01:56 18.01.2020
620 Rain 6 1016 87 10000 2.1 200 01:35 18.01.2020
621 Rain 6 1016 81 10000 2.6 210 00:37 18.01.2020
622 Clouds 5 1015 86 10000 2.1 210 00:18 18.01.2020
623 Rain 5 1016 81 10000 2.6 210 00:18 18.01.2020
624 Rain 5 1016 81 10000 2.6 210 00:18 18.01.2020
625 Clouds 5 1015 86 10000 2.1 190 23:44 17.01.2020
626 Clouds 4 1015 86 10000 2.1 190 23:20 17.01.2020
627 Clouds 4 1015 86 10000 2.1 190 22:59 17.01.2020
628 Clouds 4 1015 80 10000 2.6 190 22:40 17.01.2020
629 Clouds 4 1015 80 10000 2.6 190 22:18 17.01.2020
630 Clouds 4 1015 80 10000 3.1 190 21:41 17.01.2020
631 Clouds 4 1015 75 10000 3.6 190 21:22 17.01.2020
632 Clouds 4 1015 75 10000 4.1 180 20:59 17.01.2020
633 Clouds 4 1014 75 10000 4.1 170 20:40 17.01.2020
634 Clear 4 1014 75 10000 4.1 170 20:20 17.01.2020
635 Clear 4 1015 70 10000 4.6 180 19:57 17.01.2020
636 Clear 4 1015 70 10000 4.1 170 19:38 17.01.2020
637 Clear 5 1015 70 10000 4.1 170 19:19 17.01.2020
638 Clear 5 1015 75 10000 4.1 170 18:57 17.01.2020
639 Clear 5 1015 75 10000 3.1 160 18:37 17.01.2020
640 Clear 5 1015 75 10000 3.1 160 18:19 17.01.2020
641 Clouds 6 1015 70 10000 5.1 160 17:39 17.01.2020
642 Clouds 6 1015 70 10000 5.1 160 17:21 17.01.2020
643 Clouds 7 1016 65 10000 4.6 160 16:55 17.01.2020
644 Clouds 7 1016 65 10000 6.2 170 16:36 17.01.2020
645 Clouds 7 1016 65 10000 6.2 170 16:18 17.01.2020
646 Clear 8 1016 66 10000 4.6 160 15:43 17.01.2020
647 Clear 9 1016 66 10000 4.6 160 15:25 17.01.2020
648 Clear 9 1016 66 10000 5.7 160 14:44 17.01.2020
649 Clear 9 1017 66 10000 7.2 150 14:25 17.01.2020
650 Clear 9 1017 66 10000 6.2 150 13:56 17.01.2020
651 Clear 9 1018 70 10000 6.7 150 13:37 17.01.2020
652 Clear 9 1018 70 10000 6.7 150 13:18 17.01.2020
653 Clear 8 1020 75 10000 6.2 150 12:42 17.01.2020
654 Clear 8 1020 75 10000 6.2 150 12:21 17.01.2020
655 Clear 6 1021 75 10000 5.1 150 11:38 17.01.2020
656 Clear 5 1021 75 10000 5.1 150 11:18 17.01.2020
657 Clear 4 1022 86 10000 4.1 140 10:43 17.01.2020
658 Clear 4 1022 86 10000 4.1 140 10:23 17.01.2020
659 Clear 3 1022 86 0 4.1 140 09:58 17.01.2020
660 Clear 3 1022 86 10000 4.1 140 09:39 17.01.2020
661 Clear 2 1022 86 10000 4.1 140 09:20 17.01.2020
662 Clear 2 1023 86 10000 4.1 130 08:45 17.01.2020
663 Clear 1 1023 93 10000 3.6 130 08:25 17.01.2020
664 Clear 1 1023 93 10000 3.6 140 07:55 17.01.2020
665 Clear 1 1023 93 10000 2.6 130 07:32 17.01.2020
666 Clear 1 1023 93 10000 2.6 130 07:32 17.01.2020
667 Clear 2 1023 93 10000 3.1 130 06:59 17.01.2020
668 Clear 2 1023 93 10000 2.6 140 06:41 17.01.2020
669 Clear 2 1024 86 10000 2.1 140 05:56 17.01.2020
670 Clear 3 1024 87 0 0.45 157 03:39 17.01.2020
671 Clear 3 1000 89 0 3.12 159 02:53 17.01.2020
672 Clouds 3 1001 88 0 3.83 148 01:47 17.01.2020
673 Clouds 3 1026 89 0 3.58 152 01:29 17.01.2020
674 Clear 3 1025 86 0 3.94 148 00:51 17.01.2020
675 Clear 3 1002 86 0 3.94 148 00:28 17.01.2020
676 Clear 4 1027 81 10000 4.1 150 23:46 16.01.2020
677 Clear 4 1027 81 10000 4.1 150 23:46 16.01.2020
678 Clear 4 1027 81 10000 4.1 150 23:26 16.01.2020
679 Clear 4 1027 81 10000 3.6 150 22:58 16.01.2020
680 Clear 5 1027 87 10000 3.6 150 22:40 16.01.2020
681 Clear 5 1027 87 10000 3.6 150 22:21 16.01.2020
682 Clear 5 1027 87 10000 4.1 140 21:55 16.01.2020
683 Clear 5 1027 87 10000 3.1 140 21:37 16.01.2020
684 Clear 5 1027 87 10000 3.1 140 21:18 16.01.2020
685 Clear 5 1028 81 10000 3.1 150 20:56 16.01.2020
686 Clear 5 1028 81 10000 3.1 150 20:36 16.01.2020
687 Clear 5 1028 81 10000 3.1 150 20:18 16.01.2020
688 Clear 6 1028 81 10000 3.1 150 19:54 16.01.2020
689 Clear 6 1028 75 10000 2.6 150 19:36 16.01.2020
690 Clear 6 1028 75 10000 2.6 150 19:18 16.01.2020
691 Clear 6 1028 75 10000 3.1 140 18:54 16.01.2020
692 Clear 6 1028 75 10000 3.1 130 18:36 16.01.2020
693 Clear 6 1028 75 10000 3.1 130 18:18 16.01.2020
694 Clear 6 1028 65 10000 1.5 140 17:41 16.01.2020
695 Clear 7 1028 65 10000 1.5 140 17:22 16.01.2020
696 Clear 7 1028 66 10000 2.1 180 16:57 16.01.2020
697 Clear 8 1028 66 10000 2.6 190 16:38 16.01.2020
698 Clear 9 1028 66 10000 2.6 190 16:19 16.01.2020
699 Clear 10 1028 50 10000 2.6 210 15:44 16.01.2020
700 Clear 10 1028 50 10000 2.6 210 15:22 16.01.2020
701 Clear 10 1028 57 10000 4.1 220 14:57 16.01.2020
702 Clear 10 1028 61 10000 2.6 230 14:38 16.01.2020
703 Clear 10 1028 61 10000 2.6 230 14:19 16.01.2020
704 Clear 10 1029 61 10000 3.1 240 13:44 16.01.2020
705 Clear 10 1029 66 10000 3.1 260 13:25 16.01.2020
706 Clear 10 1029 70 10000 4.1 250 12:47 16.01.2020
707 Clear 10 1029 70 10000 4.6 250 12:28 16.01.2020
708 Clear 9 1029 70 10000 4.1 240 11:59 16.01.2020
709 Clear 9 1029 75 10000 4.6 240 11:40 16.01.2020
710 Clear 8 1029 75 10000 4.6 240 11:22 16.01.2020
711 Clear 7 1028 81 10000 4.6 240 10:55 16.01.2020
712 Clear 6 1028 87 10000 2.1 240 10:36 16.01.2020
713 Clear 6 1028 87 10000 2.1 240 10:18 16.01.2020
714 Clear 5 1028 86 10000 2.6 240 09:42 16.01.2020
715 Clear 5 1027 86 10000 2.6 250 09:24 16.01.2020
716 Clear 4 1027 93 10000 2.1 250 08:56 16.01.2020
717 Clear 4 1027 93 10000 3.1 250 08:36 16.01.2020
718 Clouds 4 1027 93 10000 3.1 250 08:18 16.01.2020
719 Clouds 5 1026 93 10000 3.1 240 07:42 16.01.2020
720 Clouds 5 1026 86 10000 3.6 250 07:23 16.01.2020
721 Clouds 5 1025 93 10000 3.6 250 06:50 16.01.2020
722 Clouds 5 1025 93 10000 2.6 230 06:32 16.01.2020
723 Clouds 6 1025 93 10000 1.5 260 05:49 16.01.2020
724 Clouds 8 1023 76 10000 2.6 300 04:46 16.01.2020
725 Clouds 9 1022 71 10000 4.1 280 03:56 16.01.2020
726 Clouds 9 1021 76 10000 4.1 250 02:46 16.01.2020
727 Clouds 9 1019 70 10000 2.6 210 01:34 16.01.2020
728 Clouds 9 1019 66 10000 3.6 210 00:43 16.01.2020
729 Clouds 8 1018 66 10000 4.1 220 00:23 16.01.2020
730 Clouds 8 1018 66 10000 5.1 210 23:44 15.01.2020
731 Clouds 8 1017 70 10000 4.6 200 23:22 15.01.2020
732 Clouds 8 1017 65 10000 4.6 190 22:56 15.01.2020
733 Clouds 8 1017 61 10000 4.6 200 22:38 15.01.2020
734 Clouds 8 1017 61 10000 4.6 200 22:18 15.01.2020
735 Clouds 8 1016 61 10000 5.7 200 21:56 15.01.2020
736 Clouds 8 1016 61 10000 5.7 200 21:37 15.01.2020
737 Clouds 8 1016 61 10000 5.7 200 21:37 15.01.2020
738 Clouds 9 1016 61 10000 5.7 200 21:18 15.01.2020
739 Clouds 9 1016 61 10000 5.1 200 20:55 15.01.2020
740 Clouds 8 1016 61 10000 5.7 200 20:37 15.01.2020
741 Clear 8 1016 61 10000 5.7 200 20:18 15.01.2020
742 Clear 8 1015 61 10000 6.2 190 19:54 15.01.2020
743 Clear 8 1015 57 10000 6.2 190 19:36 15.01.2020
744 Clear 9 1015 57 10000 6.2 190 19:18 15.01.2020
745 Clear 9 1015 57 10000 5.1 190 18:56 15.01.2020
746 Clear 9 1014 57 10000 6.2 190 18:37 15.01.2020
747 Clear 9 1014 57 10000 6.2 190 18:37 15.01.2020
748 Clear 9 1014 57 10000 6.2 190 18:19 15.01.2020
749 Clear 10 1014 53 10000 5.7 190 17:55 15.01.2020
750 Clear 10 1014 53 10000 5.7 200 17:36 15.01.2020
751 Clear 11 1014 53 10000 5.7 200 17:18 15.01.2020
752 Clear 11 1014 54 10000 5.1 200 16:40 15.01.2020
753 Clear 12 1014 54 10000 5.1 200 16:21 15.01.2020
754 Clear 12 1013 54 10000 5.7 200 15:57 15.01.2020
755 Clear 12 1013 50 10000 6.2 200 15:39 15.01.2020
756 Clear 12 1013 50 10000 6.2 200 15:18 15.01.2020
757 Clear 13 1013 58 10000 4.6 190 14:43 15.01.2020
758 Clouds 13 1013 54 10000 6.7 200 14:20 15.01.2020
759 Clouds 13 1014 50 10000 7.2 200 13:46 15.01.2020
760 Clouds 13 1014 58 10000 5.1 190 13:26 15.01.2020
761 Clouds 13 1014 62 10000 6.2 200 12:59 15.01.2020
762 Clouds 12 1014 58 10000 7.2 210 12:40 15.01.2020
763 Clouds 12 1014 58 10000 7.2 210 12:20 15.01.2020
764 Clouds 12 1014 58 10000 6.7 210 11:57 15.01.2020
765 Clouds 12 1014 58 10000 6.2 200 11:37 15.01.2020
766 Clouds 12 1014 58 10000 6.2 200 11:19 15.01.2020
767 Clouds 11 1014 58 10000 6.7 200 10:46 15.01.2020
768 Clouds 11 1014 62 10000 6.2 190 10:27 15.01.2020
769 Clouds 11 1014 62 10000 5.7 180 09:46 15.01.2020
770 Clouds 10 1013 58 10000 6.2 200 09:26 15.01.2020
771 Clouds 11 1013 58 10000 7.2 210 08:59 15.01.2020
772 Rain 10 1013 58 10000 6.7 210 08:41 15.01.2020
773 Clouds 10 1013 58 10000 6.7 210 08:22 15.01.2020
774 Clouds 10 1013 58 10000 7.2 210 07:52 15.01.2020
775 Clouds 10 1013 58 10000 6.2 210 07:32 15.01.2020
776 Rain 10 1012 62 10000 5.7 200 06:46 15.01.2020
777 Clouds 10 1012 62 10000 5.7 200 06:21 15.01.2020
778 Clouds 9 1012 70 10000 4.6 190 04:45 15.01.2020
779 Clouds 9 1011 66 10000 4.6 180 02:39 15.01.2020
780 Clouds 9 1011 66 10000 4.1 190 01:28 15.01.2020
781 Clouds 9 1011 61 10000 4.6 190 00:59 15.01.2020
782 Clouds 9 1011 61 10000 6.2 190 00:36 15.01.2020
783 Clouds 9 1011 61 10000 6.2 190 00:18 15.01.2020
784 Clouds 9 1011 66 10000 5.1 200 23:45 14.01.2020
785 Clouds 9 1010 61 10000 5.1 200 23:24 14.01.2020
786 Clouds 9 1010 61 10000 5.1 190 22:54 14.01.2020
787 Clouds 9 1010 61 10000 5.7 200 22:36 14.01.2020
788 Clouds 9 1010 61 10000 5.7 190 22:18 14.01.2020
789 Clouds 9 1010 61 10000 5.7 190 21:54 14.01.2020
790 Clouds 9 1010 61 10000 4.6 190 21:36 14.01.2020
791 Clouds 9 1010 61 10000 4.6 190 21:18 14.01.2020
792 Clouds 9 1010 61 10000 4.6 190 21:18 14.01.2020
793 Clouds 9 1010 66 10000 5.7 200 20:41 14.01.2020
794 Clouds 9 1010 66 10000 5.7 200 20:22 14.01.2020
795 Clouds 9 1010 66 10000 5.7 200 19:56 14.01.2020
796 Clouds 9 1010 66 10000 4.6 190 19:38 14.01.2020
797 Clouds 9 1010 66 10000 4.6 190 19:20 14.01.2020
798 Clouds 9 1010 66 10000 4.6 190 19:20 14.01.2020
799 Clouds 9 1010 66 10000 4.1 200 18:58 14.01.2020
800 Clouds 9 1010 70 10000 3.6 180 18:39 14.01.2020
801 Clouds 9 1010 70 10000 3.6 180 18:19 14.01.2020
802 Clouds 9 1010 70 10000 3.6 180 18:19 14.01.2020
803 Clouds 9 1010 70 10000 3.6 180 17:39 14.01.2020
804 Clouds 9 1010 70 10000 3.6 180 17:19 14.01.2020
805 Clouds 9 1010 66 10000 3.6 200 16:59 14.01.2020
806 Clouds 9 1010 66 10000 4.6 200 16:41 14.01.2020
807 Clouds 9 1010 66 10000 4.6 200 16:21 14.01.2020
808 Clouds 10 1010 66 10000 5.7 210 15:55 14.01.2020
809 Clouds 10 1010 66 10000 5.7 220 15:37 14.01.2020
810 Clouds 10 1010 66 10000 5.7 220 15:18 14.01.2020
811 Clouds 10 1010 62 10000 7.2 220 14:43 14.01.2020
812 Clouds 10 1009 66 10000 6.7 210 14:20 14.01.2020
813 Clouds 10 1009 61 10000 6.2 200 13:54 14.01.2020
814 Clouds 10 1009 66 10000 6.7 200 13:36 14.01.2020
815 Rain 9 1009 66 10000 6.7 200 13:18 14.01.2020
816 Rain 9 1009 66 10000 6.7 200 12:41 14.01.2020
817 Rain 9 1009 66 10000 6.7 200 12:20 14.01.2020
818 Rain 8 1010 70 10000 6.2 190 11:43 14.01.2020
819 Rain 8 1010 70 10000 6.2 190 11:25 14.01.2020
820 Rain 7 1010 65 10000 6.7 200 10:59 14.01.2020
821 Clouds 7 1010 65 10000 7.2 190 10:40 14.01.2020
822 Clouds 6 1010 65 10000 7.2 190 10:20 14.01.2020
823 Clouds 6 1010 70 10000 6.7 200 09:58 14.01.2020
824 Clouds 6 1010 70 10000 7.2 190 09:40 14.01.2020
825 Clouds 6 1010 70 10000 7.2 190 09:21 14.01.2020
826 Clouds 5 1010 75 10000 6.2 180 08:48 14.01.2020
827 Clouds 5 1010 75 10000 5.7 180 08:25 14.01.2020
828 Clouds 4 1010 80 10000 6.7 170 07:56 14.01.2020
829 Clouds 4 1010 80 10000 6.7 180 07:34 14.01.2020
830 Clouds 4 1010 86 10000 5.1 180 06:57 14.01.2020
831 Clouds 4 1011 86 10000 6.2 170 06:34 14.01.2020
832 Clouds 3 1011 86 10000 5.7 170 05:28 14.01.2020
833 Clouds 3 1012 93 10000 4.1 170 03:57 14.01.2020
834 Clouds 3 1013 93 10000 4.1 170 03:35 14.01.2020
835 Clouds 2 1014 93 10000 4.1 170 02:26 14.01.2020
836 Clouds 2 1015 93 10000 3.1 160 01:18 14.01.2020
837 Clouds 3 1015 93 10000 4.1 170 00:38 14.01.2020
838 Clouds 3 1015 93 10000 4.1 170 23:59 13.01.2020
839 Clouds 3 1016 93 10000 3.6 160 23:37 13.01.2020
840 Clear 3 1016 93 10000 3.6 160 23:18 13.01.2020
841 Clear 3 1016 93 10000 3.1 160 22:54 13.01.2020
842 Clear 3 1016 86 10000 3.6 170 22:36 13.01.2020
843 Clear 3 1016 86 10000 3.6 170 22:18 13.01.2020
844 Clear 3 1016 86 10000 3.1 180 21:54 13.01.2020
845 Clear 3 1016 86 10000 3.1 180 21:54 13.01.2020
846 Clear 3 1016 86 10000 3.1 180 21:54 13.01.2020
847 Clouds 3 1017 86 10000 4.1 180 21:36 13.01.2020
848 Clouds 3 1017 86 10000 4.1 180 21:18 13.01.2020
849 Clouds 4 1017 86 10000 3.6 180 20:42 13.01.2020
850 Clouds 4 1017 86 10000 3.6 180 20:23 13.01.2020
851 Clouds 4 1017 86 10000 4.1 180 19:59 13.01.2020
852 Clouds 4 1018 86 10000 3.6 180 19:41 13.01.2020
853 Clouds 5 1018 86 10000 3.6 180 19:20 13.01.2020
854 Clouds 5 1018 81 10000 4.1 200 18:58 13.01.2020
855 Clouds 5 1018 81 10000 4.1 200 18:58 13.01.2020
856 Clouds 5 1018 75 10000 3.6 190 18:38 13.01.2020
857 Clouds 5 1018 75 10000 3.6 190 18:19 13.01.2020
858 Clouds 5 1018 75 10000 3.6 190 18:19 13.01.2020
859 Clouds 5 1018 81 10000 3.6 190 17:58 13.01.2020
860 Clouds 6 1018 81 10000 3.6 190 17:38 13.01.2020
861 Clouds 6 1018 81 10000 3.6 190 17:20 13.01.2020
862 Clouds 6 1018 80 0 0.45 109 16:42 13.01.2020
863 Clouds 7 1015 79 0 2.57 197 16:23 13.01.2020
864 Clouds 7 1019 79 0 2.57 197 15:59 13.01.2020
865 Clouds 7 1018 73 0 2.57 197 15:41 13.01.2020
866 Clouds 8 1019 73 0 2.57 197 15:21 13.01.2020
867 Clouds 8 1019 74 0 2.57 197 14:43 13.01.2020
868 Rain 7 1018 79 0 1.79 202 14:24 13.01.2020
869 Rain 8 1015 82 0 2.91 212 13:59 13.01.2020
870 Rain 7 1015 82 0 2.91 212 13:40 13.01.2020
871 Rain 7 1018 82 0 2.24 180 13:22 13.01.2020
872 Rain 7 1020 81 10000 4.1 210 12:58 13.01.2020
873 Rain 7 1020 81 10000 4.1 210 12:40 13.01.2020
874 Rain 6 1020 81 10000 4.1 210 12:21 13.01.2020
875 Clouds 7 1020 81 10000 4.1 210 11:54 13.01.2020
876 Clouds 6 1021 81 10000 4.1 210 11:36 13.01.2020
877 Clouds 6 1021 81 10000 4.1 210 11:18 13.01.2020
878 Clouds 6 1021 81 10000 4.1 210 11:18 13.01.2020
879 Clouds 6 1021 87 10000 2.6 200 10:55 13.01.2020
880 Clouds 6 1021 93 10000 2.6 200 10:36 13.01.2020
881 Clouds 5 1021 93 10000 2.6 200 10:18 13.01.2020
882 Clouds 5 1021 93 10000 2.6 230 09:40 13.01.2020
883 Clouds 5 1021 93 10000 2.6 230 09:22 13.01.2020
884 Clouds 5 1020 93 10000 2.6 240 08:42 13.01.2020
885 Clouds 5 1020 93 10000 3.6 250 08:21 13.01.2020
886 Clouds 6 1020 87 10000 4.1 250 07:57 13.01.2020
887 Clouds 6 1020 87 10000 4.6 250 07:38 13.01.2020
888 Clouds 6 1020 87 10000 6.2 240 06:55 13.01.2020
889 Clouds 6 1020 87 10000 5.7 250 06:36 13.01.2020
890 Clouds 6 1020 87 10000 6.2 260 05:36 13.01.2020
891 Clouds 6 1019 81 10000 7.2 250 04:25 13.01.2020
892 Clouds 6 1019 81 10000 5.7 240 03:34 13.01.2020
893 Clouds 6 1019 81 10000 6.2 240 02:48 13.01.2020
894 Clouds 6 1019 75 10000 7.2 240 02:29 13.01.2020
895 Rain 6 1019 75 10000 6.7 240 01:32 13.01.2020
896 Clouds 6 1018 75 10000 8.7 240 00:43 13.01.2020
897 Clouds 6 1018 75 10000 8.7 240 00:24 13.01.2020
898 Rain 6 1018 81 10000 8.7 240 23:56 12.01.2020
899 Clouds 6 1018 75 10000 7.7 240 23:37 12.01.2020
900 Clouds 6 994 85 0 5.13 245 23:19 12.01.2020
901 Clouds 5 1018 75 10000 5.7 230 22:42 12.01.2020
902 Clouds 5 1018 75 10000 5.7 230 22:24 12.01.2020
903 Clouds 5 1018 75 10000 6.2 230 21:59 12.01.2020
904 Clouds 5 1018 75 10000 6.2 230 21:59 12.01.2020
905 Clouds 5 1018 75 10000 5.7 230 21:40 12.01.2020
906 Clouds 5 1018 75 10000 5.7 230 21:20 12.01.2020
907 Clouds 5 1018 80 10000 6.7 230 20:58 12.01.2020
908 Clouds 5 1018 80 10000 6.7 220 20:39 12.01.2020
909 Clouds 5 1018 80 10000 6.7 220 20:21 12.01.2020
910 Clouds 5 1018 80 10000 7.2 230 19:56 12.01.2020
911 Clouds 5 1018 80 10000 7.2 230 19:56 12.01.2020
912 Rain 5 1018 75 10000 5.7 220 19:38 12.01.2020
913 Rain 5 1018 75 10000 5.7 220 19:19 12.01.2020
914 Clouds 5 1018 75 10000 5.7 220 18:58 12.01.2020
915 Clouds 5 1018 75 10000 5.7 220 18:58 12.01.2020
916 Rain 5 1018 75 10000 6.2 220 18:40 12.01.2020
917 Rain 5 1018 75 10000 6.2 220 18:21 12.01.2020
918 Clouds 5 1018 74 10000 6.2 220 17:58 12.01.2020
919 Clouds 4 1018 74 10000 6.2 220 17:40 12.01.2020
920 Clouds 4 1018 70 10000 6.2 220 17:19 12.01.2020
921 Clouds 4 1018 70 10000 5.1 210 16:56 12.01.2020
922 Clouds 4 1018 70 10000 6.7 220 16:37 12.01.2020
923 Clouds 5 1018 70 10000 6.7 220 16:19 12.01.2020
924 Clouds 5 1018 70 10000 4.6 220 15:43 12.01.2020
925 Clouds 5 1018 70 10000 4.6 220 15:24 12.01.2020
926 Clouds 5 1019 70 10000 5.7 220 14:57 12.01.2020
927 Clouds 5 1019 70 10000 5.7 230 14:38 12.01.2020
928 Clouds 6 1019 70 10000 5.7 230 14:20 12.01.2020
929 Clouds 6 1019 70 10000 6.2 230 13:54 12.01.2020
930 Clouds 6 1020 70 10000 4.6 220 13:36 12.01.2020
931 Clouds 6 1020 67 10000 4.6 220 13:18 12.01.2020
932 Clouds 5 1020 67 10000 5.7 220 12:43 12.01.2020
933 Clouds 5 1020 67 10000 5.7 220 12:21 12.01.2020
934 Clouds 5 1021 67 10000 5.7 210 11:59 12.01.2020
935 Clouds 4 1021 67 10000 5.7 210 11:39 12.01.2020
936 Clouds 4 1021 75 10000 5.7 210 11:21 12.01.2020
937 Clouds 3 1021 80 10000 5.1 200 10:42 12.01.2020
938 Clouds 3 1021 80 10000 5.1 200 10:22 12.01.2020
939 Clouds 2 1021 80 10000 4.6 200 09:59 12.01.2020
940 Clouds 2 1021 80 10000 4.1 200 09:41 12.01.2020
941 Clouds 2 1021 80 10000 4.1 200 09:21 12.01.2020
942 Clouds 1 1022 86 10000 3.1 200 08:47 12.01.2020
943 Clouds 1 1022 86 10000 3.1 200 08:21 12.01.2020
944 Clouds 1 1022 86 10000 3.6 210 07:46 12.01.2020
945 Clouds 1 1023 80 10000 3.1 200 07:25 12.01.2020
946 Clouds 1 1023 80 10000 3.1 190 06:54 12.01.2020
947 Clouds 1 1023 80 10000 3.6 200 06:36 12.01.2020
948 Clouds 1 1023 80 10000 3.6 200 05:50 12.01.2020
949 Clouds 1 1024 86 10000 4.1 210 04:54 12.01.2020
950 Clouds 1 1025 80 10000 3.6 200 03:35 12.01.2020
951 Clouds 2 1025 80 10000 3.6 210 02:46 12.01.2020
952 Clouds 2 1025 80 10000 3.6 200 02:24 12.01.2020
953 Clouds 2 1025 80 10000 4.1 210 01:34 12.01.2020
954 Clouds 2 1026 73 10000 4.6 210 00:46 12.01.2020
955 Clouds 3 1026 73 10000 4.6 200 00:22 12.01.2020
956 Clouds 3 1026 73 10000 4.6 200 23:57 11.01.2020
957 Clouds 3 1027 73 10000 4.1 200 23:39 11.01.2020
958 Clouds 3 1027 76 10000 4.1 200 23:18 11.01.2020
959 Clouds 3 1027 76 10000 3.6 200 22:56 11.01.2020
960 Clouds 3 1027 76 10000 4.1 210 22:38 11.01.2020
961 Clouds 3 1027 76 10000 4.1 210 22:19 11.01.2020
962 Clouds 3 1027 76 10000 4.6 210 21:44 11.01.2020
963 Clouds 3 1027 76 10000 4.6 200 21:20 11.01.2020
964 Clouds 3 1028 86 10000 4.1 200 20:59 11.01.2020
965 Clouds 3 1028 86 10000 4.1 190 20:39 11.01.2020
966 Clouds 3 1028 86 10000 4.1 190 20:20 11.01.2020
967 Clouds 3 1028 80 0 3.6 200 19:57 11.01.2020
968 Clouds 4 1029 80 10000 4.1 200 19:38 11.01.2020
969 Clouds 4 1029 80 10000 3.6 210 19:20 11.01.2020
970 Clouds 4 1029 80 10000 3.6 210 18:56 11.01.2020
971 Clouds 4 1029 80 10000 3.6 210 18:37 11.01.2020
972 Clouds 4 1029 80 10000 3.6 210 18:19 11.01.2020
973 Clouds 4 1029 75 10000 3.6 200 17:57 11.01.2020
974 Clouds 4 1029 80 10000 3.6 210 17:39 11.01.2020
975 Clouds 5 1029 80 10000 3.6 210 17:19 11.01.2020
976 Clouds 5 1029 80 10000 4.1 200 16:44 11.01.2020
977 Clouds 5 1029 75 10000 4.1 220 16:25 11.01.2020
978 Clouds 6 1029 75 10000 5.1 240 15:57 11.01.2020
979 Clouds 6 1030 75 10000 5.7 240 15:39 11.01.2020
980 Clouds 6 1030 75 10000 5.7 240 15:20 11.01.2020
981 Clouds 6 1030 75 10000 5.7 240 15:20 11.01.2020
982 Clouds 6 1030 70 10000 5.7 250 14:56 11.01.2020
983 Clouds 7 1030 70 10000 5.7 250 14:37 11.01.2020
984 Clouds 7 1030 70 10000 5.7 250 14:19 11.01.2020
985 Clouds 7 1030 70 10000 3.6 260 13:39 11.01.2020
986 Clouds 7 1031 75 10000 3.6 270 13:20 11.01.2020
987 Clouds 7 1031 75 10000 3.6 270 12:57 11.01.2020
988 Clouds 7 1030 81 10000 3.6 260 12:38 11.01.2020
989 Clouds 6 1030 81 10000 3.6 260 12:20 11.01.2020
990 Clouds 6 1031 80 10000 2.6 270 11:46 11.01.2020
991 Clouds 6 1031 80 10000 2.6 270 11:25 11.01.2020
992 Clouds 5 1031 75 10000 2.6 300 10:50 11.01.2020
993 Clouds 5 1031 75 10000 2.6 300 10:30 11.01.2020
994 Clouds 5 1031 75 10000 2.6 300 10:30 11.01.2020
995 Clouds 5 1030 75 10000 3.6 310 09:55 11.01.2020
996 Clouds 5 1030 75 10000 4.1 290 09:37 11.01.2020
997 Clouds 5 1030 75 10000 4.1 290 09:18 11.01.2020
998 Clouds 5 1029 80 10000 3.6 280 08:41 11.01.2020
999 Clouds 5 1029 80 10000 3.6 280 08:21 11.01.2020
1000 Clouds 5 1029 86 10000 3.6 290 07:44 11.01.2020
1001 Clouds 5 1029 86 10000 3.6 290 07:25 11.01.2020
1002 Clouds 4 1029 93 10000 3.1 280 06:48 11.01.2020
1003 Clouds 4 1027 93 10000 4.6 280 05:40 11.01.2020
1004 Clouds 5 1026 86 10000 4.6 280 04:46 11.01.2020
1005 Clouds 5 1026 86 10000 4.6 280 04:27 11.01.2020
1006 Rain 5 1025 86 10000 5.1 280 02:49 11.01.2020
1007 Clouds 5 1025 93 10000 4.6 280 02:20 11.01.2020
1008 Rain 5 1024 93 10000 4.6 290 01:42 11.01.2020
1009 Rain 5 1024 93 10000 4.6 290 01:18 11.01.2020
1010 Rain 5 1023 93 10000 5.1 290 00:38 11.01.2020
1011 Rain 5 1022 93 10000 5.1 290 23:59 10.01.2020
1012 Clouds 6 1021 87 10000 5.1 280 23:40 10.01.2020
1013 Clouds 6 1021 87 10000 5.1 280 23:21 10.01.2020
1014 Clouds 6 1020 87 10000 6.2 280 22:58 10.01.2020
1015 Clouds 6 1020 87 10000 6.7 290 22:40 10.01.2020
1016 Clouds 6 1020 87 10000 6.7 290 22:20 10.01.2020
1017 Clouds 6 1019 87 10000 6.7 290 21:57 10.01.2020
1018 Clouds 7 1019 81 10000 9.3 290 21:37 10.01.2020
1019 Clouds 7 1019 81 10000 9.3 290 21:19 10.01.2020
1020 Clouds 8 1017 87 10000 6.7 260 20:43 10.01.2020
1021 Clouds 8 1017 87 10000 6.7 260 20:24 10.01.2020
1022 Clouds 9 1017 76 10000 6.7 270 19:58 10.01.2020
1023 Clouds 9 1016 81 10000 5.7 260 19:38 10.01.2020
1024 Clouds 8 1016 81 10000 5.7 260 19:19 10.01.2020
1025 Rain 9 1015 87 10000 5.1 230 18:43 10.01.2020
1026 Rain 9 1015 87 10000 5.1 230 18:19 10.01.2020
1027 Rain 9 1015 87 10000 5.1 230 17:57 10.01.2020
1028 Rain 9 1015 87 10000 3.6 240 17:39 10.01.2020
1029 Rain 10 1015 87 10000 3.6 240 17:20 10.01.2020
1030 Rain 10 1015 87 10000 6.7 240 16:58 10.01.2020
1031 Rain 10 1014 76 10000 5.1 240 16:39 10.01.2020
1032 Rain 10 1014 76 10000 5.1 240 16:20 10.01.2020
1033 Clouds 10 1014 76 10000 5.1 250 15:56 10.01.2020
1034 Clouds 10 1014 71 10000 6.2 250 15:37 10.01.2020
1035 Clouds 10 1014 71 10000 6.2 250 15:18 10.01.2020
1036 Clouds 11 1014 71 10000 8.7 250 14:55 10.01.2020
1037 Clouds 11 1014 71 10000 7.2 270 14:37 10.01.2020
1038 Clouds 11 1013 76 10000 8.7 260 14:18 10.01.2020
1039 Clouds 11 1013 76 10000 9.8 260 13:44 10.01.2020
1040 Clouds 11 1013 76 10000 9.8 260 13:26 10.01.2020
1041 Clouds 11 1013 81 10000 8.7 250 12:59 10.01.2020
1042 Clouds 11 1013 81 10000 7.2 240 12:39 10.01.2020
1043 Clouds 10 1013 81 10000 7.2 240 12:21 10.01.2020
1044 Clouds 10 1012 87 10000 7.7 230 11:56 10.01.2020
1045 Clouds 10 1012 87 10000 6.7 240 11:38 10.01.2020
1046 Clouds 10 1012 87 10000 6.7 240 11:19 10.01.2020
1047 Clouds 10 1012 93 10000 5.7 240 10:58 10.01.2020
1048 Clouds 9 1012 93 10000 5.1 220 10:38 10.01.2020
1049 Clouds 9 1012 93 10000 5.1 220 10:18 10.01.2020
1050 Clouds 9 1012 93 10000 4.6 220 09:45 10.01.2020
1051 Drizzle 9 1011 93 10000 6.2 240 09:26 10.01.2020
1052 Drizzle 9 1011 93 7000 6.7 240 08:57 10.01.2020
1053 Drizzle 10 1011 93 7000 5.7 240 08:37 10.01.2020
1054 Drizzle 10 1011 93 10000 4.6 230 08:18 10.01.2020
1055 Drizzle 10 1010 93 8000 5.1 230 07:41 10.01.2020
1056 Drizzle 10 1010 93 8000 5.1 230 07:21 10.01.2020
1057 Rain 10 1010 100 10000 4.1 210 06:42 10.01.2020
1058 Rain 10 1010 100 10000 4.1 210 06:24 10.01.2020
1059 Rain 10 1010 100 10000 3.1 210 05:33 10.01.2020
1060 Rain 10 1010 100 10000 3.1 210 05:33 10.01.2020
1061 Rain 10 1010 100 8000 4.1 210 03:34 10.01.2020
1062 Rain 10 1010 100 8000 4.1 210 03:34 10.01.2020
1063 Rain 10 1010 100 7000 3.6 200 02:57 10.01.2020
1064 Rain 10 1010 100 10000 3.6 190 02:36 10.01.2020
1065 Clouds 10 1010 100 10000 3.1 190 01:38 10.01.2020
1066 Clouds 10 1011 100 10000 2.6 190 00:57 10.01.2020
1067 Clouds 10 1011 100 10000 3.1 200 00:38 10.01.2020
1068 Clouds 10 1011 93 10000 3.1 200 23:57 09.01.2020
1069 Clouds 10 1011 93 10000 3.1 190 23:38 09.01.2020
1070 Clouds 10 1011 93 10000 3.1 190 23:38 09.01.2020
1071 Clouds 10 1011 93 10000 3.1 190 23:38 09.01.2020
1072 Clouds 10 1011 93 10000 3.1 190 23:20 09.01.2020
1073 Clouds 9 1011 93 10000 3.6 200 22:57 09.01.2020
1074 Clouds 10 1011 93 10000 3.6 200 22:37 09.01.2020
1075 Clouds 10 1011 93 10000 3.1 200 22:19 09.01.2020
1076 Clouds 9 1011 93 10000 3.1 200 21:56 09.01.2020
1077 Rain 9 1011 93 10000 3.6 200 21:37 09.01.2020
1078 Rain 9 1011 93 10000 3.6 200 21:37 09.01.2020
1079 Rain 9 1011 93 10000 3.6 200 21:18 09.01.2020
1080 Rain 9 1012 93 10000 4.1 210 20:56 09.01.2020
1081 Rain 9 1012 93 10000 4.1 210 20:38 09.01.2020
1082 Rain 9 1011 93 10000 4.1 210 20:19 09.01.2020
1083 Rain 9 1011 93 10000 4.6 200 19:56 09.01.2020
1084 Rain 9 1011 93 10000 4.6 200 19:37 09.01.2020
1085 Clouds 9 1012 93 10000 4.1 200 19:19 09.01.2020
1086 Clouds 9 1012 93 10000 4.1 200 18:55 09.01.2020
1087 Clouds 9 1012 93 10000 4.6 200 18:36 09.01.2020
1088 Rain 9 1012 100 10000 4.1 200 18:18 09.01.2020
1089 Rain 9 1012 100 10000 4.1 190 17:41 09.01.2020
1090 Rain 9 1012 100 10000 4.1 200 17:18 09.01.2020
1091 Rain 9 1013 100 10000 4.6 200 16:49 09.01.2020
1092 Rain 9 1013 100 10000 4.1 200 16:24 09.01.2020
1093 Rain 9 1013 100 10000 4.1 200 15:59 09.01.2020
1094 Rain 9 1013 93 10000 4.1 200 15:40 09.01.2020
1095 Rain 9 1013 93 10000 4.6 200 15:19 09.01.2020
1096 Rain 9 1013 93 10000 4.1 190 14:43 09.01.2020
1097 Rain 9 1014 93 10000 4.6 200 14:22 09.01.2020
1098 Rain 9 1014 93 10000 4.6 200 13:57 09.01.2020
1099 Rain 9 1014 93 10000 5.7 190 13:39 09.01.2020
1100 Clouds 8 1014 93 10000 6.2 190 13:20 09.01.2020
1101 Clouds 8 1015 87 10000 4.6 190 12:59 09.01.2020
1102 Clouds 8 1015 87 10000 4.6 190 12:40 09.01.2020
1103 Clouds 8 1016 93 8000 5.7 170 12:22 09.01.2020
1104 Drizzle 8 1016 93 7000 5.7 160 11:58 09.01.2020
1105 Drizzle 8 1016 93 7000 5.7 160 11:40 09.01.2020
1106 Drizzle 8 1017 93 7000 4.1 150 11:22 09.01.2020
1107 Clouds 8 1017 93 7000 4.1 160 10:44 09.01.2020
1108 Clouds 7 1018 93 7000 4.1 180 10:23 09.01.2020
1109 Clouds 7 1018 93 6000 3.6 180 09:59 09.01.2020
1110 Clouds 7 1018 93 6000 3.6 180 09:40 09.01.2020
1111 Clouds 7 1018 93 6000 3.6 180 09:21 09.01.2020
1112 Clouds 7 1019 93 6000 3.1 190 08:56 09.01.2020
1113 Clouds 7 1019 93 6000 3.1 190 08:37 09.01.2020
1114 Clouds 7 1019 93 6000 3.1 190 08:19 09.01.2020
1115 Clouds 7 1019 93 6000 2.1 190 07:44 09.01.2020
1116 Drizzle 7 1020 93 4900 2.6 180 07:24 09.01.2020
1117 Drizzle 7 1020 93 4800 2.1 180 06:39 09.01.2020
1118 Drizzle 7 1020 93 4800 1 0 06:21 09.01.2020
1119 Rain 7 1021 93 4500 1.5 190 05:50 09.01.2020
1120 Rain 7 1021 93 6000 2.1 180 04:46 09.01.2020
1121 Rain 7 1022 93 5000 2.1 190 03:55 09.01.2020
1122 Rain 7 1022 93 5000 2.1 190 03:26 09.01.2020
1123 Rain 8 1022 93 8000 1.5 200 02:33 09.01.2020
1124 Rain 8 1022 93 10000 2.6 200 01:41 09.01.2020
1125 Clouds 8 1023 93 10000 1.5 220 00:56 09.01.2020
1126 Clouds 8 1023 93 10000 1.5 220 00:36 09.01.2020
1127 Clouds 8 1023 93 10000 3.1 240 00:18 09.01.2020
1128 Clouds 8 1023 93 10000 3.6 250 23:39 08.01.2020
1129 Clouds 8 1022 93 10000 4.1 250 23:20 08.01.2020
1130 Clouds 8 1022 93 10000 3.6 250 22:40 08.01.2020
1131 Clouds 8 1022 87 10000 4.1 240 22:21 08.01.2020
1132 Clouds 8 1022 87 10000 4.6 230 21:58 08.01.2020
1133 Clouds 8 1022 87 10000 4.6 230 21:40 08.01.2020
1134 Clouds 8 1022 87 10000 4.6 240 21:20 08.01.2020
1135 Clouds 8 1022 87 10000 4.6 240 20:59 08.01.2020
1136 Clouds 8 1022 87 10000 5.1 240 20:41 08.01.2020
1137 Clouds 8 1022 87 10000 4.6 240 20:21 08.01.2020
1138 Clouds 8 1022 87 10000 6.2 240 19:58 08.01.2020
1139 Clouds 8 1022 87 10000 6.2 240 19:38 08.01.2020
1140 Clouds 8 1022 93 10000 4.6 240 19:19 08.01.2020
1141 Clouds 8 1022 93 10000 4.6 240 18:58 08.01.2020
1142 Clouds 8 1022 87 10000 4.1 230 18:39 08.01.2020
1143 Clouds 8 1022 87 10000 5.1 240 18:19 08.01.2020
1144 Clouds 8 1022 87 10000 4.6 230 17:57 08.01.2020
1145 Clouds 8 1022 87 10000 4.6 230 17:38 08.01.2020
1146 Clouds 8 1021 87 10000 4.1 220 17:19 08.01.2020
1147 Clouds 8 1021 87 10000 4.1 220 17:19 08.01.2020
1148 Rain 7 1022 87 10000 5.1 240 16:56 08.01.2020
1149 Rain 7 1022 87 10000 5.1 240 16:38 08.01.2020
1150 Rain 8 1021 87 10000 4.6 230 16:19 08.01.2020
1151 Rain 7 1021 81 10000 4.1 220 15:45 08.01.2020
1152 Clouds 7 1021 87 10000 5.1 220 15:22 08.01.2020
1153 Clouds 7 1021 87 10000 5.1 220 15:22 08.01.2020
1154 Clouds 7 1021 87 10000 5.1 220 14:59 08.01.2020
1155 Clouds 7 1021 93 10000 4.6 220 14:40 08.01.2020
1156 Clouds 7 1021 87 10000 5.7 220 14:21 08.01.2020
1157 Clouds 7 1021 87 10000 5.1 230 13:42 08.01.2020
1158 Clouds 7 1021 87 10000 5.7 220 13:22 08.01.2020
1159 Clouds 7 1021 87 10000 5.7 220 12:55 08.01.2020
1160 Clouds 6 1021 87 10000 5.1 220 12:37 08.01.2020
1161 Clouds 6 1021 87 10000 4.6 220 12:18 08.01.2020
1162 Clouds 6 1021 87 10000 4.6 220 12:18 08.01.2020
1163 Clouds 6 1021 93 10000 4.6 220 11:48 08.01.2020
1164 Clouds 6 1021 93 10000 5.1 200 11:19 08.01.2020
1165 Clouds 6 1022 87 9000 5.1 210 10:59 08.01.2020
1166 Clouds 6 1022 87 9000 5.1 210 10:40 08.01.2020
1167 Clouds 6 1022 87 10000 5.7 210 10:21 08.01.2020
1168 Clouds 6 1022 87 10000 5.7 210 09:57 08.01.2020
1169 Rain 5 1022 87 10000 5.7 210 09:36 08.01.2020
1170 Rain 5 1022 81 10000 5.7 200 09:18 08.01.2020
1171 Clouds 6 1022 81 10000 5.7 200 08:41 08.01.2020
1172 Rain 5 1022 81 10000 4.6 210 08:22 08.01.2020
1173 Rain 5 1022 86 10000 4.6 220 07:59 08.01.2020
1174 Rain 5 1022 86 10000 4.6 220 07:40 08.01.2020
1175 Rain 5 1022 80 10000 4.1 190 07:19 08.01.2020
1176 Rain 5 1022 80 10000 4.6 220 06:42 08.01.2020
1177 Rain 5 1022 80 10000 5.1 200 05:57 08.01.2020
1178 Clouds 4 1022 80 10000 4.6 200 05:27 08.01.2020
1179 Rain 4 1022 86 10000 5.1 190 04:37 08.01.2020
1180 Clouds 4 1024 86 10000 4.1 190 03:31 08.01.2020
1181 Clouds 4 1024 86 10000 4.6 200 02:36 08.01.2020
1182 Clouds 4 1024 86 10000 4.6 200 02:18 08.01.2020
1183 Clouds 4 1024 86 10000 4.6 200 02:18 08.01.2020
1184 Clouds 3 1025 93 10000 4.6 200 01:39 08.01.2020
1185 Clouds 3 1025 93 10000 4.6 190 00:53 08.01.2020
1186 Clouds 3 1025 93 10000 4.6 190 00:26 08.01.2020
1187 Clouds 3 1026 93 10000 4.1 190 23:46 07.01.2020
1188 Clouds 3 1026 93 10000 4.1 190 23:22 07.01.2020
1189 Clouds 4 1026 86 10000 4.1 200 22:58 07.01.2020
1190 Clouds 4 1026 86 10000 4.1 200 22:38 07.01.2020
1191 Clouds 4 1026 86 10000 3.1 190 22:19 07.01.2020
1192 Clouds 5 1026 87 10000 3.1 200 21:43 07.01.2020
1193 Clouds 5 1026 93 10000 3.1 210 21:23 07.01.2020
1194 Clouds 5 1027 87 10000 3.6 240 20:59 07.01.2020
1195 Clouds 5 1027 87 10000 3.6 240 20:41 07.01.2020
1196 Clouds 5 1027 93 10000 2.6 230 20:23 07.01.2020
1197 Clouds 5 1026 93 10000 3.6 220 19:59 07.01.2020
1198 Clouds 5 1026 93 10000 3.6 220 19:38 07.01.2020
1199 Clouds 5 1027 87 10000 4.1 240 19:19 07.01.2020
1200 Clouds 5 1027 93 10000 3.1 250 18:58 07.01.2020
1201 Clouds 5 1027 93 10000 3.1 250 18:39 07.01.2020
1202 Clouds 5 1027 93 9000 4.1 260 18:18 07.01.2020
1203 Clouds 5 1027 93 9000 4.1 260 17:58 07.01.2020
1204 Clouds 5 1027 93 8000 3.6 260 17:38 07.01.2020
1205 Clouds 5 1026 93 7000 3.6 260 17:20 07.01.2020
1206 Clouds 5 1026 93 7000 3.6 240 16:56 07.01.2020
1207 Clouds 5 1026 93 7000 3.6 240 16:37 07.01.2020
1208 Clouds 5 1026 93 6000 3.6 230 16:18 07.01.2020
1209 Clouds 4 1025 93 6000 3.1 230 15:57 07.01.2020
1210 Clouds 4 1025 93 6000 3.1 230 15:37 07.01.2020
1211 Clouds 4 1025 100 6000 3.1 250 15:18 07.01.2020
1212 Mist 4 1025 100 5000 3.1 260 14:42 07.01.2020
1213 Mist 4 1025 100 4700 3.6 260 14:24 07.01.2020
1214 Drizzle 4 1025 93 5000 4.6 260 13:57 07.01.2020
1215 Drizzle 4 1025 93 5000 4.6 260 13:39 07.01.2020
1216 Drizzle 3 1025 100 5000 4.1 250 13:18 07.01.2020
1217 Drizzle 3 1025 100 4000 3.6 240 12:41 07.01.2020
1218 Drizzle 3 1024 100 2200 3.6 250 12:19 07.01.2020
1219 Drizzle 3 1024 93 3000 3.6 260 11:55 07.01.2020
1220 Drizzle 3 1024 93 3000 3.6 260 11:36 07.01.2020
1221 Clouds 2 1024 93 10000 4.1 260 11:18 07.01.2020
1222 Clouds 2 1024 93 10000 3.6 250 10:41 07.01.2020
1223 Clouds 2 1023 84 10000 3.1 260 10:23 07.01.2020
1224 Clouds 1 1024 86 10000 3.1 220 09:57 07.01.2020
1225 Clouds 1 1023 84 10000 2.6 260 09:38 07.01.2020
1226 Clouds 1 1022 84 10000 3.1 260 09:20 07.01.2020
1227 Clouds 0 1022 92 10000 2.1 260 08:43 07.01.2020
1228 Clouds 0 1021 87 10000 2.1 270 08:25 07.01.2020
1229 Clouds -1 1021 92 10000 1.5 270 07:54 07.01.2020
1230 Clouds -1 1021 92 10000 1.5 270 07:28 07.01.2020
1231 Clouds -1 1020 100 10000 1.5 220 06:54 07.01.2020
1232 Clouds -1 1020 100 10000 1.5 220 06:34 07.01.2020
1233 Clouds -1 1020 100 10000 1.5 190 05:55 07.01.2020
1234 Clouds -1 1020 92 10000 1.5 210 04:41 07.01.2020
1235 Clouds 0 1020 90 10000 2.1 200 03:29 07.01.2020
1236 Clouds 1 1020 89 10000 3.6 170 02:22 07.01.2020
1237 Clouds 1 1020 89 10000 3.1 170 01:57 07.01.2020
1238 Clouds 2 1020 89 10000 3.1 170 01:32 07.01.2020
1239 Clouds 2 1021 88 10000 3.1 180 00:37 07.01.2020
1240 Clouds 3 1021 88 10000 4.1 170 00:19 07.01.2020
1241 Clouds 3 1021 88 10000 4.1 180 23:55 06.01.2020
1242 Clouds 3 1021 88 10000 4.1 180 23:36 06.01.2020
1243 Clouds 4 1021 82 10000 3.1 180 23:18 06.01.2020
1244 Clouds 4 1022 82 10000 2.6 170 22:43 06.01.2020
1245 Clouds 4 1022 75 10000 3.1 190 22:23 06.01.2020
1246 Clouds 4 1022 75 10000 3.1 190 21:58 06.01.2020
1247 Clouds 4 1023 75 10000 3.1 200 21:39 06.01.2020
1248 Clouds 4 1023 75 10000 3.6 200 21:20 06.01.2020
1249 Clouds 4 1023 75 10000 3.6 200 21:20 06.01.2020
1250 Clouds 4 1023 75 10000 3.6 200 21:20 06.01.2020
1251 Clouds 4 1023 75 10000 4.1 200 20:57 06.01.2020
1252 Clouds 4 1023 75 10000 4.1 200 20:38 06.01.2020
1253 Clouds 5 1023 75 10000 4.1 200 20:20 06.01.2020
1254 Clouds 5 1024 75 10000 3.1 200 19:56 06.01.2020
1255 Clouds 5 1024 75 10000 3.1 200 19:38 06.01.2020
1256 Clouds 5 1024 80 10000 3.6 210 19:20 06.01.2020
1257 Clouds 5 1024 80 10000 3.6 210 18:48 06.01.2020
1258 Clouds 5 1024 80 10000 4.1 210 18:22 06.01.2020
1259 Clouds 5 1025 75 10000 3.6 220 17:58 06.01.2020
1260 Clouds 5 1025 75 10000 3.6 220 17:38 06.01.2020
1261 Clouds 5 1025 75 10000 3.6 220 17:18 06.01.2020
1262 Clouds 5 1025 75 10000 3.6 220 16:44 06.01.2020
1263 Clouds 6 1025 75 10000 3.6 240 16:25 06.01.2020
1264 Clouds 6 1025 75 10000 3.6 240 16:25 06.01.2020
1265 Clouds 6 1025 75 10000 3.6 240 15:59 06.01.2020
1266 Clouds 6 1025 81 10000 3.6 230 15:39 06.01.2020
1267 Clouds 7 1025 75 10000 4.6 240 15:19 06.01.2020
1268 Clouds 7 1025 75 10000 4.6 240 14:58 06.01.2020
1269 Clouds 7 1025 81 10000 4.1 250 14:39 06.01.2020
1270 Clouds 7 1026 75 10000 5.1 240 14:20 06.01.2020
1271 Clouds 7 1026 75 10000 5.1 240 13:55 06.01.2020
1272 Clouds 7 1026 75 10000 4.6 240 13:37 06.01.2020
1273 Clouds 6 1026 75 10000 4.6 240 13:19 06.01.2020
1274 Clouds 6 1026 81 10000 4.1 240 12:42 06.01.2020
1275 Clouds 6 1027 81 10000 4.6 240 12:20 06.01.2020
1276 Clouds 6 1027 81 10000 5.1 250 11:58 06.01.2020
1277 Clouds 6 1027 81 10000 5.1 250 11:39 06.01.2020
1278 Clouds 5 1028 80 10000 4.6 240 11:20 06.01.2020
1279 Clouds 5 1028 75 10000 4.6 250 10:54 06.01.2020
1280 Clouds 5 1028 75 10000 4.6 250 10:36 06.01.2020
1281 Clouds 5 1028 80 10000 6.2 230 10:18 06.01.2020
1282 Clouds 4 1028 80 10000 5.1 250 09:37 06.01.2020
1283 Rain 4 1028 80 10000 4.6 240 09:19 06.01.2020
1284 Rain 4 1028 80 10000 5.1 240 08:43 06.01.2020
1285 Clouds 4 1028 80 10000 4.6 250 08:25 06.01.2020
1286 Clouds 4 1028 86 10000 2.6 230 07:51 06.01.2020
1287 Clouds 4 1028 86 10000 2.6 230 07:28 06.01.2020
1288 Clouds 4 1028 80 10000 3.6 230 06:45 06.01.2020
1289 Clouds 4 1028 80 10000 3.6 230 06:20 06.01.2020
1290 Clouds 4 1029 80 10000 3.6 240 05:45 06.01.2020
1291 Clouds 4 1029 80 10000 3.6 230 04:37 06.01.2020
1292 Clouds 4 1029 80 10000 4.6 240 04:18 06.01.2020
1293 Clouds 4 1030 86 10000 3.6 240 02:46 06.01.2020
1294 Clouds 3 1030 86 10000 3.6 240 02:24 06.01.2020
1295 Clouds 3 1030 86 10000 4.6 240 01:44 06.01.2020
1296 Clouds 3 1030 86 10000 3.6 230 01:26 06.01.2020
1297 Rain 3 1031 86 10000 3.1 230 00:42 06.01.2020
1298 Clouds 3 1031 93 10000 3.1 220 00:21 06.01.2020
1299 Rain 3 1031 86 10000 3.6 210 23:42 05.01.2020
1300 Clouds 3 1031 86 10000 2.6 200 23:22 05.01.2020
1301 Clouds 3 1031 86 10000 2.6 200 22:56 05.01.2020
1302 Clouds 3 1031 86 10000 2.6 200 22:38 05.01.2020
1303 Clouds 3 1031 83 10000 2.6 190 22:19 05.01.2020
1304 Rain 2 1032 83 10000 2.1 190 21:54 05.01.2020
1305 Rain 3 1032 83 10000 2.1 190 21:36 05.01.2020
1306 Clouds 2 1032 83 10000 2.6 210 21:18 05.01.2020
1307 Clouds 2 1032 83 10000 2.1 200 20:55 05.01.2020
1308 Clouds 2 1032 83 10000 2.1 200 20:36 05.01.2020
1309 Clouds 2 1032 86 10000 2.6 190 20:18 05.01.2020
1310 Clouds 2 1032 86 10000 2.6 200 19:56 05.01.2020
1311 Clouds 2 1032 86 10000 2.6 200 19:37 05.01.2020
1312 Clouds 1 1032 86 10000 3.1 220 19:18 05.01.2020
1313 Clouds 1 1032 86 10000 3.1 220 18:54 05.01.2020
1314 Clouds 2 1032 86 10000 3.6 220 18:36 05.01.2020
1315 Clouds 1 1032 86 10000 3.6 210 18:18 05.01.2020
1316 Clouds 2 1033 86 10000 3.1 220 17:55 05.01.2020
1317 Clouds 2 1033 86 10000 3.1 220 17:55 05.01.2020
1318 Clouds 2 1033 86 10000 3.1 220 17:55 05.01.2020
1319 Clouds 2 1033 86 10000 3.1 220 17:37 05.01.2020
1320 Clouds 2 1033 84 10000 3.1 210 17:18 05.01.2020
1321 Clouds 2 1033 84 10000 2.1 210 16:55 05.01.2020
1322 Clouds 3 1033 84 10000 2.1 210 16:36 05.01.2020
1323 Clouds 3 1033 84 10000 3.1 230 16:18 05.01.2020
1324 Clouds 3 1033 86 10000 2.1 230 15:36 05.01.2020
1325 Clouds 3 1033 86 10000 2.1 230 15:36 05.01.2020
1326 Clouds 4 1033 86 10000 1.5 230 15:18 05.01.2020
1327 Clouds 4 1033 84 10000 2.6 240 14:54 05.01.2020
1328 Clouds 4 1033 84 10000 2.6 240 14:36 05.01.2020
1329 Clouds 3 1033 77 10000 2.1 240 14:18 05.01.2020
1330 Clouds 3 1033 77 10000 2.6 250 13:40 05.01.2020
1331 Clouds 3 1033 78 10000 3.1 260 13:21 05.01.2020
1332 Clouds 3 1034 78 10000 2.6 270 12:57 05.01.2020
1333 Clouds 3 1034 78 10000 2.6 270 12:39 05.01.2020
1334 Clouds 3 1034 78 10000 2.6 260 12:21 05.01.2020
1335 Clouds 3 1034 86 10000 3.1 260 11:55 05.01.2020
1336 Clouds 2 1034 86 10000 3.1 260 11:37 05.01.2020
1337 Clouds 1 1034 86 10000 3.1 270 11:19 05.01.2020
1338 Clear 1 1034 86 10000 2.1 260 10:56 05.01.2020
1339 Clear 1 1034 86 10000 2.1 260 10:36 05.01.2020
1340 Clear 1 1034 86 10000 2.1 260 10:36 05.01.2020
1341 Clear 1 1034 86 10000 2.6 0 10:18 05.01.2020
1342 Clear 0 1033 92 10000 2.1 260 09:41 05.01.2020
1343 Clear -1 1033 92 10000 2.6 260 09:21 05.01.2020
1344 Clear -1 1033 92 10000 2.1 270 08:48 05.01.2020
1345 Clear -1 1033 92 10000 2.1 270 08:29 05.01.2020
1346 Clear -1 1032 100 10000 2.1 260 07:55 05.01.2020
1347 Clear -1 1032 100 10000 2.1 260 07:36 05.01.2020
1348 Clear -1 1032 92 10000 3.1 270 06:59 05.01.2020
1349 Clear 0 1031 92 10000 2.6 280 05:59 05.01.2020
1350 Clear 0 1031 92 10000 2.6 280 05:30 05.01.2020
1351 Clear 1 1030 86 10000 3.6 290 04:43 05.01.2020
1352 Clear 1 1029 86 10000 4.1 290 03:52 05.01.2020
1353 Clear 1 1028 86 10000 5.7 300 02:46 05.01.2020
1354 Clouds 1 1028 86 10000 5.1 290 02:24 05.01.2020
1355 Clouds 1 1027 86 10000 5.1 290 01:48 05.01.2020
1356 Clouds 2 1027 86 10000 4.6 300 01:18 05.01.2020
1357 Clouds 2 1027 80 10000 4.6 300 00:41 05.01.2020
1358 Clouds 2 1026 80 10000 4.6 290 00:23 05.01.2020
1359 Clouds 2 1026 80 10000 4.6 290 23:59 04.01.2020
1360 Clouds 2 1026 80 10000 5.1 290 23:40 04.01.2020
1361 Clouds 2 1025 73 10000 5.1 290 23:19 04.01.2020
1362 Clouds 2 1025 73 10000 5.1 290 23:19 04.01.2020
1363 Clouds 2 1025 73 10000 5.1 290 23:19 04.01.2020
1364 Clouds 2 1025 73 0 4.6 290 22:40 04.01.2020
1365 Clouds 3 1024 73 10000 3.6 290 22:22 04.01.2020
1366 Clouds 3 1024 73 10000 3.6 290 21:58 04.01.2020
1367 Clouds 3 1024 73 10000 3.6 290 21:40 04.01.2020
1368 Clouds 3 1023 73 10000 4.6 290 21:20 04.01.2020
1369 Clouds 3 1022 73 10000 5.1 290 20:59 04.01.2020
1370 Clouds 3 1022 73 10000 5.1 290 20:40 04.01.2020
1371 Clouds 3 1022 68 10000 5.1 290 20:21 04.01.2020
1372 Clouds 3 1021 68 10000 4.6 290 19:57 04.01.2020
1373 Clouds 3 1021 68 10000 4.6 290 19:38 04.01.2020
1374 Clouds 3 1020 68 10000 5.7 290 19:20 04.01.2020
1375 Clouds 4 1019 80 10000 5.7 290 18:56 04.01.2020
1376 Clouds 4 1019 80 10000 5.7 290 18:37 04.01.2020
1377 Clouds 4 1019 80 10000 5.7 290 18:18 04.01.2020
1378 Clouds 4 1018 80 10000 5.7 290 17:41 04.01.2020
1379 Clouds 4 1018 80 10000 5.1 290 17:23 04.01.2020
1380 Clouds 4 1017 86 10000 6.2 300 16:59 04.01.2020
1381 Clouds 4 1017 86 10000 6.2 300 16:40 04.01.2020
1382 Clouds 5 1016 86 10000 5.7 300 16:21 04.01.2020
1383 Clouds 5 1016 86 10000 5.7 300 15:56 04.01.2020
1384 Rain 5 1016 86 10000 5.7 300 15:38 04.01.2020
1385 Rain 5 1015 86 10000 7.7 290 15:18 04.01.2020
1386 Rain 6 1015 87 3500 10.3 280 14:54 04.01.2020
1387 Rain 6 1015 87 3500 10.3 280 14:36 04.01.2020
1388 Rain 6 1015 87 8000 9.3 270 14:18 04.01.2020
1389 Rain 5 1015 87 10000 9.8 260 13:39 04.01.2020
1390 Rain 5 1015 93 10000 9.3 260 13:20 04.01.2020
1391 Rain 5 1016 93 10000 9.8 250 12:59 04.01.2020
1392 Rain 5 1016 93 10000 9.8 250 12:40 04.01.2020
1393 Rain 5 1017 86 10000 9.3 250 12:19 04.01.2020
1394 Rain 5 1017 86 10000 8.2 250 11:57 04.01.2020
1395 Rain 5 1017 86 10000 8.2 250 11:38 04.01.2020
1396 Rain 5 1018 86 10000 9.3 250 11:19 04.01.2020
1397 Rain 5 1018 80 10000 8.2 250 10:42 04.01.2020
1398 Rain 5 1019 86 10000 7.7 250 10:23 04.01.2020
1399 Clouds 5 1019 86 10000 7.7 260 09:58 04.01.2020
1400 Clouds 5 1019 86 10000 7.7 260 09:39 04.01.2020
1401 Clouds 5 1019 93 10000 8.2 260 09:21 04.01.2020
1402 Clouds 4 1020 86 10000 7.7 250 08:41 04.01.2020
1403 Clouds 4 1020 86 10000 7.2 260 08:21 04.01.2020
1404 Clouds 4 1020 86 10000 7.7 250 07:42 04.01.2020
1405 Clouds 4 1020 86 10000 6.7 260 07:20 04.01.2020
1406 Clouds 4 1020 86 10000 6.7 270 06:33 04.01.2020
1407 Rain 4 1020 93 10000 5.7 260 05:22 04.01.2020
1408 Clouds 4 1020 93 10000 6.2 270 04:42 04.01.2020
1409 Clouds 4 1020 93 10000 5.7 260 04:24 04.01.2020
1410 Clouds 4 1020 93 10000 5.7 270 03:18 04.01.2020
1411 Clouds 4 1019 93 10000 5.1 280 02:23 04.01.2020
1412 Clouds 4 1019 93 10000 5.1 280 01:56 04.01.2020
1413 Clouds 4 1019 93 10000 6.2 290 01:32 04.01.2020
1414 Clouds 5 1018 86 10000 4.6 290 00:50 04.01.2020
1415 Rain 5 1017 86 10000 5.1 310 00:28 04.01.2020
1416 Rain 6 1017 93 10000 6.7 320 23:52 03.01.2020
1417 Rain 6 1017 93 10000 6.7 320 23:27 03.01.2020
1418 Rain 7 1014 93 9000 5.7 260 22:55 03.01.2020
1419 Rain 7 1014 93 9000 5.7 260 22:55 03.01.2020
1420 Rain 7 1014 93 9000 5.7 260 22:36 03.01.2020
1421 Rain 7 1014 93 10000 6.2 250 22:18 03.01.2020
1422 Rain 7 1014 93 10000 6.2 250 21:56 03.01.2020
1423 Rain 6 1013 93 9000 7.7 240 21:37 03.01.2020
1424 Rain 7 1013 93 10000 7.2 240 21:18 03.01.2020
1425 Rain 7 1013 93 6000 6.2 230 20:54 03.01.2020
1426 Rain 6 1013 93 6000 6.2 230 20:36 03.01.2020
1427 Rain 6 1013 93 3500 6.2 220 20:18 03.01.2020
1428 Rain 6 1013 93 6000 6.2 220 19:41 03.01.2020
1429 Rain 6 1013 87 10000 6.2 220 19:23 03.01.2020
1430 Rain 6 1014 87 10000 5.7 220 18:54 03.01.2020
1431 Rain 6 1014 87 10000 5.7 220 18:36 03.01.2020
1432 Drizzle 6 1014 93 10000 4.6 210 18:18 03.01.2020
1433 Drizzle 6 1014 100 7000 4.1 210 17:41 03.01.2020
1434 Drizzle 6 1014 100 7000 5.7 220 17:21 03.01.2020
1435 Drizzle 6 1014 93 4000 5.1 220 16:58 03.01.2020
1436 Drizzle 6 1014 93 4000 5.1 220 16:39 03.01.2020
1437 Drizzle 6 1014 93 4500 6.2 220 16:20 03.01.2020
1438 Rain 6 1014 81 8000 6.2 220 15:41 03.01.2020
1439 Rain 6 1014 87 10000 6.2 220 15:19 03.01.2020
1440 Rain 6 1015 87 10000 6.7 220 14:40 03.01.2020
1441 Rain 6 1015 87 10000 6.7 220 14:40 03.01.2020
1442 Clouds 7 1015 75 10000 5.7 210 14:20 03.01.2020
1443 Clouds 6 1015 75 10000 5.7 210 13:59 03.01.2020
1444 Clouds 6 1015 81 10000 5.7 210 13:40 03.01.2020
1445 Clouds 6 1015 81 10000 5.7 210 13:22 03.01.2020
1446 Clouds 6 1016 81 10000 6.2 210 12:56 03.01.2020
1447 Clouds 5 1016 81 10000 6.2 210 12:38 03.01.2020
1448 Clouds 5 1016 81 10000 5.7 210 12:19 03.01.2020
1449 Clouds 5 1016 86 10000 6.2 210 11:42 03.01.2020
1450 Clouds 5 1017 80 10000 5.1 210 11:19 03.01.2020
1451 Rain 4 1017 80 10000 5.7 210 10:44 03.01.2020
1452 Clouds 4 1017 80 10000 4.6 210 10:25 03.01.2020
1453 Clouds 4 1017 86 10000 5.1 200 09:57 03.01.2020
1454 Clouds 4 1017 86 10000 5.1 200 09:39 03.01.2020
1455 Clouds 4 1018 86 10000 4.6 210 09:21 03.01.2020
1456 Clouds 4 1018 86 10000 4.6 210 09:21 03.01.2020
1457 Clouds 3 1018 86 10000 4.6 210 08:56 03.01.2020
1458 Rain 3 1018 93 10000 3.6 200 08:37 03.01.2020
1459 Clouds 3 1018 86 10000 3.6 200 08:19 03.01.2020
1460 Clouds 2 1018 93 10000 3.1 200 07:39 03.01.2020
1461 Clouds 2 1019 87 10000 3.1 190 07:18 03.01.2020
1462 Clouds 1 1019 87 10000 3.6 190 06:47 03.01.2020
1463 Clouds 1 1019 87 10000 3.6 190 06:29 03.01.2020
1464 Clouds 2 1020 93 10000 3.1 180 05:30 03.01.2020
1465 Clouds 2 1021 93 10000 3.1 210 04:21 03.01.2020
1466 Clouds 2 1021 93 10000 3.6 200 02:56 03.01.2020
1467 Clouds 2 1021 93 10000 3.6 200 02:56 03.01.2020
1468 Clouds 2 1021 93 10000 3.6 200 02:28 03.01.2020
1469 Clouds 2 1022 89 10000 3.1 190 01:42 03.01.2020
1470 Clouds 1 1023 86 10000 2.1 190 00:49 03.01.2020
1471 Clouds 1 1023 86 10000 2.6 190 00:29 03.01.2020
1472 Clouds 1 1023 86 10000 2.1 190 23:55 02.01.2020
1473 Clouds 1 1023 86 10000 2.1 190 23:37 02.01.2020
1474 Clouds 1 1023 80 10000 2.6 200 23:18 02.01.2020
1475 Clouds 0 1023 80 10000 2.6 230 22:45 02.01.2020
1476 Clouds 0 1023 80 10000 2.6 230 22:45 02.01.2020
1477 Clouds 0 1023 86 10000 3.1 260 22:21 02.01.2020
1478 Clear 0 1023 80 10000 3.1 260 21:59 02.01.2020
1479 Clear 0 1023 80 10000 3.1 260 21:41 02.01.2020
1480 Clear 0 1023 80 10000 3.6 250 21:23 02.01.2020
1481 Clear 0 1023 80 10000 3.6 250 20:59 02.01.2020
1482 Clear 1 1023 77 10000 3.6 250 20:39 02.01.2020
1483 Clear 0 1023 74 10000 2.6 260 20:21 02.01.2020
1484 Clear 1 1023 64 10000 1.5 220 19:55 02.01.2020
1485 Clear 1 1023 64 10000 1.5 220 19:37 02.01.2020
1486 Clear 1 1023 59 10000 2.6 200 19:19 02.01.2020
1487 Clear 1 1023 59 10000 2.6 200 18:58 02.01.2020
1488 Clear 1 1023 55 10000 2.1 190 18:58 02.01.2020
1489 Clear 1 1023 55 10000 2.1 190 18:39 02.01.2020
1490 Clear 1 1023 55 10000 2.6 200 18:21 02.01.2020
1491 Clear 2 1023 55 10000 2.6 180 17:56 02.01.2020
1492 Clear 2 1023 55 10000 2.6 180 17:37 02.01.2020
1493 Clear 3 1023 51 10000 2.6 200 17:19 02.01.2020
1494 Clear 3 1023 52 10000 3.1 210 16:57 02.01.2020
1495 Clear 3 1023 52 10000 3.1 210 16:38 02.01.2020
1496 Clear 4 1023 48 10000 4.1 180 16:20 02.01.2020
1497 Clear 4 1023 48 10000 3.1 190 15:56 02.01.2020
1498 Clear 5 1024 45 10000 3.1 200 15:37 02.01.2020
1499 Clear 5 1024 45 10000 3.1 200 15:19 02.01.2020
1500 Clear 6 1024 45 10000 3.1 190 14:54 02.01.2020
1501 Clear 6 1024 52 10000 2.6 170 14:36 02.01.2020
1502 Clear 6 1024 52 10000 2.6 170 14:18 02.01.2020
1503 Clear 5 1025 52 10000 2.1 190 13:45 02.01.2020
1504 Clear 5 1025 56 10000 2.1 170 13:26 02.01.2020
1505 Clear 4 1026 56 10000 1.5 190 12:43 02.01.2020
1506 Clear 4 1027 64 10000 1.5 180 12:24 02.01.2020
1507 Clear 4 1027 64 10000 1.5 180 12:24 02.01.2020
1508 Clear 3 1027 64 10000 1.5 180 11:43 02.01.2020
1509 Clear 2 1027 69 10000 1.5 210 11:25 02.01.2020
1510 Clear 0 1027 74 10000 2.6 190 10:57 02.01.2020
1511 Clear 0 1027 74 10000 2.6 190 10:38 02.01.2020
1512 Clear -1 1027 47 10000 2.1 210 10:19 02.01.2020
1513 Clear -2 1028 86 10000 2.1 190 09:41 02.01.2020
1514 Clear -2 1028 86 10000 1 0 09:22 02.01.2020
1515 Clear -3 1028 86 10000 2.1 180 08:44 02.01.2020
1516 Clear -3 1028 86 10000 1 0 08:25 02.01.2020
1517 Clear -3 1028 86 10000 2.1 190 07:49 02.01.2020
1518 Clear -3 1028 92 10000 1 0 07:30 02.01.2020
1519 Clear -3 1028 92 10000 1.5 200 06:44 02.01.2020
1520 Clear -3 1028 100 10000 0.5 0 06:26 02.01.2020
1521 Clear -2 1029 100 10000 1.5 120 04:41 02.01.2020
1522 Clear -2 1029 100 10000 1 120 04:21 02.01.2020
1523 Clear -2 1029 100 10000 1 150 02:32 02.01.2020
1524 Fog -2 1029 100 10000 2.16 231 01:58 02.01.2020
1525 Fog -2 1029 100 10000 2.16 231 01:33 02.01.2020
1526 Fog -2 1029 100 10000 0.5 140 00:57 02.01.2020
1527 Fog -1 1029 100 10000 1 120 00:33 02.01.2020
1528 Clear -1 1030 100 10000 1 240 23:49 01.01.2020
1529 Clear -1 1030 100 10000 0.5 0 23:27 01.01.2020
1530 Clear -1 1030 77 10000 2.6 190 22:56 01.01.2020
1531 Clear -1 1030 77 10000 2.6 190 22:38 01.01.2020
1532 Clear -1 1030 77 10000 1.5 180 22:19 01.01.2020
1533 Clear -1 1030 77 10000 1.5 180 21:56 01.01.2020
1534 Clear 0 1030 77 10000 2.6 190 21:37 01.01.2020
1535 Clear 0 1030 77 10000 2.6 200 21:18 01.01.2020
1536 Clear 0 1031 77 10000 2.6 200 20:54 01.01.2020
1537 Clear 0 1031 77 10000 2.6 200 20:36 01.01.2020
1538 Clear 0 1031 88 10000 2.6 200 20:18 01.01.2020
1539 Clear 0 1031 88 10000 2.6 210 19:54 01.01.2020
1540 Clear 1 1031 88 10000 2.6 210 19:36 01.01.2020
1541 Clear 0 1031 93 10000 3.1 200 19:18 01.01.2020
1542 Clear 1 1031 93 10000 3.1 200 18:54 01.01.2020
1543 Clear 1 1031 88 10000 1.5 220 18:36 01.01.2020
1544 Clear 1 1032 100 10000 1 0 18:18 01.01.2020
1545 Clear 1 1032 93 10000 1 230 17:55 01.01.2020
1546 Clear 2 1032 93 10000 1 230 17:36 01.01.2020
1547 Clear 2 1032 93 10000 1.5 240 17:18 01.01.2020
1548 Clear 2 1032 93 10000 2.6 250 16:39 01.01.2020
1549 Clear 3 1032 93 10000 3.6 250 16:20 01.01.2020
1550 Clear 3 1032 93 10000 3.6 250 15:57 01.01.2020
1551 Clouds 4 1032 86 10000 4.1 240 15:39 01.01.2020
1552 Clouds 5 1032 80 10000 4.1 240 15:20 01.01.2020
1553 Clouds 5 1032 80 10000 4.1 240 14:58 01.01.2020
1554 Clouds 5 1032 80 10000 4.1 240 14:39 01.01.2020
1555 Clouds 5 1032 80 10000 3.6 250 14:21 01.01.2020
1556 Clouds 5 1033 75 10000 5.7 260 13:56 01.01.2020
1557 Clouds 5 1033 75 10000 5.7 260 13:37 01.01.2020
1558 Clouds 5 1033 75 10000 5.7 260 13:37 01.01.2020
1559 Clouds 5 1033 75 10000 5.7 260 13:37 01.01.2020
1560 Clouds 5 1033 80 10000 5.1 260 13:18 01.01.2020
1561 Clouds 5 1033 80 10000 4.1 260 12:55 01.01.2020
1562 Clouds 4 1033 80 10000 4.1 260 12:37 01.01.2020
1563 Clouds 4 1034 86 10000 3.6 250 12:18 01.01.2020
1564 Clouds 4 1034 86 10000 2.6 260 11:43 01.01.2020
1565 Clouds 3 1034 93 10000 2.1 260 11:23 01.01.2020
1566 Clouds 3 1034 93 10000 2.1 260 10:59 01.01.2020
1567 Clouds 3 1034 93 7000 1.5 250 10:41 01.01.2020
1568 Clouds 3 1034 93 7000 2.6 260 10:20 01.01.2020
1569 Clouds 2 1034 93 7000 2.6 280 09:57 01.01.2020
1570 Clouds 2 1034 93 7000 2.6 280 09:37 01.01.2020
1571 Clouds 2 1034 93 7000 2.6 280 09:37 01.01.2020
1572 Clouds 2 1034 93 7000 1 0 09:18 01.01.2020
1573 Mist 2 1033 100 5000 2.6 290 08:55 01.01.2020
1574 Mist 2 1033 100 5000 2.6 290 08:36 01.01.2020
1575 Mist 2 1033 93 2500 3.6 300 08:18 01.01.2020
1576 Mist 2 1033 93 3300 4.1 290 07:54 01.01.2020
1577 Mist 2 1033 93 3300 4.1 290 07:35 01.01.2020
1578 Clouds 2 1033 93 6000 3.1 270 06:44 01.01.2020
1579 Clouds 2 1033 93 6000 3.1 280 06:20 01.01.2020
1580 Mist 2 1033 100 4000 1.5 280 05:22 01.01.2020
1581 Mist 2 1033 93 4000 2.6 280 03:45 01.01.2020
1582 Mist 2 1033 100 4000 2.6 270 03:23 01.01.2020
1583 Mist 2 1033 93 4500 3.1 280 02:57 01.01.2020
1584 Mist 3 1033 93 4500 3.1 280 02:35 01.01.2020
1585 Clouds 3 1032 86 8000 3.6 280 01:57 01.01.2020
1586 Clouds 3 1032 86 8000 3.6 280 01:38 01.01.2020
1587 Clouds 3 1033 86 10000 2.1 270 01:20 01.01.2020
1588 Clouds 3 1033 80 10000 2.1 290 00:44 01.01.2020
1589 Clouds 4 1033 75 10000 2.6 290 00:25 01.01.2020
1590 Clouds 4 1033 75 10000 3.1 290 23:41 31.12.2019
1591 Clouds 5 1033 75 10000 2.6 290 23:22 31.12.2019
1592 Clouds 5 1033 75 10000 2.6 290 22:58 31.12.2019
1593 Clouds 4 1032 75 10000 2.6 280 22:39 31.12.2019
1594 Clouds 4 1032 75 10000 2.1 290 22:20 31.12.2019
1595 Clouds 4 1032 75 10000 3.1 290 21:59 31.12.2019
1596 Clouds 4 1032 75 10000 3.1 290 21:40 31.12.2019
1597 Clouds 4 1032 80 10000 3.1 290 21:22 31.12.2019
1598 Clouds 5 1032 80 10000 3.1 290 20:57 31.12.2019
1599 Clouds 6 1032 75 10000 3.1 280 20:37 31.12.2019
1600 Clouds 6 1032 75 10000 3.6 290 20:19 31.12.2019
1601 Clouds 6 1032 75 10000 3.1 300 19:55 31.12.2019
1602 Clouds 6 1032 75 10000 3.1 300 19:37 31.12.2019
1603 Clouds 6 1031 81 10000 3.1 290 19:18 31.12.2019
1604 Clouds 6 1031 81 10000 3.1 290 18:54 31.12.2019
1605 Clouds 6 1031 81 10000 3.1 290 18:54 31.12.2019
1606 Clouds 6 1031 81 10000 3.1 290 18:36 31.12.2019
1607 Clouds 6 1030 75 10000 2.6 280 18:18 31.12.2019
1608 Clouds 6 1030 75 10000 3.6 280 17:55 31.12.2019
1609 Clouds 6 1030 75 10000 3.6 280 17:36 31.12.2019
1610 Clouds 6 1030 75 10000 3.6 290 17:18 31.12.2019
1611 Clouds 7 1030 70 10000 4.1 290 16:55 31.12.2019
1612 Clouds 7 1030 70 10000 4.1 290 16:36 31.12.2019
1613 Clouds 7 1029 75 10000 4.1 300 16:18 31.12.2019
1614 Clouds 7 1029 75 10000 4.6 280 15:55 31.12.2019
1615 Clouds 7 1029 75 10000 4.6 280 15:37 31.12.2019
1616 Clouds 7 1029 70 10000 4.1 290 15:19 31.12.2019
1617 Clouds 8 1028 70 10000 4.1 290 14:55 31.12.2019
1618 Clouds 8 1028 70 10000 4.1 290 14:37 31.12.2019
1619 Clouds 7 1028 81 10000 5.1 290 14:18 31.12.2019
1620 Clouds 7 1028 75 10000 5.7 290 13:56 31.12.2019
1621 Clouds 7 1028 75 10000 5.7 290 13:37 31.12.2019
1622 Clouds 7 1028 75 10000 5.7 290 13:19 31.12.2019
1623 Clouds 7 1028 75 10000 5.7 290 12:55 31.12.2019
1624 Clouds 7 1028 75 10000 5.7 290 12:37 31.12.2019
1625 Clouds 7 1028 81 10000 5.7 280 12:18 31.12.2019
1626 Clouds 7 1027 81 10000 6.7 270 11:55 31.12.2019
1627 Clouds 7 1027 81 10000 6.7 270 11:36 31.12.2019
1628 Clouds 7 1027 81 10000 6.2 280 11:18 31.12.2019
1629 Clouds 6 1027 81 10000 6.2 280 10:55 31.12.2019
1630 Clouds 6 1027 81 10000 5.7 280 10:37 31.12.2019
1631 Clouds 6 1026 81 10000 6.7 280 10:19 31.12.2019
1632 Clouds 6 1025 87 10000 6.7 270 09:57 31.12.2019
1633 Clouds 5 1025 87 10000 6.7 270 09:38 31.12.2019
1634 Clouds 5 1025 86 10000 6.2 270 09:19 31.12.2019
1635 Clouds 5 1025 93 10000 6.2 280 08:42 31.12.2019
1636 Clouds 5 1024 86 10000 6.7 280 08:23 31.12.2019
1637 Clouds 5 1024 86 10000 5.7 280 07:58 31.12.2019
1638 Clouds 5 1024 86 10000 5.7 280 07:40 31.12.2019
1639 Clouds 5 1024 86 10000 5.7 290 07:19 31.12.2019
1640 Clouds 5 1023 86 10000 5.7 280 06:41 31.12.2019
1641 Clouds 5 1022 75 10000 5.7 280 05:45 31.12.2019
1642 Clouds 5 1021 56 10000 5.7 270 04:27 31.12.2019
1643 Clouds 4 1021 44 10000 4.6 260 03:24 31.12.2019
1644 Clouds 4 1021 44 10000 5.1 260 02:39 31.12.2019
1645 Clear 4 1021 41 10000 5.1 260 01:53 31.12.2019
1646 Clear 4 1021 41 10000 5.1 260 01:34 31.12.2019
1647 Clear 4 1021 44 10000 4.6 250 00:56 31.12.2019
1648 Clear 4 1021 44 10000 4.6 250 00:38 31.12.2019
1649 Clear 4 1022 44 10000 4.6 240 00:18 31.12.2019
1650 Clear 4 1022 38 10000 4.6 230 23:56 30.12.2019
1651 Clear 4 1022 38 10000 4.6 230 23:37 30.12.2019
1652 Clear 4 1022 41 10000 3.6 230 23:19 30.12.2019
1653 Clear 5 1022 35 10000 4.6 230 22:56 30.12.2019
1654 Clear 5 1022 35 10000 4.6 230 22:56 30.12.2019
1655 Clear 5 1022 35 10000 4.6 230 22:37 30.12.2019
1656 Clear 5 1022 38 10000 3.6 230 22:18 30.12.2019
1657 Clear 5 1023 38 10000 3.6 220 21:55 30.12.2019
1658 Clear 4 1023 38 10000 3.6 220 21:37 30.12.2019
1659 Clear 4 1023 38 10000 2.6 220 21:18 30.12.2019
1660 Clear 4 1023 38 10000 2.6 220 20:56 30.12.2019
1661 Clear 4 1023 38 10000 3.1 220 20:37 30.12.2019
1662 Clouds 5 1023 41 10000 3.1 190 20:19 30.12.2019
1663 Clouds 5 1024 41 10000 3.1 200 19:55 30.12.2019
1664 Clouds 5 1024 41 10000 3.1 200 19:37 30.12.2019
1665 Clouds 5 1024 33 10000 3.6 210 19:18 30.12.2019
1666 Clouds 5 1024 38 10000 3.1 210 18:56 30.12.2019
1667 Clouds 5 1024 38 10000 3.1 210 18:37 30.12.2019
1668 Clouds 6 1025 36 10000 3.6 220 18:19 30.12.2019
1669 Clouds 5 1025 45 10000 5.1 220 17:54 30.12.2019
1670 Clouds 6 1025 36 10000 3.1 210 17:36 30.12.2019
1671 Clouds 6 1025 39 10000 4.1 230 17:18 30.12.2019
1672 Clouds 6 1025 36 10000 4.1 230 16:54 30.12.2019
1673 Clouds 6 1025 36 10000 4.1 230 16:36 30.12.2019
1674 Clouds 6 1026 42 10000 4.6 220 16:18 30.12.2019
1675 Clouds 6 1026 42 10000 5.1 230 15:54 30.12.2019
1676 Clouds 7 1026 42 10000 5.1 230 15:36 30.12.2019
1677 Clouds 7 1026 42 10000 5.7 230 15:18 30.12.2019
1678 Clouds 7 1027 48 10000 4.1 230 14:42 30.12.2019
1679 Clouds 7 1027 42 10000 6.2 220 14:19 30.12.2019
1680 Clouds 7 1027 42 10000 6.2 220 13:54 30.12.2019
1681 Clouds 7 1027 45 10000 5.7 220 13:36 30.12.2019
1682 Clouds 6 1028 45 10000 6.2 220 13:18 30.12.2019
1683 Clouds 6 1028 42 10000 3.1 190 12:42 30.12.2019
1684 Clouds 5 1028 45 10000 3.1 190 12:20 30.12.2019
1685 Clouds 5 1028 45 10000 3.1 190 11:58 30.12.2019
1686 Clouds 5 1028 45 10000 3.1 190 11:40 30.12.2019
1687 Clouds 5 1029 48 10000 3.1 180 11:19 30.12.2019
1688 Clouds 4 1029 48 10000 2.6 180 10:44 30.12.2019
1689 Clouds 4 1029 44 10000 2.6 180 10:22 30.12.2019
1690 Clouds 4 1029 44 10000 2.6 180 09:58 30.12.2019
1691 Clouds 4 1029 48 10000 2.6 190 09:40 30.12.2019
1692 Clouds 3 1029 55 10000 2.6 190 09:20 30.12.2019
1693 Clouds 3 1029 59 10000 2.1 190 08:54 30.12.2019
1694 Clouds 3 1029 59 10000 2.1 190 08:36 30.12.2019
1695 Clouds 3 1030 59 10000 2.6 190 08:18 30.12.2019
1696 Clouds 3 1030 59 10000 2.1 180 07:39 30.12.2019
1697 Clouds 3 1031 59 10000 2.1 180 06:52 30.12.2019
1698 Clouds 2 1031 59 10000 3.1 200 05:24 30.12.2019
1699 Clouds 2 1032 69 10000 3.6 180 03:58 30.12.2019
1700 Clouds 2 1032 69 10000 2.6 170 03:32 30.12.2019
1701 Clouds 2 1033 69 10000 1.5 200 02:40 30.12.2019
1702 Clouds 2 1033 69 10000 1.5 210 01:56 30.12.2019
1703 Clouds 2 1033 69 10000 2.6 160 01:25 30.12.2019
1704 Clouds 1 1034 74 10000 1 0 00:46 30.12.2019
1705 Clouds 1 1034 74 10000 1.5 210 00:23 30.12.2019
1706 Clouds 1 1034 74 10000 2.6 190 23:40 29.12.2019
1707 Clouds 1 1034 74 10000 2.1 200 23:22 29.12.2019
1708 Clouds 1 1035 74 10000 2.1 210 22:56 29.12.2019
1709 Clouds 1 1035 74 10000 2.1 210 22:38 29.12.2019
1710 Clouds 1 1035 74 10000 2.6 200 22:19 29.12.2019
1711 Clouds 1 1035 74 10000 3.1 190 21:54 29.12.2019
1712 Clouds 1 1035 74 10000 3.1 190 21:36 29.12.2019
1713 Clouds 1 1035 74 10000 2.6 190 21:18 29.12.2019
1714 Clouds 1 1035 74 10000 3.1 190 20:55 29.12.2019
1715 Clouds 1 1035 74 10000 3.1 190 20:36 29.12.2019
1716 Clouds 1 1036 74 10000 3.1 200 20:18 29.12.2019
1717 Clouds 1 1036 74 10000 4.1 190 19:55 29.12.2019
1718 Clouds 1 1036 74 10000 4.1 190 19:37 29.12.2019
1719 Clouds 1 1036 74 10000 4.1 180 19:18 29.12.2019
1720 Clouds 1 1037 74 10000 2.6 230 18:54 29.12.2019
1721 Clouds 1 1037 74 10000 3.1 200 18:36 29.12.2019
1722 Clouds 1 1037 74 10000 3.1 200 18:18 29.12.2019
1723 Clouds 1 1037 74 10000 3.6 190 17:54 29.12.2019
1724 Clouds 1 1037 74 10000 3.6 190 17:36 29.12.2019
1725 Clouds 1 1037 69 10000 4.1 190 17:18 29.12.2019
1726 Clouds 1 1037 64 10000 4.1 180 16:54 29.12.2019
1727 Clouds 2 1037 64 10000 4.1 180 16:36 29.12.2019
1728 Clouds 2 1037 64 10000 4.1 180 16:18 29.12.2019
1729 Clouds 2 1037 64 10000 4.1 200 15:54 29.12.2019
1730 Clouds 2 1037 64 10000 4.1 200 15:36 29.12.2019
1731 Clouds 2 1037 64 10000 3.6 200 15:18 29.12.2019
1732 Clouds 2 1037 64 10000 4.6 190 14:46 29.12.2019
1733 Clouds 2 1037 64 10000 4.1 180 14:19 29.12.2019
1734 Clouds 2 1038 64 10000 4.1 170 13:59 29.12.2019
1735 Clouds 2 1038 64 10000 4.1 170 13:40 29.12.2019
1736 Clouds 2 1039 64 10000 4.1 180 13:22 29.12.2019
1737 Clouds 2 1039 64 10000 4.1 180 12:58 29.12.2019
1738 Clouds 2 1039 69 10000 4.1 200 12:40 29.12.2019
1739 Clouds 2 1040 64 10000 4.1 200 12:22 29.12.2019
1740 Clouds 2 1040 64 10000 4.1 200 12:22 29.12.2019
1741 Clouds 1 1040 64 10000 4.1 190 11:43 29.12.2019
1742 Clouds 1 1040 74 10000 3.1 210 11:23 29.12.2019
1743 Clouds 0 1040 74 10000 3.6 210 11:00 29.12.2019
1744 Clouds 0 1040 74 10000 3.6 210 10:41 29.12.2019
1745 Clouds -1 1040 74 10000 3.1 200 10:20 29.12.2019
1746 Clouds -1 1040 74 10000 2.6 180 09:54 29.12.2019
1747 Clouds -1 1040 74 10000 2.6 180 09:36 29.12.2019
1748 Clouds -2 1040 79 10000 2.1 180 09:18 29.12.2019
1749 Clouds -2 1040 74 10000 3.1 200 08:44 29.12.2019
1750 Clouds -2 1040 74 10000 4.1 210 08:24 29.12.2019
1751 Clouds -2 1040 74 10000 3.1 180 07:54 29.12.2019
1752 Clouds -2 1040 74 10000 3.1 180 07:54 29.12.2019
1753 Clouds -2 1040 74 10000 3.1 180 07:27 29.12.2019
1754 Clouds -2 1040 80 10000 2.1 160 06:53 29.12.2019
1755 Clouds -2 1040 92 10000 1.5 160 06:23 29.12.2019
1756 Clouds -3 1040 100 10000 0.5 130 05:50 29.12.2019
1757 Clouds -3 1041 100 10000 0.5 200 04:35 29.12.2019
1758 Clouds -3 1041 100 10000 0.5 150 03:40 29.12.2019
1759 Clouds -2 1041 92 10000 0.5 0 03:19 29.12.2019
1760 Clouds -2 1041 92 10000 0.77 221 02:19 29.12.2019
1761 Clouds -2 1042 92 10000 0.5 280 01:31 29.12.2019
1762 Clouds -2 1041 100 10000 0.5 260 01:31 29.12.2019
1763 Clouds -1 1042 86 10000 0.5 300 00:55 29.12.2019
1764 Clouds -1 1042 86 10000 0.5 300 00:36 29.12.2019
1765 Clouds -1 1042 86 10000 0.5 210 00:18 29.12.2019
1766 Clouds -1 1042 80 10000 1 260 23:41 28.12.2019
1767 Clouds 0 1043 80 10000 1 270 23:18 28.12.2019
1768 Clouds 0 1043 80 10000 1.5 260 22:39 28.12.2019
1769 Clouds 0 1043 86 10000 1.5 260 22:20 28.12.2019
1770 Clouds 0 1043 74 10000 1 0 21:58 28.12.2019
1771 Clouds 0 1043 74 10000 1 0 21:39 28.12.2019
1772 Clouds 1 1043 69 10000 1 0 21:21 28.12.2019
1773 Clouds 1 1043 69 10000 1 0 20:57 28.12.2019
1774 Clouds 1 1043 69 10000 1 0 20:37 28.12.2019
1775 Clouds 1 1043 69 10000 1 0 20:19 28.12.2019
1776 Clouds 1 1042 69 10000 1.5 260 19:56 28.12.2019
1777 Clouds 1 1042 69 10000 1.5 260 19:38 28.12.2019
1778 Clouds 1 1042 74 10000 2.1 290 19:19 28.12.2019
1779 Clouds 1 1042 74 10000 2.1 290 18:57 28.12.2019
1780 Clouds 1 1042 74 10000 1.5 280 18:39 28.12.2019
1781 Clouds 1 1042 74 10000 2.1 320 18:18 28.12.2019
1782 Clouds 1 1042 74 10000 2.6 310 17:54 28.12.2019
1783 Clouds 1 1042 74 10000 2.6 310 17:36 28.12.2019
1784 Clouds 2 1042 74 10000 2.6 300 17:18 28.12.2019
1785 Clouds 2 1042 69 10000 2.6 310 16:46 28.12.2019
1786 Clouds 2 1042 69 10000 3.1 300 16:25 28.12.2019
1787 Clouds 2 1042 69 10000 2.6 310 15:44 28.12.2019
1788 Clouds 2 1042 69 10000 2.1 300 15:24 28.12.2019
1789 Clouds 2 1042 69 10000 2.1 300 14:59 28.12.2019
1790 Clouds 2 1042 69 10000 2.6 290 14:39 28.12.2019
1791 Clouds 2 1041 64 10000 2.6 310 14:20 28.12.2019
1792 Clouds 2 1042 64 10000 2.6 340 13:56 28.12.2019
1793 Clouds 2 1042 64 10000 2.6 340 13:37 28.12.2019
1794 Clouds 2 1042 64 10000 2.6 310 13:18 28.12.2019
1795 Clouds 2 1042 64 10000 3.1 340 12:42 28.12.2019
1796 Clouds 2 1042 64 10000 3.1 330 12:23 28.12.2019
1797 Clouds 2 1042 64 10000 2.1 330 11:56 28.12.2019
1798 Clouds 2 1042 64 10000 2.1 330 11:56 28.12.2019
1799 Clouds 2 1042 64 10000 2.1 330 11:38 28.12.2019
1800 Clouds 2 1042 69 10000 2.1 360 11:19 28.12.2019
1801 Clouds 2 1042 69 10000 2.1 340 10:44 28.12.2019
1802 Clouds 2 1041 74 10000 2.1 350 10:22 28.12.2019
1803 Clouds 1 1041 74 10000 2.1 350 09:58 28.12.2019
1804 Clouds 1 1041 80 10000 1.5 350 09:40 28.12.2019
1805 Clouds 1 1041 80 10000 2.6 340 09:20 28.12.2019
1806 Clouds 1 1041 80 10000 2.1 340 08:44 28.12.2019
1807 Clouds 1 1040 80 10000 2.1 330 08:26 28.12.2019
1808 Clouds 1 1040 74 10000 2.1 330 07:55 28.12.2019
1809 Clouds 1 1040 74 10000 2.1 330 07:31 28.12.2019
1810 Clouds 1 1040 80 10000 1.5 350 06:41 28.12.2019
1811 Clouds 1 1039 86 10000 2.1 350 04:59 28.12.2019
1812 Clouds 1 1038 86 10000 3.1 350 03:47 28.12.2019
1813 Clouds 1 1038 86 10000 2.1 350 02:49 28.12.2019
1814 Clouds 1 1038 86 10000 2.6 350 02:19 28.12.2019
1815 Clouds 1 1038 80 10000 2.1 360 01:42 28.12.2019
1816 Clouds 1 1038 81 10000 2.1 350 01:18 28.12.2019
1817 Clouds 1 1037 81 10000 2.6 340 00:40 28.12.2019
1818 Clouds 1 1037 81 10000 2.6 340 00:21 28.12.2019
1819 Clouds 1 1037 81 10000 2.1 340 23:45 27.12.2019
1820 Clouds 1 1037 88 10000 2.1 340 23:20 27.12.2019
1821 Clouds 1 1037 88 10000 2.1 340 22:58 27.12.2019
1822 Clouds 1 1036 88 10000 2.6 340 22:39 27.12.2019
1823 Clouds 1 1036 88 10000 2.1 340 22:20 27.12.2019
1824 Clouds 1 1036 88 10000 2.1 340 22:20 27.12.2019
1825 Clouds 1 1036 88 10000 2.6 340 21:59 27.12.2019
1826 Clouds 1 1036 88 10000 2.6 340 21:40 27.12.2019
1827 Clouds 1 1035 88 10000 2.1 340 21:22 27.12.2019
1828 Clouds 2 1035 88 10000 2.1 340 20:42 27.12.2019
1829 Clouds 2 1034 93 10000 2.6 330 20:23 27.12.2019
1830 Clouds 2 1034 93 10000 2.6 330 19:55 27.12.2019
1831 Clouds 3 1034 93 10000 2.1 340 19:36 27.12.2019
1832 Clouds 3 1033 86 10000 2.6 350 19:18 27.12.2019
1833 Clouds 3 1033 86 10000 2.6 350 19:18 27.12.2019
1834 Clouds 3 1033 93 10000 2.1 330 18:42 27.12.2019
1835 Rain 3 1032 86 10000 2.6 360 18:24 27.12.2019
1836 Rain 3 1032 86 10000 3.1 360 18:00 27.12.2019
1837 Rain 3 1032 86 10000 3.1 360 17:41 27.12.2019
1838 Rain 4 1032 86 10000 2.1 350 17:20 27.12.2019
1839 Rain 4 1031 86 10000 2.6 20 16:59 27.12.2019
1840 Rain 4 1031 86 10000 2.6 20 16:59 27.12.2019
1841 Rain 4 1031 86 10000 2.6 20 16:41 27.12.2019
1842 Rain 4 1031 93 10000 2.6 350 16:22 27.12.2019
1843 Clouds 4 1030 86 10000 2.1 340 15:57 27.12.2019
1844 Clouds 4 1030 86 10000 2.1 340 15:37 27.12.2019
1845 Rain 4 1030 86 10000 2.6 340 15:18 27.12.2019
1846 Rain 4 1030 86 10000 2.6 340 14:55 27.12.2019
1847 Clouds 4 1030 86 10000 2.6 330 14:37 27.12.2019
1848 Clouds 4 1029 93 10000 3.1 330 14:19 27.12.2019
1849 Clouds 4 1029 93 10000 2.6 330 13:44 27.12.2019
1850 Drizzle 4 1029 93 10000 2.6 340 13:22 27.12.2019
1851 Drizzle 4 1029 93 10000 3.1 340 12:48 27.12.2019
1852 Clouds 4 1028 86 10000 3.1 340 12:29 27.12.2019
1853 Clouds 4 1028 86 10000 3.1 340 11:59 27.12.2019
1854 Clouds 3 1028 86 10000 2.6 360 11:41 27.12.2019
1855 Clouds 3 1028 86 10000 2.6 350 11:20 27.12.2019
1856 Clouds 3 1028 86 10000 2.6 350 11:20 27.12.2019
1857 Clouds 3 1028 86 10000 2.6 350 11:20 27.12.2019
1858 Clouds 3 1028 86 10000 3.1 340 10:47 27.12.2019
1859 Clouds 3 1027 86 10000 2.1 340 10:24 27.12.2019
1860 Clouds 3 1027 93 10000 2.1 350 09:57 27.12.2019
1861 Clouds 3 1027 93 10000 2.1 350 09:38 27.12.2019
1862 Clouds 3 1026 86 10000 3.1 40 09:20 27.12.2019
1863 Clouds 3 1026 93 10000 2.6 10 08:49 27.12.2019
1864 Clouds 3 1025 100 10000 2.6 350 08:30 27.12.2019
1865 Clouds 3 1025 100 10000 2.1 350 07:48 27.12.2019
1866 Clouds 3 1024 100 10000 1.5 330 07:25 27.12.2019
1867 Clouds 3 1024 100 10000 1 0 06:33 27.12.2019
1868 Clouds 4 1023 100 10000 0.5 0 04:51 27.12.2019
1869 Rain 4 1023 100 10000 1.5 290 02:49 27.12.2019
1870 Rain 4 1023 100 10000 2.6 280 01:56 27.12.2019
1871 Rain 4 1023 100 10000 2.6 280 01:23 27.12.2019
1872 Rain 4 1023 100 10000 3.1 270 00:53 27.12.2019
1873 Rain 4 1023 100 10000 3.1 270 00:34 27.12.2019
1874 Rain 4 1023 100 10000 2.6 280 23:59 26.12.2019
1875 Rain 4 1023 100 10000 2.6 280 23:41 26.12.2019
1876 Clouds 4 1023 93 10000 2.6 280 23:21 26.12.2019
1877 Clouds 4 1023 100 10000 3.1 280 22:45 26.12.2019
1878 Rain 4 1022 100 10000 2.6 270 22:22 26.12.2019
1879 Rain 4 1022 100 10000 3.1 270 21:58 26.12.2019
1880 Clouds 4 1022 100 10000 3.1 270 21:38 26.12.2019
1881 Clouds 5 1023 100 10000 3.1 260 21:20 26.12.2019
1882 Clouds 5 1023 100 10000 3.1 270 20:46 26.12.2019
1883 Clouds 5 1023 86 10000 2.6 280 20:23 26.12.2019
1884 Clouds 5 1023 86 10000 2.6 280 20:23 26.12.2019
1885 Clouds 5 1023 93 10000 2.1 270 19:59 26.12.2019
1886 Clouds 5 1023 93 10000 2.1 270 19:40 26.12.2019
1887 Clouds 5 1022 93 10000 2.1 270 19:21 26.12.2019
1888 Rain 5 1022 86 10000 2.6 280 18:58 26.12.2019
1889 Rain 5 1022 86 10000 2.6 280 18:39 26.12.2019
1890 Drizzle 5 1022 86 10000 2.6 320 18:19 26.12.2019
1891 Rain 5 1022 93 10000 3.6 270 17:57 26.12.2019
1892 Rain 5 1022 93 10000 3.6 270 17:38 26.12.2019
1893 Drizzle 5 1022 87 10000 4.1 270 17:18 26.12.2019
1894 Clouds 5 1022 87 10000 3.6 280 16:43 26.12.2019
1895 Clouds 6 1022 87 10000 3.6 270 16:23 26.12.2019
1896 Clouds 6 1022 87 10000 3.1 280 15:56 26.12.2019
1897 Clouds 6 1022 87 10000 3.1 280 15:38 26.12.2019
1898 Clouds 6 1022 87 10000 4.1 280 15:18 26.12.2019
1899 Clouds 6 1022 87 10000 4.1 270 14:40 26.12.2019
1900 Clouds 6 1022 87 10000 3.6 280 14:22 26.12.2019
1901 Clouds 6 1022 87 10000 4.6 270 13:44 26.12.2019
1902 Clouds 6 1022 87 10000 4.6 290 13:22 26.12.2019
1903 Clouds 6 1022 87 10000 3.1 280 12:58 26.12.2019
1904 Clouds 6 1022 87 10000 3.1 280 12:39 26.12.2019
1905 Clouds 6 1022 87 10000 3.1 280 12:39 26.12.2019
1906 Drizzle 6 1022 87 10000 3.1 280 12:20 26.12.2019
1907 Drizzle 6 1022 87 10000 3.1 280 11:57 26.12.2019
1908 Clouds 6 1022 93 10000 3.6 280 11:39 26.12.2019
1909 Drizzle 5 1022 93 10000 5.1 260 11:20 26.12.2019
1910 Clouds 5 1023 93 10000 3.6 270 10:49 26.12.2019
1911 Drizzle 5 1022 93 10000 4.1 260 10:20 26.12.2019
1912 Clouds 5 1022 93 10000 3.6 270 09:53 26.12.2019
1913 Clouds 5 1022 93 10000 3.6 270 09:32 26.12.2019
1914 Drizzle 5 1022 100 10000 3.1 280 08:57 26.12.2019
1915 Drizzle 4 1022 100 10000 3.1 280 08:38 26.12.2019
1916 Drizzle 5 1022 93 10000 2.6 280 08:20 26.12.2019
1917 Clouds 5 1022 93 10000 3.6 270 07:31 26.12.2019
1918 Clouds 5 1022 100 10000 2.6 260 06:56 26.12.2019
1919 Clouds 4 1022 100 10000 2.6 260 06:34 26.12.2019
1920 Clouds 4 1021 100 10000 3.1 260 05:57 26.12.2019
1921 Clouds 4 1021 100 10000 3.1 260 05:38 26.12.2019
1922 Clouds 4 1022 93 10000 3.1 270 04:32 26.12.2019
1923 Rain 4 1021 100 10000 3.6 270 03:20 26.12.2019
1924 Clouds 4 1021 93 10000 3.6 270 02:46 26.12.2019
1925 Clouds 4 1021 93 10000 3.1 270 02:25 26.12.2019
1926 Rain 4 1021 100 10000 2.1 270 01:44 26.12.2019
1927 Clouds 4 1021 93 10000 2.6 270 01:24 26.12.2019
1928 Clouds 4 1021 93 10000 2.6 260 00:43 26.12.2019
1929 Clouds 5 1021 93 10000 2.6 290 00:23 26.12.2019
1930 Rain 5 1020 93 10000 3.1 290 23:57 25.12.2019
1931 Rain 5 1020 93 10000 3.1 290 23:37 25.12.2019
1932 Drizzle 5 1020 93 10000 3.1 300 23:18 25.12.2019
1933 Drizzle 5 1020 93 10000 3.1 280 22:55 25.12.2019
1934 Drizzle 5 1020 93 10000 3.1 280 22:37 25.12.2019
1935 Clouds 5 1020 93 10000 3.6 290 22:18 25.12.2019
1936 Clouds 5 1019 93 10000 3.1 290 21:55 25.12.2019
1937 Clouds 5 1019 93 10000 3.1 290 21:37 25.12.2019
1938 Clouds 5 1019 93 10000 2.6 280 21:18 25.12.2019
1939 Drizzle 5 1019 93 10000 3.6 290 20:40 25.12.2019
1940 Clouds 5 1019 93 10000 3.1 280 20:21 25.12.2019
1941 Clouds 5 1019 93 10000 2.6 270 19:59 25.12.2019
1942 Clouds 5 1019 93 10000 2.6 270 19:41 25.12.2019
1943 Clouds 5 1018 93 10000 3.1 280 19:21 25.12.2019
1944 Clouds 5 1018 93 10000 3.1 280 18:40 25.12.2019
1945 Clouds 6 1018 100 10000 3.6 280 18:21 25.12.2019
1946 Clouds 6 1018 100 10000 3.1 280 17:58 25.12.2019
1947 Clouds 6 1018 100 10000 3.1 280 17:39 25.12.2019
1948 Clouds 6 1017 93 10000 2.6 280 17:18 25.12.2019
1949 Drizzle 6 1017 93 10000 2.6 290 16:55 25.12.2019
1950 Drizzle 6 1017 93 10000 2.6 290 16:36 25.12.2019
1951 Drizzle 6 1016 93 10000 3.1 300 16:18 25.12.2019
1952 Drizzle 6 1016 93 10000 2.6 300 15:55 25.12.2019
1953 Drizzle 6 1016 93 10000 2.6 300 15:36 25.12.2019
1954 Drizzle 6 1015 93 10000 2.6 310 15:18 25.12.2019
1955 Drizzle 6 1015 93 10000 3.1 300 14:54 25.12.2019
1956 Drizzle 6 1015 93 10000 3.1 300 14:36 25.12.2019
1957 Drizzle 6 1014 87 10000 3.1 310 14:18 25.12.2019
1958 Clouds 6 1014 87 10000 3.1 330 13:41 25.12.2019
1959 Drizzle 6 1014 87 10000 3.1 320 13:20 25.12.2019
1960 Drizzle 6 1013 87 10000 3.1 320 12:44 25.12.2019
1961 Clouds 6 1013 93 10000 3.1 320 12:22 25.12.2019
1962 Clouds 6 1013 100 10000 2.6 320 11:58 25.12.2019
1963 Clouds 6 1013 100 10000 2.6 320 11:40 25.12.2019
1964 Drizzle 5 1012 100 10000 3.6 310 11:21 25.12.2019
1965 Drizzle 5 1012 93 10000 2.6 320 10:39 25.12.2019
1966 Drizzle 5 1011 93 10000 2.6 320 10:21 25.12.2019
1967 Drizzle 5 1011 93 10000 2.6 320 09:59 25.12.2019
1968 Drizzle 5 1011 93 10000 2.6 320 09:40 25.12.2019
1969 Drizzle 5 1011 93 10000 3.1 310 09:22 25.12.2019
1970 Drizzle 5 1010 93 7000 2.6 320 08:43 25.12.2019
1971 Drizzle 5 1010 93 10000 2.1 310 08:24 25.12.2019
1972 Drizzle 5 1009 93 7000 3.6 300 07:44 25.12.2019
1973 Clouds 5 1009 93 10000 2.6 310 07:23 25.12.2019
1974 Clouds 5 1008 93 10000 3.1 310 06:24 25.12.2019
1975 Clouds 5 1008 93 10000 3.1 310 05:51 25.12.2019
1976 Drizzle 5 1007 100 5000 3.1 290 04:46 25.12.2019
1977 Clouds 6 1007 100 10000 3.1 300 04:24 25.12.2019
1978 Clouds 6 1007 100 10000 3.6 290 03:46 25.12.2019
1979 Clouds 6 1007 100 10000 2.6 290 03:18 25.12.2019
1980 Clouds 6 1006 93 8000 2.6 290 02:32 25.12.2019
1981 Clouds 6 1005 93 10000 3.6 270 01:54 25.12.2019
1982 Drizzle 6 1005 93 10000 3.1 260 01:24 25.12.2019
1983 Drizzle 6 1005 100 8000 1.5 250 00:46 25.12.2019
1984 Drizzle 6 1005 100 8000 1.5 250 00:27 25.12.2019
1985 Clouds 5 1005 100 10000 2.1 220 23:55 24.12.2019
1986 Drizzle 5 1005 100 5000 1.5 150 23:36 24.12.2019
1987 Drizzle 5 1005 100 2800 2.1 130 23:18 24.12.2019
1988 Drizzle 5 1005 100 4500 1.5 140 22:38 24.12.2019
1989 Clouds 5 1005 100 10000 2.6 150 22:20 24.12.2019
1990 Clouds 5 1005 100 10000 2.6 150 22:20 24.12.2019
1991 Drizzle 5 1005 100 6000 2.6 150 21:42 24.12.2019
1992 Clouds 5 1005 93 10000 3.1 150 21:22 24.12.2019
1993 Clouds 5 1005 93 10000 3.1 150 21:22 24.12.2019
1994 Rain 5 1005 93 10000 3.6 150 20:45 24.12.2019
1995 Rain 5 1006 93 10000 4.1 150 20:24 24.12.2019
1996 Rain 5 1006 93 10000 4.1 150 19:57 24.12.2019
1997 Rain 5 1006 93 10000 3.1 170 19:39 24.12.2019
1998 Rain 6 1006 87 10000 3.6 180 19:19 24.12.2019
1999 Rain 6 1006 87 10000 3.6 190 18:42 24.12.2019
2000 Rain 6 1006 87 10000 4.1 180 18:23 24.12.2019
2001 Rain 6 1006 81 10000 3.1 160 17:58 24.12.2019
2002 Rain 6 1006 81 10000 3.1 160 17:37 24.12.2019
2003 Clouds 6 1006 81 10000 2.6 170 17:19 24.12.2019
2004 Clouds 6 1006 75 10000 3.1 160 16:55 24.12.2019
2005 Clouds 6 1006 75 10000 3.1 160 16:36 24.12.2019
2006 Clouds 7 1007 81 10000 3.1 180 16:18 24.12.2019
2007 Clouds 7 1007 81 10000 3.1 180 15:54 24.12.2019
2008 Clouds 7 1007 81 10000 4.1 180 15:36 24.12.2019
2009 Clouds 7 1007 81 10000 3.1 180 15:18 24.12.2019
2010 Clouds 8 1008 70 10000 3.6 190 14:54 24.12.2019
2011 Clouds 8 1008 70 10000 3.6 190 14:36 24.12.2019
2012 Clouds 8 1008 75 10000 2.1 190 14:18 24.12.2019
2013 Clouds 8 1009 70 10000 2.6 210 13:54 24.12.2019
2014 Clouds 8 1009 70 10000 2.6 210 13:36 24.12.2019
2015 Clouds 8 1009 70 10000 4.6 220 13:18 24.12.2019
2016 Clouds 8 1010 75 10000 4.1 220 12:54 24.12.2019
2017 Clouds 8 1010 75 10000 4.1 220 12:36 24.12.2019
2018 Clouds 7 1010 75 10000 3.6 220 12:18 24.12.2019
2019 Clouds 7 1011 75 10000 4.1 220 11:54 24.12.2019
2020 Clouds 7 1011 75 10000 4.1 220 11:36 24.12.2019
2021 Clouds 6 1011 81 10000 4.1 230 11:18 24.12.2019
2022 Clouds 6 1012 87 10000 3.6 240 10:54 24.12.2019
2023 Clouds 6 1012 87 10000 3.6 240 10:36 24.12.2019
2024 Clouds 6 1012 87 10000 3.6 230 10:18 24.12.2019
2025 Clouds 6 1012 87 10000 4.1 240 09:54 24.12.2019
2026 Clouds 6 1012 87 10000 4.1 240 09:36 24.12.2019
2027 Clouds 6 1012 87 10000 3.1 230 09:18 24.12.2019
2028 Clouds 5 1012 93 10000 4.1 240 08:42 24.12.2019
2029 Clouds 6 1012 93 10000 4.6 240 08:19 24.12.2019
2030 Clouds 5 1012 93 10000 3.1 250 07:44 24.12.2019
2031 Clouds 5 1012 93 10000 3.6 250 07:22 24.12.2019
2032 Clouds 5 1012 93 10000 3.1 260 06:41 24.12.2019
2033 Clouds 5 1012 86 10000 4.6 260 06:22 24.12.2019
2034 Clouds 5 1012 93 10000 4.6 260 05:56 24.12.2019
2035 Clouds 6 1012 93 10000 3.6 250 05:20 24.12.2019
2036 Clouds 6 1012 93 10000 4.6 250 04:33 24.12.2019
2037 Clouds 7 1011 93 10000 5.1 250 03:50 24.12.2019
2038 Clouds 6 1011 93 10000 4.6 250 02:59 24.12.2019
2039 Clouds 6 1011 93 10000 4.1 260 02:18 24.12.2019
2040 Rain 6 1010 93 10000 4.1 250 01:42 24.12.2019
2041 Rain 6 1010 93 10000 4.6 260 01:20 24.12.2019
2042 Rain 6 1010 93 10000 4.6 250 00:43 24.12.2019
2043 Clouds 6 1010 93 10000 3.1 250 00:23 24.12.2019
2044 Drizzle 7 1010 93 10000 4.1 260 23:55 23.12.2019
2045 Drizzle 7 1010 93 10000 4.1 260 23:37 23.12.2019
2046 Drizzle 7 1009 93 10000 4.1 260 23:19 23.12.2019
2047 Drizzle 7 1009 93 10000 4.1 260 22:55 23.12.2019
2048 Drizzle 7 1009 93 10000 5.1 270 22:36 23.12.2019
2049 Clouds 7 1009 87 10000 4.6 250 22:18 23.12.2019
2050 Clouds 7 1008 87 10000 5.1 250 21:55 23.12.2019
2051 Clouds 7 1008 87 10000 5.1 250 21:36 23.12.2019
2052 Clouds 7 1008 87 10000 5.1 250 21:36 23.12.2019
2053 Rain 7 1008 87 10000 4.6 240 21:18 23.12.2019
2054 Clouds 7 1008 81 10000 4.1 240 20:56 23.12.2019
2055 Clouds 7 1008 81 10000 4.1 240 20:56 23.12.2019
2056 Clouds 7 1008 81 10000 4.1 240 20:38 23.12.2019
2057 Clouds 7 1008 81 10000 3.6 250 20:18 23.12.2019
2058 Clouds 7 1007 81 10000 4.1 270 19:55 23.12.2019
2059 Clouds 7 1007 81 10000 4.1 270 19:55 23.12.2019
2060 Clouds 7 1007 81 10000 4.1 270 19:55 23.12.2019
2061 Clouds 7 1007 81 10000 4.1 270 19:37 23.12.2019
2062 Clouds 7 1007 81 10000 5.1 270 19:19 23.12.2019
2063 Clouds 7 1006 75 10000 4.6 260 18:55 23.12.2019
2064 Clouds 7 1006 75 10000 4.6 260 18:37 23.12.2019
2065 Clouds 7 1006 81 10000 4.6 260 18:19 23.12.2019
2066 Clouds 8 1006 87 10000 3.6 260 17:55 23.12.2019
2067 Clouds 7 1006 87 10000 3.6 260 17:37 23.12.2019
2068 Clouds 8 1005 81 10000 3.1 260 17:18 23.12.2019
2069 Clouds 8 1005 81 10000 4.1 270 16:42 23.12.2019
2070 Clouds 8 1004 81 10000 4.1 270 16:19 23.12.2019
2071 Clouds 8 1004 81 10000 3.6 270 15:59 23.12.2019
2072 Clouds 8 1004 81 10000 3.6 270 15:39 23.12.2019
2073 Clouds 8 1003 81 10000 4.1 270 15:20 23.12.2019
2074 Clouds 8 1003 81 10000 3.6 270 14:59 23.12.2019
2075 Clouds 8 1003 81 10000 3.6 270 14:41 23.12.2019
2076 Clouds 8 1002 81 10000 4.1 270 14:23 23.12.2019
2077 Clouds 8 1002 81 10000 4.1 280 13:59 23.12.2019
2078 Clouds 8 1002 81 10000 4.1 280 13:40 23.12.2019
2079 Clouds 8 1002 81 10000 4.1 280 13:40 23.12.2019
2080 Clouds 8 1001 81 10000 4.6 280 13:22 23.12.2019
2081 Clouds 8 1001 81 10000 4.6 280 13:22 23.12.2019
2082 Clouds 8 1001 87 10000 5.7 280 12:58 23.12.2019
2083 Clouds 8 1001 87 10000 5.7 280 12:39 23.12.2019
2084 Clouds 8 1001 87 10000 5.1 280 12:20 23.12.2019
2085 Rain 7 1000 93 10000 5.7 270 11:55 23.12.2019
2086 Rain 7 1000 93 10000 5.7 270 11:37 23.12.2019
2087 Rain 7 1000 93 10000 5.7 270 11:18 23.12.2019
2088 Rain 7 1000 93 10000 5.1 260 10:54 23.12.2019
2089 Rain 7 1000 93 10000 5.1 260 10:36 23.12.2019
2090 Rain 7 999 93 10000 4.1 270 10:18 23.12.2019
2091 Rain 7 999 93 10000 4.1 270 10:18 23.12.2019
2092 Rain 7 999 93 6000 4.6 280 09:40 23.12.2019
2093 Rain 7 998 93 6000 5.7 270 09:22 23.12.2019
2094 Rain 7 998 93 6000 5.7 270 08:58 23.12.2019
2095 Drizzle 7 997 100 3800 4.1 280 08:40 23.12.2019
2096 Drizzle 7 997 93 5000 3.6 280 08:22 23.12.2019
2097 Rain 6 996 93 10000 4.1 260 07:48 23.12.2019
2098 Clouds 6 995 93 10000 4.1 260 07:21 23.12.2019
2099 Clouds 6 995 93 10000 2.6 260 06:57 23.12.2019
2100 Clouds 6 995 93 10000 2.6 260 06:30 23.12.2019
2101 Clouds 6 994 93 10000 1.5 200 05:56 23.12.2019
2102 Clouds 5 994 93 10000 1 180 05:30 23.12.2019
2103 Drizzle 5 993 93 9000 1 180 04:40 23.12.2019
2104 Clouds 5 993 93 10000 1 160 03:36 23.12.2019
2105 Clouds 5 992 93 10000 1.5 140 02:43 23.12.2019
2106 Clouds 5 992 93 10000 1.5 140 02:19 23.12.2019
2107 Clouds 5 991 93 10000 2.1 150 01:46 23.12.2019
2108 Clouds 5 991 93 10000 2.1 150 01:27 23.12.2019
2109 Clouds 5 991 87 10000 2.6 150 00:46 23.12.2019
2110 Clouds 5 991 93 10000 2.6 140 00:25 23.12.2019
2111 Clouds 5 991 93 10000 2.6 140 23:56 22.12.2019
2112 Clouds 5 991 93 10000 2.6 140 23:37 22.12.2019
2113 Clouds 5 990 93 10000 2.1 120 23:19 22.12.2019
2114 Clouds 5 990 93 10000 2.1 120 22:55 22.12.2019
2115 Clouds 5 990 93 10000 2.1 120 22:37 22.12.2019
2116 Clouds 5 990 93 10000 2.6 130 22:18 22.12.2019
2117 Clouds 5 990 93 9000 3.6 130 21:54 22.12.2019
2118 Clouds 5 990 93 9000 3.6 130 21:36 22.12.2019
2119 Clouds 5 990 93 10000 3.6 120 21:18 22.12.2019
2120 Clouds 4 990 93 10000 3.1 120 20:40 22.12.2019
2121 Clouds 4 990 100 10000 3.1 130 20:19 22.12.2019
2122 Clouds 4 990 93 0 3.6 130 19:57 22.12.2019
2123 Clouds 4 990 93 0 3.6 130 19:39 22.12.2019
2124 Clouds 4 990 93 10000 3.1 130 19:20 22.12.2019
2125 Clouds 4 990 93 10000 3.6 120 18:55 22.12.2019
2126 Clouds 4 990 93 10000 3.6 120 18:37 22.12.2019
2127 Clouds 4 990 93 10000 3.1 110 18:18 22.12.2019
2128 Clouds 4 989 100 10000 3.6 130 17:54 22.12.2019
2129 Clouds 4 989 100 10000 3.6 130 17:36 22.12.2019
2130 Clouds 4 989 93 10000 2.1 130 17:18 22.12.2019
2131 Clouds 4 989 93 10000 3.1 130 16:42 22.12.2019
2132 Clouds 4 989 93 10000 3.1 130 16:23 22.12.2019
2133 Clouds 4 989 93 10000 3.1 130 15:57 22.12.2019
2134 Clouds 4 989 93 10000 3.1 130 15:39 22.12.2019
2135 Clouds 4 989 93 10000 3.6 130 15:21 22.12.2019
2136 Clouds 4 989 93 10000 3.6 130 14:57 22.12.2019
2137 Clouds 4 989 86 10000 3.6 120 14:38 22.12.2019
2138 Clouds 4 989 86 10000 2.6 120 14:19 22.12.2019
2139 Clouds 4 989 93 10000 3.6 120 13:56 22.12.2019
2140 Clouds 4 989 93 10000 3.6 120 13:38 22.12.2019
2141 Clouds 3 989 93 10000 3.1 130 13:19 22.12.2019
2142 Clouds 3 989 93 9000 2.6 120 12:57 22.12.2019
2143 Clouds 3 989 93 9000 2.6 120 12:38 22.12.2019
2144 Clouds 3 989 100 6000 3.1 110 12:19 22.12.2019
2145 Clouds 3 989 100 6000 3.1 110 12:19 22.12.2019
2146 Clouds 3 989 100 6000 3.1 110 11:58 22.12.2019
2147 Mist 3 989 93 5000 3.1 130 11:39 22.12.2019
2148 Mist 2 989 93 4800 3.6 110 11:20 22.12.2019
2149 Mist 2 989 93 4800 3.6 110 10:57 22.12.2019
2150 Mist 1 989 100 4500 3.1 120 10:39 22.12.2019
2151 Mist 1 989 100 3500 3.1 100 10:19 22.12.2019
2152 Mist 1 989 100 1500 3.1 120 09:58 22.12.2019
2153 Mist 1 989 100 1500 3.1 120 09:39 22.12.2019
2154 Mist 1 989 100 1400 3.6 130 09:21 22.12.2019
2155 Mist 1 989 100 2200 3.1 160 08:45 22.12.2019
2156 Mist 1 989 100 2200 3.1 160 08:45 22.12.2019
2157 Mist 1 989 100 2000 2.1 180 08:23 22.12.2019
2158 Mist 1 989 100 1600 2.6 150 07:50 22.12.2019
2159 Mist 1 989 100 1200 1.5 140 07:22 22.12.2019
2160 Fog 1 988 100 700 4.1 120 06:57 22.12.2019
2161 Fog 1 989 100 600 2.6 110 06:30 22.12.2019
2162 Fog 1 989 100 450 2.6 100 05:49 22.12.2019
2163 Fog 1 989 100 600 2.6 80 05:21 22.12.2019
2164 Clouds 1 990 100 6000 1 120 04:27 22.12.2019
2165 Clouds 1 990 100 7000 1.5 100 03:45 22.12.2019
2166 Clouds 1 990 100 10000 2.6 130 02:38 22.12.2019
2167 Clouds 2 990 100 10000 2.6 130 01:37 22.12.2019
2168 Clouds 2 990 93 10000 2.1 120 01:18 22.12.2019
2169 Clouds 2 990 100 10000 2.1 120 00:45 22.12.2019
2170 Clouds 2 991 93 10000 2.1 150 00:21 22.12.2019
2171 Clouds 2 991 93 10000 2.1 150 23:55 21.12.2019
2172 Clouds 3 991 93 10000 2.6 140 23:37 21.12.2019
2173 Clouds 3 991 93 10000 2.6 130 23:18 21.12.2019
2174 Clouds 3 991 93 10000 2.1 130 22:40 21.12.2019
2175 Clouds 3 991 93 10000 2.1 130 22:40 21.12.2019
2176 Clouds 3 992 93 10000 2.6 140 22:19 21.12.2019
2177 Clouds 3 992 93 10000 2.6 140 21:57 21.12.2019
2178 Clouds 3 992 93 10000 3.1 160 21:37 21.12.2019
2179 Clouds 3 992 93 10000 2.1 160 21:19 21.12.2019
2180 Clouds 3 992 93 10000 2.6 160 20:58 21.12.2019
2181 Clouds 4 992 93 10000 2.6 160 20:39 21.12.2019
2182 Clouds 4 992 93 10000 2.6 140 20:21 21.12.2019
2183 Clouds 4 992 87 10000 2.6 160 19:58 21.12.2019
2184 Clouds 4 992 87 10000 2.6 160 19:40 21.12.2019
2185 Clouds 5 992 87 10000 2.6 150 19:19 21.12.2019
2186 Clouds 5 993 87 10000 2.6 150 18:45 21.12.2019
2187 Clouds 5 993 87 10000 2.6 160 18:24 21.12.2019
2188 Clouds 5 993 87 10000 2.6 160 17:58 21.12.2019
2189 Clouds 5 993 87 10000 2.6 160 17:58 21.12.2019
2190 Clouds 6 993 87 10000 2.6 170 17:39 21.12.2019
2191 Clouds 6 993 87 10000 2.6 180 17:21 21.12.2019
2192 Clouds 6 993 87 10000 2.6 180 16:59 21.12.2019
2193 Clouds 7 994 81 10000 3.6 170 16:41 21.12.2019
2194 Clouds 7 994 81 10000 3.6 180 16:19 21.12.2019
2195 Clouds 7 994 81 10000 3.6 180 16:19 21.12.2019
2196 Clouds 8 994 81 10000 3.6 180 15:57 21.12.2019
2197 Clouds 8 994 81 10000 3.6 180 15:38 21.12.2019
2198 Clouds 8 994 81 10000 3.6 180 15:38 21.12.2019
2199 Clouds 8 994 81 10000 3.6 180 15:38 21.12.2019
2200 Clouds 9 994 76 10000 3.1 180 15:19 21.12.2019
2201 Clouds 9 994 76 10000 3.1 180 14:57 21.12.2019
2202 Clouds 9 994 76 10000 3.6 190 14:38 21.12.2019
2203 Clouds 9 993 71 10000 2.1 290 14:19 21.12.2019
2204 Clouds 9 993 71 10000 2.1 260 13:56 21.12.2019
2205 Clouds 9 993 71 10000 2.1 260 13:37 21.12.2019
2206 Clouds 9 994 76 10000 3.1 220 13:18 21.12.2019
2207 Clouds 9 995 81 10000 3.6 210 12:55 21.12.2019
2208 Clouds 9 995 81 10000 3.6 210 12:37 21.12.2019
2209 Clouds 9 995 81 10000 3.6 210 12:18 21.12.2019
2210 Clouds 9 994 81 10000 2.1 200 11:43 21.12.2019
2211 Clouds 8 994 93 10000 3.1 200 11:25 21.12.2019
2212 Clouds 8 994 87 10000 3.1 200 10:57 21.12.2019
2213 Clouds 8 994 87 10000 3.1 200 10:57 21.12.2019
2214 Clouds 7 994 87 10000 3.1 200 10:38 21.12.2019
2215 Clouds 7 994 93 10000 2.6 200 10:20 21.12.2019
2216 Clouds 7 994 87 10000 2.6 210 09:56 21.12.2019
2217 Clouds 7 994 87 10000 2.6 210 09:37 21.12.2019
2218 Clouds 7 993 93 10000 2.6 240 09:18 21.12.2019
2219 Clouds 7 993 87 10000 4.1 240 08:44 21.12.2019
2220 Clouds 7 993 87 10000 4.1 240 08:25 21.12.2019
2221 Clouds 8 993 93 10000 3.6 240 07:46 21.12.2019
2222 Clouds 8 993 93 10000 3.6 240 07:22 21.12.2019
2223 Rain 8 993 93 10000 3.1 240 06:46 21.12.2019
2224 Rain 8 993 100 10000 3.6 250 06:26 21.12.2019
2225 Rain 8 993 100 10000 4.1 240 05:55 21.12.2019
2226 Rain 8 992 100 10000 4.1 240 04:58 21.12.2019
2227 Rain 8 992 100 10000 4.1 240 04:58 21.12.2019
2228 Rain 8 992 100 10000 3.1 250 03:59 21.12.2019
2229 Rain 8 992 100 10000 3.6 260 03:37 21.12.2019
2230 Rain 7 991 100 10000 1 0 02:19 21.12.2019
2231 Rain 7 991 93 10000 2.1 210 01:41 21.12.2019
2232 Rain 7 991 93 10000 1.5 180 01:22 21.12.2019
2233 Rain 7 991 93 10000 1 0 00:37 21.12.2019
2234 Rain 7 991 93 10000 1.5 150 00:18 21.12.2019
2235 Rain 7 990 87 10000 1 0 23:38 20.12.2019
2236 Clouds 7 990 81 10000 1.5 190 23:19 20.12.2019
2237 Clouds 7 990 81 10000 2.1 170 22:57 20.12.2019
2238 Clouds 7 990 81 10000 2.1 170 22:36 20.12.2019
2239 Clouds 7 990 81 10000 2.6 160 22:18 20.12.2019
2240 Clouds 7 990 87 10000 2.6 160 21:40 20.12.2019
2241 Clouds 7 991 87 10000 2.6 150 21:20 20.12.2019
2242 Clouds 7 991 87 10000 2.6 150 20:57 20.12.2019
2243 Clouds 7 991 87 10000 2.6 150 20:38 20.12.2019
2244 Clouds 7 991 81 10000 3.6 150 20:18 20.12.2019
2245 Clouds 7 991 87 10000 3.1 150 19:42 20.12.2019
2246 Clouds 7 991 87 10000 3.6 150 19:21 20.12.2019
2247 Clouds 8 991 81 10000 4.1 140 18:58 20.12.2019
2248 Clouds 8 991 81 10000 4.1 140 18:39 20.12.2019
2249 Clouds 8 991 81 10000 3.6 140 18:21 20.12.2019
2250 Clouds 8 991 81 10000 3.6 140 18:21 20.12.2019
2251 Clouds 8 991 87 10000 4.6 120 17:57 20.12.2019
2252 Clouds 8 991 87 10000 4.6 120 17:39 20.12.2019
2253 Clouds 8 991 87 10000 4.6 120 17:39 20.12.2019
2254 Clear 8 992 87 10000 4.1 120 17:20 20.12.2019
2255 Clear 8 992 87 10000 4.1 120 16:56 20.12.2019
2256 Clear 8 992 87 10000 3.6 130 16:38 20.12.2019
2257 Clear 8 992 87 10000 3.6 130 16:19 20.12.2019
2258 Clear 9 993 81 10000 4.6 130 15:54 20.12.2019
2259 Clear 9 993 81 10000 4.1 130 15:36 20.12.2019
2260 Clear 10 993 81 10000 4.1 130 15:18 20.12.2019
2261 Clear 10 994 81 10000 4.1 130 14:42 20.12.2019
2262 Clear 10 994 81 10000 4.1 130 14:24 20.12.2019
2263 Clear 10 994 76 10000 3.1 120 13:57 20.12.2019
2264 Clear 10 995 76 10000 2.1 130 13:37 20.12.2019
2265 Clear 10 995 76 10000 2.1 130 13:19 20.12.2019
2266 Clear 10 995 76 10000 2.6 120 12:56 20.12.2019
2267 Clear 9 996 81 10000 3.1 140 12:36 20.12.2019
2268 Clear 9 996 81 10000 3.1 140 12:18 20.12.2019
2269 Clear 9 997 81 10000 3.1 160 11:57 20.12.2019
2270 Clear 8 997 87 10000 3.1 140 11:38 20.12.2019
2271 Clear 8 997 87 10000 3.1 140 11:38 20.12.2019
2272 Clear 7 997 87 10000 3.1 140 11:18 20.12.2019
2273 Clear 6 998 87 10000 2.1 140 10:56 20.12.2019
2274 Clear 6 997 93 10000 4.1 120 10:37 20.12.2019
2275 Clear 5 997 93 10000 4.1 120 10:19 20.12.2019
2276 Clear 4 999 100 10000 3.1 110 09:43 20.12.2019
2277 Clear 4 999 100 10000 3.1 110 09:21 20.12.2019
2278 Clear 4 999 93 10000 1.5 100 08:57 20.12.2019
2279 Clear 3 999 100 10000 1 0 08:38 20.12.2019
2280 Clouds 3 1000 100 10000 2.6 120 08:20 20.12.2019
2281 Clouds 3 999 100 10000 1 0 08:20 20.12.2019
2282 Clouds 3 1000 100 10000 2.6 120 07:57 20.12.2019
2283 Clouds 3 1000 100 10000 3.1 130 07:38 20.12.2019
2284 Clouds 3 1000 100 10000 3.1 130 07:18 20.12.2019
2285 Clouds 4 1001 93 10000 1.5 120 06:46 20.12.2019
2286 Clouds 3 1002 100 10000 1.5 130 06:28 20.12.2019
2287 Fog 3 1003 100 10000 1 140 05:48 20.12.2019
2288 Fog 3 1003 100 10000 1 140 05:20 20.12.2019
2289 Clouds 4 1004 100 8000 1 0 03:50 20.12.2019
2290 Clouds 4 1004 100 10000 2.6 110 03:21 20.12.2019
2291 Clouds 5 1005 93 6000 4.1 140 02:30 20.12.2019
2292 Clouds 5 1006 93 6000 3.1 120 01:36 20.12.2019
2293 Clouds 6 1006 100 6000 3.6 140 00:58 20.12.2019
2294 Clouds 6 1007 100 6000 4.1 140 00:36 20.12.2019
2295 Mist 6 1008 100 5000 4.1 150 23:58 19.12.2019
2296 Mist 6 1008 100 3500 3.6 140 23:40 19.12.2019
2297 Mist 6 1008 100 3500 3.6 140 23:21 19.12.2019
2298 Mist 6 1009 100 3000 4.6 130 22:40 19.12.2019
2299 Mist 6 1009 100 3000 4.6 130 22:22 19.12.2019
2300 Clouds 6 1010 100 6000 3.6 110 21:59 19.12.2019
2301 Clouds 6 1010 93 6000 4.1 110 21:41 19.12.2019
2302 Clouds 6 1010 93 6000 4.1 110 21:20 19.12.2019
2303 Clouds 6 1010 93 8000 3.6 100 20:58 19.12.2019
2304 Clouds 6 1011 93 8000 4.1 110 20:38 19.12.2019
2305 Clouds 6 1011 93 8000 4.1 110 20:20 19.12.2019
2306 Clouds 6 1011 93 8000 4.1 110 20:20 19.12.2019
2307 Clouds 6 1012 93 9000 3.6 120 19:59 19.12.2019
2308 Clouds 6 1012 93 9000 3.6 130 19:40 19.12.2019
2309 Clouds 6 1012 93 9000 3.6 130 19:20 19.12.2019
2310 Clouds 5 1013 93 10000 3.6 130 18:59 19.12.2019
2311 Clouds 6 1013 93 10000 4.1 120 18:40 19.12.2019
2312 Clouds 6 1013 93 10000 4.1 120 18:20 19.12.2019
2313 Clouds 6 1013 87 10000 3.6 110 17:57 19.12.2019
2314 Clouds 6 1013 87 10000 3.1 120 17:38 19.12.2019
2315 Clouds 6 1013 87 10000 3.1 120 17:18 19.12.2019
2316 Clouds 6 1013 93 10000 3.6 110 16:57 19.12.2019
2317 Clouds 6 1014 87 10000 3.1 110 16:38 19.12.2019
2318 Clouds 7 1014 87 10000 3.1 110 16:20 19.12.2019
2319 Clouds 7 1014 87 10000 3.1 110 16:20 19.12.2019
2320 Clouds 7 1014 87 10000 3.1 110 16:20 19.12.2019
2321 Clouds 7 1014 87 10000 2.6 90 15:58 19.12.2019
2322 Clouds 7 1014 87 10000 3.1 100 15:39 19.12.2019
2323 Clouds 7 1014 87 10000 3.1 100 15:19 19.12.2019
2324 Clouds 7 1015 87 10000 3.1 100 14:58 19.12.2019
2325 Clouds 7 1015 87 10000 3.1 110 14:40 19.12.2019
2326 Clouds 8 1015 87 10000 3.1 110 14:18 19.12.2019
2327 Clouds 7 1016 81 10000 3.1 100 13:56 19.12.2019
2328 Clouds 7 1016 87 10000 3.1 120 13:37 19.12.2019
2329 Clear 7 1016 87 10000 3.1 120 13:18 19.12.2019
2330 Clear 7 1017 87 10000 3.1 120 12:54 19.12.2019
2331 Clear 6 1017 93 10000 3.6 120 12:36 19.12.2019
2332 Clear 6 1017 93 10000 3.6 120 12:18 19.12.2019
2333 Clear 6 1018 93 9000 3.6 120 11:56 19.12.2019
2334 Clouds 6 1018 93 6000 4.1 120 11:38 19.12.2019
2335 Clouds 5 1018 93 6000 4.1 120 11:18 19.12.2019
2336 Mist 4 1019 100 3500 3.6 120 10:39 19.12.2019
2337 Mist 4 1019 100 3500 3.6 120 10:20 19.12.2019
2338 Mist 3 1019 100 3500 3.1 130 09:59 19.12.2019
2339 Mist 3 1019 100 3500 2.6 130 09:38 19.12.2019
2340 Mist 3 1019 100 3500 2.6 130 09:20 19.12.2019
2341 Mist 3 1019 100 3500 2.6 130 09:20 19.12.2019
2342 Mist 3 1019 100 4000 2.6 130 08:57 19.12.2019
2343 Mist 3 1019 100 4000 3.1 120 08:39 19.12.2019
2344 Mist 3 1019 100 4000 3.1 120 08:19 19.12.2019
2345 Mist 3 1019 100 3000 3.1 120 07:56 19.12.2019
2346 Mist 3 1019 100 2500 3.6 130 07:37 19.12.2019
2347 Mist 2 1019 100 2500 3.6 130 07:19 19.12.2019
2348 Fog 2 1019 100 600 3.1 130 06:46 19.12.2019
2349 Fog 2 1019 100 600 3.1 130 06:27 19.12.2019
2350 Fog 2 1020 100 500 2.6 120 05:52 19.12.2019
2351 Fog 2 1020 100 550 3.6 110 05:32 19.12.2019
2352 Fog 2 1020 100 800 3.1 130 04:43 19.12.2019
2353 Fog 1 1021 100 10000 1.5 80 02:49 19.12.2019
2354 Fog 1 1021 100 10000 1 70 01:47 19.12.2019
2355 Fog 1 1021 100 10000 1 70 01:22 19.12.2019
2356 Fog 1 1021 100 10000 1.5 90 00:40 19.12.2019
2357 Fog 2 1021 100 10000 1.5 90 00:21 19.12.2019
2358 Clouds 2 1021 100 10000 0.5 0 23:56 18.12.2019
2359 Clouds 2 1021 93 10000 1 0 23:38 18.12.2019
2360 Clear 2 1021 93 10000 1 0 23:18 18.12.2019
2361 Clear 2 1021 93 10000 1 0 22:55 18.12.2019
2362 Clear 2 1021 93 10000 0.5 0 22:36 18.12.2019
2363 Clear 2 1021 93 10000 0.5 0 22:18 18.12.2019
2364 Clear 2 1021 93 10000 0.5 0 21:55 18.12.2019
2365 Clouds 2 1021 93 10000 0.5 0 21:37 18.12.2019
2366 Clouds 2 1021 93 10000 0.5 0 21:18 18.12.2019
2367 Clouds 3 1021 87 10000 1.5 200 20:54 18.12.2019
2368 Clouds 3 1021 87 10000 1.5 190 20:36 18.12.2019
2369 Clouds 3 1021 87 10000 1.5 190 20:18 18.12.2019
2370 Clouds 4 1021 87 10000 1 0 19:54 18.12.2019
2371 Clouds 4 1020 87 10000 1 0 19:36 18.12.2019
2372 Clouds 4 1020 87 10000 0.5 0 19:18 18.12.2019
2373 Clouds 4 1020 87 10000 0.5 0 19:18 18.12.2019
2374 Clouds 4 1020 81 10000 1 0 18:43 18.12.2019
2375 Clouds 5 1020 81 10000 1 0 18:25 18.12.2019
2376 Clouds 5 1020 81 10000 1 0 18:25 18.12.2019
2377 Clouds 5 1020 87 10000 1 0 17:57 18.12.2019
2378 Clouds 5 1019 81 10000 2.1 210 17:38 18.12.2019
2379 Clouds 6 1019 81 10000 2.1 210 17:19 18.12.2019
2380 Clouds 6 1019 81 10000 1 260 16:55 18.12.2019
2381 Clouds 7 1019 81 10000 1 260 16:37 18.12.2019
2382 Clouds 7 1019 81 10000 3.1 250 16:18 18.12.2019
2383 Clouds 8 1018 70 10000 4.1 240 15:55 18.12.2019
2384 Clouds 8 1018 70 10000 4.1 240 15:37 18.12.2019
2385 Clouds 9 1018 70 10000 3.6 250 15:18 18.12.2019
2386 Clouds 9 1018 71 10000 4.1 260 14:42 18.12.2019
2387 Clouds 9 1018 71 10000 4.1 260 14:42 18.12.2019
2388 Clouds 10 1017 71 10000 3.6 250 14:22 18.12.2019
2389 Clouds 9 1017 76 10000 4.1 250 13:57 18.12.2019
2390 Clouds 9 1017 76 10000 4.1 250 13:39 18.12.2019
2391 Clouds 9 1017 76 10000 4.1 250 13:20 18.12.2019
2392 Clouds 9 1017 70 10000 4.1 260 12:59 18.12.2019
2393 Clouds 9 1017 70 10000 4.1 260 12:38 18.12.2019
2394 Clouds 9 1016 70 10000 3.6 250 12:20 18.12.2019
2395 Clouds 9 1016 70 10000 3.6 270 11:56 18.12.2019
2396 Clouds 9 1016 70 10000 3.6 270 11:38 18.12.2019
2397 Clouds 9 1016 70 10000 3.6 270 11:38 18.12.2019
2398 Clouds 9 1016 70 10000 4.1 290 11:19 18.12.2019
2399 Clouds 9 1015 76 10000 4.1 300 10:57 18.12.2019
2400 Clouds 9 1015 76 10000 4.1 300 10:39 18.12.2019
2401 Clouds 10 1015 70 10000 4.1 300 10:20 18.12.2019
2402 Clouds 10 1014 71 10000 4.1 300 09:52 18.12.2019
2403 Clouds 10 1013 76 10000 5.7 270 09:19 18.12.2019
2404 Clouds 10 1013 76 10000 6.2 280 08:42 18.12.2019
2405 Clouds 11 1012 71 10000 6.7 280 08:24 18.12.2019
2406 Clouds 10 1013 76 10000 6.2 280 08:24 18.12.2019
2407 Clouds 11 1011 71 10000 7.7 270 07:56 18.12.2019
2408 Clouds 11 1011 71 10000 7.7 270 07:38 18.12.2019
2409 Clouds 11 1010 71 10000 7.7 280 07:19 18.12.2019
2410 Clouds 10 1009 71 10000 4.6 270 06:50 18.12.2019
2411 Clouds 10 1008 66 10000 5.1 230 06:22 18.12.2019
2412 Clouds 9 1008 71 10000 3.6 250 05:30 18.12.2019
2413 Rain 10 1007 62 10000 5.1 210 03:46 18.12.2019
2414 Rain 10 1006 66 10000 4.6 240 02:44 18.12.2019
2415 Rain 10 1007 76 10000 5.1 190 02:26 18.12.2019
2416 Clouds 10 1005 66 10000 4.1 180 01:43 18.12.2019
2417 Clouds 10 1005 62 10000 4.6 170 01:25 18.12.2019
2418 Clouds 10 1005 62 10000 4.1 170 00:42 18.12.2019
2419 Rain 10 1006 62 10000 5.1 170 00:24 18.12.2019
2420 Clouds 10 1006 71 10000 3.1 180 23:58 17.12.2019
2421 Clouds 10 1006 71 10000 3.1 180 23:40 17.12.2019
2422 Clouds 10 1006 71 10000 3.1 170 23:21 17.12.2019
2423 Clouds 10 1006 71 10000 2.6 170 22:57 17.12.2019
2424 Clouds 10 1006 71 10000 2.6 170 22:39 17.12.2019
2425 Clouds 10 1007 71 10000 2.6 170 22:20 17.12.2019
2426 Clouds 10 1007 71 10000 2.1 160 21:57 17.12.2019
2427 Clouds 10 1007 71 10000 3.1 190 21:39 17.12.2019
2428 Clouds 10 1007 71 10000 3.6 190 21:20 17.12.2019
2429 Clouds 10 1007 71 10000 3.6 190 20:59 17.12.2019
2430 Clouds 10 1007 71 10000 3.6 190 20:40 17.12.2019
2431 Clouds 10 1006 71 10000 3.6 180 20:19 17.12.2019
2432 Clouds 10 1006 71 10000 3.6 180 19:59 17.12.2019
2433 Clouds 10 1006 71 10000 3.6 180 19:41 17.12.2019
2434 Clouds 10 1006 71 10000 2.6 180 19:20 17.12.2019
2435 Clouds 10 1006 66 10000 3.1 190 18:58 17.12.2019
2436 Clouds 10 1006 66 10000 3.1 190 18:39 17.12.2019
2437 Clouds 10 1006 66 10000 3.1 190 18:21 17.12.2019
2438 Clouds 10 1006 66 10000 4.1 190 17:56 17.12.2019
2439 Clouds 10 1006 66 10000 4.1 190 17:38 17.12.2019
2440 Clouds 10 1006 66 10000 4.6 190 17:18 17.12.2019
2441 Clouds 10 1006 66 10000 3.1 180 16:56 17.12.2019
2442 Clouds 10 1006 66 10000 3.1 180 16:37 17.12.2019
2443 Clouds 10 1006 66 10000 3.1 180 16:37 17.12.2019
2444 Clouds 10 1006 66 10000 3.6 200 16:18 17.12.2019
2445 Clouds 10 1005 66 10000 3.1 200 15:54 17.12.2019
2446 Clouds 11 1005 66 10000 3.1 200 15:36 17.12.2019
2447 Clouds 11 1005 66 10000 3.1 190 15:18 17.12.2019
2448 Clouds 11 1005 62 0 4.6 180 14:54 17.12.2019
2449 Clouds 11 1005 62 0 4.6 180 14:36 17.12.2019
2450 Clouds 11 1005 66 10000 4.1 180 14:18 17.12.2019
2451 Clouds 11 1005 62 10000 4.1 190 13:55 17.12.2019
2452 Clouds 11 1005 62 10000 4.1 190 13:37 17.12.2019
2453 Clouds 10 1005 66 10000 4.1 180 13:18 17.12.2019
2454 Clouds 10 1005 66 10000 3.6 200 12:41 17.12.2019
2455 Clouds 10 1005 71 10000 4.6 190 12:19 17.12.2019
2456 Clouds 10 1005 71 10000 4.6 190 12:19 17.12.2019
2457 Clouds 10 1005 71 10000 4.6 190 12:19 17.12.2019
2458 Clouds 9 1005 71 10000 4.6 190 11:59 17.12.2019
2459 Clouds 9 1005 76 10000 5.1 180 11:37 17.12.2019
2460 Clouds 9 1005 76 10000 5.1 180 11:19 17.12.2019
2461 Clouds 9 1005 76 10000 5.1 180 11:19 17.12.2019
2462 Clouds 8 1005 70 10000 4.1 180 10:59 17.12.2019
2463 Clouds 8 1005 70 10000 4.1 180 10:41 17.12.2019
2464 Clouds 8 1005 70 10000 4.1 180 10:41 17.12.2019
2465 Clouds 7 1005 75 10000 3.1 180 10:22 17.12.2019
2466 Clouds 7 1005 75 10000 3.1 180 09:59 17.12.2019
2467 Clouds 7 1005 81 10000 4.1 170 09:41 17.12.2019
2468 Clouds 6 1005 81 10000 4.1 160 09:20 17.12.2019
2469 Rain 6 1005 81 10000 3.1 160 08:56 17.12.2019
2470 Rain 6 1005 81 10000 3.1 160 08:38 17.12.2019
2471 Rain 6 1004 81 10000 3.6 160 08:19 17.12.2019
2472 Rain 6 1004 87 10000 3.1 160 07:54 17.12.2019
2473 Rain 5 1004 87 10000 3.1 160 07:36 17.12.2019
2474 Clouds 5 1004 87 10000 5.7 150 07:18 17.12.2019
2475 Clouds 5 1005 86 10000 3.6 150 06:35 17.12.2019
2476 Clouds 4 1005 86 10000 3.1 130 05:54 17.12.2019
2477 Clouds 4 1005 93 10000 2.1 140 05:36 17.12.2019
2478 Clouds 4 1005 93 10000 2.6 130 04:33 17.12.2019
2479 Clouds 5 1006 93 10000 1.5 140 02:45 17.12.2019
2480 Clouds 5 1006 93 10000 1.5 80 01:56 17.12.2019
2481 Clouds 5 1007 93 10000 1.5 130 01:20 17.12.2019
2482 Clouds 5 1006 93 10000 1 0 00:38 17.12.2019
2483 Clouds 5 1007 93 10000 2.1 160 00:20 17.12.2019
2484 Clouds 5 1007 93 10000 1.5 140 23:42 16.12.2019
2485 Clouds 5 1007 93 10000 1.5 140 23:42 16.12.2019
2486 Clouds 5 1007 93 10000 1.5 130 23:19 16.12.2019
2487 Clouds 5 1007 93 10000 1.5 140 22:58 16.12.2019
2488 Clouds 6 1007 93 10000 1.5 140 22:38 16.12.2019
2489 Clouds 6 1007 87 10000 2.6 150 22:20 16.12.2019
2490 Clouds 6 1007 87 10000 2.6 150 22:20 16.12.2019
2491 Clouds 6 1007 87 10000 1.5 110 21:56 16.12.2019
2492 Clouds 6 1007 87 10000 1.5 110 21:38 16.12.2019
2493 Clouds 6 1007 87 10000 1.5 110 21:38 16.12.2019
2494 Clouds 6 1007 93 10000 1.5 150 21:20 16.12.2019
2495 Clouds 6 1007 93 10000 1.5 150 20:58 16.12.2019
2496 Clouds 7 1007 87 10000 1.5 170 20:38 16.12.2019
2497 Clouds 7 1007 87 10000 1 0 20:19 16.12.2019
2498 Clouds 7 1007 87 10000 1.5 160 19:56 16.12.2019
2499 Clouds 7 1007 87 10000 1.5 160 19:37 16.12.2019
2500 Clouds 7 1007 93 10000 1 0 19:19 16.12.2019
2501 Rain 7 1007 87 10000 2.1 190 18:58 16.12.2019
2502 Clouds 7 1007 93 10000 1 0 18:58 16.12.2019
2503 Rain 7 1007 87 10000 2.1 190 18:40 16.12.2019
2504 Rain 8 1007 87 10000 2.6 190 18:20 16.12.2019
2505 Rain 8 1008 87 10000 3.6 200 17:57 16.12.2019
2506 Rain 8 1008 87 10000 3.6 200 17:57 16.12.2019
2507 Rain 7 1008 87 10000 3.6 200 17:39 16.12.2019
2508 Rain 7 1007 87 10000 3.1 180 17:21 16.12.2019
2509 Rain 8 1008 87 10000 2.1 170 16:57 16.12.2019
2510 Rain 7 1008 87 10000 2.1 170 16:38 16.12.2019
2511 Rain 8 1008 87 10000 2.1 150 16:19 16.12.2019
2512 Rain 8 1008 87 10000 3.1 150 15:58 16.12.2019
2513 Rain 8 1008 87 10000 3.1 150 15:38 16.12.2019
2514 Clouds 8 1008 81 10000 3.1 160 15:20 16.12.2019
2515 Clouds 8 1008 81 10000 3.1 160 14:57 16.12.2019
2516 Clouds 8 1008 81 10000 2.6 140 14:37 16.12.2019
2517 Clouds 8 1008 81 10000 2.6 140 14:37 16.12.2019
2518 Clouds 8 1008 81 10000 3.1 160 14:19 16.12.2019
2519 Clouds 8 1008 81 10000 3.1 160 14:19 16.12.2019
2520 Clouds 8 1008 81 10000 3.1 160 14:19 16.12.2019
2521 Clouds 8 1008 81 10000 3.1 160 14:19 16.12.2019
2522 Clouds 8 1008 81 10000 3.1 160 13:56 16.12.2019
2523 Clouds 8 1008 81 10000 3.1 160 13:37 16.12.2019
2524 Clouds 7 1008 81 10000 3.6 170 13:19 16.12.2019
2525 Clouds 7 1009 81 10000 3.1 170 12:58 16.12.2019
2526 Clouds 7 1009 81 10000 3.1 170 12:39 16.12.2019
2527 Clouds 7 1009 81 10000 3.6 170 12:19 16.12.2019
2528 Clouds 7 1009 81 10000 3.6 170 11:58 16.12.2019
2529 Clouds 7 1009 81 10000 3.6 170 11:40 16.12.2019
2530 Clouds 7 1010 87 10000 4.6 180 11:20 16.12.2019
2531 Clouds 6 1010 81 10000 4.6 180 10:57 16.12.2019
2532 Clouds 6 1010 81 10000 4.6 180 10:39 16.12.2019
2533 Clouds 6 1010 81 10000 3.6 160 10:19 16.12.2019
2534 Clouds 5 1010 87 10000 3.1 150 09:45 16.12.2019
2535 Clouds 5 1010 87 10000 3.1 150 09:27 16.12.2019
2536 Clouds 5 1010 86 10000 2.6 150 09:27 16.12.2019
2537 Clouds 4 1009 81 10000 2.6 150 08:56 16.12.2019
2538 Clouds 4 1009 81 10000 2.6 150 08:37 16.12.2019
2539 Clouds 4 1009 80 10000 3.1 150 08:18 16.12.2019
2540 Clouds 4 1010 80 10000 3.1 180 07:44 16.12.2019
2541 Clouds 4 1010 80 10000 3.1 190 07:22 16.12.2019
2542 Clouds 4 1010 80 10000 3.1 180 06:45 16.12.2019
2543 Clouds 4 1010 86 10000 1.5 200 06:25 16.12.2019
2544 Clouds 4 1010 80 10000 2.6 190 05:50 16.12.2019
2545 Clouds 4 1010 80 10000 3.1 190 05:31 16.12.2019
2546 Clouds 4 1010 86 10000 2.1 160 04:22 16.12.2019
2547 Clouds 5 1009 75 10000 3.1 210 02:31 16.12.2019
2548 Clouds 5 1009 75 10000 3.1 210 01:45 16.12.2019
2549 Clouds 5 1009 75 10000 3.1 210 01:45 16.12.2019
2550 Clouds 5 1008 75 10000 4.1 220 00:43 16.12.2019
2551 Clouds 5 1008 75 10000 4.6 230 00:25 16.12.2019
2552 Clouds 6 1007 75 10000 5.7 220 23:59 15.12.2019
2553 Clouds 6 1007 75 10000 5.7 220 23:40 15.12.2019
2554 Clouds 6 1007 75 10000 6.2 220 23:21 15.12.2019
2555 Clouds 6 1007 65 10000 6.7 220 22:56 15.12.2019
2556 Clouds 6 1007 65 10000 6.7 220 22:38 15.12.2019
2557 Clouds 6 1006 65 10000 7.2 220 22:18 15.12.2019
2558 Clouds 6 1006 65 10000 6.7 220 21:57 15.12.2019
2559 Clouds 6 1006 65 10000 6.7 220 21:38 15.12.2019
2560 Clouds 6 1005 70 10000 6.7 220 21:19 15.12.2019
2561 Clouds 6 1005 70 10000 6.7 220 20:57 15.12.2019
2562 Clouds 6 1004 70 10000 7.2 220 20:38 15.12.2019
2563 Clouds 6 1004 70 10000 7.2 220 20:38 15.12.2019
2564 Clouds 6 1004 65 10000 6.2 210 20:19 15.12.2019
2565 Clouds 6 1004 67 10000 7.7 220 19:58 15.12.2019
2566 Clouds 6 1004 67 10000 7.7 220 19:39 15.12.2019
2567 Clouds 7 1003 62 10000 8.2 220 19:19 15.12.2019
2568 Clouds 7 1003 67 10000 8.2 220 18:57 15.12.2019
2569 Clouds 7 1003 67 10000 8.2 230 18:38 15.12.2019
2570 Clouds 7 1003 61 10000 8.2 230 18:18 15.12.2019
2571 Clouds 7 1002 70 10000 7.7 220 17:56 15.12.2019
2572 Clouds 7 1002 70 10000 7.7 220 17:56 15.12.2019
2573 Clouds 7 1002 70 10000 7.7 220 17:37 15.12.2019
2574 Clouds 7 1002 70 10000 7.7 230 17:19 15.12.2019
2575 Clouds 7 1001 65 10000 7.2 230 16:57 15.12.2019
2576 Clouds 7 1001 65 10000 7.2 230 16:39 15.12.2019
2577 Clouds 8 1000 70 10000 6.2 230 16:20 15.12.2019
2578 Clouds 8 1000 70 10000 6.7 230 15:55 15.12.2019
2579 Clouds 8 1000 70 10000 6.7 230 15:37 15.12.2019
2580 Clouds 9 999 66 10000 7.7 240 15:18 15.12.2019
2581 Clouds 9 999 66 10000 8.7 240 14:55 15.12.2019
2582 Clouds 9 999 66 10000 8.7 240 14:36 15.12.2019
2583 Clouds 9 998 66 10000 7.2 230 14:18 15.12.2019
2584 Clouds 9 998 66 10000 7.2 230 13:56 15.12.2019
2585 Clouds 9 998 71 10000 7.7 240 13:37 15.12.2019
2586 Clouds 9 997 76 10000 5.7 230 13:19 15.12.2019
2587 Clouds 9 997 87 10000 6.7 210 12:56 15.12.2019
2588 Clouds 9 997 87 10000 6.7 210 12:38 15.12.2019
2589 Clouds 8 996 87 10000 5.7 210 12:20 15.12.2019
2590 Rain 8 996 93 0 8.2 200 11:55 15.12.2019
2591 Rain 7 996 93 10000 5.7 200 11:36 15.12.2019
2592 Rain 7 996 93 10000 5.7 200 11:18 15.12.2019
2593 Drizzle 6 996 93 9000 6.2 180 10:54 15.12.2019
2594 Drizzle 6 996 93 9000 6.2 180 10:36 15.12.2019
2595 Rain 5 996 93 10000 6.2 180 10:18 15.12.2019
2596 Clouds 4 996 86 10000 4.6 150 09:39 15.12.2019
2597 Rain 4 996 93 10000 5.7 150 09:20 15.12.2019
2598 Rain 4 996 93 10000 5.7 150 09:20 15.12.2019
2599 Rain 4 997 86 10000 5.1 150 08:57 15.12.2019
2600 Rain 4 997 86 10000 5.1 150 08:39 15.12.2019
2601 Rain 4 998 80 10000 5.7 170 08:20 15.12.2019
2602 Clouds 3 998 80 10000 4.6 160 07:55 15.12.2019
2603 Clouds 3 998 80 10000 4.6 160 07:34 15.12.2019
2604 Clouds 3 998 76 10000 4.1 170 06:44 15.12.2019
2605 Clouds 3 999 76 10000 4.1 170 06:19 15.12.2019
2606 Clouds 2 999 76 10000 4.1 190 05:26 15.12.2019
2607 Clouds 2 1000 75 10000 4.1 200 04:47 15.12.2019
2608 Clouds 3 1000 75 10000 3.6 210 03:29 15.12.2019
2609 Clouds 4 1000 80 10000 5.1 240 02:34 15.12.2019
2610 Clouds 4 999 80 10000 7.2 250 01:47 15.12.2019
2611 Clouds 4 999 80 10000 7.2 250 01:28 15.12.2019
2612 Clouds 4 998 86 10000 7.7 260 00:57 15.12.2019
2613 Clouds 4 998 86 10000 7.7 260 00:38 15.12.2019
2614 Rain 5 997 86 10000 9.8 290 00:20 15.12.2019
2615 Rain 5 995 86 10000 9.3 230 23:40 14.12.2019
2616 Rain 5 994 86 10000 7.7 210 23:21 14.12.2019
2617 Clouds 5 994 86 10000 6.2 200 22:58 14.12.2019
2618 Clouds 5 994 86 10000 6.2 200 22:40 14.12.2019
2619 Clouds 5 994 86 10000 5.7 210 22:21 14.12.2019
2620 Rain 5 994 80 10000 7.7 230 21:56 14.12.2019
2621 Rain 5 994 80 10000 7.7 230 21:56 14.12.2019
2622 Rain 5 994 80 10000 7.7 230 21:37 14.12.2019
2623 Rain 5 994 80 10000 7.7 220 21:19 14.12.2019
2624 Rain 5 994 80 10000 7.7 220 21:19 14.12.2019
2625 Rain 5 994 80 10000 7.7 220 20:56 14.12.2019
2626 Clouds 5 994 80 10000 5.7 210 20:38 14.12.2019
2627 Clouds 4 994 86 10000 5.7 210 20:19 14.12.2019
2628 Rain 4 993 80 10000 4.6 210 19:56 14.12.2019
2629 Rain 4 993 80 10000 4.6 210 19:37 14.12.2019
2630 Clouds 4 993 80 10000 5.1 220 19:18 14.12.2019
2631 Clouds 4 993 93 10000 4.6 230 18:56 14.12.2019
2632 Clouds 4 993 93 10000 4.6 230 18:36 14.12.2019
2633 Rain 4 992 93 10000 6.2 240 18:18 14.12.2019
2634 Rain 4 992 86 10000 6.7 240 17:43 14.12.2019
2635 Rain 4 992 80 10000 8.2 250 17:23 14.12.2019
2636 Rain 5 991 86 10000 5.1 230 16:58 14.12.2019
2637 Rain 4 991 86 10000 5.1 230 16:38 14.12.2019
2638 Clouds 4 990 86 10000 5.7 230 16:18 14.12.2019
2639 Clouds 4 990 93 10000 5.1 250 15:43 14.12.2019
2640 Clouds 4 989 93 10000 5.1 240 15:21 14.12.2019
2641 Clouds 4 988 93 10000 4.1 230 14:58 14.12.2019
2642 Rain 3 988 93 10000 4.1 230 14:38 14.12.2019
2643 Rain 3 988 93 10000 5.1 240 14:19 14.12.2019
2644 Rain 3 987 93 10000 5.1 220 13:55 14.12.2019
2645 Rain 3 987 93 10000 5.1 220 13:37 14.12.2019
2646 Rain 3 987 93 10000 5.1 240 13:18 14.12.2019
2647 Rain 4 986 93 9000 4.6 210 12:54 14.12.2019
2648 Rain 4 986 93 9000 4.6 210 12:36 14.12.2019
2649 Rain 4 985 93 9000 5.7 210 12:18 14.12.2019
2650 Rain 4 985 86 10000 5.1 200 11:54 14.12.2019
2651 Rain 4 985 86 10000 5.1 200 11:36 14.12.2019
2652 Rain 5 985 86 10000 5.1 200 11:18 14.12.2019
2653 Rain 5 985 80 10000 4.1 180 10:55 14.12.2019
2654 Clouds 5 985 80 10000 4.1 180 10:36 14.12.2019
2655 Clouds 4 985 86 10000 4.6 190 10:18 14.12.2019
2656 Clouds 4 985 86 10000 5.1 190 09:40 14.12.2019
2657 Clouds 4 985 93 10000 5.7 190 09:20 14.12.2019
2658 Clouds 4 985 93 10000 4.6 200 08:44 14.12.2019
2659 Rain 4 985 93 10000 4.1 190 08:20 14.12.2019
2660 Clouds 4 985 100 10000 4.6 190 07:57 14.12.2019
2661 Clouds 3 985 100 10000 4.6 190 07:38 14.12.2019
2662 Clouds 3 985 93 10000 4.1 200 07:19 14.12.2019
2663 Clouds 3 985 93 10000 4.1 200 07:19 14.12.2019
2664 Clouds 3 985 93 10000 3.1 200 06:41 14.12.2019
2665 Drizzle 3 985 93 7000 2.6 200 06:22 14.12.2019
2666 Drizzle 3 985 93 10000 4.1 220 05:22 14.12.2019
2667 Rain 2 984 93 10000 3.1 210 02:49 14.12.2019
2668 Clouds 2 984 93 10000 2.6 200 02:22 14.12.2019
2669 Clouds 2 984 89 10000 2.6 200 01:43 14.12.2019
2670 Clouds 2 984 89 0 2.1 170 00:55 14.12.2019
2671 Clouds 2 984 89 0 2.1 170 00:37 14.12.2019
2672 Clouds 2 984 89 10000 2.6 150 00:18 14.12.2019
2673 Clouds 2 983 89 10000 3.1 140 23:41 13.12.2019
2674 Clouds 2 983 87 10000 2.6 140 23:19 13.12.2019
2675 Clouds 2 983 87 10000 2.6 140 23:19 13.12.2019
2676 Clouds 2 983 87 10000 2.6 130 22:56 13.12.2019
2677 Clouds 2 983 87 10000 2.6 130 22:37 13.12.2019
2678 Clouds 2 983 87 10000 2.6 130 22:37 13.12.2019
2679 Clouds 2 983 87 10000 2.1 140 22:18 13.12.2019
2680 Clouds 2 983 87 10000 2.6 140 21:42 13.12.2019
2681 Clouds 2 983 87 10000 3.6 140 21:21 13.12.2019
2682 Clouds 2 983 87 10000 4.1 150 20:59 13.12.2019
2683 Clouds 2 983 87 10000 4.1 150 20:39 13.12.2019
2684 Clouds 2 983 83 10000 4.1 140 20:20 13.12.2019
2685 Clouds 2 983 83 10000 4.1 140 19:56 13.12.2019
2686 Clouds 2 983 83 10000 5.1 140 19:38 13.12.2019
2687 Clouds 2 982 83 10000 4.1 150 19:19 13.12.2019
2688 Clouds 2 982 83 10000 4.1 150 18:55 13.12.2019
2689 Clouds 2 982 83 10000 3.1 130 18:36 13.12.2019
2690 Clouds 2 982 83 10000 3.1 130 18:18 13.12.2019
2691 Clouds 2 982 80 10000 4.1 110 17:40 13.12.2019
2692 Clouds 2 982 80 10000 4.1 110 17:40 13.12.2019
2693 Clouds 2 982 80 10000 4.1 110 17:19 13.12.2019
2694 Clouds 2 983 86 10000 4.1 110 16:58 13.12.2019
2695 Clouds 2 982 86 10000 4.1 110 16:39 13.12.2019
2696 Clouds 1 982 86 10000 4.1 110 16:20 13.12.2019
2697 Clouds 2 982 80 10000 3.6 100 15:43 13.12.2019
2698 Clouds 2 982 80 10000 4.1 90 15:22 13.12.2019
2699 Clouds 2 982 74 10000 5.1 120 14:58 13.12.2019
2700 Clouds 2 982 74 10000 4.6 140 14:39 13.12.2019
2701 Clouds 2 982 74 10000 4.6 140 14:20 13.12.2019
2702 Clouds 3 982 74 10000 5.1 120 13:56 13.12.2019
2703 Clouds 2 982 80 10000 6.7 120 13:37 13.12.2019
2704 Clouds 2 982 80 10000 6.7 120 13:37 13.12.2019
2705 Clouds 3 983 74 10000 5.1 130 13:18 13.12.2019
2706 Clouds 2 983 80 10000 5.7 130 12:42 13.12.2019
2707 Clouds 2 983 80 10000 5.7 130 12:20 13.12.2019
2708 Clouds 2 984 80 10000 6.2 130 11:57 13.12.2019
2709 Clear 2 984 80 10000 6.2 120 11:39 13.12.2019
2710 Clear 2 984 80 10000 6.2 120 11:19 13.12.2019
2711 Clear 1 985 86 10000 5.7 110 10:41 13.12.2019
2712 Clear 1 985 86 10000 5.7 110 10:22 13.12.2019
2713 Clear 0 985 86 10000 5.1 110 09:54 13.12.2019
2714 Clouds 0 986 76 10000 5.7 110 09:36 13.12.2019
2715 Clouds 0 986 76 10000 6.2 120 09:18 13.12.2019
2716 Clear 0 987 75 10000 5.1 120 08:41 13.12.2019
2717 -273 0 0 0 0 0 08:23 13.12.2019
2718 Clouds 0 988 86 10000 5.7 120 07:44 13.12.2019
2719 Clouds 0 988 86 10000 5.7 120 07:21 13.12.2019
2720 Clouds 0 988 84 10000 4.1 120 06:51 13.12.2019
2721 Clouds 0 989 84 10000 4.1 130 06:28 13.12.2019
2722 Clouds 0 989 84 10000 5.1 120 05:45 13.12.2019
2723 Clouds 0 990 91 10000 4.1 120 05:24 13.12.2019
2724 Clouds 0 991 91 10000 3.6 130 04:35 13.12.2019
2725 Clouds 0 993 86 10000 4.1 150 03:39 13.12.2019
2726 Clouds 0 994 91 10000 4.6 150 02:34 13.12.2019
2727 Clouds 1 995 86 10000 4.1 150 01:44 13.12.2019
2728 Clouds 1 995 82 10000 4.6 150 00:56 13.12.2019
2729 Clouds 1 996 82 10000 4.6 150 00:37 13.12.2019
2730 Clouds 1 997 93 10000 4.6 140 23:59 12.12.2019
2731 Clouds 1 997 93 10000 4.6 140 23:59 12.12.2019
2732 Clouds 1 997 93 10000 4.1 150 23:39 12.12.2019
2733 Clouds 1 997 93 10000 4.1 150 23:21 12.12.2019
2734 Clouds 2 998 93 10000 4.1 150 22:56 12.12.2019
2735 Clouds 2 998 93 10000 3.6 150 22:37 12.12.2019
2736 Clouds 2 998 93 10000 3.6 150 22:18 12.12.2019
2737 Clouds 2 999 93 10000 4.1 150 21:55 12.12.2019
2738 Clouds 2 999 93 10000 3.1 150 21:36 12.12.2019
2739 Clouds 2 999 93 10000 3.1 150 21:36 12.12.2019
2740 Clouds 2 999 86 10000 2.6 160 21:18 12.12.2019
2741 Clouds 2 999 86 10000 2.6 160 20:55 12.12.2019
2742 Clouds 2 1000 86 10000 3.6 170 20:37 12.12.2019
2743 Clouds 2 1000 86 10000 3.6 170 20:19 12.12.2019
2744 Clouds 2 1000 86 10000 3.1 190 19:42 12.12.2019
2745 Clouds 2 1000 86 10000 3.1 190 19:23 12.12.2019
2746 Clouds 3 1000 93 10000 3.1 180 18:58 12.12.2019
2747 Clouds 3 1001 93 10000 4.1 170 18:40 12.12.2019
2748 Clouds 3 1001 93 10000 4.1 170 18:40 12.12.2019
2749 Clouds 3 1001 93 10000 4.1 170 18:21 12.12.2019
2750 Clouds 3 1001 86 10000 3.6 170 17:59 12.12.2019
2751 Clouds 3 1001 86 10000 4.1 180 17:40 12.12.2019
2752 Clouds 3 1001 86 10000 4.1 180 17:21 12.12.2019
2753 Clouds 3 1001 86 10000 4.1 170 16:59 12.12.2019
2754 Clouds 4 1001 86 10000 4.1 190 16:41 12.12.2019
2755 Clouds 4 1001 86 10000 4.1 190 16:21 12.12.2019
2756 Clouds 4 1001 86 10000 4.1 190 15:58 12.12.2019
2757 Clouds 4 1001 86 10000 2.6 200 15:40 12.12.2019
2758 Clouds 4 1001 86 10000 2.6 200 15:19 12.12.2019
2759 Clouds 4 1001 86 10000 3.6 190 14:57 12.12.2019
2760 Clouds 4 1002 93 10000 3.1 200 14:36 12.12.2019
2761 Clouds 4 1002 93 10000 3.1 200 14:18 12.12.2019
2762 Clouds 4 1002 93 10000 3.1 210 13:54 12.12.2019
2763 Clouds 4 1002 93 10000 3.6 220 13:36 12.12.2019
2764 Clouds 4 1002 93 10000 3.6 220 13:18 12.12.2019
2765 Clouds 4 1002 93 10000 3.6 220 13:18 12.12.2019
2766 Clouds 4 1003 93 10000 4.1 210 12:42 12.12.2019
2767 Clouds 4 1003 93 10000 4.1 210 12:22 12.12.2019
2768 Clouds 3 1003 93 9000 3.6 200 11:59 12.12.2019
2769 Clouds 3 1003 93 8000 3.6 200 11:40 12.12.2019
2770 Clouds 3 1003 93 8000 3.6 200 11:21 12.12.2019
2771 Clouds 3 1003 93 8000 3.1 220 10:59 12.12.2019
2772 Clouds 3 1003 93 8000 2.6 220 10:40 12.12.2019
2773 Clouds 3 1003 93 8000 2.6 220 10:22 12.12.2019
2774 Clouds 2 1003 93 7000 2.6 210 09:56 12.12.2019
2775 Mist 2 1003 100 5000 3.1 220 09:38 12.12.2019
2776 Mist 2 1003 100 5000 3.1 220 09:20 12.12.2019
2777 Mist 2 1002 100 5000 3.6 240 08:48 12.12.2019
2778 Drizzle 2 1002 100 7000 3.6 230 08:29 12.12.2019
2779 Drizzle 2 1002 93 6000 4.1 240 07:59 12.12.2019
2780 Drizzle 2 1002 93 10000 3.6 240 07:39 12.12.2019
2781 Drizzle 2 1002 93 10000 3.6 240 07:20 12.12.2019
2782 Snow 1 1002 100 9000 3.6 220 06:42 12.12.2019
2783 Snow 1 1002 100 9000 3.6 220 06:23 12.12.2019
2784 Rain 1 1002 100 8000 3.1 210 05:34 12.12.2019
2785 Snow 1 1002 100 7000 2.6 200 04:49 12.12.2019
2786 Snow 2 1003 93 10000 3.1 190 02:44 12.12.2019
2787 Snow 2 1003 93 10000 3.1 190 02:26 12.12.2019
2788 Snow 2 1003 78 10000 2.6 200 01:59 12.12.2019
2789 Rain 2 1004 74 10000 3.1 190 01:36 12.12.2019
2790 Clouds 2 1004 69 10000 3.1 180 01:18 12.12.2019
2791 Clouds 2 1004 69 10000 2.1 170 00:40 12.12.2019
2792 Clouds 2 1004 69 10000 2.1 170 00:18 12.12.2019
2793 Clouds 2 1005 60 10000 3.6 180 23:42 11.12.2019
2794 Clouds 3 1005 60 10000 3.6 180 23:20 11.12.2019
2795 Clouds 3 1005 60 10000 3.6 190 22:57 11.12.2019
2796 Clouds 3 1005 60 10000 3.6 180 22:38 11.12.2019
2797 Clouds 3 1005 60 10000 3.6 180 22:19 11.12.2019
2798 Clouds 3 1005 60 10000 3.1 170 21:57 11.12.2019
2799 Clouds 3 1006 64 10000 2.6 160 21:37 11.12.2019
2800 Clouds 3 1006 64 10000 2.6 160 21:19 11.12.2019
2801 Clouds 3 1006 64 10000 3.1 150 20:56 11.12.2019
2802 Clouds 3 1006 64 10000 3.1 150 20:56 11.12.2019
2803 Clouds 3 1006 64 10000 3.1 160 20:37 11.12.2019
2804 Clouds 3 1006 64 10000 3.1 160 20:19 11.12.2019
2805 Clouds 3 1006 64 10000 3.6 160 19:57 11.12.2019
2806 Clouds 3 1007 64 10000 3.1 150 19:38 11.12.2019
2807 Clouds 3 1007 64 10000 3.1 150 19:18 11.12.2019
2808 Clouds 4 1007 56 10000 4.1 170 18:41 11.12.2019
2809 Clouds 4 1007 56 10000 4.1 170 18:21 11.12.2019
2810 Clouds 4 1008 56 10000 4.6 170 17:57 11.12.2019
2811 Clouds 4 1008 56 10000 4.6 170 17:57 11.12.2019
2812 Clouds 4 1008 64 10000 4.6 170 17:39 11.12.2019
2813 Clouds 4 1008 64 10000 4.6 170 17:18 11.12.2019
2814 Clouds 4 1008 60 10000 4.6 180 16:57 11.12.2019
2815 Clouds 4 1008 60 10000 4.1 170 16:39 11.12.2019
2816 Clouds 4 1008 60 10000 4.1 170 16:21 11.12.2019
2817 Clouds 4 1009 60 10000 4.6 180 15:59 11.12.2019
2818 Clouds 4 1009 60 10000 4.1 190 15:40 11.12.2019
2819 Clouds 4 1009 60 10000 4.1 190 15:22 11.12.2019
2820 Clouds 4 1009 60 10000 5.7 180 14:56 11.12.2019
2821 Clouds 4 1009 60 10000 5.7 180 14:37 11.12.2019
2822 Clouds 4 1010 60 10000 5.7 190 14:19 11.12.2019
2823 Clouds 4 1010 60 10000 5.7 190 13:55 11.12.2019
2824 Clouds 4 1010 60 10000 6.2 190 13:36 11.12.2019
2825 Clouds 4 1010 60 10000 6.2 190 13:18 11.12.2019
2826 Clouds 4 1011 64 10000 5.7 190 12:55 11.12.2019
2827 Clouds 4 1011 64 10000 5.1 190 12:37 11.12.2019
2828 Clouds 4 1011 64 10000 5.1 190 12:18 11.12.2019
2829 Clouds 4 1011 64 10000 5.1 190 12:18 11.12.2019
2830 Clouds 4 1012 64 10000 5.1 180 11:57 11.12.2019
2831 Clouds 4 1012 64 10000 5.1 180 11:57 11.12.2019
2832 Clouds 4 1012 64 10000 5.1 180 11:38 11.12.2019
2833 Clouds 4 1012 64 10000 5.1 180 11:38 11.12.2019
2834 Clouds 4 1012 64 10000 5.1 180 11:18 11.12.2019
2835 Clouds 3 1013 69 10000 5.1 170 10:45 11.12.2019
2836 Clouds 3 1013 69 10000 5.1 170 10:27 11.12.2019
2837 Clouds 3 1013 69 10000 5.7 180 09:59 11.12.2019
2838 Clouds 3 1013 69 10000 5.7 180 09:40 11.12.2019
2839 Clouds 2 1013 69 10000 5.1 180 09:21 11.12.2019
2840 Clouds 2 1013 69 10000 5.1 180 08:58 11.12.2019
2841 Clouds 2 1013 69 10000 4.6 180 08:38 11.12.2019
2842 Clouds 2 1013 69 10000 5.1 180 08:19 11.12.2019
2843 Clouds 2 1013 69 10000 5.1 180 07:55 11.12.2019
2844 Clouds 2 1013 69 10000 5.1 190 07:37 11.12.2019
2845 Clouds 2 1013 69 10000 5.1 190 07:18 11.12.2019
2846 Clouds 2 1013 69 10000 5.1 190 07:18 11.12.2019
2847 Clouds 2 1014 74 10000 5.1 180 06:43 11.12.2019
2848 Clouds 2 1014 74 10000 5.1 180 06:22 11.12.2019
2849 Clouds 2 1014 74 10000 6.2 180 05:41 11.12.2019
2850 Clouds 2 1014 74 10000 6.2 180 05:20 11.12.2019
2851 Clouds 1 1015 74 10000 5.1 180 04:28 11.12.2019
2852 Clouds 1 1017 86 10000 5.7 170 02:49 11.12.2019
2853 Clear 1 1019 86 10000 5.1 180 01:26 11.12.2019
2854 Clear 1 1019 86 10000 5.7 180 00:49 11.12.2019
2855 Clear 1 1019 86 10000 6.2 180 00:23 11.12.2019
2856 Clear 1 1020 80 10000 5.7 180 23:58 10.12.2019
2857 Clear 1 1021 73 10000 5.1 180 23:39 10.12.2019
2858 Clear 1 1021 77 10000 5.1 180 23:21 10.12.2019
2859 Clear 1 1021 77 10000 4.1 190 22:40 10.12.2019
2860 Clear 1 1021 77 10000 4.1 190 22:22 10.12.2019
2861 Clear 1 1022 77 10000 4.1 190 21:57 10.12.2019
2862 Clear 1 1022 77 10000 4.1 190 21:39 10.12.2019
2863 Clear 1 1022 77 10000 4.1 190 21:39 10.12.2019
2864 Clear 1 1022 77 10000 4.1 190 21:21 10.12.2019
2865 Clear 1 1022 93 10000 4.1 190 20:57 10.12.2019
2866 Clear 1 1022 93 10000 3.6 190 20:38 10.12.2019
2867 Clear 1 1022 93 10000 3.6 190 20:19 10.12.2019
2868 Clear 1 1022 93 10000 3.6 190 20:19 10.12.2019
2869 Clear 1 1022 93 10000 3.6 190 20:19 10.12.2019
2870 Clear 2 1022 86 10000 3.6 210 19:56 10.12.2019
2871 Clear 2 1022 86 10000 3.1 190 19:37 10.12.2019
2872 Clear 1 1022 86 10000 3.1 190 19:19 10.12.2019
2873 Clear 2 1023 86 10000 2.6 190 18:42 10.12.2019
2874 Clear 2 1023 86 10000 2.6 190 18:21 10.12.2019
2875 Clear 2 1023 86 10000 2.6 210 17:59 10.12.2019
2876 Clear 2 1023 86 10000 2.6 210 17:41 10.12.2019
2877 Clear 3 1023 80 10000 2.6 210 17:22 10.12.2019
2878 Clear 3 1023 80 10000 2.6 210 16:57 10.12.2019
2879 Clear 3 1023 86 10000 2.6 230 16:39 10.12.2019
2880 Clear 4 1023 80 10000 3.1 250 16:19 10.12.2019
2881 Clear 5 1023 80 10000 3.6 250 15:39 10.12.2019
2882 Clear 5 1023 80 10000 3.6 250 15:19 10.12.2019
2883 Clouds 6 1023 70 10000 4.1 250 14:57 10.12.2019
2884 Clouds 6 1023 70 10000 4.6 260 14:38 10.12.2019
2885 Clouds 6 1023 70 10000 4.6 260 14:20 10.12.2019
2886 Clouds 6 1023 75 10000 3.6 270 13:58 10.12.2019
2887 Clouds 6 1023 75 10000 4.1 270 13:40 10.12.2019
2888 Clouds 6 1023 80 10000 4.6 260 13:20 10.12.2019
2889 Clouds 5 1023 80 10000 4.6 260 12:55 10.12.2019
2890 Clouds 5 1023 75 10000 4.1 280 12:36 10.12.2019
2891 Clouds 5 1023 75 10000 4.1 280 12:18 10.12.2019
2892 Clear 5 1022 80 10000 4.1 280 11:40 10.12.2019
2893 Clear 4 1022 80 10000 4.1 280 11:22 10.12.2019
2894 Clear 4 1022 80 10000 4.1 290 10:55 10.12.2019
2895 Clear 3 1021 86 10000 4.1 290 10:36 10.12.2019
2896 Clear 3 1021 86 10000 4.1 290 10:18 10.12.2019
2897 Clear 3 1021 86 10000 4.6 290 09:54 10.12.2019
2898 Clear 3 1020 93 10000 4.6 290 09:36 10.12.2019
2899 Clear 3 1020 93 10000 4.6 290 09:18 10.12.2019
2900 Clouds 2 1019 93 10000 4.6 280 08:41 10.12.2019
2901 Clouds 2 1019 93 10000 4.6 280 08:22 10.12.2019
2902 Clouds 2 1019 93 10000 4.6 280 08:22 10.12.2019
2903 Clouds 3 1018 86 10000 5.1 280 07:57 10.12.2019
2904 Clouds 3 1018 86 10000 5.1 280 07:39 10.12.2019
2905 Clouds 3 1018 86 10000 5.1 280 07:21 10.12.2019
2906 Clouds 3 1017 86 10000 4.6 280 06:46 10.12.2019
2907 Clouds 3 1016 86 10000 6.2 280 06:19 10.12.2019
2908 Clouds 3 1016 86 10000 5.7 280 05:53 10.12.2019
2909 Clouds 3 1014 86 10000 5.1 290 04:52 10.12.2019
2910 Clouds 4 1013 80 10000 6.2 290 03:37 10.12.2019
2911 Clouds 4 1012 80 10000 5.7 290 02:45 10.12.2019
2912 Clouds 5 1009 80 10000 6.2 290 01:44 10.12.2019
2913 Rain 5 1009 80 10000 6.2 290 01:21 10.12.2019
2914 Clouds 5 1008 86 10000 5.7 280 00:42 10.12.2019
2915 Clouds 5 1008 86 10000 5.7 280 00:21 10.12.2019
2916 Clouds 6 1006 87 10000 4.6 280 23:42 09.12.2019
2917 Clouds 6 1006 87 10000 4.6 280 23:23 09.12.2019
2918 Clouds 6 1006 87 10000 4.6 280 23:23 09.12.2019
2919 Clouds 6 1006 93 10000 4.1 280 22:58 09.12.2019
2920 Clouds 6 1005 93 10000 4.1 280 22:40 09.12.2019
2921 Rain 6 1005 93 10000 4.1 280 22:20 09.12.2019
2922 Drizzle 6 1004 93 10000 4.6 280 21:57 09.12.2019
2923 Drizzle 6 1003 93 10000 5.1 280 21:39 09.12.2019
2924 Drizzle 6 1003 93 10000 5.1 280 21:19 09.12.2019
2925 Clouds 6 1003 93 10000 5.7 270 20:57 09.12.2019
2926 Drizzle 7 1002 100 10000 4.6 270 20:39 09.12.2019
2927 Drizzle 7 1002 100 10000 4.6 270 20:20 09.12.2019
2928 Rain 7 1001 93 10000 4.1 270 19:56 09.12.2019
2929 Rain 7 1001 93 10000 6.7 260 19:38 09.12.2019
2930 Rain 7 1001 93 10000 6.7 260 19:19 09.12.2019
2931 Rain 7 1000 81 10000 5.1 230 18:58 09.12.2019
2932 Rain 7 999 81 10000 6.7 220 18:39 09.12.2019
2933 Rain 7 999 81 10000 6.7 220 18:20 09.12.2019
2934 Rain 8 999 75 10000 4.1 200 17:59 09.12.2019
2935 Rain 8 999 75 10000 3.6 200 17:40 09.12.2019
2936 Rain 8 999 75 10000 3.6 200 17:21 09.12.2019
2937 Rain 8 999 75 10000 4.6 210 16:56 09.12.2019
2938 Rain 8 998 70 10000 5.7 210 16:38 09.12.2019
2939 Clouds 9 998 66 10000 4.6 210 16:20 09.12.2019
2940 Clouds 9 998 66 10000 4.6 210 16:20 09.12.2019
2941 Clouds 9 998 66 10000 4.6 210 15:56 09.12.2019
2942 Clouds 9 998 66 10000 4.6 210 15:56 09.12.2019
2943 Rain 9 998 66 10000 5.7 210 15:37 09.12.2019
2944 Clouds 9 998 66 10000 6.7 210 15:19 09.12.2019
2945 Clouds 9 998 66 10000 6.7 210 14:58 09.12.2019
2946 Clouds 9 998 66 10000 6.7 210 14:39 09.12.2019
2947 Clouds 9 998 66 10000 6.7 210 14:18 09.12.2019
2948 Clouds 10 998 66 10000 7.2 210 13:55 09.12.2019
2949 Clouds 10 998 61 10000 6.7 210 13:36 09.12.2019
2950 Clouds 10 998 61 10000 6.7 210 13:18 09.12.2019
2951 Clouds 9 998 66 10000 6.2 210 12:54 09.12.2019
2952 Clouds 9 998 66 10000 6.7 210 12:36 09.12.2019
2953 Clouds 9 998 70 10000 6.2 200 12:18 09.12.2019
2954 Clouds 9 998 75 10000 5.7 190 11:40 09.12.2019
2955 Clouds 8 998 75 10000 5.7 190 11:22 09.12.2019
2956 Clouds 8 998 81 10000 4.6 200 10:59 09.12.2019
2957 Clouds 7 998 81 10000 4.1 200 10:39 09.12.2019
2958 Clouds 7 998 81 10000 4.1 200 10:19 09.12.2019
2959 Clouds 6 998 75 10000 4.6 200 09:55 09.12.2019
2960 Clouds 6 998 75 10000 5.1 200 09:36 09.12.2019
2961 Clouds 6 998 75 10000 5.1 200 09:18 09.12.2019
2962 Clouds 5 998 75 10000 4.6 200 08:40 09.12.2019
2963 Clouds 5 998 75 10000 4.6 200 08:22 09.12.2019
2964 Clouds 6 998 75 10000 5.7 210 07:52 09.12.2019
2965 Clouds 6 998 75 10000 5.7 220 07:34 09.12.2019
2966 Clouds 6 998 70 10000 6.2 240 06:59 09.12.2019
2967 Clouds 6 998 70 10000 7.2 230 06:37 09.12.2019
2968 Clouds 7 998 70 10000 7.2 230 06:19 09.12.2019
2969 Clouds 7 997 75 10000 8.2 240 05:25 09.12.2019
2970 Clouds 8 997 75 10000 6.7 220 04:29 09.12.2019
2971 Clouds 7 997 75 10000 5.1 200 03:18 09.12.2019
2972 Clouds 8 997 70 10000 4.1 200 01:48 09.12.2019
2973 Clouds 8 997 70 10000 4.6 200 01:28 09.12.2019
2974 Clouds 8 997 70 10000 5.7 220 00:45 09.12.2019
2975 Clouds 8 997 70 10000 5.1 230 00:24 09.12.2019
2976 Clouds 8 997 70 10000 4.6 230 23:39 08.12.2019
2977 Clouds 9 997 70 10000 4.6 230 23:21 08.12.2019
2978 Clouds 9 997 75 10000 4.6 250 22:56 08.12.2019
2979 Clouds 9 997 76 10000 7.2 260 22:38 08.12.2019
2980 Clouds 9 997 76 10000 7.2 260 22:18 08.12.2019
2981 Clouds 9 997 76 10000 7.2 260 22:18 08.12.2019
2982 Clouds 10 997 71 10000 8.7 260 21:57 08.12.2019
2983 Clouds 10 997 71 10000 8.7 260 21:39 08.12.2019
2984 Clouds 10 997 71 10000 8.7 260 21:39 08.12.2019
2985 Clouds 10 997 81 10000 6.7 240 21:19 08.12.2019
2986 Clouds 10 997 81 10000 7.2 240 20:57 08.12.2019
2987 Clouds 10 997 81 10000 6.2 240 20:38 08.12.2019
2988 Clouds 10 997 81 10000 6.2 240 20:20 08.12.2019
2989 Clouds 10 997 87 10000 4.1 230 19:57 08.12.2019
2990 Clouds 10 997 93 10000 4.6 240 19:39 08.12.2019
2991 Clouds 10 997 93 10000 4.6 240 19:21 08.12.2019
2992 Rain 11 997 93 10000 4.6 250 18:55 08.12.2019
2993 Drizzle 10 997 93 5000 4.6 280 18:37 08.12.2019
2994 Drizzle 10 997 93 5000 4.6 280 18:37 08.12.2019
2995 Drizzle 10 997 93 5000 4.6 280 18:18 08.12.2019
2996 Rain 10 997 76 8000 9.3 210 17:56 08.12.2019
2997 Clouds 10 997 76 10000 8.2 210 17:38 08.12.2019
2998 Clouds 10 997 76 10000 8.2 210 17:19 08.12.2019
2999 Clouds 10 997 71 10000 8.7 220 16:56 08.12.2019
3000 Clouds 10 998 71 10000 8.2 220 16:38 08.12.2019
3001 Clouds 10 998 71 10000 8.2 220 16:20 08.12.2019
3002 Clouds 10 998 76 10000 8.2 210 15:55 08.12.2019
3003 Rain 10 998 76 10000 7.7 210 15:36 08.12.2019
3004 Rain 10 998 76 10000 7.7 210 15:18 08.12.2019
3005 Rain 9 998 87 10000 5.1 210 14:43 08.12.2019
3006 Rain 9 999 87 10000 5.7 200 14:24 08.12.2019
3007 Rain 9 999 81 10000 6.7 210 13:58 08.12.2019
3008 Rain 9 999 71 10000 6.7 210 13:40 08.12.2019
3009 Rain 9 999 71 10000 6.7 210 13:21 08.12.2019
3010 Clouds 10 1000 71 10000 7.2 210 12:56 08.12.2019
3011 Clouds 10 1000 66 10000 7.7 210 12:38 08.12.2019
3012 Clouds 10 1000 66 10000 7.7 210 12:18 08.12.2019
3013 Clouds 10 1001 66 10000 8.2 210 11:57 08.12.2019
3014 Clouds 10 1002 70 10000 6.2 210 11:37 08.12.2019
3015 Clouds 9 1002 70 10000 6.2 210 11:19 08.12.2019
3016 Clouds 9 1003 70 10000 6.7 210 10:40 08.12.2019
3017 Clouds 9 1003 70 10000 6.7 210 10:22 08.12.2019
3018 Clouds 8 1003 75 10000 7.2 200 09:58 08.12.2019
3019 Clouds 8 1004 75 10000 5.1 190 09:39 08.12.2019
3020 Clouds 8 1004 75 10000 5.1 190 09:20 08.12.2019
3021 Clouds 8 1004 75 10000 5.7 190 08:59 08.12.2019
3022 Clouds 8 1005 75 10000 6.2 200 08:41 08.12.2019
3023 Clouds 8 1005 75 10000 6.2 200 08:22 08.12.2019
3024 Clouds 8 1005 75 10000 6.2 210 07:49 08.12.2019
3025 Clouds 8 1006 75 10000 5.7 210 07:21 08.12.2019
3026 Clouds 8 1006 70 10000 5.7 200 06:59 08.12.2019
3027 Clouds 8 1006 70 10000 5.7 210 06:39 08.12.2019
3028 Clouds 8 1006 70 10000 5.7 210 06:19 08.12.2019
3029 Clouds 8 1007 70 10000 6.2 210 05:23 08.12.2019
3030 Clouds 8 1008 75 10000 6.2 220 04:46 08.12.2019
3031 Clouds 7 1009 75 10000 6.2 230 03:39 08.12.2019
3032 Clouds 8 1009 81 10000 6.2 240 02:43 08.12.2019
3033 Clouds 8 1009 81 10000 6.7 240 02:20 08.12.2019
3034 Clouds 8 1010 81 10000 6.7 250 01:41 08.12.2019
3035 Clouds 8 1010 81 10000 7.2 240 00:56 08.12.2019
3036 Clouds 8 1010 87 10000 6.7 240 00:37 08.12.2019
3037 Clouds 8 1010 87 10000 6.7 240 00:18 08.12.2019
3038 Rain 8 1010 87 8000 6.2 240 23:39 07.12.2019
3039 Rain 8 1010 87 8000 6.2 240 23:20 07.12.2019
3040 Rain 8 1010 87 8000 6.2 240 23:20 07.12.2019
3041 Clouds 8 1010 87 10000 5.7 250 22:56 07.12.2019
3042 Clouds 8 1010 87 10000 6.2 240 22:37 07.12.2019
3043 Clouds 8 1010 87 10000 6.2 240 22:19 07.12.2019
3044 Clouds 8 1010 87 10000 5.7 240 21:56 07.12.2019
3045 Clouds 8 1010 87 10000 5.7 250 21:37 07.12.2019
3046 Clouds 8 1010 87 10000 5.7 250 21:19 07.12.2019
3047 Clouds 8 1010 87 10000 5.1 260 20:54 07.12.2019
3048 Clouds 8 1010 87 10000 5.1 270 20:36 07.12.2019
3049 Rain 8 1010 87 10000 5.1 270 20:18 07.12.2019
3050 Rain 8 1010 93 10000 4.1 270 19:55 07.12.2019
3051 Rain 8 1010 87 10000 6.7 260 19:36 07.12.2019
3052 Rain 8 1010 87 10000 6.7 260 19:18 07.12.2019
3053 Rain 9 1009 81 10000 7.2 260 18:43 07.12.2019
3054 Clouds 9 1008 81 10000 7.2 250 18:19 07.12.2019
3055 Clouds 9 1009 81 10000 7.2 260 18:19 07.12.2019
3056 Clouds 9 1008 81 10000 7.2 250 17:57 07.12.2019
3057 Clouds 9 1008 81 10000 7.2 250 17:39 07.12.2019
3058 Clouds 9 1008 81 10000 7.2 250 17:20 07.12.2019
3059 Clouds 9 1008 81 10000 8.2 250 16:56 07.12.2019
3060 Clouds 9 1007 81 10000 7.7 260 16:38 07.12.2019
3061 Clouds 9 1007 81 10000 7.7 260 16:19 07.12.2019
3062 Clouds 9 1007 81 10000 8.2 260 15:56 07.12.2019
3063 Clouds 9 1007 76 10000 8.7 260 15:38 07.12.2019
3064 Clouds 10 1007 76 10000 8.7 260 15:18 07.12.2019
3065 Clouds 10 1007 76 10000 8.7 260 15:18 07.12.2019
3066 Clouds 10 1006 76 10000 8.7 260 14:42 07.12.2019
3067 Clouds 10 1006 76 10000 8.7 260 14:19 07.12.2019
3068 Clouds 9 1006 76 10000 8.7 260 13:55 07.12.2019
3069 Clouds 10 1006 76 10000 8.7 260 13:37 07.12.2019
3070 Clouds 10 1006 76 10000 8.7 260 13:18 07.12.2019
3071 Clouds 9 1006 81 10000 9.3 250 12:41 07.12.2019
3072 Clouds 9 1006 81 10000 9.3 250 12:22 07.12.2019
3073 Clouds 9 1005 81 10000 9.3 260 11:58 07.12.2019
3074 Clouds 9 1005 87 10000 8.2 260 11:40 07.12.2019
3075 Clouds 9 1005 87 10000 8.2 260 11:22 07.12.2019
3076 Clouds 9 1004 87 10000 7.7 250 10:39 07.12.2019
3077 Clouds 8 1004 87 10000 7.7 250 10:39 07.12.2019
3078 Clouds 8 1004 87 10000 7.7 250 10:20 07.12.2019
3079 Clouds 8 1004 93 10000 7.2 260 09:59 07.12.2019
3080 Clouds 8 1003 93 10000 7.7 250 09:38 07.12.2019
3081 Clouds 8 1003 93 10000 8.2 250 09:20 07.12.2019
3082 Clouds 7 1003 93 10000 8.2 250 08:45 07.12.2019
3083 Clouds 7 1003 93 10000 8.2 250 08:21 07.12.2019
3084 Rain 7 1002 93 10000 7.2 240 07:47 07.12.2019
3085 Rain 7 1002 87 10000 7.2 240 07:28 07.12.2019
3086 Clouds 7 1001 87 10000 7.7 220 06:52 07.12.2019
3087 Clouds 7 1001 87 10000 6.7 220 06:26 07.12.2019
3088 Clouds 6 1001 87 10000 7.2 220 05:47 07.12.2019
3089 Rain 6 1002 93 10000 6.7 220 04:43 07.12.2019
3090 Rain 6 1002 93 10000 6.7 220 03:50 07.12.2019
3091 Clouds 6 1002 93 10000 6.2 220 02:22 07.12.2019
3092 Clouds 6 1003 93 10000 5.1 210 01:41 07.12.2019
3093 Clouds 6 1003 93 10000 5.1 210 01:22 07.12.2019
3094 Clouds 5 1004 93 10000 5.1 210 00:21 07.12.2019
3095 Drizzle 5 1004 93 10000 5.7 210 23:59 06.12.2019
3096 Drizzle 5 1004 93 10000 5.7 210 23:40 06.12.2019
3097 Drizzle 5 1004 93 10000 5.7 210 23:20 06.12.2019
3098 Rain 4 1005 93 10000 5.7 200 22:39 06.12.2019
3099 Rain 4 1005 93 10000 5.7 200 22:39 06.12.2019
3100 Rain 4 1005 93 10000 5.7 200 22:21 06.12.2019
3101 Rain 4 1005 93 10000 5.1 210 21:59 06.12.2019
3102 Rain 4 1006 93 10000 5.7 210 21:41 06.12.2019
3103 Rain 4 1006 93 10000 6.2 210 21:21 06.12.2019
3104 Rain 4 1006 93 10000 6.2 210 20:59 06.12.2019
3105 Rain 4 1006 93 10000 6.7 210 20:41 06.12.2019
3106 Rain 4 1006 93 10000 6.7 210 20:20 06.12.2019
3107 Rain 4 1006 86 9000 6.7 210 19:43 06.12.2019
3108 Rain 4 1006 86 9000 6.7 210 19:24 06.12.2019
3109 Rain 4 1007 93 9000 6.2 210 18:59 06.12.2019
3110 Rain 4 1007 93 7000 6.2 210 18:40 06.12.2019
3111 Rain 3 1007 93 7000 6.2 210 18:22 06.12.2019
3112 Rain 3 1007 93 6000 5.7 210 17:58 06.12.2019
3113 Rain 3 1007 93 7000 5.7 210 17:40 06.12.2019
3114 Rain 3 1007 93 7000 5.7 210 17:22 06.12.2019
3115 Rain 3 1008 93 10000 6.2 210 16:58 06.12.2019
3116 Rain 3 1008 93 7000 5.1 210 16:39 06.12.2019
3117 Rain 3 1008 93 7000 5.1 210 16:20 06.12.2019
3118 Rain 3 1008 86 6000 6.2 210 15:41 06.12.2019
3119 -273 0 0 0 0 0 15:23 06.12.2019
3120 Rain 3 1009 86 7000 5.7 210 14:59 06.12.2019
3121 Rain 3 1009 86 7000 5.1 210 14:40 06.12.2019
3122 Rain 3 1009 86 7000 5.1 210 14:20 06.12.2019
3123 Rain 3 1009 86 8000 5.1 200 13:58 06.12.2019
3124 Rain 3 1010 60 10000 6.2 200 13:40 06.12.2019
3125 Rain 3 1010 56 10000 6.2 200 13:21 06.12.2019
3126 Rain 3 1010 56 10000 6.2 200 13:21 06.12.2019
3127 Rain 3 1010 56 10000 5.1 210 12:40 06.12.2019
3128 Rain 3 1010 56 10000 5.1 210 12:21 06.12.2019
3129 Clouds 3 1010 69 10000 6.2 210 11:43 06.12.2019
3130 Clouds 3 1011 69 10000 5.1 200 11:24 06.12.2019
3131 Clouds 3 1011 74 10000 4.6 200 10:59 06.12.2019
3132 Rain 3 1011 69 10000 4.6 200 10:40 06.12.2019
3133 Rain 2 1011 69 10000 4.6 200 10:21 06.12.2019
3134 Clouds 3 1011 64 10000 5.1 200 09:56 06.12.2019
3135 Clouds 2 1011 69 10000 5.7 200 09:37 06.12.2019
3136 Clouds 2 1011 69 10000 5.7 200 09:19 06.12.2019
3137 Clouds 2 1011 69 10000 4.6 200 08:44 06.12.2019
3138 Clouds 1 1011 74 10000 4.6 200 08:26 06.12.2019
3139 Clouds 1 1011 74 10000 4.6 200 07:44 06.12.2019
3140 Clouds 1 1011 74 10000 4.6 200 07:23 06.12.2019
3141 Clouds 1 1011 55 10000 4.6 200 06:58 06.12.2019
3142 Clouds 0 1011 55 10000 5.1 200 06:26 06.12.2019
3143 Clouds 0 1011 55 10000 4.1 200 05:52 06.12.2019
3144 Clouds 0 1012 57 10000 3.6 200 05:21 06.12.2019
3145 Clear -1 1014 64 10000 4.6 200 02:19 06.12.2019
3146 Clouds -1 1015 69 10000 4.1 200 01:29 06.12.2019
3147 Clouds -1 1015 69 10000 4.1 190 00:40 06.12.2019
3148 Clouds -1 1016 69 10000 3.6 200 00:20 06.12.2019
3149 Clouds 0 1016 69 10000 4.1 200 23:45 05.12.2019
3150 Clouds 0 1016 70 10000 4.1 200 23:19 05.12.2019
3151 Clouds 0 1016 70 10000 4.1 200 22:57 05.12.2019
3152 Clouds 0 1016 70 10000 3.1 200 22:38 05.12.2019
3153 Clouds 1 1017 86 10000 3.1 200 22:18 05.12.2019
3154 Clouds 0 1016 70 10000 3.1 200 22:18 05.12.2019
3155 Clouds 1 1017 80 10000 2.6 200 21:44 05.12.2019
3156 Clouds 1 1017 80 10000 2.6 200 21:25 05.12.2019
3157 Clouds 1 1017 80 10000 3.6 210 20:59 05.12.2019
3158 Clouds 1 1017 80 10000 3.6 210 20:40 05.12.2019
3159 Clouds 1 1017 80 10000 3.6 210 20:40 05.12.2019
3160 Clear 2 1017 86 10000 3.6 210 20:21 05.12.2019
3161 Clear 2 1017 80 10000 3.6 200 19:58 05.12.2019
3162 Clear 2 1017 80 10000 3.6 200 19:58 05.12.2019
3163 Clear 2 1017 80 10000 3.6 200 19:40 05.12.2019
3164 Clear 2 1017 80 10000 3.6 210 19:21 05.12.2019
3165 Clear 2 1017 80 10000 3.6 210 18:57 05.12.2019
3166 Clear 2 1017 80 10000 4.1 200 18:38 05.12.2019
3167 Clear 2 1018 80 10000 4.1 210 18:20 05.12.2019
3168 Clear 3 1018 70 10000 3.6 200 17:40 05.12.2019
3169 Clear 3 1018 70 10000 3.6 190 17:20 05.12.2019
3170 Clear 3 1018 70 10000 3.6 190 16:58 05.12.2019
3171 Clear 3 1018 70 10000 2.6 200 16:40 05.12.2019
3172 Clear 3 1018 70 10000 3.1 190 16:21 05.12.2019
3173 Clear 4 1018 70 10000 4.1 200 15:58 05.12.2019
3174 Clear 4 1018 70 10000 4.1 200 15:58 05.12.2019
3175 Clear 4 1018 70 10000 4.1 200 15:39 05.12.2019
3176 Clear 4 1018 70 10000 3.6 210 15:20 05.12.2019
3177 Clear 4 1018 70 10000 4.1 210 14:56 05.12.2019
3178 Clear 4 1018 70 10000 4.1 210 14:56 05.12.2019
3179 Clear 4 1018 70 10000 4.1 210 14:38 05.12.2019
3180 Clear 4 1019 58 10000 3.6 210 14:19 05.12.2019
3181 Clear 4 1019 58 10000 3.6 210 13:57 05.12.2019
3182 Clear 4 1019 58 10000 3.1 210 13:39 05.12.2019
3183 Clear 4 1019 69 10000 3.1 220 13:20 05.12.2019
3184 Clear 4 1019 69 10000 3.1 220 12:58 05.12.2019
3185 Clear 4 1019 74 10000 3.1 230 12:39 05.12.2019
3186 Clear 4 1019 74 10000 4.1 250 12:20 05.12.2019
3187 Clear 2 1019 80 10000 4.6 210 11:40 05.12.2019
3188 Clear 2 1020 80 10000 4.1 210 11:22 05.12.2019
3189 Clear 1 1020 80 10000 4.1 210 10:58 05.12.2019
3190 Clear 1 1020 74 10000 3.6 200 10:40 05.12.2019
3191 Clear 1 1020 80 10000 4.1 200 10:19 05.12.2019
3192 Clear 1 1020 80 10000 2.1 180 09:57 05.12.2019
3193 Clear 1 1020 80 10000 2.1 180 09:38 05.12.2019
3194 Clear 0 1020 67 10000 2.1 190 09:20 05.12.2019
3195 Clear 0 1020 67 10000 2.1 190 09:20 05.12.2019
3196 Clear -1 1020 67 10000 3.1 190 08:56 05.12.2019
3197 Clear -1 1020 67 10000 3.1 190 08:37 05.12.2019
3198 Clear -1 1020 86 10000 2.6 210 08:19 05.12.2019
3199 Clear -1 1020 86 10000 2.6 210 08:19 05.12.2019
3200 Clear 0 1020 72 10000 2.6 180 07:41 05.12.2019
3201 Clear -1 1020 72 10000 2.6 210 07:23 05.12.2019
3202 Clear -1 1019 72 10000 1 0 06:48 05.12.2019
3203 Clear -1 1019 92 10000 1.5 130 06:24 05.12.2019
3204 Clear -1 1020 92 10000 1.5 170 05:56 05.12.2019
3205 Clear -1 1020 92 10000 1 190 05:24 05.12.2019
3206 Clear -1 1020 100 10000 0.5 0 04:59 05.12.2019
3207 Clear 0 1020 92 10000 1 0 03:41 05.12.2019
3208 Clear 0 1021 86 10000 2.1 200 02:42 05.12.2019
3209 Clear 0 1021 83 10000 1.5 200 02:23 05.12.2019
3210 Clear 0 1021 86 10000 2.1 190 01:51 05.12.2019
3211 Clear 0 1021 86 10000 2.1 190 01:51 05.12.2019
3212 Clear 0 1021 86 10000 2.6 190 01:24 05.12.2019
3213 Clear 0 1021 83 10000 1.5 190 00:46 05.12.2019
3214 Clear 0 1022 83 10000 1.5 220 00:22 05.12.2019
3215 Clear 0 1022 86 10000 0.5 0 23:56 04.12.2019
3216 Clear 0 1022 86 10000 0.5 0 23:37 04.12.2019
3217 Clear 1 1022 81 10000 1.5 180 23:19 04.12.2019
3218 Clear 1 1022 81 10000 1.5 180 22:39 04.12.2019
3219 Clear 1 1022 86 10000 2.1 200 22:20 04.12.2019
3220 Clear 1 1022 86 10000 2.1 200 21:58 04.12.2019
3221 Clear 0 1022 93 10000 1.5 220 21:39 04.12.2019
3222 Clear 1 1022 86 10000 2.6 200 21:21 04.12.2019
3223 Clear 1 1022 86 10000 2.6 200 20:59 04.12.2019
3224 Clear 1 1022 86 10000 2.6 190 20:40 04.12.2019
3225 Clear 2 1022 86 10000 1.5 200 20:22 04.12.2019
3226 Clear 2 1022 86 10000 2.6 210 19:59 04.12.2019
3227 Clear 2 1022 86 10000 2.6 210 19:39 04.12.2019
3228 Clear 2 1022 86 10000 3.1 210 19:20 04.12.2019
3229 Clear 2 1022 86 10000 3.1 210 18:57 04.12.2019
3230 Clear 2 1022 86 10000 3.1 210 18:39 04.12.2019
3231 Clear 3 1022 86 10000 3.1 200 18:20 04.12.2019
3232 Clear 3 1022 86 10000 2.1 190 17:40 04.12.2019
3233 Clouds 4 1022 86 10000 1.5 220 17:22 04.12.2019
3234 Clouds 4 1022 80 10000 2.1 220 16:59 04.12.2019
3235 Clouds 4 1022 80 10000 2.1 220 16:59 04.12.2019
3236 Clouds 5 1022 80 10000 2.1 220 16:40 04.12.2019
3237 Clouds 5 1022 80 10000 2.1 220 16:40 04.12.2019
3238 Clouds 5 1022 80 10000 2.1 220 16:40 04.12.2019
3239 Clear 5 1022 80 10000 2.6 200 16:20 04.12.2019
3240 Clear 5 1022 75 10000 2.6 210 15:56 04.12.2019
3241 Clear 6 1022 75 10000 2.6 210 15:38 04.12.2019
3242 Clear 6 1022 75 10000 3.6 220 15:19 04.12.2019
3243 Clouds 7 1022 75 10000 3.6 230 14:57 04.12.2019
3244 Clouds 7 1022 75 10000 3.6 230 14:39 04.12.2019
3245 Clouds 7 1022 75 10000 4.6 230 14:20 04.12.2019
3246 Clouds 7 1023 75 10000 5.1 250 13:39 04.12.2019
3247 Clouds 7 1023 81 10000 5.1 260 13:21 04.12.2019
3248 Clouds 7 1023 81 10000 5.1 260 12:59 04.12.2019
3249 Clouds 7 1023 81 10000 4.6 250 12:41 04.12.2019
3250 Clouds 6 1023 81 10000 6.2 240 12:23 04.12.2019
3251 Clouds 6 1023 81 10000 5.1 250 11:43 04.12.2019
3252 Clouds 5 1023 81 10000 5.1 240 11:24 04.12.2019
3253 Clouds 5 1023 81 10000 5.1 240 11:24 04.12.2019
3254 Clouds 5 1023 81 10000 5.1 240 10:58 04.12.2019
3255 Clouds 5 1023 86 10000 4.6 250 10:39 04.12.2019
3256 Clouds 5 1023 86 10000 4.6 240 10:21 04.12.2019
3257 Clouds 4 1023 86 10000 4.6 240 09:43 04.12.2019
3258 Clouds 4 1023 86 10000 4.6 240 09:23 04.12.2019
3259 Clouds 4 1023 80 10000 5.1 240 08:44 04.12.2019
3260 Clouds 4 1023 80 10000 5.1 240 08:44 04.12.2019
3261 Clouds 4 1023 86 10000 4.6 240 08:25 04.12.2019
3262 Clouds 4 1023 86 10000 4.6 240 07:59 04.12.2019
3263 Clouds 4 1023 86 10000 5.7 250 07:40 04.12.2019
3264 Clouds 4 1023 86 10000 4.6 250 07:22 04.12.2019
3265 Clouds 4 1022 86 10000 4.6 250 06:32 04.12.2019
3266 Clouds 5 1023 86 10000 4.6 250 05:47 04.12.2019
3267 Clouds 5 1023 86 10000 4.1 260 04:39 04.12.2019
3268 Clouds 5 1023 81 10000 5.7 250 03:52 04.12.2019
3269 Clouds 5 1023 87 10000 5.1 250 02:19 04.12.2019
3270 Clouds 5 1024 87 10000 5.1 250 00:50 04.12.2019
3271 Clouds 5 1024 87 10000 5.1 240 00:22 04.12.2019
3272 Clouds 5 1024 87 10000 5.1 240 23:56 03.12.2019
3273 Clouds 5 1024 87 10000 5.7 240 23:37 03.12.2019
3274 Clouds 5 1024 87 10000 5.1 240 23:18 03.12.2019
3275 Clouds 5 1024 87 10000 5.7 240 22:40 03.12.2019
3276 Clouds 5 1024 93 10000 5.7 240 22:19 03.12.2019
3277 Clouds 5 1024 93 10000 5.7 240 21:57 03.12.2019
3278 Clouds 5 1024 93 10000 5.7 240 21:37 03.12.2019
3279 Clouds 5 1024 93 10000 5.1 240 21:19 03.12.2019
3280 Clouds 5 1024 93 8000 4.6 240 20:57 03.12.2019
3281 Clouds 5 1024 93 8000 4.6 240 20:38 03.12.2019
3282 Clouds 5 1024 93 7000 5.1 240 20:18 03.12.2019
3283 Clouds 5 1024 93 7000 5.1 240 19:55 03.12.2019
3284 Clouds 5 1025 93 6000 4.1 250 19:37 03.12.2019
3285 Clouds 5 1024 100 6000 4.6 250 19:18 03.12.2019
3286 Mist 5 1024 100 4500 4.1 250 18:55 03.12.2019
3287 Mist 5 1024 100 4500 4.1 250 18:37 03.12.2019
3288 Drizzle 5 1025 100 3000 4.1 250 18:19 03.12.2019
3289 Drizzle 5 1025 100 3000 4.1 250 18:19 03.12.2019
3290 Drizzle 5 1025 100 3500 4.6 240 17:40 03.12.2019
3291 Drizzle 4 1025 93 4500 3.6 240 17:19 03.12.2019
3292 Drizzle 4 1025 100 2900 3.1 230 16:59 03.12.2019
3293 Drizzle 4 1025 100 2900 3.1 230 16:40 03.12.2019
3294 Drizzle 5 1025 100 4500 3.6 220 16:21 03.12.2019
3295 Clouds 5 1025 93 10000 3.6 230 15:59 03.12.2019
3296 Clouds 4 1025 93 10000 3.6 230 15:40 03.12.2019
3297 Clouds 5 1025 93 10000 3.6 250 15:20 03.12.2019
3298 Clouds 5 1026 93 10000 4.6 260 14:58 03.12.2019
3299 Clouds 5 1026 93 10000 4.6 260 14:40 03.12.2019
3300 Clouds 5 1026 93 10000 4.1 250 14:19 03.12.2019
3301 Clouds 5 1026 86 10000 3.6 250 13:39 03.12.2019
3302 Clouds 5 1026 86 10000 3.1 240 13:21 03.12.2019
3303 Clouds 4 1026 86 10000 3.1 240 12:59 03.12.2019
3304 Clouds 4 1026 86 10000 3.1 240 12:38 03.12.2019
3305 Clouds 4 1026 86 10000 3.1 240 12:18 03.12.2019
3306 Clouds 4 1026 93 10000 2.6 250 11:58 03.12.2019
3307 Clouds 3 1026 93 10000 2.6 250 11:38 03.12.2019
3308 Clouds 3 1026 93 10000 2.6 240 11:20 03.12.2019
3309 Clouds 1 1026 93 10000 2.1 200 10:57 03.12.2019
3310 Clouds 1 1026 93 10000 2.1 200 10:39 03.12.2019
3311 Clouds 1 1027 82 8000 1 0 10:19 03.12.2019
3312 Clouds 1 1026 82 9000 0.5 0 09:46 03.12.2019
3313 Clouds 1 1026 100 8000 1 270 09:25 03.12.2019
3314 Clouds 0 1026 100 8000 1 270 08:59 03.12.2019
3315 Fog -1 1026 100 8000 0.5 0 08:40 03.12.2019
3316 Fog -1 1026 100 9000 1 0 08:21 03.12.2019
3317 Fog -1 1026 100 10000 1 0 07:53 03.12.2019
3318 -273 0 0 0 0 0 07:53 03.12.2019
3319 Fog -1 1026 100 8000 1.5 270 07:30 03.12.2019
3320 Fog -1 1026 100 8000 1.5 270 07:30 03.12.2019
3321 Mist 0 1026 100 2900 2.1 230 06:59 03.12.2019
3322 Mist 0 1026 100 1600 1 210 06:21 03.12.2019
3323 Mist 0 1025 100 4800 1 220 05:56 03.12.2019
3324 Clear -1 1025 100 10000 1 0 04:48 03.12.2019
3325 Clear 0 1025 86 0 2.6 280 03:36 03.12.2019
3326 Clear 0 1025 86 10000 2.6 280 03:18 03.12.2019
3327 Clear 1 1024 86 10000 2.1 290 02:43 03.12.2019
3328 Clouds 1 1024 83 10000 3.1 290 02:24 03.12.2019
3329 Clouds 1 1024 83 10000 2.6 290 01:41 03.12.2019
3330 Clouds 1 1024 86 10000 3.6 290 01:21 03.12.2019
3331 Clouds 2 1024 93 10000 3.6 290 00:44 03.12.2019
3332 Clouds 2 1024 93 10000 3.6 290 00:44 03.12.2019
3333 Clouds 2 1024 93 10000 3.6 300 00:26 03.12.2019
3334 Clouds 2 1023 93 10000 3.1 300 23:57 02.12.2019
3335 Clouds 2 1023 93 10000 3.1 300 23:39 02.12.2019
3336 Clouds 3 1023 86 10000 4.1 300 23:19 02.12.2019
3337 Clouds 3 1022 86 10000 3.6 290 22:39 02.12.2019
3338 Clouds 3 1022 86 10000 4.6 290 22:21 02.12.2019
3339 Clouds 3 1022 86 10000 4.6 290 21:57 02.12.2019
3340 Clouds 2 1021 86 10000 5.1 290 21:36 02.12.2019
3341 Clouds 3 1021 86 10000 4.6 290 21:18 02.12.2019
3342 Clouds 3 1021 86 10000 5.1 290 20:56 02.12.2019
3343 Clouds 4 1021 86 10000 5.1 290 20:38 02.12.2019
3344 Clouds 4 1020 93 10000 5.7 290 20:19 02.12.2019
3345 Clouds 4 1020 93 10000 5.7 290 20:19 02.12.2019
3346 Clouds 4 1020 93 10000 5.1 280 19:42 02.12.2019
3347 Clouds 4 1020 93 10000 4.6 280 19:21 02.12.2019
3348 Clouds 4 1020 93 10000 4.1 280 18:59 02.12.2019
3349 Clouds 4 1020 93 10000 4.1 280 18:38 02.12.2019
3350 Clouds 4 1020 93 10000 5.1 290 18:19 02.12.2019
3351 Clouds 4 1019 93 10000 4.6 290 17:57 02.12.2019
3352 Clouds 4 1019 93 10000 4.6 290 17:39 02.12.2019
3353 Rain 4 1019 93 10000 4.6 280 17:19 02.12.2019
3354 -273 0 0 0 0 0 16:40 02.12.2019
3355 Drizzle 4 1019 93 10000 6.7 260 16:19 02.12.2019
3356 Drizzle 4 1019 93 10000 6.7 260 15:58 02.12.2019
3357 Clouds 5 1018 93 10000 6.2 250 15:40 02.12.2019
3358 Clouds 5 1019 80 10000 6.2 260 15:22 02.12.2019
3359 Clouds 5 1019 80 10000 6.2 260 14:59 02.12.2019
3360 Clouds 5 1019 80 10000 5.7 270 14:38 02.12.2019
3361 Clouds 5 1019 80 10000 6.2 270 14:20 02.12.2019
3362 Clouds 4 1019 86 10000 4.6 290 13:57 02.12.2019
3363 Clouds 4 1019 86 10000 4.6 290 13:39 02.12.2019
3364 Clouds 4 1019 86 10000 4.6 290 13:19 02.12.2019
3365 Clouds 4 1019 86 10000 4.6 290 12:56 02.12.2019
3366 Clouds 4 1019 86 10000 5.7 270 12:37 02.12.2019
3367 Clouds 4 1019 86 10000 5.7 280 12:19 02.12.2019
3368 Clouds 3 1019 93 10000 4.6 270 11:55 02.12.2019
3369 Clouds 3 1019 93 10000 4.6 270 11:36 02.12.2019
3370 Clouds 3 1019 93 10000 5.1 270 11:18 02.12.2019
3371 Rain 3 1019 93 10000 4.6 270 10:54 02.12.2019
3372 Rain 3 1019 93 10000 4.6 270 10:36 02.12.2019
3373 Rain 3 1019 93 8000 4.6 270 10:18 02.12.2019
3374 Clouds 3 1019 100 6000 5.1 250 09:39 02.12.2019
3375 Clouds 3 1018 100 6000 5.1 270 09:19 02.12.2019
3376 Clouds 3 1018 100 6000 5.1 270 09:19 02.12.2019
3377 Clouds 3 1018 100 6000 5.1 270 09:19 02.12.2019
3378 Clouds 2 1018 100 5000 4.6 270 08:56 02.12.2019
3379 Clouds 2 1018 100 5000 4.6 270 08:38 02.12.2019
3380 Mist 2 1018 100 4500 4.1 270 08:20 02.12.2019
3381 Mist 2 1018 100 4500 4.6 260 07:42 02.12.2019
3382 Clouds 2 1018 100 6000 4.6 270 07:21 02.12.2019
3383 Clouds 2 1018 93 7000 4.1 260 06:56 02.12.2019
3384 Clouds 2 1018 93 7000 4.1 260 06:37 02.12.2019
3385 Clouds 2 1018 93 7000 3.1 260 05:25 02.12.2019
3386 Clouds 2 1018 93 7000 2.6 250 04:21 02.12.2019
3387 Clouds 2 1019 93 6000 2.1 260 02:53 02.12.2019
3388 Clouds 2 1019 93 6000 2.1 270 02:27 02.12.2019
3389 Mist 2 1019 93 3400 1.5 240 01:26 02.12.2019
3390 Mist 2 1019 93 4900 1.5 280 00:57 02.12.2019
3391 Mist 2 1020 93 2600 2.6 290 00:25 02.12.2019
3392 Mist 2 1020 100 3200 2.1 280 23:55 01.12.2019
3393 Mist 2 1020 100 3200 2.1 280 23:37 01.12.2019
3394 Mist 2 1020 100 2900 2.1 270 23:19 01.12.2019
3395 Mist 2 1020 100 3300 2.1 280 22:55 01.12.2019
3396 Mist 2 1020 100 3300 2.1 280 22:36 01.12.2019
3397 Mist 2 1020 100 3500 1.5 280 22:18 01.12.2019
3398 Mist 2 1020 100 3500 1.5 280 22:18 01.12.2019
3399 Mist 2 1020 100 3500 1.5 280 22:18 01.12.2019
3400 Mist 2 1020 100 4000 1.5 270 21:54 01.12.2019
3401 Mist 2 1020 100 4000 1.5 270 21:36 01.12.2019
3402 Mist 2 1020 100 4000 1.5 280 21:18 01.12.2019
3403 Mist 2 1020 100 4000 1 0 20:55 01.12.2019
3404 Mist 2 1020 100 4000 1 0 20:37 01.12.2019
3405 Mist 2 1020 100 4200 1.5 300 20:19 01.12.2019
3406 Clouds 2 1020 100 0 1 320 19:54 01.12.2019
3407 Clouds 3 1020 100 0 1 320 19:36 01.12.2019
3408 Mist 3 1020 100 5000 1 280 19:18 01.12.2019
3409 Mist 3 1021 100 4800 1.5 280 18:54 01.12.2019
3410 Mist 3 1021 100 4800 1.5 280 18:36 01.12.2019
3411 Clouds 3 1021 93 6000 1.5 300 18:18 01.12.2019
3412 Clouds 3 1021 93 6000 1.5 280 17:55 01.12.2019
3413 Clouds 3 1021 93 6000 1.5 280 17:37 01.12.2019
3414 Clouds 3 1021 93 7000 2.6 270 17:19 01.12.2019
3415 Clouds 3 1021 93 7000 2.1 260 16:42 01.12.2019
3416 Mist 3 1021 93 5000 2.1 260 16:23 01.12.2019
3417 Clouds 4 1021 93 6000 1.5 280 15:51 01.12.2019
3418 Clouds 3 1021 93 6000 1.5 280 15:33 01.12.2019
3419 Clouds 3 1021 93 6000 1.5 280 15:33 01.12.2019
3420 Clouds 3 1021 93 6000 1.5 280 15:33 01.12.2019
3421 Clouds 4 1021 86 7000 2.1 270 14:57 01.12.2019
3422 Clouds 4 1021 93 7000 1.5 280 14:57 01.12.2019
3423 Clouds 4 1021 93 7000 1.5 280 14:57 01.12.2019
3424 Clouds 4 1021 86 7000 2.1 270 14:37 01.12.2019
3425 Clouds 4 1021 86 7000 3.1 240 14:18 01.12.2019
3426 Clouds 4 1021 86 7000 2.6 230 13:40 01.12.2019
3427 Clouds 3 1022 93 6000 1 0 13:21 01.12.2019
3428 Clouds 3 1022 93 6000 2.1 290 12:47 01.12.2019
3429 Clouds 3 1022 93 6000 2.1 270 12:19 01.12.2019
3430 Clouds 3 1022 93 6000 1 0 11:44 01.12.2019
3431 Clouds 3 1022 93 7000 2.1 200 11:24 01.12.2019
3432 Clouds 3 1023 93 6000 2.6 210 10:55 01.12.2019
3433 Clouds 2 1023 93 6000 2.6 210 10:37 01.12.2019
3434 Mist 3 1022 93 5000 2.1 190 10:18 01.12.2019
3435 Clouds 2 1022 100 6000 1 0 09:41 01.12.2019
3436 Mist 2 1022 100 3500 1 0 09:21 01.12.2019
3437 Mist 2 1022 100 2000 1 0 08:49 01.12.2019
3438 Mist 2 1022 100 2500 2.6 260 08:23 01.12.2019
3439 Mist 2 1022 100 2000 1.5 280 07:54 01.12.2019
3440 Mist 2 1022 100 2000 1.5 280 07:36 01.12.2019
3441 Mist 2 1022 100 2000 2.1 260 07:18 01.12.2019
3442 Mist 2 1022 100 2500 2.1 270 06:49 01.12.2019
3443 Mist 1 1022 93 2000 2.1 250 05:58 01.12.2019
3444 Mist 1 1023 100 2500 1.5 260 04:54 01.12.2019
3445 Mist 1 1023 93 3500 2.6 260 04:27 01.12.2019
3446 Mist 1 1023 100 5000 2.6 250 02:44 01.12.2019
3447 Clouds 1 1023 100 7000 1.5 270 02:26 01.12.2019
3448 Clouds 1 1023 100 10000 1.5 260 01:53 01.12.2019
3449 Clouds 1 1023 100 10000 1 260 01:29 01.12.2019
3450 Clouds 1 1023 100 10000 1 270 00:45 01.12.2019
3451 Clouds 1 1023 100 10000 1 250 00:26 01.12.2019
3452 Clear 1 1023 100 10000 1 260 23:56 30.11.2019
3453 Clear 1 1023 100 10000 1 260 23:37 30.11.2019
3454 Clouds 1 1022 100 10000 1.5 270 23:18 30.11.2019
3455 Clouds 1 1022 100 10000 1.5 280 22:41 30.11.2019
3456 Clouds 1 1022 90 10000 1.5 270 22:20 30.11.2019
3457 Clouds 1 1022 90 10000 1.5 270 22:20 30.11.2019
3458 Clouds 1 1022 100 10000 2.1 270 21:48 30.11.2019
3459 Clouds 1 1022 100 10000 2.1 270 21:28 30.11.2019
3460 Clouds 1 1022 90 10000 2.1 270 20:58 30.11.2019
3461 Clouds 1 1022 90 10000 2.1 260 20:40 30.11.2019
3462 Clouds 1 1022 100 10000 2.1 270 20:20 30.11.2019
3463 Clouds 2 1022 93 10000 1 0 19:57 30.11.2019
3464 Clouds 2 1022 93 10000 1 0 19:39 30.11.2019
3465 Clouds 2 1022 100 10000 1.5 270 19:21 30.11.2019
3466 Clouds 1 1022 100 10000 1.5 270 18:59 30.11.2019
3467 Clouds 1 1022 100 10000 1.5 270 18:39 30.11.2019
3468 Clouds 2 1022 88 10000 3.1 260 18:21 30.11.2019
3469 Clouds 1 1022 88 10000 3.1 260 18:21 30.11.2019
3470 Clouds 2 1022 88 10000 3.1 260 17:59 30.11.2019
3471 Clouds 2 1022 88 10000 2.6 250 17:41 30.11.2019
3472 Clouds 2 1022 85 10000 2.6 260 17:23 30.11.2019
3473 Clouds 3 1022 93 10000 3.1 260 16:59 30.11.2019
3474 Clouds 3 1022 93 10000 3.1 260 16:41 30.11.2019
3475 Clouds 3 1021 93 10000 3.6 260 16:22 30.11.2019
3476 Clouds 4 1021 86 10000 3.6 260 15:55 30.11.2019
3477 Clouds 4 1021 86 10000 3.6 260 15:36 30.11.2019
3478 Clouds 5 1021 86 10000 3.6 260 15:18 30.11.2019
3479 Clouds 4 1021 86 10000 4.1 280 14:55 30.11.2019
3480 Clouds 4 1021 86 10000 4.1 280 14:37 30.11.2019
3481 Clouds 5 1021 80 10000 4.1 280 14:18 30.11.2019
3482 Clouds 5 1021 80 10000 4.1 260 13:45 30.11.2019
3483 Clouds 5 1020 80 10000 5.1 260 13:25 30.11.2019
3484 Clouds 4 1020 80 10000 5.1 260 12:58 30.11.2019
3485 Clouds 4 1020 80 10000 5.1 260 12:40 30.11.2019
3486 Clouds 4 1020 80 10000 4.1 270 12:21 30.11.2019
3487 Clouds 3 1020 86 10000 4.1 260 11:42 30.11.2019
3488 Clear 2 1020 93 0 3.1 270 11:19 30.11.2019
3489 Clouds 2 1020 93 10000 4.1 260 10:56 30.11.2019
3490 Clouds 1 1020 93 10000 4.1 260 10:37 30.11.2019
3491 Clouds 1 1020 84 10000 3.1 250 10:19 30.11.2019
3492 Clouds 0 1019 84 9000 3.1 260 09:46 30.11.2019
3493 Mist 0 1019 84 4000 3.6 260 09:24 30.11.2019
3494 Clouds -1 1019 100 9000 2.6 270 08:44 30.11.2019
3495 Clouds -1 1019 100 10000 3.1 250 08:22 30.11.2019
3496 Clouds -1 1019 92 10000 2.6 270 07:58 30.11.2019
3497 Clouds -1 1019 92 10000 2.6 270 07:39 30.11.2019
3498 Clear -1 1018 92 10000 3.1 250 07:20 30.11.2019
3499 Clear -1 1018 92 10000 1.5 260 06:30 30.11.2019
3500 Clear -1 1018 92 10000 2.1 260 05:53 30.11.2019
3501 Clear -1 1017 86 10000 3.1 270 03:54 30.11.2019
3502 Clear 0 1016 68 10000 3.6 280 02:53 30.11.2019
3503 Clouds 0 1016 71 10000 4.1 280 02:22 30.11.2019
3504 Clouds 0 1015 71 10000 4.1 280 01:46 30.11.2019
3505 Clouds 1 1015 70 10000 4.6 280 01:24 30.11.2019
3506 Clouds 1 1015 70 10000 3.6 280 00:38 30.11.2019
3507 Clouds 1 1014 70 10000 3.1 270 00:18 30.11.2019
3508 Clouds 1 1014 80 10000 3.6 270 23:43 29.11.2019
3509 Clouds 1 1013 80 10000 3.1 280 23:23 29.11.2019
3510 Clouds 1 1013 80 10000 3.1 280 23:23 29.11.2019
3511 Clouds 2 1013 74 10000 4.1 290 22:47 29.11.2019
3512 Clouds 2 1012 74 10000 4.6 290 22:26 29.11.2019
3513 Clouds 2 1012 74 10000 4.6 290 21:55 29.11.2019
3514 Clouds 2 1012 74 10000 4.6 290 21:36 29.11.2019
3515 Clouds 3 1011 74 10000 4.6 290 21:18 29.11.2019
3516 Clouds 3 1011 69 10000 5.1 290 20:54 29.11.2019
3517 Clouds 3 1011 69 10000 5.1 290 20:36 29.11.2019
3518 Clouds 3 1010 69 10000 5.1 290 20:18 29.11.2019
3519 Clouds 4 1009 69 10000 5.7 290 19:41 29.11.2019
3520 Clouds 4 1009 64 10000 4.6 290 19:21 29.11.2019
3521 Clouds 4 1009 64 10000 4.6 290 18:59 29.11.2019
3522 Clouds 4 1008 64 10000 5.7 280 18:41 29.11.2019
3523 Clouds 4 1008 64 10000 5.1 290 18:23 29.11.2019
3524 Clouds 5 1007 65 10000 5.7 300 17:56 29.11.2019
3525 Clouds 5 1007 65 10000 5.7 300 17:38 29.11.2019
3526 Clouds 5 1006 65 10000 5.7 290 17:19 29.11.2019
3527 Snow 5 1006 65 0 8.2 310 16:42 29.11.2019
3528 Clouds 6 1005 60 10000 6.7 310 16:21 29.11.2019
3529 Clouds 6 1005 60 10000 6.7 310 15:56 29.11.2019
3530 Clouds 6 1004 68 10000 7.7 290 15:37 29.11.2019
3531 Clouds 6 1003 68 10000 7.7 300 15:19 29.11.2019
3532 Clouds 6 1002 70 10000 8.2 280 14:40 29.11.2019
3533 Clouds 6 1002 70 10000 8.2 280 14:40 29.11.2019
3534 Clouds 7 1002 65 10000 8.7 280 14:21 29.11.2019
3535 Clouds 7 1002 65 10000 8.7 280 13:57 29.11.2019
3536 Clouds 7 1001 65 10000 9.8 280 13:38 29.11.2019
3537 Clouds 7 1001 70 10000 10.3 270 13:19 29.11.2019
3538 Clouds 7 1001 70 10000 9.3 260 12:43 29.11.2019
3539 Drizzle 7 1000 75 10000 8.2 270 12:25 29.11.2019
3540 Clouds 7 1000 75 10000 8.2 270 11:57 29.11.2019
3541 Clouds 7 1000 75 10000 8.2 270 11:38 29.11.2019
3542 Clouds 6 1000 75 10000 8.2 270 11:19 29.11.2019
3543 Clouds 6 1000 75 10000 8.2 270 10:58 29.11.2019
3544 Clouds 6 1000 75 10000 7.7 270 10:39 29.11.2019
3545 Clouds 6 999 75 10000 7.7 260 10:21 29.11.2019
3546 Clouds 6 999 75 10000 7.7 260 09:59 29.11.2019
3547 Clouds 6 998 75 10000 9.3 260 09:39 29.11.2019
3548 Clouds 6 998 80 10000 8.7 260 09:21 29.11.2019
3549 Clouds 5 998 80 10000 8.7 260 08:57 29.11.2019
3550 Clouds 5 998 80 10000 8.7 260 08:37 29.11.2019
3551 Clouds 5 997 80 10000 8.2 260 08:19 29.11.2019
3552 Clouds 6 997 80 10000 8.2 250 07:42 29.11.2019
3553 Clouds 6 997 80 10000 6.2 260 07:23 29.11.2019
3554 Clouds 6 996 75 10000 6.7 260 06:55 29.11.2019
3555 Clouds 6 996 75 10000 6.7 260 06:36 29.11.2019
3556 Clouds 6 996 81 10000 6.2 260 05:47 29.11.2019
3557 Clouds 7 995 81 10000 7.2 270 05:23 29.11.2019
3558 Rain 8 994 93 10000 7.7 280 03:58 29.11.2019
3559 Rain 8 994 93 10000 7.7 280 03:58 29.11.2019
3560 Clouds 9 993 81 10000 6.7 270 03:19 29.11.2019
3561 Rain 9 992 93 10000 7.2 240 02:28 29.11.2019
3562 Rain 9 992 87 10000 7.7 240 01:51 29.11.2019
3563 Rain 9 992 87 10000 7.7 240 01:25 29.11.2019
3564 Clouds 10 992 87 10000 7.2 240 00:42 29.11.2019
3565 Clouds 10 991 81 10000 7.2 240 00:20 29.11.2019
3566 Clouds 10 991 81 10000 8.2 240 23:45 28.11.2019
3567 Clouds 10 991 81 10000 8.7 240 23:22 28.11.2019
3568 Clouds 10 991 81 10000 8.2 240 22:59 28.11.2019
3569 Clouds 10 991 81 10000 8.2 240 22:38 28.11.2019
3570 Clouds 10 991 81 10000 9.3 240 22:20 28.11.2019
3571 Clouds 10 990 81 10000 9.8 240 21:58 28.11.2019
3572 Clouds 10 990 81 10000 9.8 240 21:39 28.11.2019
3573 Clouds 10 990 93 10000 9.8 240 21:19 28.11.2019
3574 Clouds 10 990 93 10000 9.8 240 21:19 28.11.2019
3575 Rain 10 990 81 10000 7.2 220 20:56 28.11.2019
3576 Rain 10 990 81 10000 7.2 220 20:38 28.11.2019
3577 Rain 10 989 81 10000 8.7 220 20:18 28.11.2019
3578 Rain 10 989 81 10000 8.7 220 19:55 28.11.2019
3579 Rain 10 989 81 10000 8.2 220 19:36 28.11.2019
3580 Rain 10 989 81 10000 8.2 220 19:18 28.11.2019
3581 Rain 10 989 81 10000 7.7 210 18:55 28.11.2019
3582 Rain 10 989 81 10000 7.7 210 18:37 28.11.2019
3583 Rain 10 989 81 10000 7.7 210 18:18 28.11.2019
3584 Rain 10 989 81 10000 7.7 210 18:18 28.11.2019
3585 Rain 11 989 71 10000 7.7 210 17:42 28.11.2019
3586 Rain 11 989 71 10000 7.7 210 17:41 28.11.2019
3587 Rain 11 989 62 10000 7.2 200 17:22 28.11.2019
3588 Clouds 11 990 62 10000 7.2 200 16:57 28.11.2019
3589 Clouds 11 990 62 10000 7.2 200 16:38 28.11.2019
3590 Clouds 12 990 66 10000 7.2 210 16:18 28.11.2019
3591 Clouds 12 990 66 10000 7.7 210 15:42 28.11.2019
3592 Clouds 12 990 62 10000 8.2 210 15:21 28.11.2019
3593 Clouds 12 990 66 10000 8.2 210 14:59 28.11.2019
3594 Clouds 12 990 66 10000 8.2 210 14:41 28.11.2019
3595 Clouds 12 990 66 10000 8.2 210 14:22 28.11.2019
3596 Clouds 12 990 66 10000 8.2 220 13:59 28.11.2019
3597 Clouds 12 990 66 10000 8.2 220 13:40 28.11.2019
3598 Clouds 12 991 66 10000 7.7 210 13:21 28.11.2019
3599 Clouds 12 991 66 10000 7.7 210 12:49 28.11.2019
3600 Clouds 12 991 66 10000 7.2 210 12:29 28.11.2019
3601 Clouds 12 991 71 10000 6.7 210 11:59 28.11.2019
3602 Clouds 12 991 71 10000 6.7 210 11:41 28.11.2019
3603 Rain 12 991 66 10000 7.7 210 11:21 28.11.2019
3604 Rain 11 991 71 10000 7.2 210 10:59 28.11.2019
3605 Rain 11 991 71 10000 7.2 210 10:40 28.11.2019
3606 Rain 10 991 71 10000 7.2 200 10:20 28.11.2019
3607 Rain 9 991 76 10000 6.7 200 09:41 28.11.2019
3608 Rain 10 991 76 10000 6.2 190 09:23 28.11.2019
3609 Rain 9 991 76 10000 5.7 190 08:59 28.11.2019
3610 Rain 9 991 76 10000 6.2 190 08:59 28.11.2019
3611 Rain 9 991 76 10000 5.7 190 08:59 28.11.2019
3612 Rain 9 991 76 10000 6.2 190 08:59 28.11.2019
3613 Rain 9 991 76 10000 5.7 190 08:40 28.11.2019
3614 Clouds 9 991 81 10000 5.7 190 08:21 28.11.2019
3615 Clouds 9 991 81 10000 6.2 200 07:43 28.11.2019
3616 Clouds 9 991 76 10000 5.7 190 07:24 28.11.2019
3617 Clouds 9 991 76 10000 5.7 190 07:24 28.11.2019
3618 Clouds 9 991 81 0 5.1 190 06:57 28.11.2019
3619 Clouds 8 991 81 0 5.1 190 06:36 28.11.2019
3620 Clouds 8 991 81 10000 5.1 190 05:53 28.11.2019
3621 Clouds 8 991 81 10000 4.6 180 05:18 28.11.2019
3622 Clouds 8 992 81 10000 4.6 180 03:43 28.11.2019
3623 Rain 8 992 87 10000 4.6 170 02:18 28.11.2019
3624 Clouds 7 993 87 10000 5.1 170 01:21 28.11.2019
3625 Clouds 7 993 87 10000 4.6 160 00:37 28.11.2019
3626 Clouds 7 993 93 10000 4.1 170 00:18 28.11.2019
3627 Clouds 6 993 87 10000 5.1 170 23:38 27.11.2019
3628 Clear 6 993 87 10000 4.6 170 23:20 27.11.2019
3629 Clear 6 994 93 10000 4.6 160 22:55 27.11.2019
3630 Clear 7 994 93 10000 4.6 160 22:36 27.11.2019
3631 Clear 6 994 93 10000 3.6 160 22:18 27.11.2019
3632 Clear 6 994 93 10000 4.1 170 21:55 27.11.2019
3633 Clear 7 994 93 10000 4.1 170 21:36 27.11.2019
3634 Clear 7 994 93 10000 4.6 170 21:18 27.11.2019
3635 Clouds 7 994 93 10000 4.6 170 20:56 27.11.2019
3636 Clouds 7 994 93 10000 4.6 170 20:36 27.11.2019
3637 Clouds 7 994 93 10000 5.1 170 20:18 27.11.2019
3638 Clouds 7 994 93 10000 5.1 170 20:18 27.11.2019
3639 Clouds 7 994 93 10000 5.1 170 19:55 27.11.2019
3640 Clouds 7 994 93 10000 5.1 170 19:37 27.11.2019
3641 Clouds 7 995 93 10000 4.6 170 19:18 27.11.2019
3642 Clouds 7 995 93 10000 4.6 170 18:54 27.11.2019
3643 Clouds 7 995 93 10000 4.6 170 18:36 27.11.2019
3644 Clouds 8 995 93 10000 4.1 180 18:18 27.11.2019
3645 Rain 8 995 93 10000 3.1 160 17:41 27.11.2019
3646 Rain 8 995 93 10000 4.1 170 17:23 27.11.2019
3647 Rain 8 995 93 10000 4.1 170 17:23 27.11.2019
3648 Rain 7 995 93 8000 4.1 180 16:58 27.11.2019
3649 Rain 7 995 93 8000 4.1 180 16:58 27.11.2019
3650 Rain 7 995 93 8000 4.1 180 16:40 27.11.2019
3651 Rain 8 995 93 8000 4.1 180 16:40 27.11.2019
3652 Rain 7 995 93 8000 4.1 170 16:21 27.11.2019
3653 Rain 7 995 93 8000 4.1 170 16:21 27.11.2019
3654 Rain 7 995 93 8000 4.1 170 15:59 27.11.2019
3655 Rain 7 996 93 8000 4.1 180 15:40 27.11.2019
3656 Rain 8 996 87 9000 4.6 190 15:21 27.11.2019
3657 Rain 8 996 81 10000 4.6 180 14:59 27.11.2019
3658 Rain 8 996 81 10000 4.6 180 14:41 27.11.2019
3659 Rain 8 996 81 10000 4.6 180 14:23 27.11.2019
3660 Rain 7 996 81 10000 4.6 180 13:59 27.11.2019
3661 Clouds 7 996 87 10000 4.1 150 13:40 27.11.2019
3662 Clouds 7 996 81 10000 4.6 150 13:19 27.11.2019
3663 Clouds 7 996 81 10000 5.1 140 12:59 27.11.2019
3664 Clouds 7 996 81 10000 5.1 140 12:40 27.11.2019
3665 Clouds 7 997 87 10000 5.7 150 12:20 27.11.2019
3666 Clouds 6 997 87 10000 5.1 150 11:54 27.11.2019
3667 Clouds 6 997 87 10000 5.1 150 11:54 27.11.2019
3668 Clouds 6 998 87 10000 5.1 140 11:36 27.11.2019
3669 Clouds 6 998 87 10000 5.1 140 11:18 27.11.2019
3670 Clouds 6 997 87 10000 5.1 140 10:42 27.11.2019
3671 Clouds 6 997 87 10000 5.1 140 10:24 27.11.2019
3672 Clouds 5 998 87 10000 4.6 140 09:49 27.11.2019
3673 Clouds 5 998 87 10000 4.6 140 09:26 27.11.2019
3674 Clouds 5 998 87 10000 5.1 140 08:59 27.11.2019
3675 Clouds 5 998 87 10000 5.1 140 08:41 27.11.2019
3676 Clouds 5 998 87 10000 5.1 140 08:41 27.11.2019
3677 Clouds 5 998 93 10000 4.6 130 08:22 27.11.2019
3678 Clouds 5 999 87 10000 4.1 150 07:47 27.11.2019
3679 Clouds 5 999 87 10000 3.6 140 07:29 27.11.2019
3680 Clouds 5 999 87 10000 3.6 150 06:54 27.11.2019
3681 Clouds 5 999 87 10000 3.6 150 06:36 27.11.2019
3682 Clouds 6 1000 87 10000 3.6 140 05:49 27.11.2019
3683 Clouds 6 1000 87 10000 3.6 150 05:22 27.11.2019
3684 Clouds 6 1001 87 10000 4.1 150 04:49 27.11.2019
3685 Clouds 6 1001 87 10000 4.1 150 04:31 27.11.2019
3686 Clouds 6 1001 87 10000 4.6 150 03:43 27.11.2019
3687 Clouds 6 1001 87 10000 4.6 150 03:20 27.11.2019
3688 Clouds 6 1002 87 10000 3.1 140 02:32 27.11.2019
3689 Clouds 7 1003 93 10000 2.6 140 00:55 27.11.2019
3690 Clouds 7 1003 93 10000 2.6 140 00:37 27.11.2019
3691 Clouds 8 1004 87 10000 3.1 160 00:19 27.11.2019
3692 Clouds 8 1004 87 10000 3.6 170 23:42 26.11.2019
3693 Clouds 8 1004 81 10000 3.6 160 23:23 26.11.2019
3694 Clouds 8 1004 81 10000 3.6 170 22:40 26.11.2019
3695 Clouds 8 1005 81 10000 3.6 160 22:20 26.11.2019
3696 Clouds 8 1005 81 10000 3.6 160 22:00 26.11.2019
3697 Clouds 8 1005 81 10000 3.6 160 21:39 26.11.2019
3698 Clouds 8 1005 81 10000 3.1 170 21:21 26.11.2019
3699 Clouds 8 1005 81 10000 3.1 170 21:21 26.11.2019
3700 Clouds 8 1005 87 10000 2.6 170 20:57 26.11.2019
3701 Clouds 8 1005 87 10000 2.6 170 20:38 26.11.2019
3702 Clouds 8 1005 87 10000 2.6 140 20:19 26.11.2019
3703 Clouds 8 1005 87 10000 3.1 170 19:56 26.11.2019
3704 Clouds 8 1005 87 10000 3.1 170 19:38 26.11.2019
3705 Clouds 8 1005 87 10000 2.1 150 19:19 26.11.2019
3706 Clouds 8 1005 93 10000 3.1 160 18:58 26.11.2019
3707 Clouds 8 1005 87 10000 2.1 180 18:39 26.11.2019
3708 Clouds 8 1006 81 10000 2.6 170 18:21 26.11.2019
3709 Clouds 8 1006 81 10000 2.6 190 17:59 26.11.2019
3710 Clouds 8 1006 87 10000 2.6 210 17:40 26.11.2019
3711 Clouds 8 1006 87 10000 2.6 210 17:22 26.11.2019
3712 Clouds 8 1006 81 10000 3.6 210 16:57 26.11.2019
3713 Clouds 8 1006 81 10000 3.6 210 16:38 26.11.2019
3714 Clouds 8 1006 81 10000 3.1 210 16:19 26.11.2019
3715 Clouds 8 1006 81 10000 3.1 200 15:59 26.11.2019
3716 Clouds 8 1006 81 10000 3.1 200 15:38 26.11.2019
3717 Clouds 8 1006 87 10000 4.1 200 15:20 26.11.2019
3718 Clouds 8 1006 87 10000 3.6 190 14:58 26.11.2019
3719 Clouds 8 1006 87 10000 3.6 190 14:40 26.11.2019
3720 Clouds 8 1006 87 10000 3.1 190 14:22 26.11.2019
3721 Clouds 7 1006 87 10000 3.6 200 13:41 26.11.2019
3722 Clouds 7 1006 87 10000 3.6 200 13:41 26.11.2019
3723 Clouds 7 1007 87 10000 3.1 190 13:23 26.11.2019
3724 Clouds 7 1007 87 10000 3.1 190 13:23 26.11.2019
3725 Clouds 7 1007 81 10000 3.6 200 12:54 26.11.2019
3726 Clouds 7 1007 81 10000 3.6 200 12:36 26.11.2019
3727 Clouds 7 1007 87 10000 3.1 180 12:18 26.11.2019
3728 Clouds 6 1008 87 10000 3.6 190 11:54 26.11.2019
3729 Clouds 6 1008 87 10000 3.1 170 11:36 26.11.2019
3730 Clouds 6 1008 87 10000 3.1 170 11:18 26.11.2019
3731 Clouds 6 1008 87 10000 3.1 180 10:54 26.11.2019
3732 Clouds 6 1008 87 10000 3.1 180 10:36 26.11.2019
3733 Clouds 5 1008 93 10000 3.6 170 10:18 26.11.2019
3734 Clouds 5 1008 93 10000 3.1 170 09:42 26.11.2019
3735 Clouds 5 1008 93 9000 2.1 170 09:23 26.11.2019
3736 Clouds 5 1008 93 7000 3.1 180 08:46 26.11.2019
3737 Clouds 5 1008 93 7000 3.1 180 08:27 26.11.2019
3738 Clouds 4 1008 100 7000 3.1 190 07:57 26.11.2019
3739 Clouds 4 1008 100 7000 3.1 190 07:38 26.11.2019
3740 -273 0 0 0 0 0 07:19 26.11.2019
3741 Clouds 4 1008 93 7000 4.6 160 06:46 26.11.2019
3742 Mist 5 1009 93 5000 4.1 170 05:58 26.11.2019
3743 Mist 5 1009 93 5000 3.6 160 05:19 26.11.2019
3744 Mist 5 1009 93 4500 3.1 130 03:21 26.11.2019
3745 Mist 5 1010 93 4500 2.6 130 01:37 26.11.2019
3746 Mist 5 1010 93 4500 2.1 130 01:19 26.11.2019
3747 Mist 5 1011 93 4500 3.1 130 00:41 26.11.2019
3748 Mist 5 1011 93 4500 3.1 130 00:18 26.11.2019
3749 Mist 5 1011 93 4500 2.6 120 23:38 25.11.2019
3750 Mist 5 1011 93 4500 3.1 120 23:19 25.11.2019
3751 Mist 5 1011 93 4500 3.6 110 22:54 25.11.2019
3752 Mist 5 1011 93 4500 3.6 110 22:36 25.11.2019
3753 Mist 5 1011 93 4500 3.1 110 22:18 25.11.2019
3754 Mist 5 1011 86 4500 3.6 110 21:54 25.11.2019
3755 Mist 5 1011 86 4500 3.6 110 21:36 25.11.2019
3756 Mist 5 1011 86 4800 3.1 110 21:18 25.11.2019
3757 Mist 5 1012 86 4800 3.1 100 20:54 25.11.2019
3758 Mist 5 1012 86 4800 3.1 100 20:36 25.11.2019
3759 Mist 5 1012 86 4800 2.6 90 20:18 25.11.2019
3760 Mist 5 1012 86 4800 2.6 80 19:54 25.11.2019
3761 Mist 5 1012 93 4700 3.1 110 19:36 25.11.2019
3762 Mist 5 1012 86 4800 2.6 80 19:18 25.11.2019
3763 Mist 5 1012 86 4800 3.6 90 18:54 25.11.2019
3764 Mist 5 1012 86 4800 3.1 80 18:36 25.11.2019
3765 Mist 5 1012 86 4800 3.1 80 18:18 25.11.2019
3766 Mist 5 1012 93 5000 3.1 90 17:54 25.11.2019
3767 Mist 5 1012 93 5000 3.1 90 17:36 25.11.2019
3768 Mist 5 1012 86 5000 4.1 90 17:18 25.11.2019
3769 Mist 5 1012 86 5000 2.6 80 16:41 25.11.2019
3770 Mist 5 1012 86 5000 2.1 90 16:23 25.11.2019
3771 Mist 5 1012 86 5000 2.6 90 15:57 25.11.2019
3772 Mist 5 1012 86 5000 2.6 90 15:37 25.11.2019
3773 Clouds 5 1012 86 6000 3.1 90 15:19 25.11.2019
3774 Clouds 5 1012 86 6000 3.1 90 14:56 25.11.2019
3775 Clouds 5 1012 86 6000 3.1 90 14:56 25.11.2019
3776 Clouds 5 1012 93 6000 3.1 90 14:37 25.11.2019
3777 Clouds 5 1012 93 6000 3.1 90 14:19 25.11.2019
3778 Clouds 5 1012 86 6000 2.6 90 13:39 25.11.2019
3779 Clouds 5 1012 86 6000 3.1 80 13:20 25.11.2019
3780 Mist 5 1012 86 4800 2.6 90 12:59 25.11.2019
3781 Mist 5 1012 86 4800 2.6 90 12:40 25.11.2019
3782 Mist 5 1012 86 4800 2.6 90 12:40 25.11.2019
3783 Mist 5 1012 86 4800 3.1 100 12:20 25.11.2019
3784 Mist 5 1012 86 4600 3.1 110 11:56 25.11.2019
3785 Mist 5 1012 86 4600 3.1 110 11:56 25.11.2019
3786 Mist 5 1012 86 4600 3.1 110 11:38 25.11.2019
3787 Mist 5 1013 86 4400 3.6 80 11:19 25.11.2019
3788 Mist 4 1013 93 3100 3.6 90 10:42 25.11.2019
3789 Mist 4 1013 93 3100 3.1 90 10:23 25.11.2019
3790 Mist 4 1013 93 2200 3.1 80 09:56 25.11.2019
3791 Mist 4 1013 93 2200 3.1 80 09:38 25.11.2019
3792 Mist 4 1013 93 2200 3.6 90 09:20 25.11.2019
3793 Mist 4 1013 93 2200 3.1 90 08:41 25.11.2019
3794 Mist 4 1012 100 2000 3.6 80 08:21 25.11.2019
3795 Mist 4 1012 100 2700 3.6 90 07:43 25.11.2019
3796 Mist 4 1012 100 2500 3.6 90 07:24 25.11.2019
3797 Clouds 4 1012 100 0 3.1 100 06:49 25.11.2019
3798 Mist 4 1012 100 3000 3.1 110 06:21 25.11.2019
3799 Mist 4 1012 100 3300 3.6 110 05:40 25.11.2019
3800 Mist 4 1012 93 4500 4.1 100 04:52 25.11.2019
3801 Mist 4 1012 86 5000 4.1 90 03:24 25.11.2019
3802 Mist 4 1012 93 5000 3.1 80 02:31 25.11.2019
3803 Mist 4 1012 93 4000 3.1 90 01:42 25.11.2019
3804 Mist 4 1012 100 3500 3.6 110 01:23 25.11.2019
3805 Mist 4 1012 100 4000 4.1 100 00:37 25.11.2019
3806 Mist 4 1012 93 4800 4.6 90 00:18 25.11.2019
3807 Clouds 4 1012 93 6000 3.1 90 23:43 24.11.2019
3808 Clouds 4 1012 86 7000 4.1 100 23:20 24.11.2019
3809 Clouds 4 1012 86 6000 4.1 90 22:56 24.11.2019
3810 Clouds 4 1012 86 6000 4.1 90 22:37 24.11.2019
3811 Clouds 4 1012 86 6000 4.6 90 22:19 24.11.2019
3812 Clouds 4 1012 93 6000 3.6 80 21:55 24.11.2019
3813 Clouds 4 1012 93 6000 3.6 80 21:36 24.11.2019
3814 Clouds 4 1012 86 8000 3.6 80 21:18 24.11.2019
3815 Clouds 4 1012 93 10000 3.1 80 20:55 24.11.2019
3816 Clouds 4 1012 93 10000 3.1 80 20:37 24.11.2019
3817 Clouds 5 1012 93 10000 3.6 80 20:18 24.11.2019
3818 Clouds 5 1012 93 10000 3.6 90 19:54 24.11.2019
3819 Clouds 5 1012 93 10000 3.6 90 19:36 24.11.2019
3820 Clouds 5 1012 93 10000 3.6 90 19:36 24.11.2019
3821 Clouds 5 1012 86 10000 3.6 70 19:18 24.11.2019
3822 Clouds 5 1012 93 10000 3.1 70 18:56 24.11.2019
3823 Clouds 5 1012 93 10000 3.1 70 18:36 24.11.2019
3824 Clouds 5 1012 87 10000 1.5 70 18:18 24.11.2019
3825 Clouds 5 1012 87 10000 1.5 70 18:18 24.11.2019
3826 Clouds 5 1012 87 10000 1.5 70 18:18 24.11.2019
3827 Clouds 5 1011 93 10000 2.6 80 17:55 24.11.2019
3828 Clouds 5 1011 87 9000 3.6 80 17:36 24.11.2019
3829 Clouds 5 1011 87 9000 3.6 80 17:18 24.11.2019
3830 Clouds 5 1011 87 9000 3.6 80 17:18 24.11.2019
3831 Clouds 5 1011 87 7000 4.1 90 16:54 24.11.2019
3832 Clouds 5 1011 87 7000 4.1 90 16:36 24.11.2019
3833 Clouds 6 1011 87 8000 2.6 80 16:18 24.11.2019
3834 Clouds 6 1011 93 9000 4.6 80 15:43 24.11.2019
3835 Clouds 6 1011 93 9000 4.6 80 15:25 24.11.2019
3836 Clouds 6 1011 86 9000 5.1 80 14:57 24.11.2019
3837 Clouds 6 1011 86 9000 5.1 80 14:38 24.11.2019
3838 Clouds 6 1011 81 9000 4.6 80 14:18 24.11.2019
3839 Clouds 7 1010 87 10000 3.6 70 13:41 24.11.2019
3840 Clouds 7 1011 81 10000 3.6 80 13:22 24.11.2019
3841 Clouds 7 1011 81 10000 3.6 80 12:59 24.11.2019
3842 Clouds 7 1011 81 10000 3.6 80 12:40 24.11.2019
3843 Clouds 6 1011 81 10000 4.1 90 12:18 24.11.2019
3844 Clouds 6 1011 81 10000 4.6 80 11:56 24.11.2019
3845 Clouds 6 1011 81 10000 4.6 80 11:37 24.11.2019
3846 Clouds 5 1011 86 10000 4.1 90 11:18 24.11.2019
3847 Clouds 5 1011 86 10000 4.1 80 10:46 24.11.2019
3848 Clouds 5 1011 86 9000 4.1 80 10:28 24.11.2019
3849 Clouds 4 1011 93 9000 4.1 90 09:57 24.11.2019
3850 Clouds 4 1011 93 9000 4.1 90 09:37 24.11.2019
3851 Clouds 4 1011 93 9000 5.1 90 09:18 24.11.2019
3852 Clouds 4 1010 93 9000 4.1 80 08:45 24.11.2019
3853 Clouds 4 1010 93 8000 5.1 80 08:22 24.11.2019
3854 Clouds 4 1010 93 8000 5.1 70 07:58 24.11.2019
3855 Clouds 4 1010 93 8000 5.1 70 07:38 24.11.2019
3856 Clouds 4 1010 93 8000 5.1 80 07:20 24.11.2019
3857 Clouds 4 1010 93 8000 4.6 80 06:20 24.11.2019
3858 Clouds 4 1010 93 8000 4.6 80 06:20 24.11.2019
3859 Clouds 4 1009 93 7000 5.1 80 04:49 24.11.2019
3860 Clouds 3 1009 86 7000 4.6 80 03:41 24.11.2019
3861 Clouds 3 1009 93 7000 5.1 80 02:31 24.11.2019
3862 Clouds 3 1009 93 7000 4.6 80 01:41 24.11.2019
3863 Clouds 4 1009 93 8000 4.6 80 01:22 24.11.2019
3864 Clouds 4 1009 93 8000 4.6 80 01:22 24.11.2019
3865 Clouds 4 1009 93 8000 4.1 80 00:48 24.11.2019
3866 Clouds 4 1009 93 8000 3.6 80 00:24 24.11.2019
3867 Clouds 4 1009 93 8000 3.6 80 00:24 24.11.2019
3868 Clouds 4 1009 93 8000 3.6 80 23:56 23.11.2019
3869 Clouds 4 1009 93 8000 3.6 80 23:37 23.11.2019
3870 Clouds 4 1009 93 8000 4.1 80 23:19 23.11.2019
3871 Clouds 4 1009 86 8000 4.1 80 22:54 23.11.2019
3872 Clouds 4 1009 86 8000 4.1 80 22:54 23.11.2019
3873 Clouds 4 1009 86 8000 4.1 80 22:36 23.11.2019
3874 Clouds 4 1009 86 8000 4.1 80 22:18 23.11.2019
3875 Clouds 4 1009 86 8000 4.1 80 21:43 23.11.2019
3876 Clouds 4 1009 86 8000 4.1 80 21:43 23.11.2019
3877 Clouds 4 1008 93 8000 4.1 80 21:23 23.11.2019
3878 Clouds 5 1008 86 9000 4.1 80 20:59 23.11.2019
3879 Clouds 5 1008 86 9000 4.1 80 20:38 23.11.2019
3880 Clouds 6 1008 86 10000 4.6 90 20:19 23.11.2019
3881 Clouds 6 1008 86 10000 5.1 80 19:56 23.11.2019
3882 Clouds 6 1008 86 10000 5.1 80 19:38 23.11.2019
3883 Clouds 6 1008 81 10000 5.1 80 19:18 23.11.2019
3884 Clouds 6 1008 81 10000 5.1 80 19:18 23.11.2019
3885 Clouds 6 1008 87 10000 4.6 80 18:55 23.11.2019
3886 Clouds 6 1008 87 10000 4.6 80 18:36 23.11.2019
3887 Clouds 7 1008 87 10000 5.7 80 18:18 23.11.2019
3888 Clouds 7 1007 81 10000 5.1 80 17:42 23.11.2019
3889 Clouds 7 1007 81 10000 5.1 80 17:21 23.11.2019
3890 Clouds 8 1007 87 10000 4.1 70 16:57 23.11.2019
3891 Clouds 8 1007 87 10000 4.1 70 16:38 23.11.2019
3892 Clouds 8 1007 87 10000 4.6 80 16:20 23.11.2019
3893 Clouds 8 1007 87 10000 4.6 80 16:20 23.11.2019
3894 Clouds 8 1007 87 10000 3.1 70 15:58 23.11.2019
3895 Clouds 8 1007 87 10000 3.1 70 15:39 23.11.2019
3896 Clouds 8 1007 81 10000 4.1 80 15:19 23.11.2019
3897 Clouds 8 1007 81 10000 4.6 80 14:57 23.11.2019
3898 Clouds 8 1007 81 10000 4.6 80 14:38 23.11.2019
3899 Clouds 8 1007 81 10000 5.1 80 14:20 23.11.2019
3900 Clouds 8 1007 81 10000 4.1 80 13:44 23.11.2019
3901 Clouds 8 1007 81 10000 5.7 90 13:22 23.11.2019
3902 Clouds 7 1008 81 10000 6.2 90 12:59 23.11.2019
3903 Clouds 8 1008 81 10000 6.2 90 12:40 23.11.2019
3904 Clouds 8 1008 81 10000 5.7 90 12:22 23.11.2019
3905 Clouds 7 1008 87 8000 5.1 90 11:43 23.11.2019
3906 Clouds 7 1008 87 7000 4.6 90 11:21 23.11.2019
3907 Clouds 6 1009 87 7000 5.1 90 10:45 23.11.2019
3908 Clouds 6 1009 87 7000 4.6 100 10:22 23.11.2019
3909 Clouds 6 1009 93 8000 5.7 90 09:43 23.11.2019
3910 Clouds 6 1009 93 8000 5.1 90 09:21 23.11.2019
3911 Clouds 6 1009 93 8000 4.6 80 08:59 23.11.2019
3912 Clouds 6 1009 93 8000 4.6 80 08:40 23.11.2019
3913 Clouds 6 1009 93 8000 4.6 90 08:18 23.11.2019
3914 Clouds 6 1008 87 8000 5.1 90 07:41 23.11.2019
3915 Clouds 6 1009 93 10000 4.6 90 06:52 23.11.2019
3916 Clouds 6 1009 87 10000 4.6 90 06:24 23.11.2019
3917 Clouds 7 1009 87 10000 5.7 100 05:56 23.11.2019
3918 Clouds 7 1009 87 10000 5.1 80 05:31 23.11.2019
3919 Clouds 7 1009 93 8000 4.6 90 04:50 23.11.2019
3920 Clouds 7 1009 93 8000 4.6 90 04:31 23.11.2019
3921 Clouds 7 1009 93 7000 4.6 90 03:25 23.11.2019
3922 Clouds 7 1009 93 7000 4.1 90 02:31 23.11.2019
3923 Clouds 7 1009 93 6000 4.6 80 01:39 23.11.2019
3924 Clouds 7 1010 100 6000 4.1 80 00:47 23.11.2019
3925 Clouds 7 1010 100 6000 4.1 80 00:47 23.11.2019
3926 Clouds 7 1010 93 6000 4.6 80 00:19 23.11.2019
3927 Clouds 7 1010 93 6000 4.1 90 23:55 22.11.2019
3928 Clouds 7 1010 93 7000 3.1 80 23:36 22.11.2019
3929 Clouds 7 1010 93 7000 3.1 80 23:18 22.11.2019
3930 Clouds 7 1010 93 7000 4.1 90 22:55 22.11.2019
3931 Clouds 7 1010 93 7000 4.1 90 22:36 22.11.2019
3932 Clouds 7 1010 100 10000 3.6 100 22:18 22.11.2019
3933 Clouds 7 1010 100 10000 3.6 100 22:18 22.11.2019
3934 Clouds 7 1010 100 10000 3.6 100 22:18 22.11.2019
3935 Clouds 8 1010 93 10000 4.6 100 21:40 22.11.2019
3936 Clouds 8 1010 93 10000 4.6 110 21:21 22.11.2019
3937 Clouds 8 1010 93 10000 4.6 110 20:55 22.11.2019
3938 Clouds 8 1010 93 10000 4.6 110 20:37 22.11.2019
3939 Clouds 8 1010 93 10000 4.6 110 20:19 22.11.2019
3940 Clouds 8 1010 93 10000 5.1 110 19:39 22.11.2019
3941 Clouds 8 1010 93 10000 4.6 110 19:21 22.11.2019
3942 Clouds 8 1010 93 10000 4.6 110 18:59 22.11.2019
3943 Clouds 8 1010 93 10000 3.6 100 18:38 22.11.2019
3944 Clouds 8 1010 93 10000 3.1 90 18:20 22.11.2019
3945 Clouds 9 1010 93 10000 2.6 90 17:42 22.11.2019
3946 Clouds 9 1010 93 10000 2.6 90 17:23 22.11.2019
3947 Clouds 9 1010 87 10000 2.6 80 16:58 22.11.2019
3948 Clouds 9 1010 87 10000 2.6 80 16:40 22.11.2019
3949 Clouds 9 1010 87 10000 3.6 100 16:21 22.11.2019
3950 Clouds 10 1010 87 10000 3.6 130 15:40 22.11.2019
3951 Clouds 10 1010 87 10000 4.1 130 15:22 22.11.2019
3952 Clouds 10 1010 81 10000 4.1 150 14:55 22.11.2019
3953 Clouds 10 1010 81 10000 4.1 150 14:37 22.11.2019
3954 Clouds 10 1010 81 10000 4.1 140 14:19 22.11.2019
3955 Clouds 10 1010 81 10000 4.1 120 13:40 22.11.2019
3956 Clouds 10 1011 81 10000 3.1 110 13:20 22.11.2019
3957 Clouds 10 1011 81 10000 3.1 110 12:59 22.11.2019
3958 Clouds 10 1011 81 10000 2.6 130 12:40 22.11.2019
3959 Clouds 10 1011 81 10000 2.6 150 12:20 22.11.2019
3960 Clouds 10 1011 81 10000 2.6 150 11:59 22.11.2019
3961 Clouds 9 1011 81 10000 2.6 140 11:39 22.11.2019
3962 Clouds 9 1011 87 10000 2.6 140 11:20 22.11.2019
3963 Clouds 9 1011 87 10000 2.6 170 10:58 22.11.2019
3964 Clouds 9 1011 87 10000 2.6 170 10:39 22.11.2019
3965 Clouds 8 1011 93 10000 2.6 180 10:21 22.11.2019
3966 Clouds 8 1011 93 10000 3.6 180 09:55 22.11.2019
3967 Clouds 8 1011 93 10000 3.6 180 09:37 22.11.2019
3968 Clouds 8 1011 93 9000 2.6 200 09:18 22.11.2019
3969 Clouds 8 1011 93 8000 2.6 190 08:45 22.11.2019
3970 Clouds 8 1011 93 8000 2.6 190 08:26 22.11.2019
3971 Mist 8 1010 93 5000 3.1 180 07:45 22.11.2019
3972 -273 0 0 0 0 0 07:23 22.11.2019
3973 Mist 9 1009 100 5000 2.6 190 06:49 22.11.2019
3974 Drizzle 9 1009 100 3300 2.1 180 06:30 22.11.2019
3975 Mist 9 1009 100 1300 2.6 180 05:49 22.11.2019
3976 Mist 9 1009 100 2000 2.1 160 04:50 22.11.2019
3977 Rain 9 1009 100 4500 2.1 150 02:53 22.11.2019
3978 Rain 9 1009 100 4100 1.5 160 02:31 22.11.2019
3979 Drizzle 9 1008 100 4400 2.6 130 01:45 22.11.2019
3980 Drizzle 9 1008 100 5000 2.6 130 01:20 22.11.2019
3981 Drizzle 9 1008 100 5000 2.6 130 00:53 22.11.2019
3982 Drizzle 9 1009 100 5000 2.6 130 00:24 22.11.2019
3983 Drizzle 9 1009 100 5000 3.1 130 23:56 21.11.2019
3984 Drizzle 9 1009 100 5000 3.1 130 23:56 21.11.2019
3985 Drizzle 9 1009 100 5000 3.1 130 23:37 21.11.2019
3986 Drizzle 9 1009 100 4500 3.1 130 23:18 21.11.2019
3987 Drizzle 9 1009 100 5000 3.6 130 22:41 21.11.2019
3988 Drizzle 9 1009 100 5000 3.6 130 22:22 21.11.2019
3989 Drizzle 9 1009 100 5000 3.6 130 21:58 21.11.2019
3990 Drizzle 9 1009 100 5000 3.6 130 21:39 21.11.2019
3991 Drizzle 9 1009 100 5000 3.6 130 21:20 21.11.2019
3992 Drizzle 9 1009 100 5000 2.6 130 20:59 21.11.2019
3993 Drizzle 9 1009 100 5000 2.6 130 20:39 21.11.2019
3994 Drizzle 9 1009 100 5000 2.6 130 20:39 21.11.2019
3995 Drizzle 9 1009 100 4800 3.1 110 20:19 21.11.2019
3996 Drizzle 9 1009 100 4800 3.1 110 19:59 21.11.2019
3997 Drizzle 9 1009 100 5000 3.1 110 19:41 21.11.2019
3998 Drizzle 9 1009 93 4800 2.1 100 19:23 21.11.2019
3999 Rain 9 1009 93 4800 3.1 110 18:58 21.11.2019
4000 Rain 9 1009 93 4800 3.1 110 18:40 21.11.2019
4001 Rain 9 1009 93 3800 2.1 90 18:20 21.11.2019
4002 Rain 9 1009 93 3800 2.6 90 17:58 21.11.2019
4003 Rain 9 1009 93 3800 2.6 90 17:39 21.11.2019
4004 Rain 9 1010 93 3500 2.6 80 17:20 21.11.2019
4005 Rain 9 1010 93 5000 2.6 100 16:56 21.11.2019
4006 Rain 9 1010 93 5000 2.6 100 16:37 21.11.2019
4007 Rain 9 1010 87 6000 2.6 100 16:19 21.11.2019
4008 Rain 9 1010 93 6000 2.1 80 15:42 21.11.2019
4009 Rain 9 1010 87 6000 2.6 90 15:21 21.11.2019
4010 Rain 9 1010 87 6000 2.6 90 14:57 21.11.2019
4011 Rain 9 1010 87 6000 2.6 90 14:57 21.11.2019
4012 Rain 9 1010 87 6000 2.6 90 14:38 21.11.2019
4013 Clouds 9 1010 87 6000 2.6 80 14:19 21.11.2019
4014 Mist 9 1010 87 5000 3.1 100 13:57 21.11.2019
4015 Mist 9 1010 87 5000 3.1 100 13:37 21.11.2019
4016 Mist 9 1011 87 5000 2.6 90 13:18 21.11.2019
4017 Mist 9 1011 87 4800 2.6 110 12:41 21.11.2019
4018 Mist 9 1011 93 4800 3.1 80 12:22 21.11.2019
4019 Mist 8 1012 93 4800 3.1 90 11:56 21.11.2019
4020 Mist 8 1012 93 4800 3.1 90 11:37 21.11.2019
4021 Mist 8 1012 100 4800 2.6 90 11:19 21.11.2019
4022 Mist 8 1012 100 4500 2.6 70 10:42 21.11.2019
4023 Mist 8 1012 93 3800 2.1 80 10:24 21.11.2019
4024 Mist 8 1013 93 3200 2.1 80 09:59 21.11.2019
4025 Mist 7 1013 93 3200 2.1 80 09:41 21.11.2019
4026 Mist 7 1013 100 2500 2.1 80 09:22 21.11.2019
4027 Mist 7 1013 100 2800 2.1 80 08:54 21.11.2019
4028 Mist 7 1013 100 2800 2.1 80 08:36 21.11.2019
4029 Mist 7 1013 100 4000 2.1 70 08:18 21.11.2019
4030 Mist 7 1013 100 4500 2.1 80 07:37 21.11.2019
4031 Mist 7 1013 100 4500 2.1 80 07:18 21.11.2019
4032 Mist 7 1013 93 4000 2.1 70 06:42 21.11.2019
4033 Mist 7 1013 93 3600 2.6 80 06:24 21.11.2019
4034 Mist 6 1014 93 3100 2.6 70 04:55 21.11.2019
4035 Mist 6 1015 100 3500 2.6 80 03:25 21.11.2019
4036 Mist 6 1015 100 4000 2.6 80 02:35 21.11.2019
4037 Mist 6 1015 100 4000 2.6 80 01:52 21.11.2019
4038 Mist 6 1015 100 4400 2.6 80 01:23 21.11.2019
4039 Mist 6 1016 100 4400 2.6 50 00:47 21.11.2019
4040 Mist 6 1016 93 4400 2.6 30 00:20 21.11.2019
4041 Mist 6 1016 93 4400 2.6 30 00:20 21.11.2019
4042 Mist 6 1016 93 4400 2.1 40 23:51 20.11.2019
4043 Mist 6 1016 93 4000 1.5 50 23:23 20.11.2019
4044 Mist 6 1016 93 4000 2.1 70 22:59 20.11.2019
4045 Mist 6 1016 93 4000 2.1 70 22:41 20.11.2019
4046 Mist 6 1017 93 4800 2.1 70 22:20 20.11.2019
4047 Mist 6 1017 93 4800 1.5 60 21:59 20.11.2019
4048 Mist 6 1017 93 4800 1.5 60 21:40 20.11.2019
4049 Mist 6 1017 93 4200 1.5 40 21:22 20.11.2019
4050 Mist 6 1017 93 2800 1.5 30 20:58 20.11.2019
4051 Mist 6 1017 93 2800 1.5 30 20:40 20.11.2019
4052 Mist 6 1017 100 2500 1 0 20:22 20.11.2019
4053 Mist 6 1017 93 4800 1.5 60 19:59 20.11.2019
4054 Mist 6 1017 93 4800 1.5 60 19:37 20.11.2019
4055 Mist 6 1017 93 5000 1 0 19:19 20.11.2019
4056 Mist 6 1017 93 5000 1.5 10 18:59 20.11.2019
4057 Mist 6 1017 93 5000 1.5 10 18:40 20.11.2019
4058 Drizzle 6 1017 93 5000 1 0 18:22 20.11.2019
4059 Mist 6 1017 93 5000 1 50 17:59 20.11.2019
4060 Mist 6 1017 93 5000 1 50 17:39 20.11.2019
4061 Mist 6 1017 93 5000 1 0 17:21 20.11.2019
4062 Clouds 6 1017 93 6000 0.5 0 16:57 20.11.2019
4063 Clouds 6 1017 93 6000 0.5 0 16:39 20.11.2019
4064 Clouds 6 1017 100 6000 1 0 16:20 20.11.2019
4065 Clouds 6 1017 100 7000 2.1 340 15:57 20.11.2019
4066 Clouds 6 1017 100 7000 2.1 340 15:38 20.11.2019
4067 Clouds 6 1017 100 7000 1.5 310 15:19 20.11.2019
4068 Clouds 6 1017 100 8000 1.5 350 14:55 20.11.2019
4069 Clouds 6 1017 100 8000 1.5 350 14:37 20.11.2019
4070 Clouds 6 1017 87 8000 2.1 340 14:18 20.11.2019
4071 Clouds 6 1018 100 8000 1 0 13:55 20.11.2019
4072 Drizzle 6 1018 100 8000 1.5 290 13:36 20.11.2019
4073 Drizzle 6 1018 100 8000 1.5 290 13:18 20.11.2019
4074 Rain 6 1018 100 0 1.5 290 12:38 20.11.2019
4075 Clouds 6 1018 100 8000 1.5 290 12:19 20.11.2019
4076 Clouds 6 1018 100 8000 2.1 310 11:46 20.11.2019
4077 Mist 5 1018 100 5000 2.1 290 11:23 20.11.2019
4078 Mist 5 1018 100 5000 2.1 290 10:59 20.11.2019
4079 Drizzle 5 1019 100 4000 2.6 310 10:39 20.11.2019
4080 Drizzle 5 1019 100 4800 1.5 320 10:20 20.11.2019
4081 Drizzle 5 1019 100 4800 1.5 310 09:59 20.11.2019
4082 Drizzle 5 1019 100 4800 1.5 310 09:41 20.11.2019
4083 Clouds 5 1019 100 7000 2.1 320 09:20 20.11.2019
4084 Clouds 5 1019 100 7000 1.5 330 08:46 20.11.2019
4085 Clouds 5 1019 100 7000 1.5 330 08:28 20.11.2019
4086 Mist 5 1019 100 4000 1 0 07:56 20.11.2019
4087 Mist 5 1019 100 4000 1 0 07:36 20.11.2019
4088 Drizzle 5 1019 100 4000 2.1 350 07:18 20.11.2019
4089 Drizzle 5 1019 100 7000 2.1 340 06:43 20.11.2019
4090 Drizzle 5 1019 100 7000 1.5 320 06:19 20.11.2019
4091 Rain 5 1019 100 8000 1 0 04:50 20.11.2019
4092 Rain 5 1019 100 10000 1 0 02:29 20.11.2019
4093 Rain 5 1019 100 10000 1 0 01:38 20.11.2019
4094 Rain 5 1019 93 10000 0.5 0 00:59 20.11.2019
4095 Rain 5 1019 93 10000 1 0 00:34 20.11.2019
4096 Rain 5 1019 93 10000 1.5 70 23:43 19.11.2019
4097 Rain 6 1019 93 10000 0.5 0 23:24 19.11.2019
4098 Rain 6 1019 93 10000 1 350 22:56 19.11.2019
4099 Rain 6 1019 93 10000 1 350 22:38 19.11.2019
4100 Rain 6 1019 93 10000 0.53 218 22:18 19.11.2019
4101 Rain 6 1019 93 10000 1 330 21:55 19.11.2019
4102 Rain 6 1019 93 10000 1 330 21:37 19.11.2019
4103 Rain 6 1019 87 10000 1 280 21:19 19.11.2019
4104 Rain 6 1019 87 10000 1 0 20:55 19.11.2019
4105 Rain 6 1019 87 10000 1 0 20:36 19.11.2019
4106 Rain 6 1019 87 10000 1 0 20:36 19.11.2019
4107 Rain 6 1019 87 10000 1 0 20:36 19.11.2019
4108 Rain 6 1019 87 10000 2.1 270 20:18 19.11.2019
4109 Clouds 6 1019 81 10000 2.1 220 19:55 19.11.2019
4110 Clouds 6 1019 81 10000 2.1 220 19:37 19.11.2019
4111 Clouds 6 1019 81 10000 1.5 200 19:18 19.11.2019
4112 Clouds 6 1018 75 10000 2.1 210 18:54 19.11.2019
4113 Clouds 6 1018 75 10000 2.1 210 18:36 19.11.2019
4114 Clouds 6 1018 75 10000 2.6 210 18:18 19.11.2019
4115 Clouds 7 1018 75 10000 2.6 190 17:54 19.11.2019
4116 Clouds 7 1018 75 10000 2.6 190 17:36 19.11.2019
4117 Clouds 7 1018 75 10000 2.6 190 17:18 19.11.2019
4118 Clouds 7 1018 75 10000 2.6 180 16:41 19.11.2019
4119 Clouds 7 1017 75 10000 2.1 180 16:22 19.11.2019
4120 Clouds 7 1017 75 10000 2.1 180 15:54 19.11.2019
4121 Clouds 7 1017 75 10000 3.1 200 15:36 19.11.2019
4122 Clouds 8 1017 75 10000 4.1 190 15:18 19.11.2019
4123 Clouds 8 1016 70 10000 5.1 180 14:54 19.11.2019
4124 Clouds 8 1016 70 10000 5.1 180 14:36 19.11.2019
4125 Clouds 8 1016 70 10000 5.1 180 14:36 19.11.2019
4126 Clouds 8 1016 70 10000 5.1 190 14:18 19.11.2019
4127 Clouds 8 1016 61 10000 5.1 210 13:40 19.11.2019
4128 -273 0 0 0 0 0 13:40 19.11.2019
4129 Clouds 8 1016 65 10000 6.2 220 13:19 19.11.2019
4130 Clouds 9 1015 65 10000 7.2 230 12:40 19.11.2019
4131 Clouds 9 1015 61 10000 6.7 220 12:22 19.11.2019
4132 Clouds 9 1015 61 10000 6.7 220 11:58 19.11.2019
4133 Clouds 9 1015 70 10000 6.2 220 11:38 19.11.2019
4134 Clouds 8 1015 70 10000 5.1 200 11:19 19.11.2019
4135 Clouds 8 1015 70 10000 5.7 200 10:48 19.11.2019
4136 Clouds 7 1014 75 10000 6.2 220 10:23 19.11.2019
4137 Clouds 7 1014 75 10000 6.2 220 10:23 19.11.2019
4138 Clouds 7 1014 81 10000 5.7 230 09:58 19.11.2019
4139 Clouds 6 1014 81 10000 5.7 230 09:40 19.11.2019
4140 Clouds 6 1014 75 10000 6.7 200 09:19 19.11.2019
4141 Clouds 6 1014 75 10000 6.7 200 09:19 19.11.2019
4142 Clouds 6 1014 81 10000 6.7 200 08:41 19.11.2019
4143 Clouds 6 1013 75 10000 6.7 200 08:23 19.11.2019
4144 Clouds 6 1012 75 10000 7.7 200 07:59 19.11.2019
4145 Clouds 6 1012 75 10000 7.7 200 07:41 19.11.2019
4146 Clouds 6 1012 75 10000 8.2 210 07:22 19.11.2019
4147 Clouds 6 1011 75 10000 7.2 200 06:52 19.11.2019
4148 Clouds 6 1011 75 10000 7.2 200 06:33 19.11.2019
4149 Clouds 6 1010 70 10000 8.2 200 05:44 19.11.2019
4150 Clouds 6 1010 70 10000 6.7 180 04:26 19.11.2019
4151 Clouds 6 1010 70 10000 6.2 180 03:35 19.11.2019
4152 Clouds 5 1010 70 10000 6.7 180 02:59 19.11.2019
4153 Clear 5 1010 75 10000 6.2 180 02:33 19.11.2019
4154 Clear 5 1010 75 10000 5.7 170 01:45 19.11.2019
4155 Clear 5 1010 75 10000 4.1 180 00:37 19.11.2019
4156 Clear 4 1010 75 10000 4.6 170 00:19 19.11.2019
4157 Clear 4 1010 80 10000 4.1 170 23:37 18.11.2019
4158 Clear 4 1010 75 10000 4.1 180 23:19 18.11.2019
4159 Clear 4 1010 80 10000 5.1 180 22:46 18.11.2019
4160 Clear 5 1009 75 10000 5.1 180 22:24 18.11.2019
4161 Clear 5 1009 81 10000 5.7 180 21:57 18.11.2019
4162 Clear 5 1009 81 10000 5.7 180 21:39 18.11.2019
4163 Clear 5 1009 81 10000 5.1 190 21:20 18.11.2019
4164 Clear 5 1009 81 10000 5.1 190 20:57 18.11.2019
4165 Clear 5 1009 81 10000 5.1 190 20:57 18.11.2019
4166 Clear 6 1009 81 10000 5.1 190 20:39 18.11.2019
4167 Clouds 6 1009 81 10000 6.2 190 20:18 18.11.2019
4168 Clouds 6 1009 87 10000 5.1 190 19:56 18.11.2019
4169 Clouds 7 1009 87 10000 5.1 190 19:38 18.11.2019
4170 Clouds 7 1009 87 10000 5.7 200 19:19 18.11.2019
4171 Clouds 7 1009 93 10000 5.7 200 18:56 18.11.2019
4172 Clouds 7 1009 93 10000 5.7 200 18:38 18.11.2019
4173 Rain 8 1008 87 10000 6.2 200 18:19 18.11.2019
4174 Rain 8 1008 93 10000 6.2 200 17:55 18.11.2019
4175 Rain 8 1008 93 10000 6.2 200 17:36 18.11.2019
4176 Rain 8 1007 93 10000 4.1 200 17:18 18.11.2019
4177 Rain 8 1007 93 10000 4.6 210 16:42 18.11.2019
4178 -273 0 0 0 0 0 16:23 18.11.2019
4179 Rain 8 1006 93 10000 5.1 220 15:56 18.11.2019
4180 Clouds 8 1007 93 10000 4.6 220 15:56 18.11.2019
4181 Rain 8 1006 93 10000 5.1 220 15:38 18.11.2019
4182 Rain 8 1006 93 9000 5.1 220 15:20 18.11.2019
4183 Rain 8 1006 93 7000 4.6 210 14:43 18.11.2019
4184 Rain 8 1005 100 7000 4.6 220 14:24 18.11.2019
4185 Rain 9 1005 93 7000 5.1 210 13:59 18.11.2019
4186 Rain 9 1005 93 7000 5.1 210 13:41 18.11.2019
4187 Rain 9 1005 87 10000 4.6 190 13:23 18.11.2019
4188 Clouds 11 1004 81 10000 2.6 150 12:40 18.11.2019
4189 Clouds 11 1004 81 10000 2.1 160 12:20 18.11.2019
4190 Clouds 11 1005 87 10000 3.1 170 11:56 18.11.2019
4191 Clouds 11 1005 87 10000 3.1 170 11:37 18.11.2019
4192 Clouds 11 1005 81 10000 3.1 130 11:19 18.11.2019
4193 Clouds 11 1004 81 10000 3.6 110 10:42 18.11.2019
4194 Clouds 10 1004 81 10000 3.6 120 10:23 18.11.2019
4195 Clouds 10 1004 81 10000 3.1 130 09:57 18.11.2019
4196 Clouds 10 1004 81 10000 3.1 130 09:38 18.11.2019
4197 Clouds 10 1004 81 10000 4.1 110 09:19 18.11.2019
4198 Clouds 10 1004 81 10000 4.1 110 09:19 18.11.2019
4199 Clouds 10 1004 87 10000 3.6 110 08:47 18.11.2019
4200 Clouds 10 1004 81 10000 4.1 110 08:24 18.11.2019
4201 Clouds 10 1004 87 10000 3.6 110 07:58 18.11.2019
4202 Clouds 9 1004 87 10000 3.6 110 07:38 18.11.2019
4203 Clouds 9 1004 87 10000 4.1 100 07:20 18.11.2019
4204 Clouds 9 1004 87 10000 3.6 100 06:43 18.11.2019
4205 Clouds 9 1004 87 10000 3.1 100 06:25 18.11.2019
4206 Clouds 9 1003 87 10000 2.6 80 05:41 18.11.2019
4207 Clouds 8 1004 87 10000 4.1 100 03:59 18.11.2019
4208 Clouds 8 1005 87 10000 4.6 100 01:40 18.11.2019
4209 Clouds 8 1005 93 10000 2.6 80 00:54 18.11.2019
4210 Clouds 8 1005 93 10000 3.1 90 00:19 18.11.2019
4211 Clouds 8 1005 93 10000 2.6 80 23:41 17.11.2019
4212 Clouds 8 1006 93 10000 2.1 80 23:21 17.11.2019
4213 Clouds 7 1006 93 10000 1.5 70 22:57 17.11.2019
4214 Clouds 7 1006 93 10000 1.5 70 22:57 17.11.2019
4215 Clouds 7 1006 93 10000 1.5 70 22:39 17.11.2019
4216 Clouds 7 1006 100 10000 1.5 70 22:20 17.11.2019
4217 Clouds 8 1006 100 10000 2.1 60 21:56 17.11.2019
4218 Clouds 8 1006 100 10000 2.1 60 21:37 17.11.2019
4219 Clouds 7 1007 100 10000 2.1 50 21:18 17.11.2019
4220 Clouds 7 1007 100 10000 2.6 50 20:55 17.11.2019
4221 Clouds 7 1007 100 10000 2.6 50 20:36 17.11.2019
4222 Clouds 6 1007 93 10000 2.6 50 20:18 17.11.2019
4223 Clouds 6 1008 93 10000 2.6 40 19:55 17.11.2019
4224 Clouds 6 1008 93 10000 2.6 40 19:36 17.11.2019
4225 Clouds 6 1008 93 10000 2.6 30 19:18 17.11.2019
4226 Clouds 6 1008 93 9000 3.1 40 18:54 17.11.2019
4227 Clouds 6 1008 93 9000 3.1 40 18:36 17.11.2019
4228 Clouds 6 1009 93 9000 3.1 40 18:18 17.11.2019
4229 Clouds 6 1009 93 9000 3.6 40 17:57 17.11.2019
4230 Clouds 6 1009 93 9000 3.6 40 17:38 17.11.2019
4231 Clouds 6 1009 93 9000 3.6 40 17:19 17.11.2019
4232 Clouds 6 1009 93 9000 3.6 40 17:19 17.11.2019
4233 Clouds 6 1009 93 8000 3.6 40 16:55 17.11.2019
4234 Clouds 6 1009 93 8000 3.6 40 16:37 17.11.2019
4235 Clouds 6 1010 93 8000 3.1 40 16:19 17.11.2019
4236 Clouds 6 1010 93 8000 3.1 40 15:54 17.11.2019
4237 Clouds 6 1010 93 8000 3.1 40 15:36 17.11.2019
4238 Clouds 6 1011 93 9000 3.6 40 15:18 17.11.2019
4239 Clouds 6 1011 93 9000 3.6 40 15:18 17.11.2019
4240 Clouds 6 1011 93 9000 3.6 40 14:54 17.11.2019
4241 Clouds 6 1011 93 9000 3.6 40 14:36 17.11.2019
4242 Clouds 6 1011 93 10000 3.6 40 14:18 17.11.2019
4243 Clouds 6 1011 93 10000 3.6 40 13:40 17.11.2019
4244 Clouds 6 1012 93 10000 3.6 40 13:20 17.11.2019
4245 Rain 5 1012 93 8000 3.6 30 12:59 17.11.2019
4246 Rain 5 1012 93 8000 3.6 30 12:38 17.11.2019
4247 Rain 5 1013 93 8000 3.1 30 12:19 17.11.2019
4248 Rain 5 1013 100 9000 2.1 30 11:55 17.11.2019
4249 Rain 4 1013 100 9000 2.1 30 11:37 17.11.2019
4250 Rain 4 1014 93 8000 1.5 30 11:18 17.11.2019
4251 Rain 4 1014 93 8000 3.1 40 10:41 17.11.2019
4252 Rain 3 1014 100 6000 2.1 30 10:22 17.11.2019
4253 Rain 3 1015 93 6000 2.1 30 09:43 17.11.2019
4254 Rain 3 1015 100 7000 1.5 70 09:24 17.11.2019
4255 Rain 3 1015 100 7000 1.5 70 09:24 17.11.2019
4256 Rain 3 1015 93 8000 2.1 40 08:58 17.11.2019
4257 Rain 2 1015 93 8000 2.1 40 08:37 17.11.2019
4258 Clouds 1 1016 100 8000 1.5 60 08:19 17.11.2019
4259 Clouds 1 1015 100 8000 1.5 50 07:42 17.11.2019
4260 Fog 1 1016 100 8000 1.5 50 07:22 17.11.2019
4261 Mist 0 1016 83 2600 1.5 70 06:56 17.11.2019
4262 Mist 0 1016 83 2600 1.5 70 06:30 17.11.2019
4263 Mist 0 1015 100 3500 1.5 10 05:39 17.11.2019
4264 Mist 1 1015 100 5000 1 100 04:20 17.11.2019
4265 Mist 1 1015 100 4500 1.5 110 03:42 17.11.2019
4266 Clouds 1 1015 93 6000 1.5 130 03:23 17.11.2019
4267 Mist 1 1015 100 4500 2.1 150 02:25 17.11.2019
4268 Clouds 1 1015 100 6000 0.5 0 01:25 17.11.2019
4269 Clouds 2 1015 100 6000 1.5 130 00:49 17.11.2019
4270 Clouds 2 1014 100 6000 1 0 00:22 17.11.2019
4271 Clouds 2 1014 100 8000 1.5 240 23:43 16.11.2019
4272 Clear 2 1014 93 8000 2.6 190 23:20 16.11.2019
4273 Clear 2 1014 93 10000 2.6 180 22:59 16.11.2019
4274 Clear 3 1014 93 10000 2.6 180 22:40 16.11.2019
4275 Clear 3 1014 86 10000 2.1 200 22:19 16.11.2019
4276 Clear 3 1014 93 10000 2.6 180 21:42 16.11.2019
4277 Clear 3 1014 93 10000 3.1 180 21:24 16.11.2019
4278 Clear 4 1013 93 10000 3.1 200 20:59 16.11.2019
4279 Clear 4 1013 93 10000 3.1 200 20:41 16.11.2019
4280 Clouds 4 1013 93 10000 3.6 210 20:20 16.11.2019
4281 Clouds 4 1012 93 10000 3.6 200 19:58 16.11.2019
4282 Clouds 4 1012 93 10000 3.6 200 19:39 16.11.2019
4283 Clouds 4 1012 86 10000 3.6 210 19:20 16.11.2019
4284 Clouds 5 1012 93 10000 4.1 210 18:46 16.11.2019
4285 Clouds 5 1011 93 10000 3.6 200 18:28 16.11.2019
4286 Clouds 5 1010 93 10000 3.6 210 17:56 16.11.2019
4287 Clouds 5 1010 93 10000 3.6 210 17:38 16.11.2019
4288 Clouds 5 1010 93 10000 3.1 210 17:19 16.11.2019
4289 Clouds 6 1010 87 10000 4.1 210 16:48 16.11.2019
4290 Clouds 6 1010 87 10000 4.1 210 16:48 16.11.2019
4291 Clouds 6 1010 87 10000 4.1 210 16:30 16.11.2019
4292 Clouds 6 1010 81 10000 6.2 230 15:59 16.11.2019
4293 Clouds 7 1009 81 10000 5.1 230 15:39 16.11.2019
4294 Clouds 7 1009 87 10000 7.2 240 15:21 16.11.2019
4295 Clouds 7 1008 87 10000 7.7 220 14:57 16.11.2019
4296 Clouds 7 1008 87 10000 7.7 220 14:39 16.11.2019
4297 Clouds 7 1007 81 10000 7.7 230 14:21 16.11.2019
4298 Clouds 7 1006 87 10000 7.7 230 13:55 16.11.2019
4299 Clouds 7 1006 87 10000 7.7 230 13:37 16.11.2019
4300 Clouds 7 1006 87 10000 6.7 220 13:18 16.11.2019
4301 Drizzle 7 1006 87 8000 7.2 220 12:54 16.11.2019
4302 Clouds 7 1005 93 8000 8.7 220 12:36 16.11.2019
4303 Clouds 7 1005 93 8000 8.7 220 12:18 16.11.2019
4304 Clouds 8 1004 93 7000 8.2 220 11:41 16.11.2019
4305 Clouds 8 1004 93 6000 6.7 210 11:23 16.11.2019
4306 Clouds 8 1004 93 6000 5.7 200 10:55 16.11.2019
4307 Clouds 9 1004 93 6000 5.7 200 10:37 16.11.2019
4308 Clouds 9 1003 93 6000 3.6 190 10:18 16.11.2019
4309 Clouds 8 1003 93 7000 3.6 160 09:40 16.11.2019
4310 Clouds 8 1002 93 6000 3.1 150 09:20 16.11.2019
4311 Rain 8 1002 100 6000 3.6 130 08:56 16.11.2019
4312 Rain 8 1002 100 6000 3.6 130 08:36 16.11.2019
4313 Drizzle 8 1003 100 5000 2.6 160 08:18 16.11.2019
4314 Drizzle 8 1002 100 6000 3.1 150 07:41 16.11.2019
4315 Drizzle 8 1002 93 8000 4.1 140 07:19 16.11.2019
4316 Rain 8 1002 93 10000 3.6 120 06:44 16.11.2019
4317 Rain 7 1002 93 10000 2.1 80 06:25 16.11.2019
4318 Clouds 7 1003 93 7000 2.1 110 04:50 16.11.2019
4319 Clouds 7 1003 93 6000 2.6 60 03:27 16.11.2019
4320 Clouds 7 1004 100 6000 3.1 120 03:27 16.11.2019
4321 Clouds 7 1004 93 9000 1.5 80 02:55 16.11.2019
4322 Clouds 8 1004 93 10000 1.5 80 01:44 16.11.2019
4323 Clouds 8 1004 93 10000 1.5 80 01:44 16.11.2019
4324 Clouds 8 1004 93 10000 2.6 80 01:18 16.11.2019
4325 Clouds 8 1004 87 10000 2.6 90 00:41 16.11.2019
4326 Clouds 8 1004 87 10000 3.1 100 00:20 16.11.2019
4327 Clouds 8 1004 87 10000 2.6 90 23:39 15.11.2019
4328 Clouds 8 1004 87 10000 2.6 90 23:39 15.11.2019
4329 Clouds 8 1005 87 10000 2.6 110 23:20 15.11.2019
4330 Clouds 8 1005 87 10000 3.6 100 22:55 15.11.2019
4331 Clouds 8 1005 87 10000 3.6 100 22:37 15.11.2019
4332 Clouds 9 1005 87 10000 4.1 110 22:18 15.11.2019
4333 Clouds 8 1005 87 10000 3.6 110 21:41 15.11.2019
4334 Clouds 9 1005 81 10000 4.1 110 21:21 15.11.2019
4335 Clouds 9 1005 81 0 4.6 110 20:59 15.11.2019
4336 Clouds 9 1005 81 0 4.6 110 20:40 15.11.2019
4337 Clouds 9 1005 81 10000 4.6 110 20:22 15.11.2019
4338 Clouds 9 1005 81 10000 4.6 110 20:22 15.11.2019
4339 Clouds 9 1005 87 10000 5.7 100 19:59 15.11.2019
4340 Clouds 9 1005 87 10000 5.7 100 19:41 15.11.2019
4341 Clouds 9 1005 87 10000 4.6 90 19:21 15.11.2019
4342 Clouds 9 1005 87 10000 4.1 80 18:59 15.11.2019
4343 Clouds 9 1005 87 10000 4.1 80 18:41 15.11.2019
4344 Clouds 9 1005 87 10000 4.1 80 18:41 15.11.2019
4345 Clouds 9 1005 87 10000 4.1 80 18:22 15.11.2019
4346 Clouds 9 1005 87 10000 3.1 80 17:55 15.11.2019
4347 Clouds 9 1005 87 10000 3.1 80 17:37 15.11.2019
4348 Clouds 9 1005 87 10000 4.1 90 17:18 15.11.2019
4349 Clouds 9 1005 81 10000 3.6 90 16:40 15.11.2019
4350 Clouds 9 1005 81 10000 4.1 90 16:22 15.11.2019
4351 Clouds 9 1005 81 10000 4.1 90 15:59 15.11.2019
4352 Clouds 9 1005 81 10000 4.6 90 15:36 15.11.2019
4353 Clouds 9 1005 81 10000 5.7 90 15:18 15.11.2019
4354 Clouds 9 1005 81 10000 5.1 100 14:55 15.11.2019
4355 Clouds 9 1005 81 10000 5.1 100 14:37 15.11.2019
4356 Clouds 9 1005 81 10000 5.1 100 14:37 15.11.2019
4357 Clouds 9 1004 81 10000 6.7 100 14:18 15.11.2019
4358 Clouds 9 1004 81 10000 7.2 100 13:55 15.11.2019
4359 Clouds 9 1004 81 10000 7.2 100 13:36 15.11.2019
4360 Clouds 9 1004 81 10000 7.2 100 13:18 15.11.2019
4361 Clouds 9 1005 81 10000 7.2 110 12:56 15.11.2019
4362 Clouds 9 1005 81 10000 7.2 110 12:37 15.11.2019
4363 Clouds 9 1005 81 10000 7.7 90 12:18 15.11.2019
4364 Clouds 9 1005 81 10000 7.7 90 12:18 15.11.2019
4365 Clouds 8 1005 81 10000 7.2 90 11:40 15.11.2019
4366 Clouds 8 1005 87 10000 6.7 90 11:21 15.11.2019
4367 Clouds 8 1005 87 10000 6.7 90 11:21 15.11.2019
4368 Clouds 7 1006 87 10000 5.7 90 10:59 15.11.2019
4369 Clouds 7 1006 87 10000 5.7 90 10:39 15.11.2019
4370 Clouds 7 1006 81 10000 6.2 90 10:21 15.11.2019
4371 Clouds 7 1006 87 10000 6.2 90 09:56 15.11.2019
4372 Clouds 7 1006 87 10000 6.2 90 09:56 15.11.2019
4373 Clouds 6 1006 87 10000 6.2 90 09:38 15.11.2019
4374 Clouds 6 1006 87 10000 5.7 90 09:18 15.11.2019
4375 Clouds 6 1007 87 10000 5.7 90 08:42 15.11.2019
4376 Clouds 6 1007 81 10000 6.2 90 08:21 15.11.2019
4377 Clouds 6 1007 81 10000 6.2 90 08:21 15.11.2019
4378 Clouds 5 1007 86 10000 6.2 90 07:46 15.11.2019
4379 Clouds 5 1007 86 10000 7.2 90 07:26 15.11.2019
4380 Clouds 5 1007 86 10000 6.7 90 06:37 15.11.2019
4381 Clouds 5 1008 86 9000 5.7 90 05:58 15.11.2019
4382 Clouds 5 1008 86 9000 5.7 90 05:39 15.11.2019
4383 Clouds 5 1008 86 9000 5.7 90 05:39 15.11.2019
4384 Clouds 4 1008 80 9000 5.7 90 05:19 15.11.2019
4385 Clouds 4 1008 80 10000 6.7 90 03:46 15.11.2019
4386 Clouds 4 1009 80 10000 5.7 80 02:51 15.11.2019
4387 Clouds 4 1009 80 10000 5.7 90 02:18 15.11.2019
4388 Clouds 4 1010 80 10000 6.2 90 01:32 15.11.2019
4389 Clouds 4 1010 80 10000 7.7 90 00:49 15.11.2019
4390 Clouds 4 1010 86 10000 6.7 90 00:31 15.11.2019
4391 Clouds 4 1010 86 10000 6.7 90 23:50 14.11.2019
4392 Clouds 4 1010 86 10000 6.7 90 23:27 14.11.2019
4393 Clouds 4 1010 86 10000 7.2 90 22:58 14.11.2019
4394 Clouds 4 1010 86 10000 7.2 90 22:39 14.11.2019
4395 Clouds 4 1010 93 10000 6.7 90 22:21 14.11.2019
4396 Clear 4 1010 93 10000 5.1 80 21:55 14.11.2019
4397 Clear 4 1010 93 10000 5.1 80 21:37 14.11.2019
4398 Clear 4 1011 93 10000 4.1 80 21:18 14.11.2019
4399 Clear 4 1011 86 10000 4.1 80 20:42 14.11.2019
4400 Clouds 4 1011 86 10000 3.6 80 20:23 14.11.2019
4401 Clouds 4 1011 86 10000 3.6 80 19:59 14.11.2019
4402 Clouds 5 1011 86 10000 3.6 80 19:40 14.11.2019
4403 Clouds 5 1011 81 10000 3.6 90 19:18 14.11.2019
4404 Clouds 5 1011 81 10000 3.6 90 19:18 14.11.2019
4405 Clouds 5 1011 81 10000 3.6 90 18:55 14.11.2019
4406 Clouds 5 1010 75 10000 4.1 90 18:37 14.11.2019
4407 Clouds 6 1010 75 10000 4.1 90 18:18 14.11.2019
4408 Clouds 6 1010 75 10000 4.1 90 17:55 14.11.2019
4409 Clouds 6 1010 70 10000 4.1 100 17:36 14.11.2019
4410 Clouds 6 1010 70 10000 4.1 100 17:18 14.11.2019
4411 Clouds 6 1010 70 10000 3.1 100 16:55 14.11.2019
4412 Clouds 7 1010 70 10000 3.1 100 16:36 14.11.2019
4413 Clouds 7 1010 65 10000 5.1 110 16:18 14.11.2019
4414 Clouds 8 1010 70 10000 4.6 110 15:54 14.11.2019
4415 Clouds 8 1010 70 10000 4.6 110 15:36 14.11.2019
4416 Clouds 9 1010 66 10000 5.1 110 15:18 14.11.2019
4417 Clouds 9 1010 61 10000 5.1 120 14:41 14.11.2019
4418 Clear 9 1010 61 10000 4.1 140 14:22 14.11.2019
4419 Clear 9 1010 61 10000 4.1 140 13:56 14.11.2019
4420 Clear 9 1010 61 10000 4.6 130 13:37 14.11.2019
4421 Clear 9 1010 66 10000 3.6 140 13:19 14.11.2019
4422 Clear 9 1010 66 10000 3.6 130 12:46 14.11.2019
4423 Clear 9 1009 66 10000 3.6 170 12:26 14.11.2019
4424 Clear 9 1009 70 10000 3.6 160 11:58 14.11.2019
4425 Clear 9 1009 70 10000 3.6 160 11:38 14.11.2019
4426 Clear 8 1009 70 10000 2.6 160 11:20 14.11.2019
4427 Clear 7 1009 75 10000 3.1 170 10:58 14.11.2019
4428 Clear 7 1009 75 10000 3.1 170 10:39 14.11.2019
4429 Clear 6 1009 81 10000 2.1 150 10:20 14.11.2019
4430 Clear 6 1009 81 10000 2.1 150 09:56 14.11.2019
4431 Clear 6 1008 75 10000 2.6 150 09:38 14.11.2019
4432 Clear 4 1008 86 10000 2.6 140 09:19 14.11.2019
4433 Clear 4 1008 86 10000 2.6 140 08:47 14.11.2019
4434 Clouds 4 1007 86 10000 2.6 150 08:25 14.11.2019
4435 Clouds 4 1007 86 10000 2.6 130 07:56 14.11.2019
4436 Clouds 4 1007 86 10000 2.6 130 07:37 14.11.2019
4437 Clouds 3 1007 93 10000 2.1 130 07:19 14.11.2019
4438 Clouds 4 1006 86 10000 2.1 160 06:41 14.11.2019
4439 Clouds 4 1006 80 10000 1.5 180 06:18 14.11.2019
4440 Clouds 4 1005 80 10000 1.5 160 04:41 14.11.2019
4441 Clouds 4 1005 86 10000 1.5 180 04:19 14.11.2019
4442 Clouds 4 1005 86 10000 1.5 180 02:45 14.11.2019
4443 Clouds 4 1004 86 10000 1.5 180 01:51 14.11.2019
4444 Clouds 4 1004 86 10000 1.5 180 01:32 14.11.2019
4445 Clouds 4 1004 86 10000 1.5 170 00:49 14.11.2019
4446 Clouds 4 1004 86 10000 1.5 170 00:29 14.11.2019
4447 Clouds 3 1004 86 10000 2.1 190 23:41 13.11.2019
4448 Clouds 3 1003 86 10000 2.1 180 23:22 13.11.2019
4449 Clouds 3 1003 80 10000 1.5 160 22:57 13.11.2019
4450 Clouds 3 1003 80 10000 1.5 160 22:39 13.11.2019
4451 Clouds 4 1003 80 10000 1.5 190 22:21 13.11.2019
4452 Clouds 4 1003 80 10000 2.6 200 21:56 13.11.2019
4453 Clouds 4 1003 80 10000 2.6 200 21:38 13.11.2019
4454 Clouds 4 1003 80 10000 2.6 200 21:19 13.11.2019
4455 Clouds 4 1003 80 10000 1.5 200 20:57 13.11.2019
4456 Clouds 4 1003 80 10000 1.5 200 20:37 13.11.2019
4457 Clouds 4 1003 80 10000 1.5 200 20:37 13.11.2019
4458 Clouds 4 1003 80 10000 1.5 200 20:37 13.11.2019
4459 Clouds 4 1003 80 10000 2.1 200 20:19 13.11.2019
4460 Clouds 5 1003 80 10000 2.6 200 19:44 13.11.2019
4461 Clouds 5 1003 81 10000 3.1 200 19:21 13.11.2019
4462 Clouds 5 1002 81 10000 2.6 190 18:58 13.11.2019
4463 Clouds 5 1002 81 10000 2.6 190 18:58 13.11.2019
4464 Clouds 5 1002 81 10000 2.6 190 18:39 13.11.2019
4465 Clouds 6 1002 81 10000 3.1 190 18:21 13.11.2019
4466 Clouds 6 1002 81 10000 3.1 180 17:59 13.11.2019
4467 Clouds 6 1002 81 10000 3.1 180 17:40 13.11.2019
4468 Clouds 6 1002 81 10000 3.1 180 17:22 13.11.2019
4469 Clouds 6 1002 81 10000 2.6 190 16:59 13.11.2019
4470 Clouds 6 1002 81 10000 2.6 190 16:40 13.11.2019
4471 Clouds 7 1002 75 10000 3.1 190 16:22 13.11.2019
4472 Clouds 7 1002 75 10000 3.6 210 15:58 13.11.2019
4473 Clouds 7 1002 75 10000 3.6 210 15:40 13.11.2019
4474 Clouds 7 1002 75 10000 4.1 180 15:22 13.11.2019
4475 Clouds 7 1002 75 10000 3.6 190 14:59 13.11.2019
4476 Clouds 7 1002 75 10000 3.6 190 14:37 13.11.2019
4477 Clouds 7 1002 75 10000 3.6 180 14:19 13.11.2019
4478 Clouds 7 1002 75 10000 3.1 170 13:37 13.11.2019
4479 Clouds 7 1002 75 10000 3.1 170 13:19 13.11.2019
4480 Clouds 7 1002 75 10000 3.1 190 12:58 13.11.2019
4481 Clouds 7 1002 75 10000 3.1 190 12:38 13.11.2019
4482 Clouds 6 1002 81 10000 3.1 180 12:20 13.11.2019
4483 Clouds 6 1002 81 10000 3.1 180 12:20 13.11.2019
4484 Clouds 6 1002 81 10000 3.1 180 11:55 13.11.2019
4485 Clouds 6 1002 75 10000 2.6 200 11:36 13.11.2019
4486 Clouds 6 1002 75 10000 2.6 200 11:18 13.11.2019
4487 Clouds 6 1003 81 10000 2.6 190 10:54 13.11.2019
4488 Clouds 5 1003 81 10000 2.6 190 10:36 13.11.2019
4489 Clouds 5 1003 81 10000 3.1 170 10:18 13.11.2019
4490 Clouds 5 1003 80 10000 3.1 190 09:40 13.11.2019
4491 Clouds 4 1003 80 10000 3.1 160 09:20 13.11.2019
4492 Clouds 4 1003 86 10000 3.1 160 08:41 13.11.2019
4493 Clouds 4 1003 86 10000 3.1 150 08:21 13.11.2019
4494 Clouds 4 1002 86 10000 3.1 170 07:57 13.11.2019
4495 Clouds 4 1002 86 10000 3.1 170 07:38 13.11.2019
4496 Clouds 4 1002 80 10000 3.1 160 07:18 13.11.2019
4497 Clouds 4 1003 93 10000 4.1 150 06:40 13.11.2019
4498 Clouds 4 1002 93 10000 3.6 150 06:18 13.11.2019
4499 Clouds 4 1002 86 10000 2.6 150 05:46 13.11.2019
4500 Clouds 4 1002 86 10000 2.6 150 04:59 13.11.2019
4501 Clouds 4 1002 86 10000 3.1 150 03:56 13.11.2019
4502 Clouds 4 1003 80 10000 2.6 150 01:51 13.11.2019
4503 Clouds 4 1004 80 10000 3.6 150 01:27 13.11.2019
4504 Clouds 4 1004 80 10000 3.6 150 01:27 13.11.2019
4505 Clouds 4 1004 80 10000 3.6 140 00:43 13.11.2019
4506 Clouds 4 1004 80 10000 3.1 150 23:56 12.11.2019
4507 Clouds 5 1004 80 10000 3.1 150 23:37 12.11.2019
4508 Clouds 5 1004 80 10000 3.1 160 23:18 12.11.2019
4509 Clouds 5 1004 80 10000 3.6 170 22:42 12.11.2019
4510 Clouds 5 1004 80 10000 3.6 170 22:19 12.11.2019
4511 Clouds 5 1005 80 10000 3.6 160 21:57 12.11.2019
4512 Clouds 5 1005 80 10000 3.6 160 21:38 12.11.2019
4513 Clouds 5 1005 80 10000 3.6 160 21:20 12.11.2019
4514 Clouds 5 1005 80 10000 3.6 160 20:55 12.11.2019
4515 Clouds 5 1005 75 10000 4.1 160 20:37 12.11.2019
4516 Clouds 5 1005 86 10000 4.1 150 20:18 12.11.2019
4517 Clouds 5 1005 86 10000 4.1 150 19:55 12.11.2019
4518 Clouds 5 1005 86 10000 4.1 150 19:37 12.11.2019
4519 Clouds 5 1005 81 10000 4.6 150 19:18 12.11.2019
4520 Clouds 5 1005 81 10000 4.1 150 18:55 12.11.2019
4521 Clouds 5 1005 81 10000 4.1 150 18:37 12.11.2019
4522 Clouds 5 1005 81 10000 4.1 150 18:37 12.11.2019
4523 Clouds 5 1005 75 10000 4.6 160 18:19 12.11.2019
4524 Clouds 6 1005 81 10000 4.6 170 17:55 12.11.2019
4525 Clouds 6 1005 81 10000 4.6 170 17:37 12.11.2019
4526 Clouds 6 1005 81 10000 4.6 170 17:37 12.11.2019
4527 Clouds 6 1005 75 10000 5.1 160 17:18 12.11.2019
4528 Clouds 6 1005 75 10000 5.1 160 17:18 12.11.2019
4529 Clouds 6 1005 70 10000 4.6 170 16:43 12.11.2019
4530 Clouds 7 1005 70 10000 5.7 170 16:25 12.11.2019
4531 Clouds 7 1006 70 10000 5.1 180 15:57 12.11.2019
4532 Clouds 7 1006 70 10000 5.1 180 15:57 12.11.2019
4533 Clouds 7 1006 70 10000 5.1 180 15:39 12.11.2019
4534 Clouds 8 1006 75 10000 5.1 180 15:20 12.11.2019
4535 Clouds 8 1005 65 10000 5.1 190 14:55 12.11.2019
4536 Clouds 8 1005 65 10000 5.1 190 14:36 12.11.2019
4537 Clouds 7 1005 75 10000 4.6 170 14:18 12.11.2019
4538 Clouds 8 1006 75 10000 5.1 180 13:54 12.11.2019
4539 Clouds 7 1006 75 10000 5.1 180 13:36 12.11.2019
4540 Clouds 7 1006 75 10000 4.6 180 13:18 12.11.2019
4541 Clouds 7 1006 75 10000 4.6 180 12:40 12.11.2019
4542 Clouds 6 1006 75 10000 4.1 190 12:19 12.11.2019
4543 Clouds 6 1006 75 10000 4.6 190 11:56 12.11.2019
4544 Clouds 6 1006 75 10000 4.6 190 11:38 12.11.2019
4545 Clouds 6 1006 80 10000 5.1 190 11:20 12.11.2019
4546 Clouds 6 1006 80 10000 4.6 190 10:55 12.11.2019
4547 Clouds 5 1006 80 10000 4.6 190 10:36 12.11.2019
4548 Clouds 5 1007 75 10000 5.1 180 10:18 12.11.2019
4549 Clouds 4 1006 80 10000 4.6 180 09:40 12.11.2019
4550 Clouds 4 1006 80 10000 4.6 190 09:20 12.11.2019
4551 Clouds 4 1006 80 10000 4.1 190 08:51 12.11.2019
4552 Clouds 3 1006 80 10000 4.1 190 08:30 12.11.2019
4553 Clouds 3 1006 80 10000 4.6 190 07:44 12.11.2019
4554 Clouds 3 1005 68 10000 4.6 190 07:25 12.11.2019
4555 -273 0 0 0 0 0 06:58 12.11.2019
4556 Clouds 3 1005 68 10000 4.1 180 06:39 12.11.2019
4557 Clouds 2 1005 68 10000 3.6 170 06:21 12.11.2019
4558 Clouds 2 1005 68 10000 3.6 180 05:43 12.11.2019
4559 Clouds 2 1005 66 10000 2.6 180 04:42 12.11.2019
4560 Clouds 2 1006 80 10000 3.6 180 03:30 12.11.2019
4561 Clouds 1 1005 67 10000 3.1 150 01:44 12.11.2019
4562 Clouds 1 1006 72 10000 3.1 170 01:21 12.11.2019
4563 Clouds 1 1006 72 10000 2.6 160 00:47 12.11.2019
4564 Clouds 1 1006 72 10000 3.6 160 00:22 12.11.2019
4565 Clouds 1 1006 72 10000 4.1 160 23:44 11.11.2019
4566 Clouds 1 1006 72 10000 4.1 160 23:44 11.11.2019
4567 Clouds 2 1006 71 10000 4.6 160 23:23 11.11.2019
4568 Clouds 2 1007 71 10000 4.1 160 22:57 11.11.2019
4569 Clouds 2 1007 71 10000 4.1 160 22:36 11.11.2019
4570 Clouds 2 1007 71 10000 4.6 160 22:18 11.11.2019
4571 Clouds 2 1007 71 10000 4.1 150 21:56 11.11.2019
4572 Clouds 2 1007 71 10000 4.1 150 21:38 11.11.2019
4573 Clouds 2 1007 71 10000 5.7 150 21:19 11.11.2019
4574 Clouds 3 1007 71 10000 6.2 160 20:42 11.11.2019
4575 Clear 3 1007 66 10000 6.7 170 20:20 11.11.2019
4576 Clear 3 1008 66 10000 4.6 150 19:57 11.11.2019
4577 Clear 3 1008 66 10000 4.6 150 19:57 11.11.2019
4578 Clear 3 1008 66 10000 4.6 150 19:39 11.11.2019
4579 Clear 4 1008 66 10000 4.1 150 19:18 11.11.2019
4580 Clear 4 1008 66 10000 5.7 150 18:55 11.11.2019
4581 Clear 4 1008 66 10000 5.7 150 18:37 11.11.2019
4582 Clear 4 1008 75 10000 4.1 140 18:19 11.11.2019
4583 Clear 5 1008 70 10000 5.7 130 17:42 11.11.2019
4584 Clear 5 1008 80 10000 4.1 120 17:24 11.11.2019
4585 Clear 5 1009 75 10000 4.1 130 16:42 11.11.2019
4586 Clear 6 1009 70 10000 4.1 130 16:24 11.11.2019
4587 Clear 6 1009 70 10000 4.1 130 15:59 11.11.2019
4588 Clear 7 1009 65 10000 4.6 140 15:40 11.11.2019
4589 Clear 7 1010 70 10000 4.1 140 15:19 11.11.2019
4590 Clear 7 1010 70 10000 4.1 140 15:19 11.11.2019
4591 Clear 7 1010 70 10000 3.6 150 14:44 11.11.2019
4592 Clouds 7 1010 75 10000 3.1 150 14:25 11.11.2019
4593 Clouds 7 1010 75 10000 3.1 150 13:58 11.11.2019
4594 Clouds 7 1010 75 10000 2.1 170 13:38 11.11.2019
4595 Clouds 6 1011 80 10000 4.1 150 13:20 11.11.2019
4596 Clouds 6 1011 80 9000 3.6 180 12:58 11.11.2019
4597 Clouds 5 1011 80 9000 3.6 180 12:39 11.11.2019
4598 Clouds 5 1012 80 7000 4.6 160 12:21 11.11.2019
4599 Clouds 4 1012 80 7000 4.1 180 11:43 11.11.2019
4600 Clouds 3 1013 86 6000 4.1 190 11:22 11.11.2019
4601 Clouds 2 1013 86 6000 3.6 170 10:59 11.11.2019
4602 Clouds 2 1013 86 6000 3.6 170 10:41 11.11.2019
4603 Mist 2 1013 93 5000 4.1 160 10:18 11.11.2019
4604 Mist 2 1013 93 4500 3.6 160 09:56 11.11.2019
4605 Mist 2 1013 93 4500 3.6 160 09:37 11.11.2019
4606 Mist 1 1013 93 4500 3.6 150 09:18 11.11.2019
4607 Mist 1 1014 93 4000 4.1 150 08:40 11.11.2019
4608 Mist 1 1014 100 2800 3.1 150 08:21 11.11.2019
4609 Mist 1 1014 100 2500 2.1 130 07:57 11.11.2019
4610 Mist 1 1014 100 2500 2.1 130 07:37 11.11.2019
4611 Mist 1 1014 100 3000 2.1 140 07:18 11.11.2019
4612 Mist 1 1014 100 1900 2.1 170 06:47 11.11.2019
4613 Mist 1 1014 100 2100 2.1 140 06:22 11.11.2019
4614 Mist 1 1014 100 1600 2.6 120 05:51 11.11.2019
4615 Fog 2 1014 100 700 1.5 160 04:36 11.11.2019
4616 Fog 2 1015 100 300 2.1 150 03:24 11.11.2019
4617 Fog 2 1015 100 400 2.6 140 02:26 11.11.2019
4618 Fog 2 1015 100 400 2.6 140 01:56 11.11.2019
4619 Fog 2 1015 100 900 3.1 160 01:35 11.11.2019
4620 Mist 2 1015 93 3600 2.6 160 00:50 11.11.2019
4621 Mist 3 1015 93 3200 0.5 0 00:26 11.11.2019
4622 Mist 3 1015 93 3200 0.5 0 23:55 10.11.2019
4623 Mist 3 1015 100 2500 0.5 0 23:36 10.11.2019
4624 Mist 4 1015 93 2500 1 0 23:18 10.11.2019
4625 -273 0 0 0 0 0 22:54 10.11.2019
4626 Mist 3 1015 93 2500 0.5 0 22:36 10.11.2019
4627 Mist 3 1015 93 2400 1 0 22:18 10.11.2019
4628 Mist 4 1015 93 2200 0.5 0 21:40 10.11.2019
4629 Mist 3 1015 100 1600 1 0 21:21 10.11.2019
4630 Mist 3 1015 100 1600 1 0 20:59 10.11.2019
4631 Mist 3 1015 100 1600 1.5 100 20:39 10.11.2019
4632 Mist 4 1015 100 1100 1.5 110 20:21 10.11.2019
4633 Fog 4 1015 100 600 1 0 19:55 10.11.2019
4634 Fog 4 1015 100 600 1 0 19:37 10.11.2019
4635 Fog 4 1015 100 300 1.5 80 19:18 10.11.2019
4636 Fog 4 1015 100 300 1.5 80 19:18 10.11.2019
4637 Fog 4 1015 100 300 1 0 18:56 10.11.2019
4638 Fog 4 1015 100 300 1.5 80 18:56 10.11.2019
4639 Fog 4 1015 100 300 1 0 18:38 10.11.2019
4640 Fog 5 1015 100 500 1.5 30 18:19 10.11.2019
4641 Mist 5 1015 100 1000 1.5 30 17:55 10.11.2019
4642 Mist 5 1015 100 1000 1.5 30 17:37 10.11.2019
4643 Mist 5 1015 100 1600 1.5 30 17:19 10.11.2019
4644 Clouds 6 1015 93 10000 1.5 20 16:56 10.11.2019
4645 Clouds 7 1015 93 10000 1.5 20 16:37 10.11.2019
4646 Clouds 7 1015 93 10000 1.5 20 16:37 10.11.2019
4647 Clouds 7 1014 87 10000 1.5 10 16:19 10.11.2019
4648 Clouds 7 1014 87 10000 1.5 10 15:54 10.11.2019
4649 Clouds 8 1014 87 10000 1.5 340 15:36 10.11.2019
4650 Clouds 8 1014 75 10000 1.5 300 15:18 10.11.2019
4651 Clouds 9 1014 70 10000 1 0 14:40 10.11.2019
4652 Clouds 9 1014 70 10000 1 0 14:22 10.11.2019
4653 Clouds 9 1014 70 10000 1 0 13:57 10.11.2019
4654 Clouds 9 1014 70 10000 1 0 13:39 10.11.2019
4655 Clouds 9 1013 70 10000 1 0 13:19 10.11.2019
4656 Clouds 9 1013 70 10000 1 0 12:42 10.11.2019
4657 Clouds 9 1013 75 10000 1 0 12:20 10.11.2019
4658 Clouds 8 1013 81 10000 1 0 11:57 10.11.2019
4659 Clouds 8 1013 81 10000 1 0 11:38 10.11.2019
4660 Clouds 7 1013 87 10000 0.5 0 11:20 10.11.2019
4661 Clear 6 1013 87 10000 1.5 260 10:59 10.11.2019
4662 Clear 6 1013 87 10000 1.5 260 10:40 10.11.2019
4663 Clear 5 1013 93 9000 1.5 240 10:20 10.11.2019
4664 Clear 4 1013 93 7000 1 0 09:42 10.11.2019
4665 Fog 4 1012 93 7000 1 0 09:23 10.11.2019
4666 Fog 4 1012 100 6000 0.5 320 08:41 10.11.2019
4667 Fog 3 1012 100 6000 0.5 230 08:21 10.11.2019
4668 Mist 3 1012 100 1500 0.5 0 07:58 10.11.2019
4669 Mist 3 1012 100 1500 0.5 0 07:40 10.11.2019
4670 Fog 3 1012 100 6000 1 250 07:21 10.11.2019
4671 Fog 3 1011 100 8000 0.5 0 06:31 10.11.2019
4672 Fog 4 1011 100 8000 0.5 0 05:32 10.11.2019
4673 Clear 5 1010 93 10000 0.5 0 03:22 10.11.2019
4674 Clouds 5 1010 100 10000 1 190 01:47 10.11.2019
4675 Clouds 5 1010 100 9000 0.5 0 01:19 10.11.2019
4676 Clouds 4 1009 100 9000 0.5 0 00:41 10.11.2019
4677 Clouds 5 1009 100 9000 1 160 23:56 09.11.2019
4678 Clouds 5 1009 100 9000 1 160 23:37 09.11.2019
4679 Fog 5 1009 100 9000 1.5 170 23:18 09.11.2019
4680 Fog 5 1009 100 9000 1 0 22:41 09.11.2019
4681 Fog 5 1009 93 10000 1 0 22:21 09.11.2019
4682 Clouds 5 1009 93 10000 2.1 200 21:56 09.11.2019
4683 Clouds 5 1009 93 10000 2.1 200 21:37 09.11.2019
4684 Clouds 5 1009 100 10000 2.1 210 21:19 09.11.2019
4685 Clouds 6 1008 100 10000 2.1 210 20:42 09.11.2019
4686 Clouds 6 1008 100 10000 2.6 240 20:22 09.11.2019
4687 Clouds 6 1008 100 10000 4.1 250 19:58 09.11.2019
4688 Clouds 6 1008 100 10000 4.1 250 19:40 09.11.2019
4689 Clouds 7 1008 93 10000 4.1 250 19:21 09.11.2019
4690 Clouds 7 1008 93 10000 4.1 250 18:57 09.11.2019
4691 Clouds 7 1008 93 10000 4.1 250 18:38 09.11.2019
4692 Clouds 7 1008 93 10000 3.1 250 18:18 09.11.2019
4693 Clouds 7 1008 93 10000 3.6 250 17:41 09.11.2019
4694 Clouds 7 1007 93 10000 4.1 260 17:22 09.11.2019
4695 Clouds 7 1007 93 10000 4.1 260 16:56 09.11.2019
4696 Clouds 7 1007 93 10000 4.1 260 16:37 09.11.2019
4697 Drizzle 7 1007 93 10000 4.1 270 16:18 09.11.2019
4698 Drizzle 7 1007 93 8000 5.1 270 15:41 09.11.2019
4699 Drizzle 7 1006 93 5000 4.6 270 15:23 09.11.2019
4700 Drizzle 7 1006 100 3900 4.6 280 14:46 09.11.2019
4701 Mist 7 1006 100 4900 5.7 260 14:23 09.11.2019
4702 Mist 7 1006 100 4900 5.7 260 13:58 09.11.2019
4703 Mist 7 1006 100 4800 4.1 260 13:40 09.11.2019
4704 Drizzle 7 1005 100 4000 3.6 280 13:21 09.11.2019
4705 Drizzle 7 1005 100 4000 3.6 280 12:58 09.11.2019
4706 Rain 7 1005 100 5000 4.1 280 12:40 09.11.2019
4707 Mist 7 1005 100 4200 3.6 280 12:22 09.11.2019
4708 Mist 7 1005 93 4600 3.1 280 11:54 09.11.2019
4709 Mist 8 1005 100 5000 3.6 280 11:36 09.11.2019
4710 Mist 8 1005 100 5000 3.6 280 11:18 09.11.2019
4711 Mist 8 1005 100 3500 3.6 290 10:39 09.11.2019
4712 Mist 8 1005 100 2500 4.1 280 10:19 09.11.2019
4713 Mist 7 1005 100 2500 4.1 280 10:19 09.11.2019
4714 Clouds 7 1005 93 0 3.1 280 09:47 09.11.2019
4715 Mist 8 1005 93 1600 2.6 280 09:28 09.11.2019
4716 Mist 8 1005 93 1600 2.6 280 08:59 09.11.2019
4717 Mist 8 1005 93 1600 2.6 260 08:59 09.11.2019
4718 Mist 8 1005 93 1600 2.6 260 08:39 09.11.2019
4719 Mist 7 1004 100 1600 1.5 290 08:19 09.11.2019
4720 Drizzle 7 1004 100 1700 2.1 290 07:46 09.11.2019
4721 Drizzle 8 1004 100 1200 1.5 280 07:23 09.11.2019
4722 Drizzle 7 1004 100 1100 1.5 270 06:49 09.11.2019
4723 Drizzle 7 1004 100 1100 1.5 270 06:31 09.11.2019
4724 Drizzle 7 1004 100 1400 1 0 05:45 09.11.2019
4725 Drizzle 8 1004 100 1900 1.5 350 04:58 09.11.2019
4726 Mist 8 1004 93 3800 1.5 10 03:57 09.11.2019
4727 Mist 8 1004 93 4200 1.5 20 02:44 09.11.2019
4728 Drizzle 8 1004 93 4000 2.1 10 01:55 09.11.2019
4729 Drizzle 7 1005 93 4000 2.6 10 00:53 09.11.2019
4730 Drizzle 7 1005 93 4000 2.6 10 00:31 09.11.2019
4731 Drizzle 7 1005 93 4500 2.1 10 23:58 08.11.2019
4732 Drizzle 7 1005 93 4500 2.1 10 23:39 08.11.2019
4733 Drizzle 7 1005 93 5000 2.1 360 23:20 08.11.2019
4734 Rain 7 1005 93 0 2.1 10 22:48 08.11.2019
4735 Drizzle 8 1005 93 7000 2.1 10 22:22 08.11.2019
4736 Rain 8 1005 93 10000 2.6 20 21:57 08.11.2019
4737 Rain 8 1005 93 10000 2.6 20 21:39 08.11.2019
4738 Rain 8 1006 93 10000 2.6 30 21:19 08.11.2019
4739 Rain 8 1005 93 10000 3.1 30 20:54 08.11.2019
4740 Rain 8 1005 93 10000 3.1 30 20:36 08.11.2019
4741 Rain 8 1005 93 10000 3.1 30 20:36 08.11.2019
4742 Clouds 8 1006 93 10000 2.6 20 20:18 08.11.2019
4743 Clouds 8 1006 93 10000 3.1 30 19:39 08.11.2019
4744 Clouds 8 1006 93 10000 2.6 30 19:19 08.11.2019
4745 Clouds 8 1006 87 10000 3.1 30 18:56 08.11.2019
4746 Clouds 8 1006 87 10000 3.1 30 18:38 08.11.2019
4747 Clouds 8 1006 87 10000 2.6 30 18:20 08.11.2019
4748 Rain 8 1006 87 10000 2.6 20 17:56 08.11.2019
4749 Rain 8 1006 87 10000 2.6 20 17:38 08.11.2019
4750 Clouds 8 1006 87 10000 2.1 20 17:20 08.11.2019
4751 Clouds 9 1006 87 10000 2.1 20 16:58 08.11.2019
4752 Rain 9 1007 87 10000 1.5 30 16:58 08.11.2019
4753 Rain 9 1007 87 10000 1.5 30 16:40 08.11.2019
4754 Rain 9 1006 87 10000 2.6 30 16:20 08.11.2019
4755 Clouds 9 1006 81 10000 2.6 360 15:59 08.11.2019
4756 Clouds 9 1006 81 10000 2.6 360 15:40 08.11.2019
4757 Clouds 9 1006 81 10000 2.6 30 15:22 08.11.2019
4758 Clouds 10 1007 81 10000 2.1 80 14:56 08.11.2019
4759 Clouds 10 1007 81 10000 2.1 80 14:37 08.11.2019
4760 Clouds 10 1007 76 10000 2.1 60 14:19 08.11.2019
4761 Clouds 10 1007 76 10000 2.1 60 13:58 08.11.2019
4762 Clouds 10 1007 76 10000 2.1 60 13:58 08.11.2019
4763 Clouds 10 1007 71 10000 2.1 60 13:39 08.11.2019
4764 Clouds 10 1007 76 10000 1.5 60 13:20 08.11.2019
4765 Clouds 10 1007 76 10000 2.1 60 12:45 08.11.2019
4766 Clouds 10 1008 76 10000 2.6 70 12:27 08.11.2019
4767 Clouds 10 1008 76 10000 2.6 70 11:58 08.11.2019
4768 Clouds 10 1008 71 10000 2.6 50 11:40 08.11.2019
4769 Clouds 9 1008 81 10000 2.1 60 11:21 08.11.2019
4770 Clouds 8 1008 81 10000 2.1 60 10:58 08.11.2019
4771 Clouds 8 1008 87 10000 0.5 0 10:40 08.11.2019
4772 Clouds 7 1008 87 10000 0.5 0 10:21 08.11.2019
4773 Clouds 6 1008 93 10000 0.5 0 09:58 08.11.2019
4774 Clouds 6 1008 93 10000 0.5 0 09:37 08.11.2019
4775 Clouds 5 1008 93 10000 1 0 09:18 08.11.2019
4776 Fog 4 1008 93 10000 0.5 10 08:45 08.11.2019
4777 Fog 4 1008 100 10000 0.55 260 08:21 08.11.2019
4778 Clouds 3 1007 93 10000 0.5 0 07:44 08.11.2019
4779 Clouds 5 1007 93 10000 0.5 0 07:23 08.11.2019
4780 Clouds 5 1007 93 10000 1.5 120 06:56 08.11.2019
4781 Clouds 5 1007 93 10000 1.5 120 06:56 08.11.2019
4782 Clouds 5 1007 93 10000 1.5 120 06:37 08.11.2019
4783 Fog 5 1007 93 10000 1 130 06:19 08.11.2019
4784 Clouds 4 1007 100 10000 1 0 05:32 08.11.2019
4785 Clouds 5 1006 93 10000 1 0 04:29 08.11.2019
4786 Clouds 5 1006 93 10000 1 0 04:29 08.11.2019
4787 Clouds 6 1006 87 10000 2.1 190 03:42 08.11.2019
4788 Clouds 6 1006 87 10000 1.5 160 03:19 08.11.2019
4789 Clouds 7 1005 81 10000 3.1 180 01:54 08.11.2019
4790 Clouds 7 1005 76 10000 3.1 170 01:36 08.11.2019
4791 Clouds 8 1005 76 10000 3.6 180 00:49 08.11.2019
4792 Clouds 8 1005 76 10000 3.6 170 00:22 08.11.2019
4793 Clouds 8 1004 76 10000 4.1 160 23:52 07.11.2019
4794 Clouds 8 1004 76 10000 3.6 160 23:33 07.11.2019
4795 Clouds 8 1004 76 10000 3.1 150 22:58 07.11.2019
4796 Clouds 8 1004 76 10000 3.1 150 22:40 07.11.2019
4797 Clouds 8 1004 81 10000 3.1 160 22:21 07.11.2019
4798 Clouds 8 1004 81 10000 3.6 140 21:55 07.11.2019
4799 Clouds 8 1004 81 10000 3.6 140 21:36 07.11.2019
4800 Clouds 8 1004 81 10000 3.6 140 21:18 07.11.2019
4801 Clouds 8 1004 81 10000 3.1 150 20:54 07.11.2019
4802 Clouds 8 1004 81 10000 3.1 150 20:36 07.11.2019
4803 Clouds 8 1004 76 10000 3.1 160 20:18 07.11.2019
4804 Clouds 8 1004 81 10000 2.6 140 19:41 07.11.2019
4805 Clouds 8 1003 87 10000 2.1 130 19:23 07.11.2019
4806 Clouds 8 1003 87 10000 3.1 120 18:58 07.11.2019
4807 Clouds 8 1003 87 10000 3.1 120 18:39 07.11.2019
4808 Clouds 8 1003 87 10000 3.6 130 18:19 07.11.2019
4809 Clouds 9 1003 87 10000 2.6 140 17:59 07.11.2019
4810 Clouds 9 1003 87 10000 2.6 140 17:39 07.11.2019
4811 Clouds 9 1003 87 10000 2.6 140 17:20 07.11.2019
4812 Clouds 10 1003 81 10000 3.6 140 16:56 07.11.2019
4813 Clouds 10 1003 81 10000 3.6 150 16:38 07.11.2019
4814 Clouds 11 1003 76 10000 3.1 150 16:19 07.11.2019
4815 Clouds 11 1003 76 10000 3.1 150 15:54 07.11.2019
4816 Clouds 11 1003 81 10000 2.6 160 15:36 07.11.2019
4817 Clouds 11 1003 81 10000 2.6 160 15:18 07.11.2019
4818 Clouds 11 1002 81 10000 2.6 160 14:43 07.11.2019
4819 Clouds 11 1002 81 10000 2.6 160 14:25 07.11.2019
4820 Clouds 11 1002 81 10000 2.6 160 13:56 07.11.2019
4821 Clouds 11 1002 81 10000 2.6 200 13:38 07.11.2019
4822 Clouds 11 1002 81 10000 2.6 200 13:20 07.11.2019
4823 Clouds 11 1002 81 10000 1.5 150 12:58 07.11.2019
4824 Clouds 11 1003 87 10000 2.1 130 12:39 07.11.2019
4825 Clouds 11 1003 87 10000 2.1 130 12:20 07.11.2019
4826 Clouds 10 1003 93 10000 2.1 160 11:44 07.11.2019
4827 Clouds 10 1003 93 10000 2.1 160 11:44 07.11.2019
4828 Clouds 10 1003 93 10000 2.1 160 11:24 07.11.2019
4829 Clouds 9 1003 100 8000 2.1 120 10:59 07.11.2019
4830 Rain 9 1003 93 6000 1.5 130 10:40 07.11.2019
4831 Rain 8 1003 93 6000 1.5 130 10:19 07.11.2019
4832 Rain 8 1003 93 6000 1.5 130 10:19 07.11.2019
4833 Clouds 8 1003 93 6000 1.5 150 09:43 07.11.2019
4834 Clouds 7 1003 93 6000 1.5 150 09:22 07.11.2019
4835 Drizzle 7 1003 100 6000 1.5 140 08:57 07.11.2019
4836 Drizzle 7 1003 100 5000 1.5 130 08:38 07.11.2019
4837 Drizzle 7 1003 100 5000 1.5 130 08:20 07.11.2019
4838 Clouds 7 1002 100 6000 1.5 140 07:42 07.11.2019
4839 Clouds 7 1002 100 6000 1.5 140 07:23 07.11.2019
4840 Clouds 7 1002 100 6000 1.5 140 07:22 07.11.2019
4841 Clouds 6 1002 100 6000 1.5 140 06:58 07.11.2019
4842 Clouds 6 1002 93 9000 1.5 150 06:40 07.11.2019
4843 Clouds 6 1002 93 9000 1.5 150 06:21 07.11.2019
4844 Clouds 6 1002 93 9000 1.5 150 06:21 07.11.2019
4845 Clouds 6 1003 100 10000 2.6 150 05:47 07.11.2019
4846 Clouds 6 1003 100 10000 2.6 150 05:29 07.11.2019
4847 Clouds 6 1003 100 10000 1 280 04:49 07.11.2019
4848 Clouds 6 1003 100 10000 1 0 03:32 07.11.2019
4849 Clouds 6 1003 100 10000 2.1 250 01:18 07.11.2019
4850 Clouds 6 1003 100 10000 1 0 00:23 07.11.2019
4851 Clouds 6 1003 100 10000 1 0 00:23 07.11.2019
4852 Clouds 7 1003 100 10000 1.5 230 23:49 06.11.2019
4853 Clouds 7 1003 93 10000 2.6 230 23:23 06.11.2019
4854 Clouds 7 1003 93 10000 3.1 230 22:58 06.11.2019
4855 Clouds 7 1003 100 10000 3.6 240 22:39 06.11.2019
4856 Clouds 7 1003 100 10000 3.6 240 22:39 06.11.2019
4857 Clouds 7 1003 100 10000 3.6 240 22:19 06.11.2019
4858 Clouds 7 1002 100 10000 2.6 250 21:57 06.11.2019
4859 Clouds 8 1002 93 10000 2.6 250 21:38 06.11.2019
4860 Clouds 8 1002 93 10000 2.6 250 21:38 06.11.2019
4861 Clouds 8 1002 93 10000 2.6 250 21:19 06.11.2019
4862 Drizzle 8 1002 93 10000 2.1 250 20:55 06.11.2019
4863 Drizzle 8 1002 93 10000 3.1 260 20:37 06.11.2019
4864 Drizzle 8 1002 93 10000 3.1 260 20:19 06.11.2019
4865 Clouds 8 1002 93 9000 1.5 250 19:54 06.11.2019
4866 Clouds 8 1002 93 10000 1 0 19:36 06.11.2019
4867 Clouds 8 1002 93 10000 1 0 19:18 06.11.2019
4868 Clouds 8 1002 93 10000 0.5 230 18:39 06.11.2019
4869 Clouds 8 1001 93 10000 0.5 0 18:20 06.11.2019
4870 Clouds 8 1001 93 10000 1 290 17:59 06.11.2019
4871 Clouds 8 1001 93 10000 1 290 17:41 06.11.2019
4872 Rain 8 1001 93 10000 1.5 300 17:23 06.11.2019
4873 Rain 8 1001 93 10000 1.5 300 16:57 06.11.2019
4874 Rain 8 1001 93 10000 1 0 16:38 06.11.2019
4875 Rain 8 1001 93 10000 1.5 310 16:20 06.11.2019
4876 Rain 9 1000 93 10000 1.5 300 15:57 06.11.2019
4877 Rain 9 1000 93 10000 1.5 300 15:37 06.11.2019
4878 Rain 9 1000 93 10000 2.1 280 15:19 06.11.2019
4879 Rain 9 1000 87 10000 2.6 290 14:57 06.11.2019
4880 Rain 9 1000 87 10000 2.6 290 14:39 06.11.2019
4881 Rain 9 1000 87 10000 2.1 300 14:20 06.11.2019
4882 Rain 9 1000 87 10000 2.6 280 13:58 06.11.2019
4883 Rain 9 1000 87 10000 2.6 280 13:37 06.11.2019
4884 Rain 9 999 87 10000 4.1 240 13:18 06.11.2019
4885 Rain 9 999 87 10000 4.1 240 13:18 06.11.2019
4886 Rain 9 999 93 10000 3.1 270 12:55 06.11.2019
4887 Rain 9 999 93 10000 3.1 270 12:37 06.11.2019
4888 Rain 9 999 93 10000 3.1 260 12:18 06.11.2019
4889 Drizzle 9 999 93 10000 3.6 260 11:54 06.11.2019
4890 Drizzle 9 999 93 10000 3.6 260 11:36 06.11.2019
4891 Drizzle 9 999 93 10000 3.1 270 11:18 06.11.2019
4892 Rain 8 999 100 10000 2.6 270 10:42 06.11.2019
4893 Rain 8 999 100 10000 3.1 260 10:24 06.11.2019
4894 Rain 8 999 100 10000 3.1 260 10:24 06.11.2019
4895 Rain 8 999 100 10000 3.1 260 09:58 06.11.2019
4896 Rain 8 999 100 10000 3.6 260 09:40 06.11.2019
4897 Rain 8 998 100 7000 3.6 260 09:20 06.11.2019
4898 Rain 8 998 100 7000 4.6 260 08:55 06.11.2019
4899 Rain 8 998 100 7000 4.6 260 08:37 06.11.2019
4900 Rain 8 998 100 7000 4.6 250 08:18 06.11.2019
4901 Rain 8 998 100 7000 4.6 250 08:18 06.11.2019
4902 Rain 8 997 93 7000 5.1 250 07:45 06.11.2019
4903 Rain 8 997 93 10000 5.1 250 07:27 06.11.2019
4904 Rain 8 997 93 10000 5.1 240 06:53 06.11.2019
4905 Rain 8 997 93 9000 5.1 240 06:34 06.11.2019
4906 Rain 8 997 93 9000 4.1 240 05:51 06.11.2019
4907 Rain 8 996 93 8000 4.6 240 03:39 06.11.2019
4908 Clouds 8 996 87 10000 4.6 250 01:59 06.11.2019
4909 Clouds 8 997 87 10000 3.6 240 00:48 06.11.2019
4910 Clouds 8 997 87 10000 3.6 240 00:48 06.11.2019
4911 Clouds 8 997 87 10000 4.1 250 00:26 06.11.2019
4912 Clouds 8 997 87 10000 4.6 240 23:56 05.11.2019
4913 Clouds 8 997 87 10000 4.6 240 23:37 05.11.2019
4914 Clouds 8 996 87 10000 4.6 240 23:18 05.11.2019
4915 Clouds 8 996 87 10000 4.6 240 23:18 05.11.2019
4916 Clouds 8 996 93 10000 4.1 240 22:41 05.11.2019
4917 Clouds 8 996 87 10000 4.1 250 22:19 05.11.2019
4918 Clouds 8 996 87 10000 3.6 250 21:57 05.11.2019
4919 Clouds 8 996 87 10000 3.6 250 21:39 05.11.2019
4920 Clouds 8 996 93 10000 3.6 240 21:19 05.11.2019
4921 Clouds 8 996 93 10000 3.1 220 20:56 05.11.2019
4922 Clouds 8 996 93 10000 3.1 220 20:38 05.11.2019
4923 Clouds 9 996 93 10000 2.1 200 20:19 05.11.2019
4924 Clouds 9 996 93 10000 2.6 240 19:54 05.11.2019
4925 Clouds 9 996 93 10000 2.6 240 19:36 05.11.2019
4926 Clouds 9 996 93 10000 3.1 240 19:18 05.11.2019
4927 Clouds 9 996 93 10000 2.6 240 18:55 05.11.2019
4928 Clouds 9 996 93 10000 2.6 240 18:37 05.11.2019
4929 Clouds 9 996 93 10000 3.6 240 18:18 05.11.2019
4930 Clouds 9 996 87 10000 3.6 250 17:54 05.11.2019
4931 Clouds 10 996 87 10000 3.6 250 17:36 05.11.2019
4932 Clouds 10 996 87 10000 4.1 260 17:18 05.11.2019
4933 Clouds 10 996 87 10000 4.6 260 16:41 05.11.2019
4934 Clouds 10 996 81 10000 2.1 210 16:20 05.11.2019
4935 Clouds 11 996 81 10000 2.1 210 15:55 05.11.2019
4936 Clouds 11 995 81 10000 2.6 250 15:36 05.11.2019
4937 Clouds 11 995 81 10000 3.1 260 15:18 05.11.2019
4938 Clouds 11 995 81 10000 4.6 250 14:54 05.11.2019
4939 Clouds 11 995 81 10000 4.6 250 14:36 05.11.2019
4940 Clouds 11 995 81 10000 5.1 250 14:18 05.11.2019
4941 Clouds 11 995 81 10000 5.7 240 13:42 05.11.2019
4942 Clouds 11 995 81 10000 6.2 240 13:23 05.11.2019
4943 Clouds 11 995 81 10000 5.1 210 12:41 05.11.2019
4944 Clouds 11 995 81 10000 4.6 220 12:22 05.11.2019
4945 Clouds 11 995 81 10000 4.6 220 11:58 05.11.2019
4946 Clouds 11 995 81 10000 4.6 220 11:39 05.11.2019
4947 Clouds 11 995 87 10000 2.1 220 11:21 05.11.2019
4948 Clouds 10 995 87 10000 2.1 220 10:58 05.11.2019
4949 Clouds 10 995 87 10000 3.1 210 10:40 05.11.2019
4950 Clouds 10 995 87 10000 3.1 210 10:21 05.11.2019
4951 Clouds 10 995 87 10000 2.6 210 09:55 05.11.2019
4952 Clouds 9 995 87 10000 2.6 210 09:37 05.11.2019
4953 Clouds 9 994 93 10000 2.1 230 09:18 05.11.2019
4954 Clouds 9 994 93 10000 2.6 210 08:39 05.11.2019
4955 Clouds 9 994 93 10000 2.6 200 08:20 05.11.2019
4956 Clouds 9 994 93 10000 2.6 200 08:20 05.11.2019
4957 Clouds 8 994 93 10000 2.6 200 07:57 05.11.2019
4958 Clouds 8 994 93 10000 2.6 200 07:39 05.11.2019
4959 Clouds 8 994 93 10000 2.6 200 07:39 05.11.2019
4960 Clouds 8 994 93 10000 2.6 200 07:39 05.11.2019
4961 Clouds 8 994 93 10000 2.6 210 07:20 05.11.2019
4962 Clouds 8 993 100 10000 1.5 210 06:50 05.11.2019
4963 Clouds 9 993 93 10000 2.1 190 05:51 05.11.2019
4964 Clouds 9 993 93 10000 2.1 190 05:51 05.11.2019
4965 Clouds 8 993 93 10000 2.6 220 05:23 05.11.2019
4966 Clouds 9 993 93 10000 2.1 220 04:38 05.11.2019
4967 Clouds 8 993 93 10000 2.1 250 03:56 05.11.2019
4968 Clouds 8 993 100 10000 3.1 260 02:51 05.11.2019
4969 Clouds 9 993 100 10000 3.1 260 02:29 05.11.2019
4970 Clouds 8 992 93 10000 2.1 250 01:25 05.11.2019
4971 Clouds 9 992 100 10000 1 0 00:38 05.11.2019
4972 Clouds 9 992 100 10000 1 0 00:38 05.11.2019
4973 Clouds 9 992 100 10000 1 180 23:59 04.11.2019
4974 Fog 8 992 100 10000 1.5 180 23:38 04.11.2019
4975 Fog 9 992 100 10000 1.5 200 23:18 04.11.2019
4976 Fog 9 992 100 10000 1.5 200 23:18 04.11.2019
4977 Fog 9 992 100 10000 1.5 200 23:18 04.11.2019
4978 Clouds 9 992 100 10000 1 0 22:42 04.11.2019
4979 Clouds 9 992 93 10000 2.1 220 22:24 04.11.2019
4980 Rain 9 991 93 10000 1 0 21:56 04.11.2019
4981 Rain 9 991 93 10000 1 0 21:38 04.11.2019
4982 Clouds 10 991 93 10000 2.1 200 21:19 04.11.2019
4983 Clouds 10 991 93 10000 2.1 210 20:59 04.11.2019
4984 Clouds 10 991 93 10000 2.1 210 20:40 04.11.2019
4985 Clouds 10 991 87 10000 3.1 210 20:21 04.11.2019
4986 Clouds 10 991 87 10000 3.1 210 20:21 04.11.2019
4987 Clouds 10 991 87 10000 3.1 210 19:59 04.11.2019
4988 Clouds 10 991 87 10000 2.6 210 19:41 04.11.2019
4989 Clouds 10 991 93 10000 3.6 220 19:22 04.11.2019
4990 Rain 11 991 93 10000 3.1 210 18:58 04.11.2019
4991 Rain 11 991 93 10000 3.1 210 18:39 04.11.2019
4992 Clouds 11 990 87 10000 2.6 230 18:19 04.11.2019
4993 Clouds 11 990 87 10000 3.1 210 17:55 04.11.2019
4994 Clouds 11 990 81 10000 3.1 210 17:36 04.11.2019
4995 Clouds 11 990 81 10000 3.1 210 17:18 04.11.2019
4996 Clouds 12 990 81 10000 3.1 210 16:41 04.11.2019
4997 Clouds 12 990 81 10000 2.6 200 16:23 04.11.2019
4998 Clouds 12 990 81 10000 2.6 200 15:58 04.11.2019
4999 Clouds 12 990 81 10000 3.1 230 15:39 04.11.2019
5000 Clouds 12 990 81 10000 4.1 240 15:21 04.11.2019
5001 Clouds 13 990 82 10000 4.6 260 14:58 04.11.2019
5002 Clouds 12 990 82 10000 4.6 260 14:39 04.11.2019
5003 Clouds 13 990 82 10000 4.6 240 14:20 04.11.2019
5004 Clouds 12 990 87 10000 5.1 250 13:57 04.11.2019
5005 Clouds 12 990 87 10000 5.1 250 13:39 04.11.2019
5006 Clouds 12 990 87 10000 6.2 250 13:20 04.11.2019
5007 Clouds 12 989 93 10000 6.2 250 12:55 04.11.2019
5008 Rain 12 989 93 10000 6.2 250 12:37 04.11.2019
5009 Drizzle 12 989 100 6000 5.1 250 12:18 04.11.2019
5010 Rain 12 989 100 9000 4.6 240 11:42 04.11.2019
5011 Rain 11 989 100 9000 3.6 220 11:23 04.11.2019
5012 Rain 11 989 100 6000 3.6 210 10:58 04.11.2019
5013 Rain 11 989 100 6000 3.6 210 10:39 04.11.2019
5014 Rain 11 989 100 4800 3.6 200 10:20 04.11.2019
5015 Rain 10 989 100 5000 3.1 200 09:45 04.11.2019
5016 Rain 10 989 93 6000 3.6 200 09:27 04.11.2019
5017 Rain 10 989 100 6000 3.1 200 08:56 04.11.2019
5018 Rain 10 989 100 6000 3.1 200 08:37 04.11.2019
5019 Rain 10 989 100 5000 2.6 200 08:18 04.11.2019
5020 Rain 10 989 100 6000 2.1 190 07:42 04.11.2019
5021 Rain 9 988 100 5000 2.1 180 07:21 04.11.2019
5022 -273 0 0 0 0 0 06:49 04.11.2019
5023 Rain 9 988 93 2500 1 0 06:18 04.11.2019
5024 Rain 9 988 100 10000 1 0 05:42 04.11.2019
5025 Rain 9 988 100 10000 1 140 04:43 04.11.2019
5026 Rain 9 988 100 10000 1 0 04:21 04.11.2019
5027 Mist 9 989 100 2000 1 0 02:25 04.11.2019
5028 Mist 8 988 100 1000 1 0 01:21 04.11.2019
5029 Fog 9 988 100 800 1.5 70 00:40 04.11.2019
5030 Fog 8 989 100 500 1.5 50 00:20 04.11.2019
5031 Fog 9 989 100 500 2.1 80 23:41 03.11.2019
5032 Fog 8 989 100 500 1 0 23:21 03.11.2019
5033 Mist 8 989 100 5000 1.5 50 22:59 03.11.2019
5034 Mist 8 989 100 5000 1.5 50 22:41 03.11.2019
5035 Mist 8 989 100 3000 1 0 22:20 03.11.2019
5036 Mist 8 989 100 2900 2.1 120 21:58 03.11.2019
5037 Mist 8 989 100 2900 2.1 120 21:39 03.11.2019
5038 Mist 8 989 100 2900 1.5 90 21:20 03.11.2019
5039 Clouds 8 989 100 0 1 0 20:55 03.11.2019
5040 Clouds 9 989 100 0 1 0 20:36 03.11.2019
5041 Clouds 9 989 93 8000 1.5 80 20:18 03.11.2019
5042 Clouds 9 989 93 8000 1.5 80 19:55 03.11.2019
5043 Clouds 9 989 100 9000 1 0 19:37 03.11.2019
5044 Clouds 9 989 93 9000 3.1 110 19:19 03.11.2019
5045 Clouds 10 990 93 10000 1.5 110 18:39 03.11.2019
5046 Clouds 10 990 93 10000 2.6 140 18:19 03.11.2019
5047 Clouds 10 990 93 10000 2.6 140 17:58 03.11.2019
5048 Clouds 10 990 93 10000 2.6 140 17:40 03.11.2019
5049 Clouds 11 990 93 10000 3.1 150 17:19 03.11.2019
5050 Clouds 11 989 87 10000 3.1 130 16:56 03.11.2019
5051 Clouds 11 989 87 10000 3.1 130 16:38 03.11.2019
5052 Clouds 11 989 87 10000 3.1 140 16:19 03.11.2019
5053 Clouds 12 989 93 10000 3.6 140 15:57 03.11.2019
5054 Clouds 12 989 93 10000 3.6 140 15:38 03.11.2019
5055 Clouds 12 989 93 10000 3.1 140 15:20 03.11.2019
5056 Clouds 12 989 93 10000 4.1 140 14:42 03.11.2019
5057 Clouds 12 990 87 10000 3.6 170 14:19 03.11.2019
5058 Clouds 12 990 87 10000 3.6 170 14:19 03.11.2019
5059 Clouds 12 990 87 10000 4.1 170 13:58 03.11.2019
5060 Rain 12 990 87 10000 4.1 170 13:40 03.11.2019
5061 Rain 12 990 93 10000 4.1 150 13:18 03.11.2019
5062 Rain 12 990 93 10000 3.6 160 12:38 03.11.2019
5063 Rain 12 990 93 10000 3.6 170 12:20 03.11.2019
5064 Rain 12 990 93 10000 3.6 170 12:20 03.11.2019
5065 Rain 12 990 93 10000 3.6 170 12:20 03.11.2019
5066 Rain 12 991 87 10000 3.6 170 11:58 03.11.2019
5067 Rain 12 991 87 10000 3.6 170 11:40 03.11.2019
5068 Rain 12 991 93 10000 3.6 160 11:20 03.11.2019
5069 Rain 12 991 93 10000 3.6 160 11:20 03.11.2019
5070 Rain 12 991 100 10000 3.6 170 10:54 03.11.2019
5071 Rain 12 991 100 10000 3.6 170 10:36 03.11.2019
5072 Rain 12 991 93 10000 3.6 180 10:18 03.11.2019
5073 Rain 12 991 93 10000 4.1 170 09:42 03.11.2019
5074 Rain 12 991 93 10000 3.6 180 09:23 03.11.2019
5075 Rain 11 991 93 10000 2.1 180 08:56 03.11.2019
5076 Rain 11 991 93 10000 2.1 180 08:36 03.11.2019
5077 Rain 11 991 93 10000 4.1 200 08:18 03.11.2019
5078 Rain 12 991 93 10000 4.6 200 07:44 03.11.2019
5079 Rain 12 990 93 10000 3.6 190 07:20 03.11.2019
5080 Rain 12 990 93 10000 3.6 190 07:20 03.11.2019
5081 Rain 12 990 87 10000 2.6 190 06:39 03.11.2019
5082 Rain 12 990 87 10000 3.1 150 05:52 03.11.2019
5083 Rain 12 990 87 10000 3.1 150 05:32 03.11.2019
5084 Rain 12 990 87 10000 2.1 150 04:51 03.11.2019
5085 Rain 12 990 87 10000 2.1 150 03:58 03.11.2019
5086 Rain 12 991 87 10000 3.6 160 03:19 03.11.2019
5087 Clouds 12 992 87 10000 3.1 170 02:23 03.11.2019
5088 Clouds 12 991 93 10000 3.6 150 01:49 03.11.2019
5089 Clouds 12 992 93 10000 3.1 140 01:25 03.11.2019
5090 Clouds 12 992 93 10000 3.1 140 00:59 03.11.2019
5091 Clouds 11 992 93 10000 2.6 160 00:38 03.11.2019
5092 Clouds 12 992 93 10000 3.1 160 00:20 03.11.2019
5093 Clouds 12 992 87 10000 3.6 190 23:54 02.11.2019
5094 Clouds 12 992 87 10000 3.6 190 23:36 02.11.2019
5095 Clouds 12 992 87 10000 3.6 170 23:18 02.11.2019
5096 Clouds 12 992 87 10000 3.6 180 22:54 02.11.2019
5097 Clouds 12 993 87 10000 3.6 190 22:36 02.11.2019
5098 Clouds 12 993 87 10000 3.6 190 22:18 02.11.2019
5099 Clouds 12 993 87 10000 4.1 190 21:55 02.11.2019
5100 Clouds 12 993 87 10000 4.1 190 21:36 02.11.2019
5101 Clouds 12 993 87 10000 4.1 180 21:18 02.11.2019
5102 Clouds 12 993 87 10000 4.1 180 21:18 02.11.2019
5103 Clouds 12 993 87 10000 3.1 180 20:41 02.11.2019
5104 Rain 13 993 87 10000 3.1 180 20:21 02.11.2019
5105 Clouds 13 993 87 10000 2.1 180 19:59 02.11.2019
5106 Clouds 13 993 87 10000 2.1 180 19:38 02.11.2019
5107 Clouds 13 993 87 10000 2.1 240 19:19 02.11.2019
5108 Clouds 14 992 82 10000 4.1 190 18:54 02.11.2019
5109 Clouds 14 992 82 10000 4.1 190 18:36 02.11.2019
5110 Clouds 14 992 82 10000 3.1 180 18:18 02.11.2019
5111 Clouds 14 992 82 10000 3.1 180 17:55 02.11.2019
5112 Clouds 14 992 82 10000 3.1 180 17:36 02.11.2019
5113 Clouds 14 992 82 10000 3.1 170 17:18 02.11.2019
5114 Clouds 15 992 82 10000 3.1 180 16:40 02.11.2019
5115 Clouds 15 992 82 10000 3.6 190 16:21 02.11.2019
5116 Clouds 15 992 82 10000 3.6 220 15:44 02.11.2019
5117 Clouds 16 992 82 10000 4.1 190 15:22 02.11.2019
5118 Clouds 15 992 82 10000 4.1 200 14:59 02.11.2019
5119 Clouds 15 992 82 10000 4.1 200 14:41 02.11.2019
5120 Clouds 15 992 82 10000 4.1 200 14:41 02.11.2019
5121 Clouds 15 992 82 10000 3.6 200 14:22 02.11.2019
5122 Clouds 14 992 87 10000 4.1 190 13:56 02.11.2019
5123 Clouds 14 992 87 10000 4.1 190 13:37 02.11.2019
5124 Clouds 14 992 93 10000 4.6 190 13:18 02.11.2019
5125 Rain 13 992 87 10000 4.1 190 12:40 02.11.2019
5126 Rain 13 992 87 10000 4.6 190 12:22 02.11.2019
5127 Rain 13 992 87 10000 4.6 190 11:57 02.11.2019
5128 Rain 12 992 93 10000 5.1 190 11:39 02.11.2019
5129 Clouds 12 993 87 10000 4.6 180 11:20 02.11.2019
5130 Clouds 11 993 93 10000 4.1 180 10:46 02.11.2019
5131 Clouds 11 993 93 10000 4.1 180 10:27 02.11.2019
5132 Clouds 10 993 87 10000 5.1 180 09:57 02.11.2019
5133 Clouds 10 993 93 10000 4.1 180 09:38 02.11.2019
5134 Clouds 9 993 93 10000 4.1 170 09:19 02.11.2019
5135 Clouds 9 994 93 10000 3.6 170 08:44 02.11.2019
5136 Drizzle 8 994 93 10000 3.6 170 08:22 02.11.2019
5137 Drizzle 8 994 93 10000 3.6 170 07:48 02.11.2019
5138 Drizzle 7 994 93 10000 4.1 150 07:29 02.11.2019
5139 Drizzle 7 994 93 10000 4.1 170 06:55 02.11.2019
5140 Drizzle 7 995 93 10000 4.1 170 06:30 02.11.2019
5141 Drizzle 7 995 87 10000 3.6 160 05:56 02.11.2019
5142 Rain 7 996 87 10000 4.1 160 05:20 02.11.2019
5143 Clouds 7 996 87 10000 4.1 170 04:21 02.11.2019
5144 Rain 7 997 87 10000 4.6 170 03:50 02.11.2019
5145 Clouds 7 998 93 10000 4.6 170 02:42 02.11.2019
5146 Drizzle 7 999 93 10000 4.1 170 01:55 02.11.2019
5147 Drizzle 7 1000 93 10000 4.1 170 01:24 02.11.2019
5148 Drizzle 7 1000 93 8000 3.6 170 00:51 02.11.2019
5149 Clouds 6 1001 87 8000 4.1 170 00:26 02.11.2019
5150 Clouds 6 1001 93 7000 4.1 170 23:48 01.11.2019
5151 Clouds 6 1002 93 7000 4.6 160 23:23 01.11.2019
5152 Clouds 5 1002 93 7000 4.6 160 22:59 01.11.2019
5153 Clouds 5 1002 93 7000 4.6 160 22:40 01.11.2019
5154 Clouds 5 1003 93 7000 4.6 160 22:20 01.11.2019
5155 Drizzle 5 1003 93 7000 4.1 160 21:42 01.11.2019
5156 Drizzle 5 1004 93 7000 4.6 150 21:24 01.11.2019
5157 Drizzle 4 1004 93 8000 3.6 150 20:59 01.11.2019
5158 Drizzle 4 1004 93 8000 3.6 150 20:40 01.11.2019
5159 Rain 4 1005 86 10000 4.1 150 20:21 01.11.2019
5160 Rain 4 1005 86 10000 4.6 150 19:57 01.11.2019
5161 Rain 4 1005 86 10000 4.6 150 19:39 01.11.2019
5162 Rain 4 1006 86 10000 4.6 150 19:20 01.11.2019
5163 Clouds 4 1007 75 10000 5.1 140 18:40 01.11.2019
5164 Clouds 4 1007 80 10000 4.1 140 18:21 01.11.2019
5165 Clouds 4 1007 80 10000 4.1 140 17:57 01.11.2019
5166 Clouds 5 1008 75 10000 4.6 140 17:39 01.11.2019
5167 Clouds 5 1008 75 10000 4.6 130 17:20 01.11.2019
5168 Clouds 5 1008 70 10000 5.7 140 16:40 01.11.2019
5169 Clouds 5 1009 70 10000 5.1 140 16:20 01.11.2019
5170 Clouds 6 1009 65 10000 4.6 150 15:56 01.11.2019
5171 Clouds 6 1009 65 10000 4.6 150 15:38 01.11.2019
5172 Clouds 7 1010 65 10000 4.6 150 15:20 01.11.2019
5173 Clouds 7 1011 65 10000 5.1 140 14:44 01.11.2019
5174 Clouds 7 1011 65 10000 5.1 150 14:25 01.11.2019
5175 Clouds 7 1012 59 10000 5.7 140 13:59 01.11.2019
5176 Clouds 7 1012 57 10000 5.7 140 13:40 01.11.2019
5177 Clouds 7 1012 59 10000 5.7 140 13:40 01.11.2019
5178 Clouds 7 1013 57 10000 5.1 160 13:21 01.11.2019
5179 Clouds 7 1013 57 10000 5.1 160 13:21 01.11.2019
5180 Clouds 7 1014 57 10000 6.2 150 12:55 01.11.2019
5181 Clouds 7 1014 57 10000 6.2 150 12:55 01.11.2019
5182 Clouds 7 1014 57 10000 6.2 150 12:37 01.11.2019
5183 Clouds 6 1014 57 10000 6.7 150 12:19 01.11.2019
5184 Clouds 6 1015 57 10000 6.7 150 11:42 01.11.2019
5185 Clouds 6 1016 65 10000 5.7 150 11:23 01.11.2019
5186 Clouds 5 1016 65 10000 6.7 150 10:44 01.11.2019
5187 Clouds 4 1016 65 10000 6.7 150 10:44 01.11.2019
5188 Clouds 4 1017 69 10000 6.2 150 10:25 01.11.2019
5189 Clouds 4 1017 69 10000 6.2 150 09:59 01.11.2019
5190 Clouds 3 1017 69 10000 5.1 150 09:59 01.11.2019
5191 Clouds 3 1017 69 10000 5.1 150 09:41 01.11.2019
5192 Clouds 2 1018 74 10000 4.1 140 09:22 01.11.2019
5193 Clouds 1 1018 80 10000 5.1 130 08:55 01.11.2019
5194 Clouds 0 1018 80 10000 5.1 130 08:37 01.11.2019
5195 Clouds 0 1018 80 10000 5.1 130 08:37 01.11.2019
5196 Clouds -1 1018 68 10000 3.6 130 08:18 01.11.2019
5197 Clouds -2 1019 68 10000 3.6 130 07:46 01.11.2019
5198 Clouds -2 1019 86 10000 3.1 120 07:23 01.11.2019
5199 Clouds -2 1019 86 10000 2.6 110 06:55 01.11.2019
5200 Clouds -2 1020 68 10000 2.1 110 06:23 01.11.2019
5201 Clouds -2 1020 68 10000 2.1 110 05:58 01.11.2019
5202 Clouds -2 1020 68 10000 2.1 100 05:38 01.11.2019
5203 Clear -2 1022 92 10000 1.5 70 03:32 01.11.2019
5204 Clear -2 1023 92 10000 0.5 0 01:48 01.11.2019
5205 Clear -2 1023 92 10000 1 0 01:22 01.11.2019
5206 Clear -1 1024 92 10000 0.5 0 00:20 01.11.2019
5207 Clear -1 1024 65 10000 0.5 0 23:45 31.10.2019
5208 Clear -1 1024 86 10000 1 90 23:27 31.10.2019
5209 Clear -1 1024 86 10000 1 90 22:59 31.10.2019
5210 Clear 0 1025 80 10000 2.1 80 22:59 31.10.2019
5211 Clear 0 1025 80 10000 2.1 80 22:40 31.10.2019
5212 Clear 0 1025 86 10000 1.5 80 22:22 31.10.2019
5213 Clear 0 1025 67 10000 1 0 21:56 31.10.2019
5214 Clear 0 1025 67 10000 1 0 21:38 31.10.2019
5215 Clear -1 1025 67 10000 0.5 0 21:18 31.10.2019
5216 Clear -1 1025 67 10000 0.5 0 21:18 31.10.2019
5217 Clear 0 1025 80 10000 1 0 20:41 31.10.2019
5218 Clear 0 1025 80 10000 1 0 20:41 31.10.2019
5219 Clear 0 1025 80 10000 1 0 20:41 31.10.2019
5220 Clouds 0 1025 74 10000 1.5 70 20:22 31.10.2019
5221 Clouds 1 1026 59 10000 1.5 80 19:58 31.10.2019
5222 Clouds 1 1026 59 10000 1.5 80 19:38 31.10.2019
5223 Clouds 1 1026 80 10000 1 60 19:19 31.10.2019
5224 Clouds 2 1026 59 10000 1 70 18:44 31.10.2019
5225 Clouds 2 1026 59 10000 1 70 18:25 31.10.2019
5226 Clouds 3 1026 65 10000 1.5 90 17:59 31.10.2019
5227 Clouds 3 1026 65 10000 1.5 90 17:40 31.10.2019
5228 Clouds 4 1026 65 10000 2.1 70 17:20 31.10.2019
5229 Clouds 5 1026 60 10000 2.1 70 16:55 31.10.2019
5230 Clouds 5 1026 60 10000 2.1 70 16:37 31.10.2019
5231 Clouds 6 1026 56 10000 2.1 70 16:18 31.10.2019
5232 Clouds 7 1026 56 10000 1.5 0 15:40 31.10.2019
5233 Clouds 7 1026 52 10000 1 0 15:22 31.10.2019
5234 Clouds 7 1026 52 10000 1.5 110 14:59 31.10.2019
5235 Clouds 7 1026 52 10000 1.5 110 14:41 31.10.2019
5236 Clouds 7 1026 52 10000 1 0 14:23 31.10.2019
5237 Clouds 7 1027 56 10000 2.1 80 13:59 31.10.2019
5238 Clouds 7 1027 56 10000 2.1 80 13:39 31.10.2019
5239 Clouds 7 1027 56 10000 2.6 120 13:19 31.10.2019
5240 Clouds 7 1027 56 10000 2.1 130 12:58 31.10.2019
5241 Clouds 7 1027 56 10000 2.1 130 12:38 31.10.2019
5242 Clouds 7 1027 56 10000 2.1 140 12:20 31.10.2019
5243 Clouds 6 1028 51 10000 2.6 170 11:46 31.10.2019
5244 Clouds 6 1028 64 10000 2.1 170 11:21 31.10.2019
5245 Clouds 5 1028 70 10000 1 0 10:59 31.10.2019
5246 Clouds 4 1028 70 10000 1 0 10:40 31.10.2019
5247 Clouds 3 1028 75 10000 1 0 10:21 31.10.2019
5248 Clouds 2 1028 86 10000 0.5 0 09:56 31.10.2019
5249 Clouds 1 1028 86 10000 0.5 0 09:38 31.10.2019
5250 Clouds 1 1028 64 10000 0.5 0 09:18 31.10.2019
5251 Clouds 0 1028 92 10000 0.5 300 08:46 31.10.2019
5252 Clouds 0 1028 92 10000 0.5 300 08:46 31.10.2019
5253 Clouds -2 1028 92 10000 1 0 08:26 31.10.2019
5254 Clouds -2 1028 92 10000 1 0 07:48 31.10.2019
5255 Fog -3 1028 92 10000 0.5 0 07:28 31.10.2019
5256 Fog -3 1028 100 10000 0.5 40 06:55 31.10.2019
5257 Fog -3 1028 100 10000 0.5 30 06:33 31.10.2019
5258 Clouds -3 1028 92 10000 1.39 121 05:58 31.10.2019
5259 Fog -2 1028 100 10000 0.5 0 03:22 31.10.2019
5260 Fog -2 1029 100 10000 1.17 132 02:38 31.10.2019
5261 Fog -2 1029 100 10000 1.33 158 01:50 31.10.2019
5262 Fog -1 1029 100 10000 1.39 146 00:36 31.10.2019
5263 Clear -1 1029 71 10000 0.5 0 23:56 30.10.2019
5264 Clear -1 1029 71 10000 0.5 0 23:28 30.10.2019
5265 Clear 0 1030 68 10000 0.5 0 22:43 30.10.2019
5266 Clear 0 1030 68 10000 0.5 0 22:23 30.10.2019
5267 Clear 0 1030 68 10000 0.5 0 22:23 30.10.2019
5268 Clear 0 1030 68 10000 0.5 0 21:56 30.10.2019
5269 Clear 0 1030 68 10000 0.5 0 21:38 30.10.2019
5270 Clear 1 1030 68 10000 0.5 0 21:19 30.10.2019
5271 Clear 1 1030 68 0 0.5 70 20:59 30.10.2019
5272 Clear 1 1030 68 0 0.5 70 20:41 30.10.2019
5273 Clouds 1 1030 64 10000 1.5 60 20:22 30.10.2019
5274 Clouds 2 1030 80 10000 1 60 19:58 30.10.2019
5275 Clouds 2 1030 80 10000 1 60 19:39 30.10.2019
5276 Clouds 2 1030 80 10000 1 60 19:39 30.10.2019
5277 Clouds 2 1030 80 10000 0.5 0 19:20 30.10.2019
5278 Clouds 2 1030 80 10000 0.5 0 18:58 30.10.2019
5279 Clouds 3 1030 75 10000 1 90 18:37 30.10.2019
5280 Clouds 3 1030 75 10000 1 90 18:18 30.10.2019
5281 Clouds 4 1029 64 10000 1.5 70 17:41 30.10.2019
5282 Clouds 6 1029 54 10000 1.5 0 17:20 30.10.2019
5283 Clouds 6 1029 70 10000 1 0 16:59 30.10.2019
5284 Clouds 6 1029 70 10000 1 0 16:41 30.10.2019
5285 Clouds 7 1029 65 10000 1.5 110 16:22 30.10.2019
5286 Clouds 8 1029 61 10000 1.5 120 15:57 30.10.2019
5287 Clouds 8 1029 61 10000 1.5 120 15:38 30.10.2019
5288 Clouds 8 1030 57 10000 2.6 130 15:19 30.10.2019
5289 Clouds 9 1030 57 10000 2.6 130 14:56 30.10.2019
5290 Clouds 8 1030 57 10000 1.5 150 14:38 30.10.2019
5291 Clouds 9 1030 61 10000 2.1 110 14:20 30.10.2019
5292 Clouds 9 1030 61 10000 1.5 120 13:54 30.10.2019
5293 Clouds 8 1030 61 10000 1.5 120 13:36 30.10.2019
5294 Clouds 9 1030 52 10000 0.5 0 13:18 30.10.2019
5295 Clouds 9 1031 61 10000 1 0 12:43 30.10.2019
5296 Clouds 9 1031 57 10000 1.5 210 12:25 30.10.2019
5297 Clouds 9 1031 57 10000 1.5 210 11:58 30.10.2019
5298 Clouds 8 1031 57 10000 1 0 11:40 30.10.2019
5299 Clouds 7 1031 61 10000 0.5 0 11:19 30.10.2019
5300 Clouds 6 1031 65 10000 0.5 0 10:43 30.10.2019
5301 Clouds 5 1031 75 10000 0.5 0 10:23 30.10.2019
5302 Clouds 6 1031 75 10000 0.5 0 09:42 30.10.2019
5303 Clear 4 1031 63 10000 1 190 09:23 30.10.2019
5304 Clouds 4 1031 63 10000 0.93 103 08:57 30.10.2019
5305 Clouds 3 1031 63 10000 0.93 103 08:39 30.10.2019
5306 Clouds 3 1031 63 10000 0.93 103 08:39 30.10.2019
5307 Clouds 0 1030 100 10000 0.5 0 08:20 30.10.2019
5308 Clear -2 1030 100 10000 0.5 210 07:46 30.10.2019
5309 Fog -2 1030 100 10000 0.92 44 07:21 30.10.2019
5310 Fog -2 1030 100 10000 0.5 280 06:42 30.10.2019
5311 Fog -2 1030 100 10000 0.5 280 06:42 30.10.2019
5312 Mist -2 1030 92 1900 0.5 0 06:21 30.10.2019
5313 Mist -2 1030 100 1700 0.92 44 05:42 30.10.2019
5314 Mist -2 1030 100 1800 0.5 0 04:55 30.10.2019
5315 Mist -1 1030 92 3500 0.5 270 03:43 30.10.2019
5316 Fog -1 1029 100 10000 0.5 0 02:55 30.10.2019
5317 Fog 0 1030 100 10000 0.5 350 02:19 30.10.2019
5318 Fog 0 1029 100 10000 0.5 360 01:32 30.10.2019
5319 Fog 0 1029 100 10000 0.5 0 00:31 30.10.2019
5320 Clear 1 1029 69 10000 0.5 0 23:46 29.10.2019
5321 Clear 1 1029 65 10000 1 350 23:25 29.10.2019
5322 Clear 2 1029 93 10000 0.5 360 22:55 29.10.2019
5323 Clear 2 1029 93 10000 0.5 360 22:37 29.10.2019
5324 Clear 2 1029 93 10000 1 0 22:18 29.10.2019
5325 Clouds 3 1029 86 10000 1 360 21:42 29.10.2019
5326 Clouds 3 1028 86 10000 1 0 21:21 29.10.2019
5327 Clear 3 1028 86 10000 1.5 360 20:59 29.10.2019
5328 Clear 4 1028 86 10000 1.5 360 20:40 29.10.2019
5329 Clouds 4 1028 93 10000 1.5 350 20:21 29.10.2019
5330 Clouds 5 1028 86 10000 1 0 19:57 29.10.2019
5331 Clouds 5 1028 86 10000 1 0 19:38 29.10.2019
5332 Clouds 5 1027 81 10000 1 0 19:20 29.10.2019
5333 Clouds 5 1027 81 10000 1 0 18:57 29.10.2019
5334 Clouds 5 1027 81 10000 1 0 18:37 29.10.2019
5335 Clouds 6 1027 75 10000 1.5 360 18:19 29.10.2019
5336 Clouds 6 1027 75 10000 1.5 360 18:19 29.10.2019
5337 Clouds 6 1026 75 10000 1.5 360 17:55 29.10.2019
5338 Clouds 6 1026 75 10000 1.5 360 17:37 29.10.2019
5339 Clouds 7 1026 75 10000 1 0 17:18 29.10.2019
5340 Clouds 8 1025 70 10000 2.1 360 16:40 29.10.2019
5341 Clouds 9 1025 66 10000 3.1 30 16:21 29.10.2019
5342 Rain 9 1025 66 10000 2.6 350 15:58 29.10.2019
5343 Rain 9 1025 66 10000 2.6 350 15:39 29.10.2019
5344 Rain 9 1025 76 10000 1 0 15:20 29.10.2019
5345 Clouds 9 1024 76 10000 2.1 340 14:56 29.10.2019
5346 Clouds 9 1024 76 10000 2.1 340 14:38 29.10.2019
5347 Clouds 9 1024 81 10000 1 0 14:19 29.10.2019
5348 Clouds 9 1025 75 10000 3.1 10 13:40 29.10.2019
5349 Clouds 9 1025 81 10000 3.1 360 13:22 29.10.2019
5350 Clouds 8 1024 81 10000 2.6 350 12:56 29.10.2019
5351 Clouds 9 1024 81 10000 2.6 350 12:37 29.10.2019
5352 Clouds 8 1024 87 10000 2.1 320 12:19 29.10.2019
5353 Clouds 8 1024 87 10000 2.6 340 11:43 29.10.2019
5354 Clouds 7 1024 87 9000 1.5 290 11:23 29.10.2019
5355 Clouds 7 1024 87 9000 1.5 290 10:59 29.10.2019
5356 Clouds 6 1024 93 7000 2.1 320 10:40 29.10.2019
5357 Clouds 6 1023 93 6000 2.1 350 10:20 29.10.2019
5358 Mist 6 1023 100 4000 2.1 330 09:59 29.10.2019
5359 Mist 5 1023 100 4000 2.1 330 09:41 29.10.2019
5360 Mist 5 1023 100 3500 2.1 310 09:22 29.10.2019
5361 Mist 5 1023 93 1800 1.5 310 08:55 29.10.2019
5362 Mist 4 1023 93 1800 1.5 310 08:36 29.10.2019
5363 Fog 4 1022 100 900 2.1 280 08:18 29.10.2019
5364 Fog 4 1022 100 500 3.1 250 07:47 29.10.2019
5365 Fog 4 1021 93 700 2.6 260 07:19 29.10.2019
5366 Fog 4 1021 100 900 1.5 290 06:47 29.10.2019
5367 Fog 3 1021 100 900 1.5 270 06:28 29.10.2019
5368 Mist 4 1021 93 2500 2.1 280 05:52 29.10.2019
5369 Mist 4 1021 93 2500 2.1 280 05:34 29.10.2019
5370 Mist 4 1021 100 5000 2.1 280 04:34 29.10.2019
5371 Clouds 5 1020 93 10000 2.1 280 02:34 29.10.2019
5372 Clouds 5 1020 100 10000 2.1 290 01:55 29.10.2019
5373 Clouds 5 1020 100 10000 2.6 270 01:34 29.10.2019
5374 Clouds 5 1020 93 10000 2.1 280 00:52 29.10.2019
5375 Clouds 5 1020 93 10000 2.1 280 00:52 29.10.2019
5376 Clouds 6 1020 93 10000 2.6 280 23:59 28.10.2019
5377 Clouds 5 1020 93 10000 2.6 280 23:37 28.10.2019
5378 Clouds 5 1020 100 10000 2.6 260 23:19 28.10.2019
5379 Clouds 6 1020 93 10000 1 270 22:39 28.10.2019
5380 Clouds 6 1020 93 10000 1.5 280 22:20 28.10.2019
5381 Clouds 6 1020 93 10000 1 0 21:58 28.10.2019
5382 Clouds 6 1020 93 10000 1 0 21:39 28.10.2019
5383 Rain 6 1020 93 10000 0.5 260 21:21 28.10.2019
5384 Clouds 7 1020 87 10000 1 0 20:59 28.10.2019
5385 Clouds 6 1020 87 10000 1 0 20:40 28.10.2019
5386 Clouds 7 1020 93 10000 3.1 270 20:21 28.10.2019
5387 Clouds 7 1020 93 10000 2.6 270 19:54 28.10.2019
5388 Clouds 7 1020 93 10000 2.6 270 19:36 28.10.2019
5389 Clouds 7 1020 93 10000 2.1 270 19:18 28.10.2019
5390 Rain 8 1020 87 10000 1.5 270 18:57 28.10.2019
5391 Rain 8 1020 87 10000 1.5 270 18:38 28.10.2019
5392 Clouds 8 1020 87 10000 2.6 250 18:20 28.10.2019
5393 Rain 9 1019 87 10000 2.1 260 17:55 28.10.2019
5394 Rain 9 1019 87 10000 2.1 260 17:37 28.10.2019
5395 Rain 10 1020 76 10000 5.1 270 17:18 28.10.2019
5396 Rain 10 1020 76 10000 5.1 270 16:55 28.10.2019
5397 Clouds 11 1019 71 10000 3.6 270 16:36 28.10.2019
5398 Clouds 11 1019 66 10000 3.1 280 16:18 28.10.2019
5399 Clouds 12 1020 71 10000 2.1 280 15:55 28.10.2019
5400 Clouds 12 1020 71 10000 2.1 280 15:37 28.10.2019
5401 Rain 12 1020 66 10000 5.7 270 15:18 28.10.2019
5402 Clouds 12 1020 66 10000 4.6 280 14:54 28.10.2019
5403 Clouds 12 1020 66 10000 4.6 280 14:36 28.10.2019
5404 Rain 12 1020 66 10000 4.6 280 14:18 28.10.2019
5405 Clouds 12 1020 66 10000 4.1 270 13:41 28.10.2019
5406 Clouds 12 1020 71 10000 5.7 270 13:19 28.10.2019
5407 Clouds 12 1020 76 10000 5.7 260 12:59 28.10.2019
5408 Clouds 12 1020 76 10000 5.7 260 12:40 28.10.2019
5409 Clouds 12 1020 71 10000 5.7 260 12:19 28.10.2019
5410 Clouds 11 1020 71 10000 5.1 260 11:38 28.10.2019
5411 Clouds 11 1020 76 10000 5.1 250 11:20 28.10.2019
5412 Clouds 10 1020 81 10000 5.1 260 10:56 28.10.2019
5413 Clouds 9 1020 81 10000 5.1 260 10:38 28.10.2019
5414 Clouds 9 1020 81 10000 4.6 250 10:19 28.10.2019
5415 Clouds 8 1020 87 10000 5.1 260 09:54 28.10.2019
5416 Clouds 8 1020 87 10000 5.1 260 09:36 28.10.2019
5417 Clouds 8 1019 87 10000 5.1 250 09:18 28.10.2019
5418 Clouds 7 1019 87 10000 4.6 250 08:55 28.10.2019
5419 Clouds 7 1019 87 10000 4.6 250 08:37 28.10.2019
5420 Clouds 6 1019 93 10000 5.1 250 08:18 28.10.2019
5421 Clouds 6 1019 93 10000 4.6 260 07:43 28.10.2019
5422 Clouds 6 1019 93 10000 4.6 250 07:21 28.10.2019
5423 Clear 5 1018 93 10000 4.1 250 06:56 28.10.2019
5424 Clear 5 1018 93 10000 4.1 250 06:34 28.10.2019
5425 Clear 6 1018 93 10000 5.1 250 05:19 28.10.2019
5426 Clear 6 1018 87 10000 4.1 240 03:44 28.10.2019
5427 Clear 6 1018 87 10000 4.6 260 02:45 28.10.2019
5428 Clear 6 1019 87 10000 5.7 250 01:52 28.10.2019
5429 Clouds 6 1019 87 10000 4.6 250 00:47 28.10.2019
5430 Clouds 6 1019 87 10000 4.6 250 00:25 28.10.2019
5431 Clouds 6 1019 87 10000 4.6 250 23:44 27.10.2019
5432 Clouds 6 1019 87 10000 4.6 250 23:22 27.10.2019
5433 Clouds 7 1019 81 10000 4.6 250 22:56 27.10.2019
5434 Clouds 6 1019 81 10000 4.6 250 22:37 27.10.2019
5435 Clouds 7 1019 87 10000 4.1 250 22:19 27.10.2019
5436 Clouds 7 1019 87 10000 4.6 260 21:56 27.10.2019
5437 Clouds 7 1019 87 10000 4.6 260 21:38 27.10.2019
5438 Clouds 7 1019 81 10000 3.6 250 21:20 27.10.2019
5439 Clouds 7 1019 81 10000 3.6 250 21:20 27.10.2019
5440 Clouds 7 1018 81 10000 4.1 250 20:42 27.10.2019
5441 Clouds 7 1018 81 10000 4.1 250 20:24 27.10.2019
5442 Clouds 7 1019 81 10000 3.6 260 19:59 27.10.2019
5443 Clouds 8 1019 81 10000 3.6 260 19:39 27.10.2019
5444 Clouds 8 1018 81 10000 3.6 250 19:20 27.10.2019
5445 Clouds 8 1018 75 10000 3.1 250 18:57 27.10.2019
5446 Clouds 9 1018 75 10000 3.1 250 18:39 27.10.2019
5447 Clouds 9 1018 75 10000 3.1 250 18:21 27.10.2019
5448 Clouds 9 1018 76 10000 3.6 260 17:57 27.10.2019
5449 Clouds 10 1018 76 10000 3.6 260 17:38 27.10.2019
5450 Clouds 10 1018 71 10000 3.6 260 17:19 27.10.2019
5451 Clouds 10 1017 76 10000 4.1 250 16:57 27.10.2019
5452 Clouds 10 1017 76 10000 4.1 250 16:38 27.10.2019
5453 Clouds 11 1017 66 10000 3.6 270 16:20 27.10.2019
5454 Clouds 11 1017 66 10000 4.6 270 15:55 27.10.2019
5455 Clouds 11 1017 66 10000 4.6 270 15:37 27.10.2019
5456 Clouds 11 1017 66 10000 5.7 280 15:19 27.10.2019
5457 Clouds 11 1017 66 10000 5.1 280 14:42 27.10.2019
5458 Clouds 11 1017 71 10000 5.7 280 14:20 27.10.2019
5459 Clouds 11 1017 71 10000 5.7 280 13:57 27.10.2019
5460 Clouds 11 1017 66 10000 5.7 280 13:38 27.10.2019
5461 Clouds 11 1016 76 10000 5.7 280 13:19 27.10.2019
5462 Clouds 11 1016 81 10000 4.1 280 12:45 27.10.2019
5463 Clouds 11 1016 81 10000 4.6 280 12:24 27.10.2019
5464 Clouds 11 1016 81 10000 4.1 290 11:59 27.10.2019
5465 Clouds 11 1016 81 10000 4.1 290 11:41 27.10.2019
5466 Rain 11 1015 81 10000 5.7 290 11:21 27.10.2019
5467 Rain 12 1015 93 10000 4.6 290 10:44 27.10.2019
5468 Rain 12 1014 93 10000 5.7 290 10:25 27.10.2019
5469 Rain 13 1013 93 10000 6.7 290 09:57 27.10.2019
5470 Rain 14 1013 93 10000 6.7 290 09:39 27.10.2019
5471 Rain 15 1012 87 10000 6.2 270 09:18 27.10.2019
5472 Rain 16 1011 77 10000 5.7 250 08:56 27.10.2019
5473 Rain 16 1011 77 10000 5.7 250 08:37 27.10.2019
5474 Rain 16 1011 67 10000 8.2 240 08:18 27.10.2019
5475 Clouds 16 1010 67 10000 6.2 230 07:43 27.10.2019
5476 Clouds 16 1010 63 10000 6.7 230 07:24 27.10.2019
5477 Clouds 16 1010 63 10000 7.2 230 06:49 27.10.2019
5478 Clouds 16 1010 63 10000 6.7 230 06:26 27.10.2019
5479 Clouds 15 1010 63 10000 6.7 230 05:41 27.10.2019
5480 Clouds 15 1010 63 10000 6.7 220 04:54 27.10.2019
5481 Clouds 14 1011 71 10000 3.1 200 02:55 27.10.2019
5482 Clouds 14 1011 71 10000 3.1 200 02:55 27.10.2019
5483 Clouds 14 1012 71 10000 5.1 210 01:49 27.10.2019
5484 Clouds 14 1012 71 10000 4.6 210 01:21 27.10.2019
5485 Clouds 14 1012 71 10000 4.6 200 00:46 27.10.2019
5486 Clouds 15 1012 71 10000 4.6 190 00:24 27.10.2019
5487 Clouds 15 1012 71 10000 3.6 200 23:56 26.10.2019
5488 Clouds 15 1012 71 10000 3.6 200 23:56 26.10.2019
5489 Clouds 15 1012 71 10000 3.6 200 23:37 26.10.2019
5490 Clouds 15 1012 67 10000 4.6 200 23:19 26.10.2019
5491 Clouds 15 1012 67 10000 4.6 200 22:55 26.10.2019
5492 Clouds 15 1012 67 10000 4.6 200 22:36 26.10.2019
5493 Clouds 15 1012 72 10000 4.6 190 22:18 26.10.2019
5494 Clouds 15 1012 72 10000 4.6 190 22:18 26.10.2019
5495 Clouds 16 1013 67 10000 5.1 200 21:43 26.10.2019
5496 Clouds 16 1013 67 10000 5.1 200 21:21 26.10.2019
5497 Clouds 16 1013 67 10000 5.1 200 21:21 26.10.2019
5498 Clouds 16 1013 67 10000 5.1 200 20:57 26.10.2019
5499 Clouds 16 1013 67 10000 5.1 200 20:36 26.10.2019
5500 Clouds 16 1013 67 10000 5.1 200 20:36 26.10.2019
5501 Clouds 16 1013 72 10000 5.1 190 20:18 26.10.2019
5502 Clouds 16 1013 72 10000 5.1 190 20:18 26.10.2019
5503 Clouds 16 1013 72 10000 5.1 190 19:42 26.10.2019
5504 Clouds 16 1013 72 10000 4.6 200 19:20 26.10.2019
5505 Clouds 16 1013 72 10000 4.1 190 18:57 26.10.2019
5506 Clouds 16 1013 72 10000 4.1 190 18:39 26.10.2019
5507 Clouds 16 1013 67 10000 4.1 200 18:19 26.10.2019
5508 Clouds 17 1013 67 10000 4.6 200 17:56 26.10.2019
5509 Clouds 17 1013 67 10000 4.6 200 17:37 26.10.2019
5510 Clouds 17 1014 63 10000 5.1 200 17:19 26.10.2019
5511 Clouds 18 1014 63 10000 6.2 200 16:43 26.10.2019
5512 Clouds 18 1014 63 0 5.7 200 16:25 26.10.2019
5513 Clouds 18 1014 63 0 5.7 200 16:25 26.10.2019
5514 Clouds 18 1014 63 0 5.7 200 15:59 26.10.2019
5515 Clouds 18 1014 63 10000 6.7 200 15:59 26.10.2019
5516 Clouds 18 1014 63 10000 6.7 200 15:37 26.10.2019
5517 Clouds 18 1015 63 10000 5.7 210 15:18 26.10.2019
5518 Clouds 18 1015 59 10000 6.7 210 14:39 26.10.2019
5519 Clouds 18 1016 57 0 6.02 224 14:19 26.10.2019
5520 Clouds 18 1016 57 0 6.02 224 13:56 26.10.2019
5521 Clouds 18 1016 57 0 6.02 224 13:36 26.10.2019
5522 Clouds 18 1016 57 0 6.02 224 13:18 26.10.2019
5523 Clouds 15 1017 78 0 6.71 208 12:42 26.10.2019
5524 Clouds 15 1016 76 10000 6.2 210 12:19 26.10.2019
5525 Clouds 15 1016 76 10000 6.2 210 11:47 26.10.2019
5526 Clouds 15 1016 76 10000 6.2 210 11:25 26.10.2019
5527 Clouds 14 1017 76 10000 5.7 210 10:47 26.10.2019
5528 Clouds 13 1017 76 10000 4.1 200 10:26 26.10.2019
5529 Clouds 12 1017 81 0 4.6 200 09:49 26.10.2019
5530 Clouds 11 1017 87 10000 4.6 200 09:30 26.10.2019
5531 Clouds 11 1017 87 0 3.6 190 08:55 26.10.2019
5532 Clouds 11 1017 87 0 3.6 190 08:36 26.10.2019
5533 Clouds 11 1017 87 10000 3.6 200 08:18 26.10.2019
5534 Clouds 11 1017 87 10000 4.1 200 07:42 26.10.2019
5535 Clouds 11 1016 87 10000 3.6 200 07:22 26.10.2019
5536 Clouds 10 1016 87 10000 3.1 190 06:40 26.10.2019
5537 Clouds 10 1017 87 10000 4.6 200 05:57 26.10.2019
5538 Clouds 10 1017 87 10000 4.1 190 05:19 26.10.2019
5539 Clouds 11 1018 87 10000 3.6 190 03:53 26.10.2019
5540 Clouds 11 1019 81 10000 3.6 190 02:33 26.10.2019
5541 Clouds 11 1019 81 10000 4.1 210 01:47 26.10.2019
5542 Clouds 12 1019 81 10000 4.1 190 00:56 26.10.2019
5543 Clouds 11 1019 81 10000 4.1 190 23:57 25.10.2019
5544 Clouds 12 1019 76 10000 4.1 190 23:38 25.10.2019
5545 Clouds 12 1020 82 10000 4.1 200 23:19 25.10.2019
5546 Clouds 11 1020 82 10000 3.6 200 22:40 25.10.2019
5547 Clouds 11 1020 82 10000 3.6 200 22:21 25.10.2019
5548 Clouds 12 1020 76 10000 3.6 190 21:57 25.10.2019
5549 Clouds 12 1020 76 10000 3.6 190 21:38 25.10.2019
5550 Clouds 12 1020 76 10000 3.1 180 21:19 25.10.2019
5551 Clouds 12 1020 71 10000 2.6 180 20:44 25.10.2019
5552 Clouds 12 1021 71 10000 2.6 190 20:20 25.10.2019
5553 Clouds 12 1021 71 10000 2.6 190 20:20 25.10.2019
5554 Clouds 12 1021 71 10000 2.6 190 20:20 25.10.2019
5555 Clouds 12 1021 71 10000 1.5 230 19:59 25.10.2019
5556 Clouds 12 1021 71 10000 1.5 230 19:40 25.10.2019
5557 Clouds 13 1020 67 10000 3.1 210 19:22 25.10.2019
5558 Clouds 14 1020 67 10000 3.1 210 18:43 25.10.2019
5559 Clouds 14 1020 71 10000 3.6 250 18:21 25.10.2019
5560 Clouds 16 1020 67 10000 3.6 250 17:41 25.10.2019
5561 Clouds 17 1020 63 10000 5.1 240 17:21 25.10.2019
5562 Clouds 17 1020 63 10000 5.1 250 16:54 25.10.2019
5563 Clouds 17 1020 63 10000 5.1 250 16:36 25.10.2019
5564 Clouds 17 1020 59 10000 5.7 260 16:18 25.10.2019
5565 Clouds 18 1019 59 10000 7.7 250 15:40 25.10.2019
5566 Clouds 18 1019 59 10000 6.2 260 15:21 25.10.2019
5567 Clouds 18 1019 63 10000 5.1 280 14:57 25.10.2019
5568 Clouds 18 1019 63 10000 5.1 280 14:38 25.10.2019
5569 Clouds 18 1019 63 10000 5.7 290 14:20 25.10.2019
5570 Clouds 18 1019 63 10000 7.2 260 13:41 25.10.2019
5571 Clouds 18 1019 63 10000 8.7 260 13:23 25.10.2019
5572 Clouds 18 1019 63 10000 7.7 260 12:55 25.10.2019
5573 Clouds 18 1019 63 10000 7.7 260 12:37 25.10.2019
5574 Clouds 18 1018 67 10000 7.7 250 12:19 25.10.2019
5575 Clouds 17 1018 67 10000 7.2 240 11:40 25.10.2019
5576 Clouds 16 1018 72 10000 7.2 240 11:22 25.10.2019
5577 Clouds 16 1017 77 10000 6.2 230 10:57 25.10.2019
5578 Clouds 16 1017 77 10000 6.2 230 10:57 25.10.2019
5579 Clouds 16 1017 77 10000 6.2 230 10:39 25.10.2019
5580 Clouds 15 1017 82 10000 5.1 220 10:19 25.10.2019
5581 Clouds 14 1016 87 10000 4.1 200 09:54 25.10.2019
5582 Clear 14 1016 87 10000 4.1 200 09:36 25.10.2019
5583 Clouds 13 1016 87 10000 3.1 200 09:18 25.10.2019
5584 Clouds 13 1016 87 10000 3.1 200 08:42 25.10.2019
5585 Clouds 13 1015 87 10000 2.6 190 08:23 25.10.2019
5586 Clouds 13 1015 82 10000 2.6 200 07:49 25.10.2019
5587 Clouds 13 1015 82 10000 2.6 200 07:49 25.10.2019
5588 Clouds 13 1015 82 10000 2.6 200 07:49 25.10.2019
5589 Clouds 13 1015 87 10000 2.1 190 07:30 25.10.2019
5590 Rain 13 1015 87 10000 3.1 180 06:38 25.10.2019
5591 Clouds 12 1015 87 10000 2.6 220 05:50 25.10.2019
5592 Clouds 12 1015 87 10000 2.6 220 05:32 25.10.2019
5593 Clouds 12 1014 87 10000 3.1 260 04:38 25.10.2019
5594 Mist 11 1013 100 3500 1 160 02:46 25.10.2019
5595 Fog 11 1012 100 1100 0.5 0 01:53 25.10.2019
5596 Fog 11 1012 100 600 1 190 00:41 25.10.2019
5597 Mist 11 1011 93 3500 1 0 23:57 24.10.2019
5598 Mist 12 1011 93 3500 1 0 23:37 24.10.2019
5599 Mist 12 1011 100 4000 2.1 210 23:19 24.10.2019
5600 Clouds 12 1011 100 7000 2.6 220 22:54 24.10.2019
5601 Mist 12 1011 100 4000 3.6 250 22:54 24.10.2019
5602 Mist 12 1011 100 4000 3.6 250 22:36 24.10.2019
5603 Mist 12 1011 100 4400 2.1 240 22:18 24.10.2019
5604 Mist 12 1010 100 4400 3.1 210 21:54 24.10.2019
5605 Mist 12 1010 100 4400 3.1 210 21:36 24.10.2019
5606 Mist 12 1010 93 4400 2.1 200 21:18 24.10.2019
5607 Mist 12 1010 93 4600 2.6 120 20:54 24.10.2019
5608 Mist 13 1010 93 4600 2.6 120 20:36 24.10.2019
5609 Mist 13 1010 93 4800 1.5 130 20:18 24.10.2019
5610 Mist 13 1010 93 4800 0.5 0 19:42 24.10.2019
5611 Mist 14 1010 93 5000 1.5 130 19:23 24.10.2019
5612 Mist 14 1009 87 5000 2.1 110 18:58 24.10.2019
5613 Mist 14 1009 87 5000 2.1 110 18:58 24.10.2019
5614 Mist 14 1009 87 5000 2.1 110 18:58 24.10.2019
5615 Mist 14 1009 87 5000 2.1 110 18:39 24.10.2019
5616 Clouds 15 1009 87 6000 1.5 110 18:21 24.10.2019
5617 Clouds 16 1009 82 7000 2.1 110 17:57 24.10.2019
5618 Clouds 16 1009 82 7000 2.1 110 17:37 24.10.2019
5619 Clouds 17 1009 82 8000 1.5 160 17:18 24.10.2019
5620 Clouds 17 1009 77 8000 1.5 150 16:42 24.10.2019
5621 Clouds 17 1009 82 8000 3.6 130 16:23 24.10.2019
5622 Clouds 17 1009 82 8000 3.6 150 15:59 24.10.2019
5623 Clouds 17 1009 82 8000 3.6 150 15:59 24.10.2019
5624 Clouds 17 1009 82 8000 3.6 150 15:41 24.10.2019
5625 Clouds 16 1009 82 7000 4.1 140 15:23 24.10.2019
5626 Clouds 16 1009 82 7000 4.1 160 14:59 24.10.2019
5627 Clouds 16 1009 82 7000 4.1 160 14:41 24.10.2019
5628 Clouds 16 1009 82 7000 4.1 160 14:41 24.10.2019
5629 Clouds 16 1009 87 7000 3.6 150 14:22 24.10.2019
5630 Clouds 16 1009 87 6000 3.6 150 13:57 24.10.2019
5631 Clouds 16 1009 87 6000 3.6 150 13:37 24.10.2019
5632 Clouds 15 1010 87 6000 4.6 150 13:18 24.10.2019
5633 Clouds 15 1010 87 6000 4.6 150 12:55 24.10.2019
5634 Clouds 15 1010 87 6000 4.6 150 12:37 24.10.2019
5635 Clouds 14 1010 93 6000 4.1 140 12:18 24.10.2019
5636 Mist 14 1010 93 4800 4.1 150 11:54 24.10.2019
5637 Mist 14 1010 93 4800 4.1 150 11:36 24.10.2019
5638 Mist 14 1010 93 4500 4.1 140 11:18 24.10.2019
5639 Mist 14 1010 93 4500 3.6 140 10:41 24.10.2019
5640 Mist 14 1011 93 4500 3.1 130 10:23 24.10.2019
5641 Mist 14 1011 93 4500 3.1 130 10:23 24.10.2019
5642 Mist 13 1011 93 4500 4.1 130 09:39 24.10.2019
5643 Mist 13 1011 93 4500 4.6 130 09:19 24.10.2019
5644 Mist 13 1011 93 4500 4.6 130 08:58 24.10.2019
5645 Mist 13 1011 100 4500 3.1 130 08:38 24.10.2019
5646 Drizzle 13 1011 100 4000 3.1 130 08:20 24.10.2019
5647 Drizzle 13 1011 100 3000 3.1 130 07:47 24.10.2019
5648 Drizzle 13 1011 100 2200 3.1 130 07:23 24.10.2019
5649 Drizzle 13 1011 100 1700 3.1 120 06:53 24.10.2019
5650 Drizzle 13 1011 100 1700 3.1 120 06:34 24.10.2019
5651 Drizzle 13 1011 100 1400 2.6 120 05:54 24.10.2019
5652 Drizzle 13 1012 93 2000 3.6 120 05:31 24.10.2019
5653 Drizzle 13 1012 100 2000 3.1 120 04:22 24.10.2019
5654 Drizzle 13 1012 100 2000 3.1 120 04:22 24.10.2019
5655 Mist 13 1012 93 2500 3.1 120 03:33 24.10.2019
5656 Mist 13 1013 100 2000 2.6 130 02:39 24.10.2019
5657 Mist 13 1014 100 2500 3.6 140 02:19 24.10.2019
5658 Mist 13 1013 100 3000 4.1 140 01:31 24.10.2019
5659 Mist 13 1014 93 3500 4.6 130 00:55 24.10.2019
5660 Mist 13 1014 93 3500 3.6 130 00:27 24.10.2019
5661 Mist 13 1014 93 4000 5.7 120 23:57 23.10.2019
5662 Mist 13 1014 93 4000 5.7 120 23:38 23.10.2019
5663 Clouds 13 1015 93 6000 3.6 100 23:18 23.10.2019
5664 Clear 13 1016 93 9000 2.1 110 22:54 23.10.2019
5665 Clear 13 1016 93 9000 2.1 110 22:36 23.10.2019
5666 Clear 13 1016 87 10000 4.1 110 22:18 23.10.2019
5667 Clear 13 1016 87 10000 3.6 110 21:55 23.10.2019
5668 Clear 13 1016 87 10000 3.6 110 21:36 23.10.2019
5669 Clouds 13 1016 87 10000 3.1 90 21:18 23.10.2019
5670 Clouds 14 1016 87 10000 4.1 110 20:54 23.10.2019
5671 Clouds 14 1016 87 10000 4.1 110 20:54 23.10.2019
5672 Clouds 14 1016 87 10000 4.1 110 20:36 23.10.2019
5673 Clouds 14 1016 87 10000 4.1 90 20:18 23.10.2019
5674 Clouds 14 1016 87 10000 4.1 90 19:42 23.10.2019
5675 Clouds 14 1017 87 10000 3.6 90 19:19 23.10.2019
5676 Clouds 14 1017 82 10000 3.1 80 18:57 23.10.2019
5677 Clouds 15 1017 82 10000 3.1 80 18:39 23.10.2019
5678 Clouds 15 1017 82 10000 2.6 60 18:19 23.10.2019
5679 Clouds 16 1017 77 10000 3.1 60 17:55 23.10.2019
5680 Clouds 16 1017 77 10000 3.1 60 17:55 23.10.2019
5681 Clouds 16 1017 77 10000 3.1 60 17:36 23.10.2019
5682 Clouds 16 1017 77 10000 3.1 60 17:36 23.10.2019
5683 Clouds 16 1017 77 10000 3.1 60 17:18 23.10.2019
5684 Clouds 17 1017 72 10000 3.1 70 16:40 23.10.2019
5685 Clouds 17 1017 72 10000 3.1 90 16:21 23.10.2019
5686 Clouds 17 1018 72 10000 3.6 90 15:57 23.10.2019
5687 Clouds 17 1018 72 10000 3.6 90 15:39 23.10.2019
5688 Clouds 17 1018 72 10000 4.1 90 15:20 23.10.2019
5689 Clouds 17 1018 72 10000 4.1 100 14:56 23.10.2019
5690 Clouds 17 1018 72 10000 4.1 100 14:37 23.10.2019
5691 Clouds 17 1019 72 10000 4.1 100 14:18 23.10.2019
5692 Clouds 17 1019 72 10000 4.1 100 14:18 23.10.2019
5693 Clouds 17 1019 72 10000 4.1 110 13:43 23.10.2019
5694 Clouds 16 1020 72 10000 3.6 100 13:25 23.10.2019
5695 Clouds 16 1020 77 10000 3.1 80 12:57 23.10.2019
5696 Clouds 16 1020 77 10000 3.1 80 12:39 23.10.2019
5697 Clouds 15 1021 76 10000 2.1 80 12:19 23.10.2019
5698 Clouds 15 1021 76 10000 2.1 80 11:58 23.10.2019
5699 Clouds 14 1021 82 10000 1.5 70 11:39 23.10.2019
5700 Clouds 13 1022 82 10000 1.5 60 11:21 23.10.2019
5701 Clouds 13 1022 76 10000 1.5 90 10:56 23.10.2019
5702 Clouds 12 1022 76 10000 1.5 90 10:38 23.10.2019
5703 Clouds 12 1022 76 10000 1.5 90 10:38 23.10.2019
5704 Clouds 11 1022 81 10000 1.5 80 10:19 23.10.2019
5705 Clouds 11 1022 93 10000 2.1 80 09:40 23.10.2019
5706 Clouds 10 1022 93 10000 0.5 0 09:22 23.10.2019
5707 Clouds 9 1022 93 9000 1.5 80 08:56 23.10.2019
5708 Clouds 8 1022 93 9000 1.5 80 08:38 23.10.2019
5709 Clouds 8 1022 100 9000 1.5 90 08:18 23.10.2019
5710 Clouds 8 1022 100 10000 1 0 07:45 23.10.2019
5711 Fog 7 1022 100 10000 1 0 07:21 23.10.2019
5712 Fog 7 1022 100 10000 1 0 06:45 23.10.2019
5713 Clouds 7 1022 93 10000 0.5 360 06:19 23.10.2019
5714 Fog 7 1023 100 10000 1 100 05:20 23.10.2019
5715 Clouds 7 1023 100 0 0.5 0 04:33 23.10.2019
5716 Fog 7 1024 100 10000 0.5 110 02:44 23.10.2019
5717 Fog 8 1024 100 10000 0.5 260 01:56 23.10.2019
5718 Fog 8 1024 100 10000 0.5 300 01:25 23.10.2019
5719 Fog 9 1024 100 10000 0.92 16 00:35 23.10.2019
5720 Clouds 9 1024 100 10000 1 0 23:57 22.10.2019
5721 Clouds 9 1024 100 10000 1 0 23:38 22.10.2019
5722 Clouds 10 1024 100 10000 1 300 23:18 22.10.2019
5723 Clouds 10 1024 100 10000 1 300 23:18 22.10.2019
5724 Clouds 10 1024 93 10000 0.5 300 22:55 22.10.2019
5725 Clouds 11 1024 93 10000 0.5 300 22:37 22.10.2019
5726 Clouds 10 1024 93 10000 1 290 22:19 22.10.2019
5727 Clouds 11 1024 93 10000 1 290 21:56 22.10.2019
5728 Clouds 11 1024 93 10000 1.5 290 21:36 22.10.2019
5729 Clouds 11 1024 93 10000 1.5 290 21:36 22.10.2019
5730 Clouds 11 1024 87 10000 1 0 21:18 22.10.2019
5731 Clouds 12 1024 87 10000 0.5 0 20:55 22.10.2019
5732 Clouds 12 1024 87 10000 0.5 0 20:37 22.10.2019
5733 Clouds 12 1024 82 10000 1.5 330 20:18 22.10.2019
5734 Clouds 13 1023 82 10000 1.5 330 19:42 22.10.2019
5735 Clouds 13 1023 82 10000 2.1 310 19:24 22.10.2019
5736 Clouds 14 1023 76 10000 2.1 320 18:57 22.10.2019
5737 Clouds 14 1023 76 10000 2.1 320 18:39 22.10.2019
5738 Clouds 15 1023 72 10000 2.1 320 18:21 22.10.2019
5739 Clouds 16 1023 77 10000 2.1 320 17:56 22.10.2019
5740 Clouds 16 1023 77 10000 2.1 320 17:38 22.10.2019
5741 Clouds 17 1023 72 10000 1.5 310 17:19 22.10.2019
5742 Clouds 17 1023 72 10000 2.1 300 16:57 22.10.2019
5743 Clouds 17 1023 72 10000 2.1 300 16:37 22.10.2019
5744 Clouds 18 1023 67 10000 3.1 280 16:19 22.10.2019
5745 Clouds 18 1023 67 10000 3.1 280 16:19 22.10.2019
5746 Clouds 18 1023 67 10000 4.1 260 15:44 22.10.2019
5747 Clouds 18 1023 67 10000 3.6 260 15:21 22.10.2019
5748 Clouds 18 1023 67 10000 3.6 260 14:58 22.10.2019
5749 Clouds 18 1023 67 10000 3.6 240 14:40 22.10.2019
5750 Clouds 18 1023 63 10000 2.6 240 14:19 22.10.2019
5751 Clouds 18 1024 67 10000 2.1 250 13:42 22.10.2019
5752 Clouds 18 1024 67 10000 2.6 280 13:21 22.10.2019
5753 Clouds 17 1024 67 10000 1.5 270 12:58 22.10.2019
5754 Clouds 17 1024 67 10000 1.5 270 12:40 22.10.2019
5755 Clouds 17 1024 67 10000 1.5 270 12:40 22.10.2019
5756 Clouds 16 1025 72 10000 3.1 270 12:21 22.10.2019
5757 Clouds 16 1025 72 10000 3.1 270 11:56 22.10.2019
5758 Clouds 15 1024 72 10000 1 0 11:37 22.10.2019
5759 Clouds 15 1024 76 10000 1 260 11:19 22.10.2019
5760 Clouds 15 1024 82 10000 2.6 280 10:55 22.10.2019
5761 Clouds 14 1024 82 10000 2.6 280 10:37 22.10.2019
5762 Clouds 14 1023 87 0 1 0 10:18 22.10.2019
5763 Clouds 13 1023 93 10000 1 0 09:54 22.10.2019
5764 Clear 12 1023 93 10000 1 0 09:36 22.10.2019
5765 Clouds 11 1023 100 10000 0.5 0 09:18 22.10.2019
5766 Fog 11 1023 100 10000 0.5 130 08:42 22.10.2019
5767 Fog 10 1023 100 7000 1.55 275 08:20 22.10.2019
5768 Fog 10 1022 100 10000 1 0 07:45 22.10.2019
5769 Fog 10 1022 100 10000 1.5 280 07:26 22.10.2019
5770 Fog 10 1022 100 10000 1 0 06:48 22.10.2019
5771 Fog 10 1021 100 9000 1 0 06:30 22.10.2019
5772 Mist 10 1022 100 6000 0.5 290 05:50 22.10.2019
5773 Mist 10 1022 100 6000 0.5 290 05:50 22.10.2019
5774 Mist 10 1022 100 2500 1 280 05:19 22.10.2019
5775 Mist 12 1021 100 3500 1 280 02:33 22.10.2019
5776 Mist 11 1021 100 5000 0.5 230 01:51 22.10.2019
5777 Mist 12 1021 100 5000 0.5 230 01:26 22.10.2019
5778 Fog 12 1021 100 10000 1 0 00:57 22.10.2019
5779 Fog 13 1021 100 10000 1 0 00:39 22.10.2019
5780 Clouds 13 1021 100 10000 0.5 120 00:20 22.10.2019
5781 Clouds 14 1020 93 10000 0.5 0 23:54 21.10.2019
5782 Clouds 14 1020 93 10000 0.5 0 23:36 21.10.2019
5783 Clouds 14 1020 87 10000 1 0 23:18 21.10.2019
5784 Clouds 14 1020 87 10000 1 0 22:54 21.10.2019
5785 Clouds 14 1020 87 10000 1 0 22:54 21.10.2019
5786 Clouds 14 1020 87 10000 1 0 22:36 21.10.2019
5787 Clouds 14 1020 87 10000 1 0 22:18 21.10.2019
5788 Clouds 14 1020 87 10000 2.1 190 21:41 21.10.2019
5789 Clouds 14 1020 87 10000 1 0 21:23 21.10.2019
5790 Clouds 14 1020 87 10000 2.1 200 20:59 21.10.2019
5791 Clouds 15 1020 87 10000 2.1 200 20:41 21.10.2019
5792 Clouds 15 1020 87 10000 1 0 20:21 21.10.2019
5793 Clouds 15 1019 82 10000 2.1 180 19:59 21.10.2019
5794 Clouds 15 1019 82 10000 2.1 180 19:41 21.10.2019
5795 Clouds 15 1019 82 10000 1.5 200 19:22 21.10.2019
5796 Clouds 16 1019 77 10000 1.5 210 18:56 21.10.2019
5797 Clouds 16 1019 77 10000 1.5 210 18:38 21.10.2019
5798 Clouds 16 1018 77 10000 2.1 230 18:19 21.10.2019
5799 Clouds 17 1019 72 10000 2.6 210 17:57 21.10.2019
5800 Clouds 17 1019 72 10000 2.6 210 17:38 21.10.2019
5801 Clouds 17 1018 72 10000 0.5 0 17:19 21.10.2019
5802 Clouds 18 1018 68 10000 0.5 0 16:57 21.10.2019
5803 Clouds 18 1018 68 10000 0.5 0 16:39 21.10.2019
5804 Clouds 18 1018 72 10000 2.6 250 16:20 21.10.2019
5805 Clouds 18 1018 72 10000 1.5 250 15:47 21.10.2019
5806 Clouds 18 1018 72 10000 1.5 250 15:27 21.10.2019
5807 Clouds 18 1018 72 10000 2.1 260 14:58 21.10.2019
5808 Clouds 18 1018 77 10000 1 0 14:39 21.10.2019
5809 Clouds 18 1018 77 10000 1.5 270 14:21 21.10.2019
5810 Clouds 17 1018 77 10000 1.5 280 13:57 21.10.2019
5811 Clouds 17 1018 77 10000 1.5 280 13:39 21.10.2019
5812 Clouds 17 1018 82 10000 1.5 260 13:19 21.10.2019
5813 Clouds 16 1018 82 10000 2.6 260 12:42 21.10.2019
5814 Clear 16 1017 82 10000 2.1 230 12:23 21.10.2019
5815 Clear 16 1017 82 10000 2.1 230 12:23 21.10.2019
5816 Clear 15 1017 82 10000 2.1 230 11:58 21.10.2019
5817 Clear 15 1017 82 10000 1.5 150 11:39 21.10.2019
5818 Clear 14 1016 87 10000 1.5 170 11:21 21.10.2019
5819 Clear 14 1016 87 10000 1.5 270 10:57 21.10.2019
5820 Clear 14 1016 87 10000 1.5 170 10:57 21.10.2019
5821 Clear 14 1016 87 10000 1.5 270 10:38 21.10.2019
5822 Clear 13 1016 87 10000 2.1 190 10:19 21.10.2019
5823 Clear 13 1016 87 10000 2.1 190 10:19 21.10.2019
5824 Clear 13 1016 87 10000 2.1 190 09:54 21.10.2019
5825 Clear 13 1015 93 10000 1.5 100 09:36 21.10.2019
5826 Clear 12 1015 93 10000 0.5 0 09:18 21.10.2019
5827 Clear 11 1015 100 10000 0.5 0 08:40 21.10.2019
5828 Clear 10 1014 93 10000 2.1 60 08:22 21.10.2019
5829 Fog 10 1014 93 10000 1 0 07:45 21.10.2019
5830 Fog 11 1014 93 10000 0.5 0 07:23 21.10.2019
5831 Clear 11 1013 93 10000 0.5 0 06:59 21.10.2019
5832 Clear 11 1013 93 10000 0.5 0 06:41 21.10.2019
5833 Clear 12 1014 93 10000 0.5 0 06:18 21.10.2019
5834 Clear 12 1012 87 10000 2.6 120 05:22 21.10.2019
5835 Clear 13 1012 87 10000 1.5 90 03:40 21.10.2019
5836 Clear 13 1012 87 10000 1 120 02:39 21.10.2019
5837 Clear 13 1012 87 10000 1.5 90 02:20 21.10.2019
5838 Clear 13 1012 87 10000 1.5 100 01:45 21.10.2019
5839 Clear 12 1012 93 10000 1.5 70 00:54 21.10.2019
5840 Clear 12 1012 87 10000 1.5 50 00:28 21.10.2019
5841 Clear 13 1012 87 10000 1.5 50 23:58 20.10.2019
5842 Clear 13 1012 87 10000 1.5 70 23:39 20.10.2019
5843 Clear 13 1012 87 10000 2.6 70 23:21 20.10.2019
5844 Clear 14 1012 87 10000 2.6 70 22:54 20.10.2019
5845 Clear 14 1011 87 10000 2.1 70 22:36 20.10.2019
5846 Clear 14 1011 87 10000 2.1 80 22:18 20.10.2019
5847 Clear 15 1011 82 10000 2.1 70 21:40 20.10.2019
5848 Clear 15 1011 82 10000 2.6 80 21:22 20.10.2019
5849 Clear 15 1011 82 10000 2.6 80 20:57 20.10.2019
5850 Clear 15 1011 77 10000 2.1 70 20:39 20.10.2019
5851 Clear 15 1011 77 10000 1.5 70 20:18 20.10.2019
5852 Clear 15 1011 77 10000 1.5 70 20:18 20.10.2019
5853 Clear 15 1011 77 10000 1.5 70 19:55 20.10.2019
5854 Clear 15 1011 82 10000 0.5 60 19:37 20.10.2019
5855 Clear 16 1011 82 10000 0.5 50 19:19 20.10.2019
5856 Clear 17 1011 77 10000 1 0 18:41 20.10.2019
5857 Clear 17 1011 68 10000 1 0 18:22 20.10.2019
5858 Clear 18 1011 68 10000 1 0 17:58 20.10.2019
5859 Clear 19 1010 63 10000 1.5 130 17:39 20.10.2019
5860 Clear 18 1010 63 10000 1.5 130 17:39 20.10.2019
5861 Clear 19 1011 60 10000 2.1 160 17:21 20.10.2019
5862 Clear 20 1011 60 10000 2.1 190 16:55 20.10.2019
5863 Clear 20 1011 60 10000 2.1 190 16:37 20.10.2019
5864 Clear 20 1010 60 10000 2.1 200 16:18 20.10.2019
5865 Clear 20 1010 60 10000 2.1 170 15:54 20.10.2019
5866 Clear 20 1010 60 10000 2.1 170 15:36 20.10.2019
5867 Clear 20 1010 63 10000 1.5 170 15:18 20.10.2019
5868 Clouds 20 1010 63 10000 2.1 190 14:39 20.10.2019
5869 Clouds 20 1010 59 10000 1.5 120 14:21 20.10.2019
5870 Clouds 20 1010 59 10000 2.1 130 13:56 20.10.2019
5871 Clouds 20 1010 59 10000 2.1 130 13:37 20.10.2019
5872 Clouds 20 1010 59 10000 2.1 130 13:37 20.10.2019
5873 Clouds 20 1011 60 10000 1.5 0 13:19 20.10.2019
5874 Clouds 20 1011 60 10000 1.5 0 12:58 20.10.2019
5875 Clouds 19 1010 59 10000 1.5 0 12:39 20.10.2019
5876 Clear 19 1010 63 10000 1 0 12:21 20.10.2019
5877 Clear 18 1010 63 10000 1 0 11:59 20.10.2019
5878 Clear 17 1010 72 10000 2.1 150 11:40 20.10.2019
5879 Clear 16 1011 77 10000 1.5 170 11:22 20.10.2019
5880 Clear 16 1011 77 10000 1.5 170 10:58 20.10.2019
5881 Clear 14 1011 76 10000 1 0 10:39 20.10.2019
5882 Clear 14 1011 76 10000 1 0 10:39 20.10.2019
5883 Clear 14 1010 76 10000 2.6 160 10:21 20.10.2019
5884 Clear 14 1010 76 10000 2.6 160 10:21 20.10.2019
5885 Clear 13 1010 82 10000 2.1 120 09:56 20.10.2019
5886 Clear 13 1010 82 10000 2.1 120 09:37 20.10.2019
5887 Clouds 12 1010 82 10000 2.1 150 09:19 20.10.2019
5888 Clouds 12 1010 82 10000 2.6 160 08:40 20.10.2019
5889 Clouds 12 1010 82 10000 1.5 160 08:21 20.10.2019
5890 Clear 12 1010 82 10000 2.6 160 07:48 20.10.2019
5891 Clear 12 1010 82 10000 2.6 160 07:28 20.10.2019
5892 Clear 11 1009 82 10000 2.1 160 06:31 20.10.2019
5893 Clear 11 1009 81 10000 1.5 150 04:34 20.10.2019
5894 Clear 12 1009 81 10000 2.6 190 03:53 20.10.2019
5895 Clear 12 1009 81 10000 2.6 170 03:23 20.10.2019
5896 Clear 12 1009 81 10000 2.6 170 02:56 20.10.2019
5897 Clear 12 1009 82 10000 2.6 180 02:28 20.10.2019
5898 Clear 12 1009 82 10000 3.1 190 01:54 20.10.2019
5899 Clear 12 1009 82 10000 2.1 170 01:23 20.10.2019
5900 Clear 12 1009 82 10000 2.6 160 00:53 20.10.2019
5901 Clear 12 1009 87 10000 2.1 140 00:21 20.10.2019
5902 Clear 12 1009 87 10000 2.6 150 23:55 19.10.2019
5903 Clear 12 1009 87 10000 2.6 150 23:37 19.10.2019
5904 Clear 12 1009 87 10000 3.6 150 23:19 19.10.2019
5905 Clear 12 1009 87 10000 3.6 140 22:55 19.10.2019
5906 Clear 12 1009 87 10000 3.6 140 22:37 19.10.2019
5907 Clear 12 1009 93 10000 3.1 140 22:18 19.10.2019
5908 Clear 12 1009 87 10000 3.6 140 21:43 19.10.2019
5909 Clear 12 1009 87 10000 3.6 150 21:20 19.10.2019
5910 Clear 12 1009 87 10000 4.1 150 20:44 19.10.2019
5911 Clear 12 1009 87 10000 4.6 140 20:22 19.10.2019
5912 Clear 13 1009 87 10000 4.6 140 19:56 19.10.2019
5913 Clear 13 1009 82 10000 3.6 140 19:38 19.10.2019
5914 Clear 13 1009 82 10000 4.1 150 19:20 19.10.2019
5915 Clear 13 1009 82 10000 4.6 150 18:41 19.10.2019
5916 Clear 13 1009 82 10000 4.6 150 18:41 19.10.2019
5917 Clear 14 1009 77 10000 3.6 140 18:23 19.10.2019
5918 Clouds 14 1009 82 10000 4.1 160 17:55 19.10.2019
5919 Clouds 14 1009 82 10000 4.1 160 17:55 19.10.2019
5920 Clouds 15 1009 82 10000 4.1 160 17:36 19.10.2019
5921 Clear 15 1008 72 10000 5.1 160 17:18 19.10.2019
5922 Clear 16 1009 72 10000 4.6 170 16:39 19.10.2019
5923 Clear 16 1009 72 10000 4.6 180 16:20 19.10.2019
5924 Rain 16 1009 72 10000 5.1 180 15:44 19.10.2019
5925 Rain 16 1009 72 10000 5.1 180 15:44 19.10.2019
5926 Rain 16 1009 72 10000 5.1 180 15:44 19.10.2019
5927 Rain 16 1009 72 10000 5.1 180 15:26 19.10.2019
5928 Rain 16 1009 72 10000 4.6 180 14:55 19.10.2019
5929 Clear 16 1010 72 10000 4.1 190 14:37 19.10.2019
5930 Clear 16 1010 72 10000 4.1 180 14:19 19.10.2019
5931 Clear 15 1010 77 10000 3.6 160 13:54 19.10.2019
5932 Clear 15 1010 77 10000 3.6 160 13:36 19.10.2019
5933 Clouds 15 1010 72 10000 3.1 170 13:18 19.10.2019
5934 Clouds 15 1010 76 10000 3.6 170 12:39 19.10.2019
5935 Clouds 15 1010 76 10000 5.1 180 12:21 19.10.2019
5936 Clouds 14 1010 76 10000 5.1 180 11:57 19.10.2019
5937 Clear 14 1010 72 10000 3.1 160 11:39 19.10.2019
5938 Clear 13 1010 76 10000 3.1 150 11:21 19.10.2019
5939 Clear 12 1011 81 10000 3.1 160 10:41 19.10.2019
5940 Clear 11 1011 81 10000 3.1 160 10:23 19.10.2019
5941 Clear 11 1011 81 10000 2.6 160 09:59 19.10.2019
5942 Clear 11 1011 81 10000 2.6 160 09:59 19.10.2019
5943 Clear 11 1011 81 10000 3.6 160 09:40 19.10.2019
5944 Clear 10 1011 81 10000 3.6 160 09:22 19.10.2019
5945 Clear 10 1011 81 10000 3.1 170 08:56 19.10.2019
5946 Clear 10 1011 81 10000 3.1 170 08:56 19.10.2019
5947 Clear 10 1011 87 10000 3.1 160 08:37 19.10.2019
5948 Clear 10 1011 87 10000 3.1 160 08:19 19.10.2019
5949 Clear 9 1011 81 10000 3.1 150 07:41 19.10.2019
5950 Clear 9 1011 81 10000 3.1 150 07:23 19.10.2019
5951 Clear 9 1011 81 10000 2.6 140 06:39 19.10.2019
5952 Clear 9 1011 81 10000 3.1 170 05:54 19.10.2019
5953 Clear 9 1011 81 10000 2.6 180 05:26 19.10.2019
5954 Clear 9 1011 93 10000 1 0 03:22 19.10.2019
5955 Clear 9 1011 87 10000 1.5 180 02:35 19.10.2019
5956 Clear 10 1011 87 10000 2.1 200 01:50 19.10.2019
5957 Clear 10 1011 81 10000 2.6 200 01:18 19.10.2019
5958 Clear 10 1011 87 10000 2.1 170 00:45 19.10.2019
5959 Clear 10 1010 81 10000 2.6 240 00:22 19.10.2019
5960 Clear 11 1010 81 10000 2.6 250 23:41 18.10.2019
5961 Clouds 12 1010 76 10000 1.5 250 23:23 18.10.2019
5962 Clouds 12 1010 81 10000 3.1 260 22:55 18.10.2019
5963 Clouds 12 1010 81 10000 3.1 260 22:37 18.10.2019
5964 Clouds 13 1010 81 10000 4.6 260 22:19 18.10.2019
5965 Clear 13 1009 87 10000 4.1 260 21:57 18.10.2019
5966 Clear 14 1009 87 10000 4.1 260 21:38 18.10.2019
5967 Rain 14 1009 87 10000 5.1 240 21:19 18.10.2019
5968 Rain 14 1008 82 10000 5.1 230 20:56 18.10.2019
5969 Rain 15 1008 82 10000 5.1 230 20:38 18.10.2019
5970 Rain 15 1008 87 10000 5.7 230 20:19 18.10.2019
5971 Rain 16 1008 87 10000 5.7 230 19:55 18.10.2019
5972 Rain 16 1008 87 6000 10.3 240 19:37 18.10.2019
5973 Rain 17 1007 68 10000 4.1 190 19:19 18.10.2019
5974 Clear 17 1007 72 10000 5.1 190 18:42 18.10.2019
5975 Clear 18 1007 68 10000 4.6 180 18:24 18.10.2019
5976 Clear 18 1007 68 10000 4.6 180 18:24 18.10.2019
5977 Clear 18 1007 68 10000 4.6 180 18:24 18.10.2019
5978 Clear 18 1007 68 10000 6.2 190 17:59 18.10.2019
5979 Clear 18 1007 68 10000 6.2 190 17:38 18.10.2019
5980 Clear 18 1007 68 10000 4.1 180 17:20 18.10.2019
5981 Clear 18 1007 68 10000 4.1 180 17:20 18.10.2019
5982 Clear 19 1007 68 10000 5.1 180 16:56 18.10.2019
5983 Clear 19 1007 68 10000 5.1 180 16:37 18.10.2019
5984 Clear 19 1008 63 10000 6.2 190 16:19 18.10.2019
5985 Clouds 19 1008 63 10000 6.7 190 15:40 18.10.2019
5986 Clouds 19 1008 63 10000 5.1 190 15:21 18.10.2019
5987 Clouds 19 1008 63 10000 5.1 190 15:21 18.10.2019
5988 Clouds 19 1008 63 10000 5.1 190 14:59 18.10.2019
5989 Clouds 19 1008 63 10000 6.2 200 14:40 18.10.2019
5990 Clouds 19 1009 63 10000 5.7 190 14:22 18.10.2019
5991 Clouds 19 1009 63 10000 5.7 190 13:59 18.10.2019
5992 Clouds 19 1009 63 10000 4.6 190 13:41 18.10.2019
5993 Clouds 19 1009 63 10000 5.7 210 13:23 18.10.2019
5994 Clouds 19 1010 68 10000 6.2 220 12:56 18.10.2019
5995 Clouds 18 1010 68 10000 6.2 220 12:38 18.10.2019
5996 Clouds 18 1010 68 10000 6.2 220 12:20 18.10.2019
5997 -273 0 0 0 0 0 11:56 18.10.2019
5998 Clouds 17 1010 77 10000 5.1 200 11:38 18.10.2019
5999 Clouds 17 1010 82 10000 4.1 200 11:19 18.10.2019
6000 Clouds 16 1011 82 10000 3.6 200 10:55 18.10.2019
6001 Rain 16 1011 82 10000 3.6 200 10:55 18.10.2019
6002 Clouds 16 1011 82 10000 3.6 200 10:37 18.10.2019
6003 Clouds 15 1011 82 10000 3.6 200 10:18 18.10.2019
6004 Clouds 14 1011 87 10000 3.6 190 09:55 18.10.2019
6005 Clouds 14 1011 87 10000 3.6 190 09:36 18.10.2019
6006 Clouds 13 1011 93 10000 2.1 190 09:18 18.10.2019
6007 Clouds 12 1011 87 10000 2.1 180 08:42 18.10.2019
6008 Clouds 12 1011 87 10000 2.1 180 08:23 18.10.2019
6009 Clouds 12 1011 87 10000 3.6 190 07:44 18.10.2019
6010 Clouds 12 1011 93 10000 3.1 190 07:26 18.10.2019
6011 Clouds 12 1011 93 10000 3.1 180 06:41 18.10.2019
6012 Clear 12 1011 93 10000 2.6 160 06:22 18.10.2019
6013 Clear 12 1011 93 10000 2.6 160 05:59 18.10.2019
6014 Drizzle 13 1011 93 10000 3.6 180 05:24 18.10.2019
6015 Rain 13 1011 93 10000 2.6 150 04:49 18.10.2019
6016 Rain 13 1011 93 10000 2.6 170 03:34 18.10.2019
6017 Clouds 13 1012 82 10000 2.6 180 02:50 18.10.2019
6018 Clouds 13 1012 82 10000 2.6 180 02:32 18.10.2019
6019 Clouds 12 1012 82 10000 3.1 140 01:38 18.10.2019
6020 Clear 12 1012 82 10000 2.6 170 00:56 18.10.2019
6021 Clear 12 1012 82 10000 3.1 180 00:38 18.10.2019
6022 Clear 13 1013 82 10000 2.6 170 00:18 18.10.2019
6023 Clear 13 1013 82 10000 2.1 180 23:38 17.10.2019
6024 Clouds 14 1013 77 10000 2.6 170 23:19 17.10.2019
6025 Clouds 14 1013 77 10000 2.6 190 22:56 17.10.2019
6026 Clouds 14 1013 77 10000 2.6 190 22:56 17.10.2019
6027 Clouds 14 1013 77 10000 2.6 190 22:38 17.10.2019
6028 Clouds 15 1013 77 10000 3.1 190 22:19 17.10.2019
6029 Clouds 15 1013 77 10000 3.1 180 21:56 17.10.2019
6030 Clouds 15 1013 77 10000 3.1 180 21:38 17.10.2019
6031 Clouds 15 1013 77 10000 2.6 200 21:20 17.10.2019
6032 Rain 15 1013 77 10000 2.6 200 20:57 17.10.2019
6033 Rain 16 1013 72 10000 2.6 180 20:39 17.10.2019
6034 Clouds 16 1013 72 10000 2.6 190 20:19 17.10.2019
6035 Rain 16 1013 72 10000 2.6 190 20:19 17.10.2019
6036 Clouds 16 1013 72 10000 2.6 180 19:57 17.10.2019
6037 Clouds 16 1013 72 10000 2.6 180 19:39 17.10.2019
6038 Clouds 16 1013 72 10000 3.1 190 19:19 17.10.2019
6039 Clouds 16 1013 72 10000 3.1 190 19:19 17.10.2019
6040 Clouds 16 1013 72 10000 2.6 190 18:43 17.10.2019
6041 Clouds 16 1013 67 10000 2.6 200 18:21 17.10.2019
6042 Clouds 16 1013 67 10000 2.6 200 18:00 17.10.2019
6043 Clouds 17 1013 72 10000 2.6 200 17:41 17.10.2019
6044 Clouds 17 1012 67 10000 3.1 200 17:23 17.10.2019
6045 Clouds 17 1012 67 10000 4.1 220 16:56 17.10.2019
6046 Clouds 17 1012 67 10000 4.1 220 16:37 17.10.2019
6047 Clouds 18 1012 67 10000 4.6 220 16:18 17.10.2019
6048 Clouds 18 1012 67 10000 4.6 200 15:55 17.10.2019
6049 Clouds 18 1012 67 10000 4.6 200 15:37 17.10.2019
6050 Clouds 18 1012 67 10000 4.1 210 15:19 17.10.2019
6051 Clouds 17 1012 67 10000 5.7 220 14:42 17.10.2019
6052 Clouds 17 1012 67 10000 5.7 220 14:24 17.10.2019
6053 Clouds 17 1012 67 10000 5.7 220 13:57 17.10.2019
6054 Rain 17 1012 67 10000 5.7 220 13:39 17.10.2019
6055 Rain 17 1012 67 10000 6.2 210 13:19 17.10.2019
6056 Rain 17 1012 67 10000 4.6 200 12:41 17.10.2019
6057 Rain 16 1012 67 10000 4.6 190 12:21 17.10.2019
6058 Rain 16 1012 67 10000 4.6 190 11:59 17.10.2019
6059 Rain 15 1012 72 10000 4.1 200 11:41 17.10.2019
6060 Rain 15 1012 72 10000 4.1 200 11:41 17.10.2019
6061 Rain 15 1012 72 10000 4.1 200 11:41 17.10.2019
6062 Rain 15 1012 72 10000 4.1 200 11:41 17.10.2019
6063 Clouds 15 1012 67 10000 5.1 190 11:20 17.10.2019
6064 Clouds 15 1012 67 10000 5.7 200 10:57 17.10.2019
6065 Clouds 15 1012 67 10000 5.7 200 10:39 17.10.2019
6066 Clouds 15 1012 67 10000 5.1 200 10:19 17.10.2019
6067 Clouds 14 1012 71 10000 5.1 190 09:55 17.10.2019
6068 Clouds 14 1012 71 10000 5.1 190 09:55 17.10.2019
6069 Clouds 14 1012 71 10000 5.1 190 09:36 17.10.2019
6070 Clouds 13 1011 71 10000 4.6 180 09:18 17.10.2019
6071 Clouds 13 1011 71 10000 4.6 180 09:18 17.10.2019
6072 Clouds 13 1011 82 10000 4.6 180 08:46 17.10.2019
6073 Clouds 13 1011 82 10000 4.6 190 08:26 17.10.2019
6074 Clouds 12 1011 82 10000 4.6 190 07:58 17.10.2019
6075 Clouds 12 1011 82 10000 3.6 190 07:40 17.10.2019
6076 Clouds 12 1011 82 10000 3.1 190 07:20 17.10.2019
6077 Clouds 12 1011 87 10000 2.6 190 06:42 17.10.2019
6078 Clouds 12 1011 87 10000 2.6 190 06:42 17.10.2019
6079 Clouds 12 1011 87 10000 2.1 190 06:23 17.10.2019
6080 Clouds 12 1011 87 10000 2.1 190 05:58 17.10.2019
6081 Clouds 12 1011 87 10000 2.1 200 05:35 17.10.2019
6082 Clouds 12 1011 87 10000 2.6 190 04:57 17.10.2019
6083 Clouds 12 1011 87 10000 3.1 190 04:31 17.10.2019
6084 Clouds 12 1011 93 10000 2.6 190 03:45 17.10.2019
6085 Clouds 11 1011 87 10000 2.6 200 01:56 17.10.2019
6086 Clouds 11 1011 87 10000 2.6 200 01:56 17.10.2019
6087 Clouds 11 1011 93 10000 3.6 200 00:42 17.10.2019
6088 Clouds 11 1011 93 10000 2.1 200 00:20 17.10.2019
6089 Clear 10 1011 93 10000 2.6 190 23:58 16.10.2019
6090 Clear 10 1011 93 10000 2.6 190 23:39 16.10.2019
6091 Clear 10 1011 87 10000 3.1 200 23:18 16.10.2019
6092 Clear 10 1011 93 10000 3.6 220 22:54 16.10.2019
6093 Clear 10 1011 93 10000 3.6 220 22:36 16.10.2019
6094 Clear 10 1011 93 10000 4.1 220 22:18 16.10.2019
6095 Clear 11 1011 87 10000 4.1 220 21:54 16.10.2019
6096 Clear 11 1011 87 10000 4.1 220 21:36 16.10.2019
6097 Rain 11 1011 93 10000 3.6 210 21:18 16.10.2019
6098 Rain 11 1011 93 10000 3.6 210 20:54 16.10.2019
6099 Rain 11 1011 93 10000 3.6 210 20:36 16.10.2019
6100 Clouds 11 1011 93 10000 2.6 210 20:18 16.10.2019
6101 Clouds 12 1011 93 10000 3.1 210 19:40 16.10.2019
6102 Clouds 12 1010 93 10000 4.1 220 19:21 16.10.2019
6103 Clouds 12 1010 93 10000 4.1 220 18:57 16.10.2019
6104 Clouds 12 1010 93 10000 4.1 220 18:57 16.10.2019
6105 Clouds 12 1010 93 10000 4.1 220 18:56 16.10.2019
6106 Rain 12 1010 93 10000 4.6 220 18:37 16.10.2019
6107 Rain 12 1010 93 10000 4.6 220 18:18 16.10.2019
6108 Rain 12 1010 93 10000 5.7 230 17:55 16.10.2019
6109 Rain 12 1010 93 10000 5.7 230 17:36 16.10.2019
6110 Rain 12 1010 93 10000 6.2 230 17:18 16.10.2019
6111 Rain 12 1010 93 10000 7.2 230 16:55 16.10.2019
6112 Rain 12 1010 93 10000 7.2 230 16:37 16.10.2019
6113 Rain 12 1010 93 10000 7.2 240 16:18 16.10.2019
6114 Rain 12 1009 93 10000 8.7 230 15:40 16.10.2019
6115 Rain 12 1009 93 10000 8.7 230 15:40 16.10.2019
6116 Drizzle 12 1009 93 10000 7.7 230 15:19 16.10.2019
6117 Drizzle 12 1009 93 10000 7.7 230 14:58 16.10.2019
6118 Drizzle 12 1009 93 10000 7.7 230 14:40 16.10.2019
6119 -273 0 0 0 0 0 14:21 16.10.2019
6120 Drizzle 12 1009 93 7000 9.8 250 13:58 16.10.2019
6121 Drizzle 12 1009 93 7000 9.8 250 13:40 16.10.2019
6122 Drizzle 12 1008 93 6000 8.2 250 13:22 16.10.2019
6123 Drizzle 12 1008 93 10000 9.8 250 12:44 16.10.2019
6124 Drizzle 13 1008 93 10000 10.3 240 12:20 16.10.2019
6125 Drizzle 13 1008 93 10000 10.3 240 11:58 16.10.2019
6126 Rain 13 1007 93 6000 8.2 240 11:40 16.10.2019
6127 Clouds 14 1007 93 10000 8.2 250 11:18 16.10.2019
6128 Rain 14 1006 93 10000 7.2 250 10:37 16.10.2019
6129 Rain 14 1006 93 10000 7.7 250 10:19 16.10.2019
6130 Rain 14 1006 93 10000 6.7 250 09:41 16.10.2019
6131 Drizzle 14 1005 93 10000 6.2 260 09:22 16.10.2019
6132 Drizzle 14 1005 93 10000 6.2 260 08:58 16.10.2019
6133 Rain 14 1005 100 10000 6.2 260 08:40 16.10.2019
6134 Clouds 13 1005 93 7000 6.2 250 08:22 16.10.2019
6135 Mist 13 1004 100 4600 4.6 260 07:45 16.10.2019
6136 Mist 12 1004 100 4600 4.6 260 07:24 16.10.2019
6137 Mist 12 1004 100 4000 3.1 250 06:57 16.10.2019
6138 Mist 12 1004 100 4000 3.1 250 06:57 16.10.2019
6139 Mist 12 1004 100 4500 2.1 210 06:35 16.10.2019
6140 Fog 11 1003 93 6000 1.5 130 05:44 16.10.2019
6141 Fog 11 1004 93 10000 1 0 02:58 16.10.2019
6142 Fog 11 1004 93 10000 0.5 0 02:38 16.10.2019
6143 Fog 12 1004 93 10000 1 0 01:19 16.10.2019
6144 Fog 12 1004 93 10000 1 50 00:47 16.10.2019
6145 Fog 12 1004 100 10000 1 90 00:27 16.10.2019
6146 Fog 12 1004 100 10000 1.5 90 23:41 15.10.2019
6147 Clouds 13 1005 93 10000 1 60 23:22 15.10.2019
6148 Clouds 13 1005 93 10000 1 60 23:22 15.10.2019
6149 Clouds 13 1005 87 10000 1 0 22:56 15.10.2019
6150 Clouds 13 1005 87 10000 1 0 22:38 15.10.2019
6151 Clouds 14 1005 93 10000 1 0 22:20 15.10.2019
6152 Clouds 14 1005 93 10000 1 0 21:56 15.10.2019
6153 Clouds 14 1005 93 10000 1 0 21:38 15.10.2019
6154 Clouds 15 1005 93 10000 1 60 21:20 15.10.2019
6155 Clouds 15 1005 93 10000 1 60 20:57 15.10.2019
6156 Clouds 15 1005 93 10000 1 0 20:39 15.10.2019
6157 Clouds 15 1005 93 10000 1 0 20:39 15.10.2019
6158 Clouds 15 1006 87 10000 0.5 0 20:20 15.10.2019
6159 Clouds 16 1005 82 10000 1.5 70 19:58 15.10.2019
6160 Clouds 16 1005 82 10000 1.5 70 19:40 15.10.2019
6161 Clouds 17 1005 77 10000 2.1 100 19:20 15.10.2019
6162 Clouds 17 1005 77 10000 1.5 100 18:47 15.10.2019
6163 Clouds 18 1005 77 10000 1.5 100 18:29 15.10.2019
6164 Clear 19 1005 72 10000 1.5 140 17:59 15.10.2019
6165 Clear 20 1005 68 10000 2.6 130 17:40 15.10.2019
6166 Clear 21 1005 64 10000 2.6 130 17:20 15.10.2019
6167 Clear 21 1005 64 10000 2.6 130 16:57 15.10.2019
6168 Clear 21 1005 64 10000 2.6 130 16:38 15.10.2019
6169 Clear 22 1005 60 10000 2.6 120 16:20 15.10.2019
6170 Clear 22 1006 60 10000 2.1 170 15:43 15.10.2019
6171 Clear 22 1006 60 10000 2.1 170 15:43 15.10.2019
6172 Clouds 22 1006 64 10000 3.6 130 15:21 15.10.2019
6173 Clouds 21 1006 64 10000 3.6 130 14:59 15.10.2019
6174 Clouds 21 1006 64 10000 3.1 150 14:38 15.10.2019
6175 Clouds 21 1006 64 10000 3.6 130 14:20 15.10.2019
6176 Clouds 21 1006 64 10000 3.6 130 14:20 15.10.2019
6177 Clouds 21 1006 64 10000 3.6 130 13:58 15.10.2019
6178 Clouds 21 1006 64 10000 4.6 150 13:40 15.10.2019
6179 Clouds 21 1007 64 10000 4.1 130 13:19 15.10.2019
6180 Clouds 20 1007 68 10000 3.6 160 12:44 15.10.2019
6181 Clouds 20 1008 72 10000 3.6 160 12:22 15.10.2019
6182 Clouds 19 1007 77 10000 4.1 160 11:57 15.10.2019
6183 Clouds 18 1007 77 10000 4.1 160 11:38 15.10.2019
6184 Clouds 18 1008 72 10000 4.6 150 11:19 15.10.2019
6185 Clear 16 1008 77 10000 3.6 140 10:45 15.10.2019
6186 Clear 15 1008 82 10000 3.1 130 10:23 15.10.2019
6187 Clear 15 1008 82 10000 3.1 130 09:59 15.10.2019
6188 Clear 15 1008 82 10000 2.6 110 09:40 15.10.2019
6189 Clear 14 1009 87 10000 1.5 100 09:20 15.10.2019
6190 Clear 13 1009 87 10000 2.1 100 08:57 15.10.2019
6191 -273 0 0 0 0 0 08:57 15.10.2019
6192 Clear 13 1009 87 10000 2.1 100 08:37 15.10.2019
6193 Clear 12 1008 93 10000 3.6 110 08:18 15.10.2019
6194 Fog 12 1009 93 10000 2.6 110 07:43 15.10.2019
6195 Fog 12 1009 100 10000 2.6 100 07:22 15.10.2019
6196 Fog 12 1009 100 10000 2.1 110 06:55 15.10.2019
6197 Fog 12 1009 100 10000 2.1 110 06:37 15.10.2019
6198 Fog 12 1009 100 10000 1.5 80 05:56 15.10.2019
6199 Fog 12 1009 100 10000 2.1 80 05:36 15.10.2019
6200 Clear 12 1010 93 10000 2.1 60 04:48 15.10.2019
6201 Clear 13 1010 93 10000 1.5 70 03:59 15.10.2019
6202 Clear 13 1010 93 10000 1.5 60 03:34 15.10.2019
6203 Clear 13 1010 93 10000 1.5 60 03:34 15.10.2019
6204 Clear 14 1011 93 10000 1.5 60 01:51 15.10.2019
6205 Clear 15 1011 93 10000 1.5 70 01:31 15.10.2019
6206 Clear 15 1012 87 10000 2.1 80 00:59 15.10.2019
6207 Clear 15 1012 87 10000 2.1 70 00:25 15.10.2019
6208 Clear 16 1012 82 10000 2.6 80 23:57 14.10.2019
6209 Clear 16 1012 82 10000 2.6 80 23:37 14.10.2019
6210 Clear 16 1012 82 10000 2.6 80 23:37 14.10.2019
6211 Clear 16 1012 82 10000 3.1 90 23:18 14.10.2019
6212 Clear 17 1012 82 10000 2.6 80 22:39 14.10.2019
6213 Clear 17 1012 77 10000 3.1 90 22:20 14.10.2019
6214 Clear 17 1012 72 10000 3.1 80 21:58 14.10.2019
6215 Clear 17 1012 72 10000 3.1 80 21:39 14.10.2019
6216 Clear 17 1013 77 10000 3.1 90 21:21 14.10.2019
6217 Clear 18 1013 72 10000 3.1 80 20:57 14.10.2019
6218 Clear 18 1013 72 10000 3.1 80 20:38 14.10.2019
6219 Clear 18 1013 72 10000 3.1 80 20:38 14.10.2019
6220 Clear 17 1013 72 10000 2.6 80 20:19 14.10.2019
6221 Clear 18 1013 72 10000 2.1 70 19:54 14.10.2019
6222 Clouds 18 1013 72 10000 2.1 70 19:36 14.10.2019
6223 Clear 19 1014 68 10000 2.1 60 19:18 14.10.2019
6224 Clear 19 1014 64 10000 2.1 50 18:54 14.10.2019
6225 Clear 19 1014 64 10000 2.1 50 18:36 14.10.2019
6226 Clear 20 1014 68 10000 2.1 40 18:18 14.10.2019
6227 Clear 21 1014 64 10000 2.6 40 17:41 14.10.2019
6228 Clear 22 1014 60 10000 2.6 30 17:22 14.10.2019
6229 Clear 22 1014 60 10000 2.1 10 16:54 14.10.2019
6230 Clear 22 1014 60 10000 2.1 10 16:36 14.10.2019
6231 Clouds 22 1014 60 10000 1 0 16:18 14.10.2019
6232 Clouds 23 1015 60 10000 1.5 320 15:40 14.10.2019
6233 Clouds 23 1015 60 10000 1.5 300 15:21 14.10.2019
6234 Clouds 22 1015 60 10000 1.5 0 14:44 14.10.2019
6235 Clouds 22 1015 64 10000 2.6 290 14:25 14.10.2019
6236 Clouds 22 1015 64 10000 2.6 290 13:58 14.10.2019
6237 Clouds 22 1016 64 10000 1.5 340 13:40 14.10.2019
6238 Clouds 22 1016 68 10000 2.6 320 13:21 14.10.2019
6239 Clouds 22 1016 64 10000 3.6 270 12:42 14.10.2019
6240 Clouds 21 1016 68 10000 3.6 260 12:21 14.10.2019
6241 Clouds 21 1015 68 10000 4.1 250 11:57 14.10.2019
6242 Clouds 21 1015 68 10000 4.1 250 11:39 14.10.2019
6243 Clouds 20 1015 68 10000 4.1 260 11:20 14.10.2019
6244 Clouds 20 1015 68 10000 4.1 250 10:44 14.10.2019
6245 Clear 19 1015 72 10000 3.6 250 10:23 14.10.2019
6246 Clear 18 1014 72 10000 3.1 250 09:59 14.10.2019
6247 Clear 18 1014 72 10000 3.1 250 09:41 14.10.2019
6248 Clear 16 1014 82 10000 2.1 260 09:20 14.10.2019
6249 Clear 16 1014 82 10000 3.1 260 08:49 14.10.2019
6250 Clear 16 1013 82 10000 2.6 270 08:23 14.10.2019
6251 Clear 15 1013 82 10000 3.6 260 07:47 14.10.2019
6252 Clear 15 1013 77 10000 3.1 220 07:24 14.10.2019
6253 Clear 16 1012 77 10000 2.6 240 06:57 14.10.2019
6254 Clear 16 1012 77 10000 2.1 220 06:28 14.10.2019
6255 Clear 17 1012 68 10000 4.1 240 05:56 14.10.2019
6256 Clear 17 1012 68 10000 4.1 240 05:25 14.10.2019
6257 Clear 18 1011 72 10000 2.1 200 03:50 14.10.2019
6258 Clear 18 1011 72 10000 3.1 200 03:25 14.10.2019
6259 Clear 18 1011 72 10000 3.6 200 02:31 14.10.2019
6260 Clear 18 1011 72 10000 3.1 190 01:21 14.10.2019
6261 Clear 18 1011 68 10000 3.1 180 00:42 14.10.2019
6262 Clear 19 1011 72 10000 3.6 190 00:18 14.10.2019
6263 Clear 19 1011 68 10000 3.6 200 23:41 13.10.2019
6264 Clear 19 1010 68 10000 4.6 190 23:20 13.10.2019
6265 Clear 20 1010 72 10000 3.6 190 22:57 13.10.2019
6266 Clear 19 1010 72 10000 3.6 190 22:39 13.10.2019
6267 Clear 20 1010 72 10000 5.1 180 22:20 13.10.2019
6268 Clear 20 1010 68 10000 5.7 160 21:57 13.10.2019
6269 Clear 20 1010 68 10000 5.7 160 21:37 13.10.2019
6270 Clear 20 1010 68 10000 5.7 160 21:37 13.10.2019
6271 Clear 20 1010 68 10000 4.6 160 21:18 13.10.2019
6272 Clear 20 1010 68 10000 4.6 160 21:18 13.10.2019
6273 -273 0 0 0 0 0 20:57 13.10.2019
6274 Clear 20 1010 68 10000 4.1 170 20:38 13.10.2019
6275 Clear 20 1010 68 10000 4.6 170 20:19 13.10.2019
6276 Clear 21 1010 68 10000 4.6 170 19:57 13.10.2019
6277 -273 0 0 0 0 0 19:57 13.10.2019
6278 Clear 21 1010 68 10000 3.6 150 19:39 13.10.2019
6279 Clear 21 1011 68 10000 3.6 150 19:20 13.10.2019
6280 -273 0 0 0 0 0 18:55 13.10.2019
6281 -273 0 0 0 0 0 18:54 13.10.2019
6282 Rain 21 1011 68 10000 2.1 180 18:36 13.10.2019
6283 Rain 22 1011 68 10000 3.1 150 18:18 13.10.2019
6284 Rain 22 1011 64 10000 3.1 170 17:42 13.10.2019
6285 Rain 22 1011 64 10000 3.6 180 17:24 13.10.2019
6286 Clear 23 1012 64 10000 4.1 190 16:54 13.10.2019
6287 Clear 23 1012 64 10000 4.1 190 16:36 13.10.2019
6288 Clear 24 1011 60 10000 4.1 210 16:18 13.10.2019
6289 -273 0 0 0 0 0 15:54 13.10.2019
6290 Clear 24 1012 60 10000 3.1 210 15:36 13.10.2019
6291 Rain 24 1012 60 10000 5.1 230 15:18 13.10.2019
6292 Clear 24 1012 60 10000 4.6 200 14:40 13.10.2019
6293 Clear 24 1012 57 10000 5.1 190 14:22 13.10.2019
6294 Clear 24 1012 57 10000 5.1 190 13:59 13.10.2019
6295 Clear 23 1012 64 10000 4.6 220 13:39 13.10.2019
6296 Clear 23 1012 64 10000 4.6 220 13:39 13.10.2019
6297 Clear 23 1012 64 10000 4.6 210 13:21 13.10.2019
6298 Clear 23 1013 64 10000 5.1 220 12:57 13.10.2019
6299 Clear 22 1013 64 10000 5.1 220 12:38 13.10.2019
6300 Clear 22 1013 68 10000 5.1 220 12:19 13.10.2019
6301 Clear 21 1013 68 10000 4.6 210 11:58 13.10.2019
6302 Clear 20 1013 68 10000 4.6 210 11:38 13.10.2019
6303 Clear 20 1013 72 10000 3.6 190 11:19 13.10.2019
6304 Clear 18 1013 72 10000 3.1 200 10:42 13.10.2019
6305 Clear 18 1013 72 10000 2.6 190 10:23 13.10.2019
6306 Clear 17 1013 72 10000 2.6 190 09:58 13.10.2019
6307 Clear 16 1013 77 10000 2.6 200 09:39 13.10.2019
6308 Clear 15 1012 87 10000 2.6 200 09:20 13.10.2019
6309 Clear 15 1012 87 10000 2.6 200 09:20 13.10.2019
6310 Clear 15 1012 87 10000 2.6 180 08:43 13.10.2019
6311 Clear 14 1012 87 10000 2.1 180 08:23 13.10.2019
6312 Clear 14 1012 82 10000 2.1 200 07:51 13.10.2019
6313 Clear 14 1012 82 10000 2.1 200 07:32 13.10.2019
6314 Clear 14 1012 82 10000 2.1 190 06:51 13.10.2019
6315 Clear 14 1011 87 10000 1.5 180 06:23 13.10.2019
6316 Clear 14 1011 87 10000 1.5 180 06:23 13.10.2019
6317 Clear 15 1011 82 10000 2.1 190 05:19 13.10.2019
6318 Clear 16 1011 77 10000 2.1 200 04:34 13.10.2019
6319 Clear 16 1011 72 10000 3.6 210 02:53 13.10.2019
6320 Clear 16 1012 77 10000 3.1 220 02:27 13.10.2019
6321 Clear 16 1011 77 10000 3.1 220 01:36 13.10.2019
6322 Clear 15 1011 77 10000 2.6 200 00:55 13.10.2019
6323 Clear 15 1011 77 10000 2.6 200 00:37 13.10.2019
6324 Clear 15 1011 77 10000 2.1 180 00:18 13.10.2019
6325 Clear 15 1011 82 10000 1 0 23:41 12.10.2019
6326 Clear 15 1011 77 10000 2.1 200 23:22 12.10.2019
6327 Clear 14 1011 77 10000 2.6 190 22:58 12.10.2019
6328 Clear 14 1011 77 10000 2.6 190 22:40 12.10.2019
6329 Clear 14 1011 77 10000 1.5 190 22:22 12.10.2019
6330 Clear 14 1011 72 10000 2.6 190 21:58 12.10.2019
6331 Clear 14 1011 72 10000 2.6 190 21:40 12.10.2019
6332 Clear 14 1011 72 10000 2.1 210 21:21 12.10.2019
6333 Clear 14 1011 72 10000 2.6 200 20:54 12.10.2019
6334 Clear 14 1011 72 10000 2.6 200 20:54 12.10.2019
6335 Clear 14 1011 72 10000 2.6 200 20:54 12.10.2019
6336 Clear 15 1011 72 10000 2.6 200 20:36 12.10.2019
6337 Clear 15 1011 72 10000 3.1 200 20:18 12.10.2019
6338 Clear 16 1011 72 10000 2.6 210 19:36 12.10.2019
6339 Clouds 17 1011 67 10000 3.6 260 19:18 12.10.2019
6340 Clouds 18 1011 63 10000 4.6 260 18:43 12.10.2019
6341 Clouds 18 1011 63 10000 4.6 250 18:24 12.10.2019
6342 Clouds 19 1011 59 10000 4.6 250 17:46 12.10.2019
6343 Clouds 19 1011 59 10000 4.6 260 17:25 12.10.2019
6344 Clouds 19 1010 59 10000 4.6 260 16:59 12.10.2019
6345 Clouds 19 1010 59 10000 4.6 260 16:40 12.10.2019
6346 Clouds 19 1010 59 10000 4.6 260 16:40 12.10.2019
6347 Clouds 20 1010 59 10000 7.2 260 16:21 12.10.2019
6348 Clouds 20 1010 59 10000 7.2 260 15:57 12.10.2019
6349 Clouds 20 1010 59 10000 8.2 250 15:38 12.10.2019
6350 Clouds 20 1010 60 10000 6.7 230 15:18 12.10.2019
6351 Clouds 20 1010 59 10000 7.7 240 14:40 12.10.2019
6352 Clouds 20 1010 59 10000 8.2 240 14:20 12.10.2019
6353 Clouds 20 1010 59 10000 8.7 240 13:51 12.10.2019
6354 Clouds 20 1010 59 10000 8.7 240 13:32 12.10.2019
6355 Clouds 19 1010 59 10000 8.7 240 12:57 12.10.2019
6356 Clouds 20 1009 60 10000 8.2 220 12:38 12.10.2019
6357 Clouds 19 1009 59 10000 8.7 220 12:20 12.10.2019
6358 Clouds 19 1009 59 10000 7.7 220 11:47 12.10.2019
6359 Clouds 18 1009 63 10000 7.2 220 11:24 12.10.2019
6360 Clouds 18 1009 67 10000 8.7 220 10:59 12.10.2019
6361 Clouds 17 1009 67 10000 8.7 220 10:40 12.10.2019
6362 Clouds 17 1009 67 10000 7.7 220 10:21 12.10.2019
6363 Clouds 16 1008 72 10000 8.2 220 09:57 12.10.2019
6364 Clouds 16 1008 72 10000 8.2 220 09:57 12.10.2019
6365 Clouds 16 1008 72 10000 8.2 220 09:38 12.10.2019
6366 Clear 15 1008 72 10000 7.7 220 09:20 12.10.2019
6367 Clear 15 1008 72 10000 7.7 220 09:20 12.10.2019
6368 Clear 15 1008 77 10000 7.2 210 08:55 12.10.2019
6369 Clear 14 1008 77 10000 7.2 210 08:36 12.10.2019
6370 Clear 14 1008 77 10000 7.2 210 08:18 12.10.2019
6371 Clear 14 1008 77 10000 7.2 210 08:18 12.10.2019
6372 Clouds 14 1007 77 10000 6.2 210 07:32 12.10.2019
6373 Clouds 14 1008 77 10000 5.7 210 06:44 12.10.2019
6374 Clear 14 1008 77 10000 6.7 220 05:46 12.10.2019
6375 Clear 14 1008 77 10000 6.2 220 04:47 12.10.2019
6376 Clouds 15 1008 77 10000 6.2 220 03:57 12.10.2019
6377 Clouds 15 1008 77 10000 6.7 220 02:57 12.10.2019
6378 Clouds 15 1009 72 10000 6.2 220 01:36 12.10.2019
6379 Clouds 14 1009 77 10000 5.7 220 00:58 12.10.2019
6380 Clouds 14 1009 77 10000 5.7 220 00:39 12.10.2019
6381 Clear 14 1009 72 10000 6.2 210 23:57 11.10.2019
6382 Clear 14 1009 72 10000 6.2 210 23:38 11.10.2019
6383 Clear 14 1009 72 10000 6.7 220 23:19 11.10.2019
6384 Clear 14 1009 72 10000 7.2 220 22:40 11.10.2019
6385 Clear 14 1009 72 10000 7.2 210 22:21 11.10.2019
6386 Rain 14 1010 72 10000 6.7 220 21:56 11.10.2019
6387 Clear 14 1010 72 10000 6.2 210 21:38 11.10.2019
6388 Clear 14 1010 72 10000 6.2 210 21:19 11.10.2019
6389 Clear 14 1010 77 10000 6.2 210 20:44 11.10.2019
6390 Clear 14 1010 77 10000 6.2 210 20:25 11.10.2019
6391 Rain 14 1010 77 10000 6.2 210 19:56 11.10.2019
6392 Rain 14 1011 82 10000 5.7 210 19:38 11.10.2019
6393 Rain 14 1011 77 10000 6.2 210 19:18 11.10.2019
6394 Rain 14 1011 77 10000 6.7 220 18:58 11.10.2019
6395 Rain 14 1011 77 10000 6.7 220 18:38 11.10.2019
6396 Rain 15 1011 77 10000 7.2 220 18:19 11.10.2019
6397 Clear 15 1011 67 10000 7.2 210 17:58 11.10.2019
6398 Clear 15 1011 67 10000 7.2 210 17:38 11.10.2019
6399 Clear 16 1011 67 10000 7.2 210 17:19 11.10.2019
6400 Clear 16 1011 67 10000 7.7 220 16:56 11.10.2019
6401 Clear 16 1011 67 10000 7.7 220 16:37 11.10.2019
6402 Clear 16 1012 67 10000 6.2 220 16:19 11.10.2019
6403 Clear 16 1012 72 10000 6.2 220 15:41 11.10.2019
6404 Clear 16 1012 72 10000 6.2 220 15:41 11.10.2019
6405 Clear 16 1012 72 10000 6.2 220 15:41 11.10.2019
6406 Clear 15 1012 72 10000 7.7 220 15:20 11.10.2019
6407 Clouds 15 1013 72 10000 8.2 220 14:58 11.10.2019
6408 Clouds 15 1013 72 10000 8.2 220 14:58 11.10.2019
6409 Clouds 15 1012 67 10000 7.7 220 14:39 11.10.2019
6410 Clouds 15 1012 72 10000 7.2 220 14:20 11.10.2019
6411 Clouds 14 1012 72 10000 6.2 220 13:45 11.10.2019
6412 Clouds 14 1012 72 10000 6.2 220 13:45 11.10.2019
6413 Rain 14 1013 71 10000 7.2 220 13:25 11.10.2019
6414 Clouds 14 1013 71 10000 7.2 220 12:57 11.10.2019
6415 Clouds 14 1013 71 10000 7.2 220 12:39 11.10.2019
6416 Clouds 14 1013 71 10000 7.2 220 12:39 11.10.2019
6417 Clouds 13 1013 82 10000 6.2 220 12:20 11.10.2019
6418 Rain 13 1013 76 10000 7.7 220 11:58 11.10.2019
6419 Rain 13 1013 76 10000 7.7 220 11:38 11.10.2019
6420 Rain 13 1013 76 10000 8.2 220 11:20 11.10.2019
6421 Rain 13 1013 76 10000 8.2 220 10:55 11.10.2019
6422 Rain 13 1013 76 10000 8.2 220 10:55 11.10.2019
6423 Clear 13 1013 71 10000 7.7 220 10:36 11.10.2019
6424 Clear 13 1013 71 10000 7.7 210 10:18 11.10.2019
6425 Clear 12 1013 76 10000 7.2 200 09:42 11.10.2019
6426 Clear 12 1013 76 10000 5.7 210 09:21 11.10.2019
6427 Clear 11 1013 76 10000 4.6 200 08:59 11.10.2019
6428 Clear 11 1013 76 10000 4.6 200 08:39 11.10.2019
6429 Clear 11 1013 81 10000 4.6 200 08:20 11.10.2019
6430 Clear 11 1013 81 10000 4.6 200 07:54 11.10.2019
6431 Clear 11 1013 81 10000 4.6 200 07:34 11.10.2019
6432 Clear 10 1013 81 10000 4.1 200 06:50 11.10.2019
6433 Clear 10 1014 81 10000 4.6 210 06:25 11.10.2019
6434 Clear 10 1014 81 10000 5.1 220 05:48 11.10.2019
6435 Clear 10 1014 81 10000 5.1 220 05:30 11.10.2019
6436 Clouds 10 1014 76 10000 6.2 230 04:58 11.10.2019
6437 Clear 10 1014 81 10000 5.1 220 03:45 11.10.2019
6438 Clear 10 1014 87 10000 4.6 230 01:28 11.10.2019
6439 Clear 10 1014 87 10000 4.6 230 00:42 11.10.2019
6440 Clear 10 1014 87 10000 4.6 220 00:20 11.10.2019
6441 Clear 10 1014 87 10000 3.6 220 23:41 10.10.2019
6442 Clear 10 1014 87 10000 3.6 220 23:20 10.10.2019
6443 Clear 10 1014 87 10000 3.6 220 22:57 10.10.2019
6444 Clouds 10 1014 87 10000 3.6 230 22:37 10.10.2019
6445 Clouds 10 1014 87 10000 3.6 230 22:19 10.10.2019
6446 Rain 10 1013 81 10000 4.1 240 21:54 10.10.2019
6447 Rain 10 1013 81 10000 6.2 260 21:36 10.10.2019
6448 Rain 10 1013 81 10000 6.2 260 21:18 10.10.2019
6449 Rain 11 1013 81 10000 5.1 220 20:41 10.10.2019
6450 Clear 11 1012 81 10000 5.1 240 20:21 10.10.2019
6451 Clear 11 1012 81 10000 5.1 240 20:21 10.10.2019
6452 Clear 11 1012 81 10000 5.7 240 19:58 10.10.2019
6453 Clear 11 1012 81 10000 5.7 240 19:39 10.10.2019
6454 Clear 11 1012 81 10000 5.7 240 19:20 10.10.2019
6455 Clouds 11 1011 76 10000 4.1 230 18:56 10.10.2019
6456 Clouds 12 1011 76 10000 4.1 230 18:38 10.10.2019
6457 Rain 12 1011 81 10000 4.6 240 18:19 10.10.2019
6458 Rain 13 1011 76 10000 4.1 250 17:41 10.10.2019
6459 Rain 14 1011 76 10000 5.1 290 17:20 10.10.2019
6460 Rain 15 1010 62 10000 6.7 260 16:59 10.10.2019
6461 Rain 15 1010 62 10000 6.7 260 16:41 10.10.2019
6462 Clouds 15 1010 58 10000 8.7 260 16:22 10.10.2019
6463 Rain 15 1010 62 10000 8.7 260 15:44 10.10.2019
6464 Rain 15 1010 71 10000 5.7 270 15:25 10.10.2019
6465 Rain 15 1010 71 10000 5.7 270 14:59 10.10.2019
6466 Rain 15 1010 71 10000 5.7 270 14:59 10.10.2019
6467 Rain 14 1010 58 10000 9.3 260 14:38 10.10.2019
6468 Rain 14 1010 58 10000 9.3 260 14:38 10.10.2019
6469 Rain 14 1010 62 10000 7.7 250 14:19 10.10.2019
6470 Rain 14 1009 71 10000 6.2 270 13:59 10.10.2019
6471 Rain 14 1009 71 10000 6.2 270 13:41 10.10.2019
6472 Rain 14 1009 76 10000 5.7 270 13:20 10.10.2019
6473 Clouds 14 1009 71 10000 7.2 250 12:57 10.10.2019
6474 Clouds 13 1009 71 10000 7.2 250 12:39 10.10.2019
6475 Clouds 13 1009 71 10000 6.2 260 12:19 10.10.2019
6476 Clouds 13 1009 71 10000 7.2 260 11:55 10.10.2019
6477 Clouds 13 1009 71 10000 7.2 260 11:37 10.10.2019
6478 Clouds 12 1008 76 10000 6.7 250 11:18 10.10.2019
6479 Clouds 12 1008 76 10000 6.2 240 10:44 10.10.2019
6480 Clouds 12 1008 81 10000 6.2 250 10:26 10.10.2019
6481 Clouds 11 1008 81 10000 6.2 240 09:56 10.10.2019
6482 Clouds 10 1008 81 10000 6.2 240 09:38 10.10.2019
6483 Clouds 10 1007 81 10000 5.7 220 09:19 10.10.2019
6484 Clouds 10 1007 87 10000 5.1 230 08:56 10.10.2019
6485 Clouds 10 1007 87 10000 5.1 230 08:37 10.10.2019
6486 Clouds 9 1007 87 10000 5.1 250 08:18 10.10.2019
6487 Clouds 10 1006 87 10000 5.1 250 07:44 10.10.2019
6488 Clouds 10 1006 87 10000 5.7 250 07:21 10.10.2019
6489 Clouds 10 1006 87 10000 6.7 250 06:48 10.10.2019
6490 Clouds 10 1006 87 10000 6.7 250 06:29 10.10.2019
6491 Rain 10 1005 87 10000 5.1 240 05:28 10.10.2019
6492 Rain 10 1005 87 10000 5.7 240 04:47 10.10.2019
6493 Clouds 10 1005 87 10000 4.1 230 04:26 10.10.2019
6494 Clouds 10 1005 87 10000 4.1 230 04:26 10.10.2019
6495 Rain 10 1005 93 10000 3.6 240 01:44 10.10.2019
6496 Rain 10 1005 93 10000 3.6 240 01:25 10.10.2019
6497 Rain 10 1005 93 10000 3.6 230 00:54 10.10.2019
6498 Rain 10 1005 93 10000 3.6 230 00:54 10.10.2019
6499 Rain 10 1005 93 10000 4.6 240 00:23 10.10.2019
6500 Rain 11 1005 93 10000 4.1 250 23:40 09.10.2019
6501 Rain 11 1004 93 10000 5.1 260 23:22 09.10.2019
6502 Rain 11 1004 87 10000 7.2 240 22:59 09.10.2019
6503 Rain 11 1004 87 10000 7.2 240 22:40 09.10.2019
6504 Rain 11 1004 81 10000 7.2 230 22:22 09.10.2019
6505 Rain 12 1004 81 10000 5.1 210 21:41 09.10.2019
6506 Rain 12 1004 87 10000 4.6 200 21:21 09.10.2019
6507 Rain 12 1004 76 10000 4.6 200 20:56 09.10.2019
6508 Rain 12 1004 76 10000 4.6 200 20:38 09.10.2019
6509 Rain 12 1004 76 10000 4.1 200 20:19 09.10.2019
6510 Rain 13 1004 71 10000 4.6 190 19:59 09.10.2019
6511 Rain 13 1004 71 10000 4.6 190 19:59 09.10.2019
6512 Rain 13 1004 71 10000 4.6 190 19:59 09.10.2019
6513 Rain 13 1004 71 10000 4.6 190 19:40 09.10.2019
6514 Clouds 13 1005 71 10000 3.1 190 19:22 09.10.2019
6515 Clear 14 1005 71 10000 3.1 190 18:39 09.10.2019
6516 Clear 14 1005 62 10000 3.6 210 18:21 09.10.2019
6517 Clear 15 1005 62 10000 4.1 210 17:58 09.10.2019
6518 Clear 15 1005 62 10000 4.1 210 17:40 09.10.2019
6519 Clear 15 1005 62 10000 4.6 210 17:22 09.10.2019
6520 Clouds 15 1006 59 10000 6.2 220 16:57 09.10.2019
6521 Clouds 16 1006 59 10000 6.2 220 16:39 09.10.2019
6522 Clouds 16 1006 59 10000 6.2 220 16:39 09.10.2019
6523 Clouds 16 1006 59 10000 4.6 210 16:20 09.10.2019
6524 Clouds 16 1006 63 10000 5.1 220 15:57 09.10.2019
6525 Clouds 16 1006 63 10000 5.1 220 15:38 09.10.2019
6526 Rain 16 1006 63 10000 6.2 220 15:19 09.10.2019
6527 Rain 16 1006 63 10000 5.7 210 14:55 09.10.2019
6528 Rain 16 1006 63 10000 5.7 210 14:36 09.10.2019
6529 Rain 16 1006 63 10000 5.7 210 14:36 09.10.2019
6530 Clouds 16 1007 62 10000 5.1 220 14:18 09.10.2019
6531 Rain 16 1007 59 10000 6.7 210 13:38 09.10.2019
6532 Clouds 16 1007 67 10000 6.2 230 13:19 09.10.2019
6533 Clouds 16 1007 67 10000 6.2 230 12:56 09.10.2019
6534 Clouds 16 1007 67 10000 6.7 250 12:37 09.10.2019
6535 Clouds 15 1007 67 10000 7.7 240 12:19 09.10.2019
6536 Clouds 15 1008 67 10000 7.7 240 11:54 09.10.2019
6537 Clouds 15 1008 67 10000 7.7 240 11:36 09.10.2019
6538 Clouds 14 1008 72 10000 5.7 220 11:18 09.10.2019
6539 Clouds 14 1008 82 10000 6.7 220 10:42 09.10.2019
6540 Clouds 13 1008 82 10000 5.7 220 10:20 09.10.2019
6541 Clouds 12 1008 81 10000 4.6 210 09:57 09.10.2019
6542 Clouds 11 1008 81 10000 4.6 210 09:38 09.10.2019
6543 Clouds 11 1008 81 10000 4.6 210 09:38 09.10.2019
6544 Clouds 11 1008 87 10000 3.6 200 09:18 09.10.2019
6545 Clear 10 1008 87 10000 4.1 220 08:39 09.10.2019
6546 Clear 10 1007 87 10000 4.1 220 08:21 09.10.2019
6547 Clouds 10 1007 87 10000 4.6 220 07:48 09.10.2019
6548 Clouds 10 1007 87 10000 4.6 230 07:27 09.10.2019
6549 Clouds 10 1007 87 10000 4.6 230 07:27 09.10.2019
6550 Clouds 10 1007 87 10000 4.1 220 06:59 09.10.2019
6551 Clouds 10 1007 87 10000 4.1 220 06:41 09.10.2019
6552 Clouds 10 1006 93 10000 3.6 230 05:55 09.10.2019
6553 Clouds 10 1006 93 10000 3.6 240 05:19 09.10.2019
6554 Rain 11 1005 100 10000 3.6 250 04:20 09.10.2019
6555 Clouds 11 1005 93 10000 3.1 250 02:45 09.10.2019
6556 Rain 12 1005 93 0 3.6 240 01:42 09.10.2019
6557 Clouds 12 1005 93 10000 2.6 240 01:19 09.10.2019
6558 Clouds 12 1005 93 10000 2.6 240 01:19 09.10.2019
6559 Clouds 12 1004 93 10000 2.6 230 00:56 09.10.2019
6560 Clouds 12 1004 93 10000 2.6 230 00:38 09.10.2019
6561 Clouds 12 1004 93 10000 2.6 230 00:38 09.10.2019
6562 Clouds 12 1004 93 10000 3.6 220 00:19 09.10.2019
6563 Clouds 12 1005 93 10000 3.6 220 23:39 08.10.2019
6564 Clouds 12 1005 93 10000 3.1 220 23:18 08.10.2019
6565 Clouds 12 1005 93 10000 4.1 210 22:56 08.10.2019
6566 Clouds 12 1005 93 10000 4.1 210 22:38 08.10.2019
6567 Clear 12 1005 93 10000 3.1 210 22:19 08.10.2019
6568 Clear 12 1004 93 10000 3.6 200 21:57 08.10.2019
6569 Clear 12 1004 93 10000 3.6 200 21:38 08.10.2019
6570 Clouds 12 1004 93 10000 2.6 210 21:19 08.10.2019
6571 Clouds 12 1004 93 10000 2.6 210 21:19 08.10.2019
6572 Clouds 12 1005 93 10000 4.1 210 20:56 08.10.2019
6573 Clouds 12 1005 93 10000 4.1 210 20:37 08.10.2019
6574 Clouds 12 1005 93 10000 4.1 220 20:19 08.10.2019
6575 Clouds 12 1005 93 10000 3.1 230 19:56 08.10.2019
6576 Clouds 12 1005 93 10000 3.1 230 19:37 08.10.2019
6577 Clouds 13 1005 93 10000 3.1 240 19:19 08.10.2019
6578 Clouds 13 1004 93 10000 4.6 220 18:46 08.10.2019
6579 Rain 13 1004 93 10000 4.6 230 18:27 08.10.2019
6580 Clouds 13 1005 87 10000 5.1 240 17:59 08.10.2019
6581 Clouds 13 1005 87 10000 5.1 240 17:40 08.10.2019
6582 Clouds 13 1004 87 10000 4.6 250 17:20 08.10.2019
6583 Clouds 13 1004 93 10000 5.1 260 16:57 08.10.2019
6584 Clouds 13 1004 93 10000 5.1 260 16:38 08.10.2019
6585 Clouds 13 1004 93 10000 5.1 250 16:20 08.10.2019
6586 Drizzle 12 1004 93 10000 5.1 250 15:41 08.10.2019
6587 Drizzle 12 1004 93 10000 5.1 250 15:21 08.10.2019
6588 Drizzle 12 1004 93 10000 6.7 240 14:58 08.10.2019
6589 Rain 12 1004 93 10000 6.7 240 14:39 08.10.2019
6590 Rain 11 1004 93 4500 6.2 230 14:20 08.10.2019
6591 Rain 11 1005 93 4500 6.7 230 13:57 08.10.2019
6592 Rain 11 1005 93 4500 6.7 230 13:38 08.10.2019
6593 Rain 11 1005 93 4500 6.7 200 13:19 08.10.2019
6594 Rain 11 1005 93 4500 6.7 200 13:19 08.10.2019
6595 Rain 11 1005 93 8000 6.2 200 12:58 08.10.2019
6596 Rain 11 1005 93 8000 6.2 200 12:37 08.10.2019
6597 Rain 11 1005 100 4200 5.1 200 12:18 08.10.2019
6598 Rain 10 1006 93 4200 5.1 200 11:42 08.10.2019
6599 Rain 10 1006 93 6000 4.6 190 11:24 08.10.2019
6600 Rain 10 1006 93 6000 4.6 190 10:58 08.10.2019
6601 Rain 9 1007 93 6000 4.1 200 10:37 08.10.2019
6602 Rain 9 1007 93 10000 3.6 200 10:19 08.10.2019
6603 Rain 9 1008 87 10000 3.6 190 09:56 08.10.2019
6604 Rain 9 1008 87 10000 3.6 190 09:37 08.10.2019
6605 Rain 8 1008 81 10000 3.6 190 09:19 08.10.2019
6606 Clouds 8 1009 81 10000 3.6 190 08:42 08.10.2019
6607 Clouds 8 1009 81 10000 3.6 190 08:23 08.10.2019
6608 Clouds 7 1009 81 10000 4.1 180 07:45 08.10.2019
6609 Clouds 7 1010 75 10000 4.6 180 07:21 08.10.2019
6610 Clouds 7 1010 75 10000 4.6 180 06:56 08.10.2019
6611 Clouds 6 1011 75 10000 3.6 180 06:32 08.10.2019
6612 Clear 6 1011 75 10000 4.1 170 05:55 08.10.2019
6613 Clear 6 1011 75 10000 4.1 170 05:36 08.10.2019
6614 Clear 6 1011 75 10000 4.1 170 05:36 08.10.2019
6615 Clear 6 1013 65 10000 3.1 180 04:36 08.10.2019
6616 Clear 5 1013 65 10000 2.6 160 03:29 08.10.2019
6617 Clear 5 1015 75 10000 2.6 140 02:39 08.10.2019
6618 Clear 5 1016 80 10000 0.5 0 01:49 08.10.2019
6619 Clear 4 1016 80 10000 0.5 0 01:31 08.10.2019
6620 Clear 4 1016 80 10000 3.49 164.96 00:51 08.10.2019
6621 Clear 5 1017 80 10000 1 0 00:22 08.10.2019
6622 Clear 5 1017 80 10000 1.5 170 23:42 07.10.2019
6623 Clear 4 1018 75 10000 1.5 210 23:21 07.10.2019
6624 Clear 5 1018 86 10000 1 0 22:58 07.10.2019
6625 Clear 5 1018 86 10000 1 0 22:40 07.10.2019
6626 Clear 5 1018 80 10000 0.5 0 22:21 07.10.2019
6627 Clear 5 1018 80 10000 0.5 0 21:58 07.10.2019
6628 Clear 5 1018 80 10000 2.17 188.496 21:40 07.10.2019
6629 Clear 5 1018 75 10000 1 0 21:20 07.10.2019
6630 Clear 5 1019 70 10000 1 0 20:58 07.10.2019
6631 Clear 5 1019 70 10000 1 0 20:39 07.10.2019
6632 Clear 6 1018 70 10000 1 0 20:21 07.10.2019
6633 Clear 7 1019 65 10000 0.5 90 19:59 07.10.2019
6634 Clear 7 1019 65 10000 0.5 90 19:40 07.10.2019
6635 Clear 8 1019 65 10000 0.5 0 19:20 07.10.2019
6636 Clear 8 1019 61 10000 1 0 18:58 07.10.2019
6637 Clear 9 1019 61 10000 1 0 18:39 07.10.2019
6638 Clear 10 1019 57 10000 1 0 18:19 07.10.2019
6639 -273 0 0 0 0 0 17:54 07.10.2019
6640 Clear 11 1019 50 10000 2.6 280 17:54 07.10.2019
6641 Clear 12 1019 50 10000 2.6 280 17:36 07.10.2019
6642 Clear 12 1019 48 10000 3.1 260 17:18 07.10.2019
6643 Clear 12 1019 43 10000 1 0 16:43 07.10.2019
6644 Clouds 12 1019 46 10000 0.5 0 16:25 07.10.2019
6645 Clouds 12 1019 46 10000 1 0 15:46 07.10.2019
6646 Clouds 12 1020 46 10000 2.1 270 15:27 07.10.2019
6647 Clouds 12 1020 46 10000 1.5 0 14:59 07.10.2019
6648 Clouds 12 1020 46 10000 1.5 0 14:59 07.10.2019
6649 Clouds 12 1020 46 10000 1.5 0 14:40 07.10.2019
6650 Clouds 12 1020 50 10000 1.5 290 14:22 07.10.2019
6651 Clouds 12 1021 46 10000 1 0 13:44 07.10.2019
6652 Clouds 12 1021 53 10000 2.1 200 13:21 07.10.2019
6653 Clouds 12 1021 53 10000 1.5 240 12:58 07.10.2019
6654 Clouds 11 1021 53 10000 1.5 240 12:39 07.10.2019
6655 Clouds 11 1021 57 10000 2.1 260 12:20 07.10.2019
6656 Clear 10 1021 53 10000 1.5 300 11:59 07.10.2019
6657 Clear 10 1021 53 10000 1.5 300 11:40 07.10.2019
6658 Clear 10 1021 53 10000 1.5 300 11:40 07.10.2019
6659 Clear 9 1021 61 10000 1 0 11:21 07.10.2019
6660 Clear 8 1021 65 10000 1 0 10:56 07.10.2019
6661 Clear 7 1021 65 10000 1 0 10:37 07.10.2019
6662 Clear 8 1021 65 10000 1 0 10:37 07.10.2019
6663 Clear 6 1021 75 10000 1 0 10:19 07.10.2019
6664 Clear 4 1021 75 10000 1 0 09:38 07.10.2019
6665 Clear 3 1020 86 10000 0.5 0 09:20 07.10.2019
6666 Fog 2 1020 82 10000 0.5 0 08:44 07.10.2019
6667 Fog 2 1020 82 10000 0.5 0 08:44 07.10.2019
6668 Clear 1 1020 82 10000 0.5 0 08:21 07.10.2019
6669 Clear 0 1020 82 10000 0.5 350 07:56 07.10.2019
6670 Clear 0 1020 82 10000 0.5 350 07:38 07.10.2019
6671 Clear 0 1020 82 10000 0.5 0 07:19 07.10.2019
6672 Clear 0 1020 82 10000 0.5 260 06:43 07.10.2019
6673 Clear 1 1020 100 10000 0.5 320 06:22 07.10.2019
6674 Clear 1 1020 82 10000 0.5 0 05:27 07.10.2019
6675 Clear 1 1020 82 10000 0.5 0 04:56 07.10.2019
6676 Clear 1 1019 82 10000 1.52 68.122 04:19 07.10.2019
6677 Clear 1 1019 100 10000 0.5 0 03:39 07.10.2019
6678 Clear 1 1019 100 10000 0.5 0 03:39 07.10.2019
6679 Clear 2 1019 100 10000 0.5 230 02:55 07.10.2019
6680 Clear 2 1019 93 10000 1 0 02:20 07.10.2019
6681 Clear 2 1019 93 10000 2.21 72.066 01:42 07.10.2019
6682 Clear 3 1019 86 10000 1.5 50 01:18 07.10.2019
6683 Clear 3 1019 86 10000 1.5 60 00:38 07.10.2019
6684 Clear 4 1019 86 10000 1.5 70 00:19 07.10.2019
6685 Clear 4 1019 86 10000 1.5 60 23:42 06.10.2019
6686 Clear 4 1019 86 10000 1.5 70 23:21 06.10.2019
6687 Clear 4 1019 86 10000 2.1 60 22:59 06.10.2019
6688 Clear 5 1019 86 10000 2.1 60 22:40 06.10.2019
6689 Clear 5 1019 86 10000 2.1 60 22:21 06.10.2019
6690 Clear 5 1019 86 10000 2.1 60 22:21 06.10.2019
6691 Clear 5 1018 81 10000 2.1 60 21:57 06.10.2019
6692 Clear 6 1018 81 10000 2.1 60 21:37 06.10.2019
6693 Clear 6 1019 81 10000 1.5 70 21:19 06.10.2019
6694 Clear 6 1019 75 10000 1.5 70 20:57 06.10.2019
6695 Clear 6 1019 75 10000 1.5 70 20:39 06.10.2019
6696 Clear 6 1019 75 10000 1.5 70 20:39 06.10.2019
6697 Clear 7 1019 75 10000 2.1 50 20:20 06.10.2019
6698 Clear 7 1018 70 10000 2.1 70 19:57 06.10.2019
6699 Clear 7 1018 70 10000 2.1 70 19:57 06.10.2019
6700 Clear 7 1018 70 10000 2.1 70 19:37 06.10.2019
6701 Clear 8 1018 65 10000 1.5 80 19:19 06.10.2019
6702 Clear 8 1018 65 10000 1.5 80 19:19 06.10.2019
6703 Clear 8 1018 61 10000 2.6 90 18:56 06.10.2019
6704 Clear 8 1018 61 10000 2.6 90 18:38 06.10.2019
6705 Clouds 9 1018 53 10000 3.6 100 18:19 06.10.2019
6706 Clouds 9 1019 57 10000 3.1 100 17:57 06.10.2019
6707 Clouds 10 1019 57 10000 3.1 100 17:38 06.10.2019
6708 Clouds 10 1019 57 10000 4.1 100 17:18 06.10.2019
6709 Clouds 10 1019 57 10000 4.1 130 16:42 06.10.2019
6710 Clouds 11 1019 53 10000 4.1 100 16:23 06.10.2019
6711 Clouds 11 1019</